<?xml version="1.0" encoding="UTF-8" standalone="no" ?>
<gpx xmlns="http://www.topografix.com/GPX/1/1" xmlns:xsi="http://www.w3.org/2001/XMLSchema-instance" xsi:schemaLocation="http://www.topografix.com/GPX/1/1 http://www.topografix.com/GPX/1/1/gpx.xsd" version="1.1" creator="VisuGPX - https://www.visugpx.com">
  <metadata>
    <name>Concentration  des abbayes 2016 parcours 30 km</name>
    <desc><![CDATA[abbayes 2016 parcours 30 km]]></desc>
  </metadata>
  <trk>
    <name><![CDATA[2016-04-24-01]]></name>
    <trkseg>
      <trkpt lat="49.48373" lon="0.80258">
        <ele>-39.9</ele>
        <time>2016-04-24T06:19:04Z</time>
      </trkpt>
      <trkpt lat="49.48373" lon="0.80258">
        <ele>-37.2</ele>
        <time>2016-04-24T06:19:05Z</time>
      </trkpt>
      <trkpt lat="49.48381" lon="0.80251">
        <ele>3.1</ele>
        <time>2016-04-24T06:21:02Z</time>
      </trkpt>
      <trkpt lat="49.48388" lon="0.80241">
        <ele>3.1</ele>
        <time>2016-04-24T06:21:06Z</time>
      </trkpt>
      <trkpt lat="49.48395" lon="0.80228">
        <ele>3.1</ele>
        <time>2016-04-24T06:21:11Z</time>
      </trkpt>
      <trkpt lat="49.48403" lon="0.80221">
        <ele>3.1</ele>
        <time>2016-04-24T06:21:15Z</time>
      </trkpt>
      <trkpt lat="49.48411" lon="0.80212">
        <ele>3.1</ele>
        <time>2016-04-24T06:21:19Z</time>
      </trkpt>
      <trkpt lat="49.48419" lon="0.80203">
        <ele>3.1</ele>
        <time>2016-04-24T06:21:23Z</time>
      </trkpt>
      <trkpt lat="49.48429" lon="0.80203">
        <ele>3.1</ele>
        <time>2016-04-24T06:21:27Z</time>
      </trkpt>
      <trkpt lat="49.48439" lon="0.8021">
        <ele>3.1</ele>
        <time>2016-04-24T06:21:31Z</time>
      </trkpt>
      <trkpt lat="49.48447" lon="0.80217">
        <ele>3.2</ele>
        <time>2016-04-24T06:21:34Z</time>
      </trkpt>
      <trkpt lat="49.48458" lon="0.80225">
        <ele>3.2</ele>
        <time>2016-04-24T06:21:38Z</time>
      </trkpt>
      <trkpt lat="49.48467" lon="0.80231">
        <ele>3.2</ele>
        <time>2016-04-24T06:21:42Z</time>
      </trkpt>
      <trkpt lat="49.48477" lon="0.8024">
        <ele>3.2</ele>
        <time>2016-04-24T06:21:47Z</time>
      </trkpt>
      <trkpt lat="49.48486" lon="0.80246">
        <ele>3.2</ele>
        <time>2016-04-24T06:21:51Z</time>
      </trkpt>
      <trkpt lat="49.48494" lon="0.80252">
        <ele>3.2</ele>
        <time>2016-04-24T06:21:55Z</time>
      </trkpt>
      <trkpt lat="49.48503" lon="0.80259">
        <ele>3.2</ele>
        <time>2016-04-24T06:21:59Z</time>
      </trkpt>
      <trkpt lat="49.48513" lon="0.80265">
        <ele>3.3</ele>
        <time>2016-04-24T06:22:03Z</time>
      </trkpt>
      <trkpt lat="49.48522" lon="0.8027">
        <ele>3.4</ele>
        <time>2016-04-24T06:22:06Z</time>
      </trkpt>
      <trkpt lat="49.48532" lon="0.80276">
        <ele>3.4</ele>
        <time>2016-04-24T06:22:09Z</time>
      </trkpt>
      <trkpt lat="49.48542" lon="0.80283">
        <ele>3.4</ele>
        <time>2016-04-24T06:22:12Z</time>
      </trkpt>
      <trkpt lat="49.48551" lon="0.8029">
        <ele>3.5</ele>
        <time>2016-04-24T06:22:15Z</time>
      </trkpt>
      <trkpt lat="49.4856" lon="0.80295">
        <ele>3.5</ele>
        <time>2016-04-24T06:22:18Z</time>
      </trkpt>
      <trkpt lat="49.48568" lon="0.80301">
        <ele>3.5</ele>
        <time>2016-04-24T06:22:21Z</time>
      </trkpt>
      <trkpt lat="49.48579" lon="0.80308">
        <ele>3.5</ele>
        <time>2016-04-24T06:22:25Z</time>
      </trkpt>
      <trkpt lat="49.48588" lon="0.80314">
        <ele>3.6</ele>
        <time>2016-04-24T06:22:28Z</time>
      </trkpt>
      <trkpt lat="49.48596" lon="0.80319">
        <ele>3.6</ele>
        <time>2016-04-24T06:22:31Z</time>
      </trkpt>
      <trkpt lat="49.48606" lon="0.80324">
        <ele>3.6</ele>
        <time>2016-04-24T06:22:34Z</time>
      </trkpt>
      <trkpt lat="49.48614" lon="0.8033">
        <ele>3.6</ele>
        <time>2016-04-24T06:22:37Z</time>
      </trkpt>
      <trkpt lat="49.48623" lon="0.80336">
        <ele>3.6</ele>
        <time>2016-04-24T06:22:40Z</time>
      </trkpt>
      <trkpt lat="49.48633" lon="0.80343">
        <ele>3.6</ele>
        <time>2016-04-24T06:22:44Z</time>
      </trkpt>
      <trkpt lat="49.48644" lon="0.80349">
        <ele>3.7</ele>
        <time>2016-04-24T06:22:48Z</time>
      </trkpt>
      <trkpt lat="49.48653" lon="0.80356">
        <ele>3.9</ele>
        <time>2016-04-24T06:22:52Z</time>
      </trkpt>
      <trkpt lat="49.48663" lon="0.80363">
        <ele>4.1</ele>
        <time>2016-04-24T06:22:56Z</time>
      </trkpt>
      <trkpt lat="49.48673" lon="0.80369">
        <ele>4.2</ele>
        <time>2016-04-24T06:23:00Z</time>
      </trkpt>
      <trkpt lat="49.48683" lon="0.80376">
        <ele>4.3</ele>
        <time>2016-04-24T06:23:04Z</time>
      </trkpt>
      <trkpt lat="49.48692" lon="0.80385">
        <ele>4.4</ele>
        <time>2016-04-24T06:23:08Z</time>
      </trkpt>
      <trkpt lat="49.48699" lon="0.80394">
        <ele>4.6</ele>
        <time>2016-04-24T06:23:12Z</time>
      </trkpt>
      <trkpt lat="49.48706" lon="0.80404">
        <ele>4.7</ele>
        <time>2016-04-24T06:23:16Z</time>
      </trkpt>
      <trkpt lat="49.4871" lon="0.80418">
        <ele>5.1</ele>
        <time>2016-04-24T06:23:21Z</time>
      </trkpt>
      <trkpt lat="49.48713" lon="0.80431">
        <ele>5.5</ele>
        <time>2016-04-24T06:23:25Z</time>
      </trkpt>
      <trkpt lat="49.48716" lon="0.80447">
        <ele>5.9</ele>
        <time>2016-04-24T06:23:30Z</time>
      </trkpt>
      <trkpt lat="49.48718" lon="0.80461">
        <ele>6.5</ele>
        <time>2016-04-24T06:23:35Z</time>
      </trkpt>
      <trkpt lat="49.48724" lon="0.80472">
        <ele>7</ele>
        <time>2016-04-24T06:23:40Z</time>
      </trkpt>
      <trkpt lat="49.48732" lon="0.80481">
        <ele>7.4</ele>
        <time>2016-04-24T06:23:44Z</time>
      </trkpt>
      <trkpt lat="49.4874" lon="0.80491">
        <ele>7.9</ele>
        <time>2016-04-24T06:23:49Z</time>
      </trkpt>
      <trkpt lat="49.48746" lon="0.80503">
        <ele>8.6</ele>
        <time>2016-04-24T06:23:54Z</time>
      </trkpt>
      <trkpt lat="49.48751" lon="0.80516">
        <ele>9.5</ele>
        <time>2016-04-24T06:24:00Z</time>
      </trkpt>
      <trkpt lat="49.48742" lon="0.80526">
        <ele>10.2</ele>
        <time>2016-04-24T06:24:06Z</time>
      </trkpt>
      <trkpt lat="49.48735" lon="0.80535">
        <ele>10.6</ele>
        <time>2016-04-24T06:24:10Z</time>
      </trkpt>
      <trkpt lat="49.48726" lon="0.80545">
        <ele>10.9</ele>
        <time>2016-04-24T06:24:14Z</time>
      </trkpt>
      <trkpt lat="49.48718" lon="0.80556">
        <ele>11.2</ele>
        <time>2016-04-24T06:24:18Z</time>
      </trkpt>
      <trkpt lat="49.4871" lon="0.80566">
        <ele>11.4</ele>
        <time>2016-04-24T06:24:22Z</time>
      </trkpt>
      <trkpt lat="49.48702" lon="0.80575">
        <ele>11.7</ele>
        <time>2016-04-24T06:24:26Z</time>
      </trkpt>
      <trkpt lat="49.48694" lon="0.80583">
        <ele>11.9</ele>
        <time>2016-04-24T06:24:29Z</time>
      </trkpt>
      <trkpt lat="49.48687" lon="0.80593">
        <ele>12.2</ele>
        <time>2016-04-24T06:24:32Z</time>
      </trkpt>
      <trkpt lat="49.48678" lon="0.80601">
        <ele>12.4</ele>
        <time>2016-04-24T06:24:35Z</time>
      </trkpt>
      <trkpt lat="49.48669" lon="0.80614">
        <ele>12.6</ele>
        <time>2016-04-24T06:24:39Z</time>
      </trkpt>
      <trkpt lat="49.48662" lon="0.80624">
        <ele>12.8</ele>
        <time>2016-04-24T06:24:42Z</time>
      </trkpt>
      <trkpt lat="49.48653" lon="0.80634">
        <ele>13.1</ele>
        <time>2016-04-24T06:24:46Z</time>
      </trkpt>
      <trkpt lat="49.48645" lon="0.80642">
        <ele>13.4</ele>
        <time>2016-04-24T06:24:50Z</time>
      </trkpt>
      <trkpt lat="49.48635" lon="0.8065">
        <ele>13.7</ele>
        <time>2016-04-24T06:24:54Z</time>
      </trkpt>
      <trkpt lat="49.48625" lon="0.80658">
        <ele>13.9</ele>
        <time>2016-04-24T06:24:58Z</time>
      </trkpt>
      <trkpt lat="49.48615" lon="0.80665">
        <ele>14.1</ele>
        <time>2016-04-24T06:25:02Z</time>
      </trkpt>
      <trkpt lat="49.48604" lon="0.80671">
        <ele>14.3</ele>
        <time>2016-04-24T06:25:06Z</time>
      </trkpt>
      <trkpt lat="49.48594" lon="0.80677">
        <ele>14.4</ele>
        <time>2016-04-24T06:25:10Z</time>
      </trkpt>
      <trkpt lat="49.48582" lon="0.80682">
        <ele>14.5</ele>
        <time>2016-04-24T06:25:14Z</time>
      </trkpt>
      <trkpt lat="49.48573" lon="0.80688">
        <ele>14.5</ele>
        <time>2016-04-24T06:25:17Z</time>
      </trkpt>
      <trkpt lat="49.48565" lon="0.80697">
        <ele>14.6</ele>
        <time>2016-04-24T06:25:20Z</time>
      </trkpt>
      <trkpt lat="49.48567" lon="0.80712">
        <ele>15</ele>
        <time>2016-04-24T06:25:24Z</time>
      </trkpt>
      <trkpt lat="49.48576" lon="0.8072">
        <ele>15.5</ele>
        <time>2016-04-24T06:25:28Z</time>
      </trkpt>
      <trkpt lat="49.48585" lon="0.80729">
        <ele>16.1</ele>
        <time>2016-04-24T06:25:32Z</time>
      </trkpt>
      <trkpt lat="49.48594" lon="0.80739">
        <ele>16.7</ele>
        <time>2016-04-24T06:25:36Z</time>
      </trkpt>
      <trkpt lat="49.48602" lon="0.80748">
        <ele>17.5</ele>
        <time>2016-04-24T06:25:40Z</time>
      </trkpt>
      <trkpt lat="49.48611" lon="0.80759">
        <ele>18.2</ele>
        <time>2016-04-24T06:25:44Z</time>
      </trkpt>
      <trkpt lat="49.4862" lon="0.80769">
        <ele>18.8</ele>
        <time>2016-04-24T06:25:48Z</time>
      </trkpt>
      <trkpt lat="49.4863" lon="0.80777">
        <ele>19.3</ele>
        <time>2016-04-24T06:25:52Z</time>
      </trkpt>
      <trkpt lat="49.48639" lon="0.80783">
        <ele>19.8</ele>
        <time>2016-04-24T06:25:56Z</time>
      </trkpt>
      <trkpt lat="49.48648" lon="0.80788">
        <ele>20.4</ele>
        <time>2016-04-24T06:26:00Z</time>
      </trkpt>
      <trkpt lat="49.48658" lon="0.80793">
        <ele>21.2</ele>
        <time>2016-04-24T06:26:05Z</time>
      </trkpt>
      <trkpt lat="49.48668" lon="0.80798">
        <ele>22</ele>
        <time>2016-04-24T06:26:10Z</time>
      </trkpt>
      <trkpt lat="49.48678" lon="0.808">
        <ele>22.7</ele>
        <time>2016-04-24T06:26:15Z</time>
      </trkpt>
      <trkpt lat="49.48689" lon="0.80798">
        <ele>23.4</ele>
        <time>2016-04-24T06:26:20Z</time>
      </trkpt>
      <trkpt lat="49.48699" lon="0.80796">
        <ele>24.1</ele>
        <time>2016-04-24T06:26:25Z</time>
      </trkpt>
      <trkpt lat="49.48709" lon="0.80791">
        <ele>24.7</ele>
        <time>2016-04-24T06:26:30Z</time>
      </trkpt>
      <trkpt lat="49.48719" lon="0.80787">
        <ele>25.3</ele>
        <time>2016-04-24T06:26:35Z</time>
      </trkpt>
      <trkpt lat="49.48729" lon="0.80785">
        <ele>25.8</ele>
        <time>2016-04-24T06:26:40Z</time>
      </trkpt>
      <trkpt lat="49.48738" lon="0.80781">
        <ele>26.4</ele>
        <time>2016-04-24T06:26:45Z</time>
      </trkpt>
      <trkpt lat="49.48747" lon="0.80779">
        <ele>27.1</ele>
        <time>2016-04-24T06:26:50Z</time>
      </trkpt>
      <trkpt lat="49.48756" lon="0.80777">
        <ele>27.8</ele>
        <time>2016-04-24T06:26:55Z</time>
      </trkpt>
      <trkpt lat="49.48766" lon="0.80775">
        <ele>28.6</ele>
        <time>2016-04-24T06:27:01Z</time>
      </trkpt>
      <trkpt lat="49.48775" lon="0.80775">
        <ele>29.5</ele>
        <time>2016-04-24T06:27:07Z</time>
      </trkpt>
      <trkpt lat="49.48784" lon="0.80773">
        <ele>30.3</ele>
        <time>2016-04-24T06:27:13Z</time>
      </trkpt>
      <trkpt lat="49.48794" lon="0.80774">
        <ele>31.2</ele>
        <time>2016-04-24T06:27:19Z</time>
      </trkpt>
      <trkpt lat="49.48804" lon="0.80774">
        <ele>32.2</ele>
        <time>2016-04-24T06:27:26Z</time>
      </trkpt>
      <trkpt lat="49.48814" lon="0.80773">
        <ele>33.2</ele>
        <time>2016-04-24T06:27:33Z</time>
      </trkpt>
      <trkpt lat="49.48824" lon="0.80773">
        <ele>34.3</ele>
        <time>2016-04-24T06:27:40Z</time>
      </trkpt>
      <trkpt lat="49.48833" lon="0.80774">
        <ele>35.5</ele>
        <time>2016-04-24T06:27:47Z</time>
      </trkpt>
      <trkpt lat="49.48843" lon="0.80775">
        <ele>36.5</ele>
        <time>2016-04-24T06:27:54Z</time>
      </trkpt>
      <trkpt lat="49.48853" lon="0.80775">
        <ele>37.9</ele>
        <time>2016-04-24T06:28:03Z</time>
      </trkpt>
      <trkpt lat="49.48862" lon="0.80776">
        <ele>39.2</ele>
        <time>2016-04-24T06:28:11Z</time>
      </trkpt>
      <trkpt lat="49.48874" lon="0.80786">
        <ele>48.8</ele>
        <time>2016-04-24T06:29:17Z</time>
      </trkpt>
      <trkpt lat="49.48874" lon="0.808">
        <ele>56</ele>
        <time>2016-04-24T06:30:08Z</time>
      </trkpt>
      <trkpt lat="49.48866" lon="0.80811">
        <ele>56.6</ele>
        <time>2016-04-24T06:30:14Z</time>
      </trkpt>
      <trkpt lat="49.48858" lon="0.8082">
        <ele>56.9</ele>
        <time>2016-04-24T06:30:18Z</time>
      </trkpt>
      <trkpt lat="49.4885" lon="0.80829">
        <ele>57.3</ele>
        <time>2016-04-24T06:30:23Z</time>
      </trkpt>
      <trkpt lat="49.48842" lon="0.8084">
        <ele>57.6</ele>
        <time>2016-04-24T06:30:28Z</time>
      </trkpt>
      <trkpt lat="49.48837" lon="0.80854">
        <ele>57.8</ele>
        <time>2016-04-24T06:30:33Z</time>
      </trkpt>
      <trkpt lat="49.4884" lon="0.8087">
        <ele>58</ele>
        <time>2016-04-24T06:30:36Z</time>
      </trkpt>
      <trkpt lat="49.48857" lon="0.80881">
        <ele>58</ele>
        <time>2016-04-24T06:30:41Z</time>
      </trkpt>
      <trkpt lat="49.48847" lon="0.80883">
        <ele>58.6</ele>
        <time>2016-04-24T06:30:48Z</time>
      </trkpt>
      <trkpt lat="49.48837" lon="0.80882">
        <ele>58.9</ele>
        <time>2016-04-24T06:30:53Z</time>
      </trkpt>
      <trkpt lat="49.48826" lon="0.80881">
        <ele>59.2</ele>
        <time>2016-04-24T06:30:58Z</time>
      </trkpt>
      <trkpt lat="49.48816" lon="0.80883">
        <ele>59.5</ele>
        <time>2016-04-24T06:31:02Z</time>
      </trkpt>
      <trkpt lat="49.48807" lon="0.80888">
        <ele>59.9</ele>
        <time>2016-04-24T06:31:07Z</time>
      </trkpt>
      <trkpt lat="49.48798" lon="0.80895">
        <ele>60.2</ele>
        <time>2016-04-24T06:31:12Z</time>
      </trkpt>
      <trkpt lat="49.48791" lon="0.80904">
        <ele>60.6</ele>
        <time>2016-04-24T06:31:17Z</time>
      </trkpt>
      <trkpt lat="49.48783" lon="0.80914">
        <ele>61.2</ele>
        <time>2016-04-24T06:31:23Z</time>
      </trkpt>
      <trkpt lat="49.48776" lon="0.80925">
        <ele>61.8</ele>
        <time>2016-04-24T06:31:29Z</time>
      </trkpt>
      <trkpt lat="49.4877" lon="0.80939">
        <ele>62.4</ele>
        <time>2016-04-24T06:31:33Z</time>
      </trkpt>
      <trkpt lat="49.48764" lon="0.80953">
        <ele>62.8</ele>
        <time>2016-04-24T06:31:37Z</time>
      </trkpt>
      <trkpt lat="49.4876" lon="0.80965">
        <ele>63.1</ele>
        <time>2016-04-24T06:31:41Z</time>
      </trkpt>
      <trkpt lat="49.48756" lon="0.80979">
        <ele>63.3</ele>
        <time>2016-04-24T06:31:45Z</time>
      </trkpt>
      <trkpt lat="49.48752" lon="0.80992">
        <ele>63.5</ele>
        <time>2016-04-24T06:31:49Z</time>
      </trkpt>
      <trkpt lat="49.48752" lon="0.81007">
        <ele>63.7</ele>
        <time>2016-04-24T06:31:53Z</time>
      </trkpt>
      <trkpt lat="49.4875" lon="0.81023">
        <ele>63.9</ele>
        <time>2016-04-24T06:31:57Z</time>
      </trkpt>
      <trkpt lat="49.48747" lon="0.81038">
        <ele>64</ele>
        <time>2016-04-24T06:32:00Z</time>
      </trkpt>
      <trkpt lat="49.4874" lon="0.81051">
        <ele>64.1</ele>
        <time>2016-04-24T06:32:04Z</time>
      </trkpt>
      <trkpt lat="49.48731" lon="0.81061">
        <ele>64</ele>
        <time>2016-04-24T06:32:07Z</time>
      </trkpt>
      <trkpt lat="49.48721" lon="0.81067">
        <ele>64</ele>
        <time>2016-04-24T06:32:10Z</time>
      </trkpt>
      <trkpt lat="49.48713" lon="0.81074">
        <ele>64</ele>
        <time>2016-04-24T06:32:14Z</time>
      </trkpt>
      <trkpt lat="49.48703" lon="0.81077">
        <ele>64.1</ele>
        <time>2016-04-24T06:32:18Z</time>
      </trkpt>
      <trkpt lat="49.48693" lon="0.81085">
        <ele>64.3</ele>
        <time>2016-04-24T06:32:22Z</time>
      </trkpt>
      <trkpt lat="49.48684" lon="0.8109">
        <ele>64.5</ele>
        <time>2016-04-24T06:32:26Z</time>
      </trkpt>
      <trkpt lat="49.48674" lon="0.81094">
        <ele>64.8</ele>
        <time>2016-04-24T06:32:30Z</time>
      </trkpt>
      <trkpt lat="49.48664" lon="0.81099">
        <ele>65.1</ele>
        <time>2016-04-24T06:32:34Z</time>
      </trkpt>
      <trkpt lat="49.48653" lon="0.81103">
        <ele>65.3</ele>
        <time>2016-04-24T06:32:38Z</time>
      </trkpt>
      <trkpt lat="49.48642" lon="0.81107">
        <ele>65.4</ele>
        <time>2016-04-24T06:32:42Z</time>
      </trkpt>
      <trkpt lat="49.48631" lon="0.81112">
        <ele>65.6</ele>
        <time>2016-04-24T06:32:46Z</time>
      </trkpt>
      <trkpt lat="49.48621" lon="0.81115">
        <ele>65.8</ele>
        <time>2016-04-24T06:32:50Z</time>
      </trkpt>
      <trkpt lat="49.48613" lon="0.81119">
        <ele>66</ele>
        <time>2016-04-24T06:32:54Z</time>
      </trkpt>
      <trkpt lat="49.48604" lon="0.81121">
        <ele>66.2</ele>
        <time>2016-04-24T06:32:58Z</time>
      </trkpt>
      <trkpt lat="49.48595" lon="0.81122">
        <ele>66.4</ele>
        <time>2016-04-24T06:33:01Z</time>
      </trkpt>
      <trkpt lat="49.48583" lon="0.81125">
        <ele>66.6</ele>
        <time>2016-04-24T06:33:05Z</time>
      </trkpt>
      <trkpt lat="49.48573" lon="0.81127">
        <ele>66.7</ele>
        <time>2016-04-24T06:33:09Z</time>
      </trkpt>
      <trkpt lat="49.48562" lon="0.8113">
        <ele>66.9</ele>
        <time>2016-04-24T06:33:13Z</time>
      </trkpt>
      <trkpt lat="49.48551" lon="0.81133">
        <ele>67.1</ele>
        <time>2016-04-24T06:33:17Z</time>
      </trkpt>
      <trkpt lat="49.48541" lon="0.81135">
        <ele>67.3</ele>
        <time>2016-04-24T06:33:21Z</time>
      </trkpt>
      <trkpt lat="49.4853" lon="0.81137">
        <ele>67.5</ele>
        <time>2016-04-24T06:33:25Z</time>
      </trkpt>
      <trkpt lat="49.48521" lon="0.8114">
        <ele>67.7</ele>
        <time>2016-04-24T06:33:28Z</time>
      </trkpt>
      <trkpt lat="49.48512" lon="0.81143">
        <ele>67.8</ele>
        <time>2016-04-24T06:33:31Z</time>
      </trkpt>
      <trkpt lat="49.48502" lon="0.81146">
        <ele>68</ele>
        <time>2016-04-24T06:33:35Z</time>
      </trkpt>
      <trkpt lat="49.48493" lon="0.8115">
        <ele>68.2</ele>
        <time>2016-04-24T06:33:39Z</time>
      </trkpt>
      <trkpt lat="49.48482" lon="0.81156">
        <ele>68.3</ele>
        <time>2016-04-24T06:33:43Z</time>
      </trkpt>
      <trkpt lat="49.48473" lon="0.81158">
        <ele>68.5</ele>
        <time>2016-04-24T06:33:47Z</time>
      </trkpt>
      <trkpt lat="49.48463" lon="0.81163">
        <ele>68.6</ele>
        <time>2016-04-24T06:33:51Z</time>
      </trkpt>
      <trkpt lat="49.48454" lon="0.81168">
        <ele>68.8</ele>
        <time>2016-04-24T06:33:55Z</time>
      </trkpt>
      <trkpt lat="49.48445" lon="0.81176">
        <ele>68.9</ele>
        <time>2016-04-24T06:33:59Z</time>
      </trkpt>
      <trkpt lat="49.48435" lon="0.81185">
        <ele>69.1</ele>
        <time>2016-04-24T06:34:04Z</time>
      </trkpt>
      <trkpt lat="49.48427" lon="0.81193">
        <ele>69.5</ele>
        <time>2016-04-24T06:34:08Z</time>
      </trkpt>
      <trkpt lat="49.4842" lon="0.81204">
        <ele>69.7</ele>
        <time>2016-04-24T06:34:11Z</time>
      </trkpt>
      <trkpt lat="49.48413" lon="0.81214">
        <ele>69.9</ele>
        <time>2016-04-24T06:34:14Z</time>
      </trkpt>
      <trkpt lat="49.48406" lon="0.81223">
        <ele>70.1</ele>
        <time>2016-04-24T06:34:18Z</time>
      </trkpt>
      <trkpt lat="49.48398" lon="0.81235">
        <ele>70.2</ele>
        <time>2016-04-24T06:34:22Z</time>
      </trkpt>
      <trkpt lat="49.4839" lon="0.81245">
        <ele>70.6</ele>
        <time>2016-04-24T06:34:26Z</time>
      </trkpt>
      <trkpt lat="49.48382" lon="0.81254">
        <ele>70.8</ele>
        <time>2016-04-24T06:34:30Z</time>
      </trkpt>
      <trkpt lat="49.48374" lon="0.81265">
        <ele>71</ele>
        <time>2016-04-24T06:34:34Z</time>
      </trkpt>
      <trkpt lat="49.48367" lon="0.81274">
        <ele>71.1</ele>
        <time>2016-04-24T06:34:38Z</time>
      </trkpt>
      <trkpt lat="49.48359" lon="0.81286">
        <ele>71.2</ele>
        <time>2016-04-24T06:34:42Z</time>
      </trkpt>
      <trkpt lat="49.4835" lon="0.81294">
        <ele>71.2</ele>
        <time>2016-04-24T06:34:45Z</time>
      </trkpt>
      <trkpt lat="49.48342" lon="0.81301">
        <ele>71.3</ele>
        <time>2016-04-24T06:34:48Z</time>
      </trkpt>
      <trkpt lat="49.48332" lon="0.81309">
        <ele>71.5</ele>
        <time>2016-04-24T06:34:52Z</time>
      </trkpt>
      <trkpt lat="49.48321" lon="0.81315">
        <ele>71.6</ele>
        <time>2016-04-24T06:34:56Z</time>
      </trkpt>
      <trkpt lat="49.48311" lon="0.8132">
        <ele>71.7</ele>
        <time>2016-04-24T06:35:00Z</time>
      </trkpt>
      <trkpt lat="49.483" lon="0.81325">
        <ele>71.8</ele>
        <time>2016-04-24T06:35:04Z</time>
      </trkpt>
      <trkpt lat="49.4829" lon="0.81332">
        <ele>71.9</ele>
        <time>2016-04-24T06:35:08Z</time>
      </trkpt>
      <trkpt lat="49.48281" lon="0.81341">
        <ele>71.9</ele>
        <time>2016-04-24T06:35:12Z</time>
      </trkpt>
      <trkpt lat="49.48273" lon="0.8135">
        <ele>71.9</ele>
        <time>2016-04-24T06:35:15Z</time>
      </trkpt>
      <trkpt lat="49.48264" lon="0.8136">
        <ele>72</ele>
        <time>2016-04-24T06:35:19Z</time>
      </trkpt>
      <trkpt lat="49.48255" lon="0.81369">
        <ele>72</ele>
        <time>2016-04-24T06:35:23Z</time>
      </trkpt>
      <trkpt lat="49.48245" lon="0.81377">
        <ele>72.1</ele>
        <time>2016-04-24T06:35:27Z</time>
      </trkpt>
      <trkpt lat="49.48235" lon="0.81385">
        <ele>72.1</ele>
        <time>2016-04-24T06:35:30Z</time>
      </trkpt>
      <trkpt lat="49.48227" lon="0.81391">
        <ele>72.1</ele>
        <time>2016-04-24T06:35:33Z</time>
      </trkpt>
      <trkpt lat="49.48217" lon="0.81399">
        <ele>72.3</ele>
        <time>2016-04-24T06:35:37Z</time>
      </trkpt>
      <trkpt lat="49.48207" lon="0.81406">
        <ele>72.4</ele>
        <time>2016-04-24T06:35:41Z</time>
      </trkpt>
      <trkpt lat="49.48199" lon="0.81413">
        <ele>72.5</ele>
        <time>2016-04-24T06:35:44Z</time>
      </trkpt>
      <trkpt lat="49.48191" lon="0.81421">
        <ele>72.6</ele>
        <time>2016-04-24T06:35:47Z</time>
      </trkpt>
      <trkpt lat="49.48181" lon="0.81428">
        <ele>72.8</ele>
        <time>2016-04-24T06:35:51Z</time>
      </trkpt>
      <trkpt lat="49.48173" lon="0.81435">
        <ele>73</ele>
        <time>2016-04-24T06:35:54Z</time>
      </trkpt>
      <trkpt lat="49.48162" lon="0.81441">
        <ele>73.1</ele>
        <time>2016-04-24T06:35:58Z</time>
      </trkpt>
      <trkpt lat="49.48152" lon="0.81446">
        <ele>73.2</ele>
        <time>2016-04-24T06:36:01Z</time>
      </trkpt>
      <trkpt lat="49.4814" lon="0.81449">
        <ele>73.3</ele>
        <time>2016-04-24T06:36:04Z</time>
      </trkpt>
      <trkpt lat="49.48129" lon="0.81451">
        <ele>73.3</ele>
        <time>2016-04-24T06:36:07Z</time>
      </trkpt>
      <trkpt lat="49.48119" lon="0.81454">
        <ele>73.2</ele>
        <time>2016-04-24T06:36:10Z</time>
      </trkpt>
      <trkpt lat="49.4811" lon="0.81457">
        <ele>73.2</ele>
        <time>2016-04-24T06:36:13Z</time>
      </trkpt>
      <trkpt lat="49.481" lon="0.81458">
        <ele>72.8</ele>
        <time>2016-04-24T06:36:16Z</time>
      </trkpt>
      <trkpt lat="49.48089" lon="0.81458">
        <ele>72.4</ele>
        <time>2016-04-24T06:36:20Z</time>
      </trkpt>
      <trkpt lat="49.48079" lon="0.81461">
        <ele>72.3</ele>
        <time>2016-04-24T06:36:23Z</time>
      </trkpt>
      <trkpt lat="49.48068" lon="0.81463">
        <ele>72.1</ele>
        <time>2016-04-24T06:36:27Z</time>
      </trkpt>
      <trkpt lat="49.48074" lon="0.81475">
        <ele>72</ele>
        <time>2016-04-24T06:36:54Z</time>
      </trkpt>
      <trkpt lat="49.48083" lon="0.81476">
        <ele>72.8</ele>
        <time>2016-04-24T06:37:01Z</time>
      </trkpt>
      <trkpt lat="49.48092" lon="0.81477">
        <ele>73.5</ele>
        <time>2016-04-24T06:37:07Z</time>
      </trkpt>
      <trkpt lat="49.48102" lon="0.8148">
        <ele>74.5</ele>
        <time>2016-04-24T06:37:13Z</time>
      </trkpt>
      <trkpt lat="49.48109" lon="0.8149">
        <ele>75.9</ele>
        <time>2016-04-24T06:37:21Z</time>
      </trkpt>
      <trkpt lat="49.48117" lon="0.81497">
        <ele>77.4</ele>
        <time>2016-04-24T06:37:29Z</time>
      </trkpt>
      <trkpt lat="49.48125" lon="0.81504">
        <ele>80.7</ele>
        <time>2016-04-24T06:38:00Z</time>
      </trkpt>
      <trkpt lat="49.48135" lon="0.8151">
        <ele>81.5</ele>
        <time>2016-04-24T06:38:10Z</time>
      </trkpt>
      <trkpt lat="49.48143" lon="0.81517">
        <ele>83</ele>
        <time>2016-04-24T06:38:22Z</time>
      </trkpt>
      <trkpt lat="49.48153" lon="0.81518">
        <ele>84.5</ele>
        <time>2016-04-24T06:38:33Z</time>
      </trkpt>
      <trkpt lat="49.48162" lon="0.8152">
        <ele>86.6</ele>
        <time>2016-04-24T06:38:47Z</time>
      </trkpt>
      <trkpt lat="49.48171" lon="0.81527">
        <ele>88.1</ele>
        <time>2016-04-24T06:38:58Z</time>
      </trkpt>
      <trkpt lat="49.48178" lon="0.81534">
        <ele>89.1</ele>
        <time>2016-04-24T06:39:06Z</time>
      </trkpt>
      <trkpt lat="49.48187" lon="0.81537">
        <ele>90.7</ele>
        <time>2016-04-24T06:39:16Z</time>
      </trkpt>
      <trkpt lat="49.48195" lon="0.81545">
        <ele>92.6</ele>
        <time>2016-04-24T06:39:29Z</time>
      </trkpt>
      <trkpt lat="49.48203" lon="0.81554">
        <ele>93.9</ele>
        <time>2016-04-24T06:39:40Z</time>
      </trkpt>
      <trkpt lat="49.48211" lon="0.8156">
        <ele>95.7</ele>
        <time>2016-04-24T06:39:54Z</time>
      </trkpt>
      <trkpt lat="49.4822" lon="0.81566">
        <ele>97.3</ele>
        <time>2016-04-24T06:40:05Z</time>
      </trkpt>
      <trkpt lat="49.48228" lon="0.81573">
        <ele>98.8</ele>
        <time>2016-04-24T06:40:16Z</time>
      </trkpt>
      <trkpt lat="49.48237" lon="0.81579">
        <ele>101.8</ele>
        <time>2016-04-24T06:40:39Z</time>
      </trkpt>
      <trkpt lat="49.48247" lon="0.81585">
        <ele>102.5</ele>
        <time>2016-04-24T06:40:47Z</time>
      </trkpt>
      <trkpt lat="49.48256" lon="0.81591">
        <ele>103.4</ele>
        <time>2016-04-24T06:40:54Z</time>
      </trkpt>
      <trkpt lat="49.48265" lon="0.81594">
        <ele>104.3</ele>
        <time>2016-04-24T06:41:03Z</time>
      </trkpt>
      <trkpt lat="49.48274" lon="0.816">
        <ele>105.5</ele>
        <time>2016-04-24T06:41:13Z</time>
      </trkpt>
      <trkpt lat="49.48283" lon="0.81606">
        <ele>106.8</ele>
        <time>2016-04-24T06:41:24Z</time>
      </trkpt>
      <trkpt lat="49.48293" lon="0.8161">
        <ele>107.5</ele>
        <time>2016-04-24T06:41:32Z</time>
      </trkpt>
      <trkpt lat="49.48302" lon="0.81612">
        <ele>108.1</ele>
        <time>2016-04-24T06:41:40Z</time>
      </trkpt>
      <trkpt lat="49.48312" lon="0.81617">
        <ele>108.8</ele>
        <time>2016-04-24T06:41:49Z</time>
      </trkpt>
      <trkpt lat="49.48319" lon="0.81626">
        <ele>109.4</ele>
        <time>2016-04-24T06:41:58Z</time>
      </trkpt>
      <trkpt lat="49.48321" lon="0.81641">
        <ele>109.7</ele>
        <time>2016-04-24T06:42:04Z</time>
      </trkpt>
      <trkpt lat="49.48324" lon="0.81655">
        <ele>110.1</ele>
        <time>2016-04-24T06:42:11Z</time>
      </trkpt>
      <trkpt lat="49.48324" lon="0.8167">
        <ele>110.6</ele>
        <time>2016-04-24T06:42:19Z</time>
      </trkpt>
      <trkpt lat="49.48322" lon="0.81685">
        <ele>110.8</ele>
        <time>2016-04-24T06:42:26Z</time>
      </trkpt>
      <trkpt lat="49.48315" lon="0.81695">
        <ele>111</ele>
        <time>2016-04-24T06:42:33Z</time>
      </trkpt>
      <trkpt lat="49.48308" lon="0.81706">
        <ele>111.2</ele>
        <time>2016-04-24T06:42:36Z</time>
      </trkpt>
      <trkpt lat="49.48299" lon="0.81714">
        <ele>111.3</ele>
        <time>2016-04-24T06:42:40Z</time>
      </trkpt>
      <trkpt lat="49.48289" lon="0.81721">
        <ele>111.3</ele>
        <time>2016-04-24T06:42:44Z</time>
      </trkpt>
      <trkpt lat="49.48277" lon="0.81726">
        <ele>111.3</ele>
        <time>2016-04-24T06:42:47Z</time>
      </trkpt>
      <trkpt lat="49.48267" lon="0.81729">
        <ele>111.4</ele>
        <time>2016-04-24T06:42:50Z</time>
      </trkpt>
      <trkpt lat="49.48257" lon="0.81731">
        <ele>111.4</ele>
        <time>2016-04-24T06:42:53Z</time>
      </trkpt>
      <trkpt lat="49.48246" lon="0.81733">
        <ele>111.4</ele>
        <time>2016-04-24T06:42:56Z</time>
      </trkpt>
      <trkpt lat="49.48234" lon="0.81735">
        <ele>111.4</ele>
        <time>2016-04-24T06:42:59Z</time>
      </trkpt>
      <trkpt lat="49.48221" lon="0.81737">
        <ele>111.4</ele>
        <time>2016-04-24T06:43:02Z</time>
      </trkpt>
      <trkpt lat="49.48212" lon="0.81737">
        <ele>111.4</ele>
        <time>2016-04-24T06:43:04Z</time>
      </trkpt>
      <trkpt lat="49.48199" lon="0.81737">
        <ele>111.5</ele>
        <time>2016-04-24T06:43:07Z</time>
      </trkpt>
      <trkpt lat="49.4819" lon="0.81737">
        <ele>111.5</ele>
        <time>2016-04-24T06:43:09Z</time>
      </trkpt>
      <trkpt lat="49.48181" lon="0.81737">
        <ele>111.3</ele>
        <time>2016-04-24T06:43:11Z</time>
      </trkpt>
      <trkpt lat="49.48171" lon="0.81737">
        <ele>111.1</ele>
        <time>2016-04-24T06:43:13Z</time>
      </trkpt>
      <trkpt lat="49.48162" lon="0.81737">
        <ele>111</ele>
        <time>2016-04-24T06:43:15Z</time>
      </trkpt>
      <trkpt lat="49.48151" lon="0.81738">
        <ele>110.7</ele>
        <time>2016-04-24T06:43:17Z</time>
      </trkpt>
      <trkpt lat="49.4814" lon="0.81739">
        <ele>110.5</ele>
        <time>2016-04-24T06:43:19Z</time>
      </trkpt>
      <trkpt lat="49.4813" lon="0.8174">
        <ele>110.2</ele>
        <time>2016-04-24T06:43:21Z</time>
      </trkpt>
      <trkpt lat="49.48119" lon="0.81743">
        <ele>109.9</ele>
        <time>2016-04-24T06:43:23Z</time>
      </trkpt>
      <trkpt lat="49.48107" lon="0.81747">
        <ele>109.6</ele>
        <time>2016-04-24T06:43:25Z</time>
      </trkpt>
      <trkpt lat="49.48095" lon="0.81753">
        <ele>109.1</ele>
        <time>2016-04-24T06:43:27Z</time>
      </trkpt>
      <trkpt lat="49.48083" lon="0.8176">
        <ele>108.7</ele>
        <time>2016-04-24T06:43:29Z</time>
      </trkpt>
      <trkpt lat="49.48068" lon="0.81768">
        <ele>108.3</ele>
        <time>2016-04-24T06:43:31Z</time>
      </trkpt>
      <trkpt lat="49.48053" lon="0.81777">
        <ele>107.9</ele>
        <time>2016-04-24T06:43:33Z</time>
      </trkpt>
      <trkpt lat="49.48038" lon="0.81784">
        <ele>107.5</ele>
        <time>2016-04-24T06:43:35Z</time>
      </trkpt>
      <trkpt lat="49.48028" lon="0.81791">
        <ele>107.1</ele>
        <time>2016-04-24T06:43:37Z</time>
      </trkpt>
      <trkpt lat="49.48017" lon="0.81799">
        <ele>106.6</ele>
        <time>2016-04-24T06:43:40Z</time>
      </trkpt>
      <trkpt lat="49.48012" lon="0.81811">
        <ele>106.3</ele>
        <time>2016-04-24T06:43:42Z</time>
      </trkpt>
      <trkpt lat="49.48011" lon="0.81828">
        <ele>105.9</ele>
        <time>2016-04-24T06:43:45Z</time>
      </trkpt>
      <trkpt lat="49.48012" lon="0.81845">
        <ele>105.7</ele>
        <time>2016-04-24T06:43:49Z</time>
      </trkpt>
      <trkpt lat="49.48014" lon="0.8186">
        <ele>105.8</ele>
        <time>2016-04-24T06:43:53Z</time>
      </trkpt>
      <trkpt lat="49.48014" lon="0.81876">
        <ele>106.2</ele>
        <time>2016-04-24T06:43:58Z</time>
      </trkpt>
      <trkpt lat="49.48011" lon="0.81891">
        <ele>106.6</ele>
        <time>2016-04-24T06:44:03Z</time>
      </trkpt>
      <trkpt lat="49.48012" lon="0.81907">
        <ele>107.1</ele>
        <time>2016-04-24T06:44:07Z</time>
      </trkpt>
      <trkpt lat="49.48013" lon="0.81923">
        <ele>107.4</ele>
        <time>2016-04-24T06:44:11Z</time>
      </trkpt>
      <trkpt lat="49.4802" lon="0.81934">
        <ele>107.7</ele>
        <time>2016-04-24T06:44:15Z</time>
      </trkpt>
      <trkpt lat="49.48029" lon="0.81939">
        <ele>107.9</ele>
        <time>2016-04-24T06:44:18Z</time>
      </trkpt>
      <trkpt lat="49.48037" lon="0.8195">
        <ele>108.1</ele>
        <time>2016-04-24T06:44:22Z</time>
      </trkpt>
      <trkpt lat="49.48047" lon="0.81958">
        <ele>108.3</ele>
        <time>2016-04-24T06:44:26Z</time>
      </trkpt>
      <trkpt lat="49.48057" lon="0.81964">
        <ele>108.5</ele>
        <time>2016-04-24T06:44:29Z</time>
      </trkpt>
      <trkpt lat="49.48067" lon="0.81969">
        <ele>108.7</ele>
        <time>2016-04-24T06:44:32Z</time>
      </trkpt>
      <trkpt lat="49.48078" lon="0.81974">
        <ele>108.8</ele>
        <time>2016-04-24T06:44:35Z</time>
      </trkpt>
      <trkpt lat="49.48089" lon="0.81979">
        <ele>108.9</ele>
        <time>2016-04-24T06:44:38Z</time>
      </trkpt>
      <trkpt lat="49.481" lon="0.81983">
        <ele>109</ele>
        <time>2016-04-24T06:44:41Z</time>
      </trkpt>
      <trkpt lat="49.48111" lon="0.81987">
        <ele>109.2</ele>
        <time>2016-04-24T06:44:44Z</time>
      </trkpt>
      <trkpt lat="49.48124" lon="0.8199">
        <ele>109.3</ele>
        <time>2016-04-24T06:44:47Z</time>
      </trkpt>
      <trkpt lat="49.48133" lon="0.81993">
        <ele>109.4</ele>
        <time>2016-04-24T06:44:49Z</time>
      </trkpt>
      <trkpt lat="49.48146" lon="0.81996">
        <ele>109.4</ele>
        <time>2016-04-24T06:44:52Z</time>
      </trkpt>
      <trkpt lat="49.48156" lon="0.81998">
        <ele>109.5</ele>
        <time>2016-04-24T06:44:54Z</time>
      </trkpt>
      <trkpt lat="49.48165" lon="0.82001">
        <ele>109.5</ele>
        <time>2016-04-24T06:44:56Z</time>
      </trkpt>
      <trkpt lat="49.48176" lon="0.82004">
        <ele>109.4</ele>
        <time>2016-04-24T06:44:58Z</time>
      </trkpt>
      <trkpt lat="49.48186" lon="0.82006">
        <ele>109.2</ele>
        <time>2016-04-24T06:45:00Z</time>
      </trkpt>
      <trkpt lat="49.48196" lon="0.82009">
        <ele>109.1</ele>
        <time>2016-04-24T06:45:02Z</time>
      </trkpt>
      <trkpt lat="49.48205" lon="0.82011">
        <ele>108.9</ele>
        <time>2016-04-24T06:45:04Z</time>
      </trkpt>
      <trkpt lat="49.48218" lon="0.82015">
        <ele>108.7</ele>
        <time>2016-04-24T06:45:07Z</time>
      </trkpt>
      <trkpt lat="49.48229" lon="0.8202">
        <ele>108.6</ele>
        <time>2016-04-24T06:45:09Z</time>
      </trkpt>
      <trkpt lat="49.48241" lon="0.82027">
        <ele>108.2</ele>
        <time>2016-04-24T06:45:11Z</time>
      </trkpt>
      <trkpt lat="49.48253" lon="0.82038">
        <ele>107.7</ele>
        <time>2016-04-24T06:45:13Z</time>
      </trkpt>
      <trkpt lat="49.48263" lon="0.82052">
        <ele>107.4</ele>
        <time>2016-04-24T06:45:15Z</time>
      </trkpt>
      <trkpt lat="49.48271" lon="0.82065">
        <ele>107.2</ele>
        <time>2016-04-24T06:45:17Z</time>
      </trkpt>
      <trkpt lat="49.48278" lon="0.82078">
        <ele>107.1</ele>
        <time>2016-04-24T06:45:19Z</time>
      </trkpt>
      <trkpt lat="49.48284" lon="0.8209">
        <ele>106.9</ele>
        <time>2016-04-24T06:45:21Z</time>
      </trkpt>
      <trkpt lat="49.48289" lon="0.82106">
        <ele>106.9</ele>
        <time>2016-04-24T06:45:24Z</time>
      </trkpt>
      <trkpt lat="49.48292" lon="0.8212">
        <ele>106.9</ele>
        <time>2016-04-24T06:45:27Z</time>
      </trkpt>
      <trkpt lat="49.48295" lon="0.82136">
        <ele>107.1</ele>
        <time>2016-04-24T06:45:31Z</time>
      </trkpt>
      <trkpt lat="49.48296" lon="0.82154">
        <ele>107.3</ele>
        <time>2016-04-24T06:45:35Z</time>
      </trkpt>
      <trkpt lat="49.48297" lon="0.82169">
        <ele>107.4</ele>
        <time>2016-04-24T06:45:38Z</time>
      </trkpt>
      <trkpt lat="49.48296" lon="0.82186">
        <ele>107.4</ele>
        <time>2016-04-24T06:45:41Z</time>
      </trkpt>
      <trkpt lat="49.48295" lon="0.82201">
        <ele>107.5</ele>
        <time>2016-04-24T06:45:44Z</time>
      </trkpt>
      <trkpt lat="49.48296" lon="0.82216">
        <ele>107.6</ele>
        <time>2016-04-24T06:45:47Z</time>
      </trkpt>
      <trkpt lat="49.48298" lon="0.82232">
        <ele>107.7</ele>
        <time>2016-04-24T06:45:50Z</time>
      </trkpt>
      <trkpt lat="49.483" lon="0.82247">
        <ele>107.8</ele>
        <time>2016-04-24T06:45:53Z</time>
      </trkpt>
      <trkpt lat="49.48302" lon="0.82263">
        <ele>107.8</ele>
        <time>2016-04-24T06:45:56Z</time>
      </trkpt>
      <trkpt lat="49.48305" lon="0.82278">
        <ele>108</ele>
        <time>2016-04-24T06:45:59Z</time>
      </trkpt>
      <trkpt lat="49.48305" lon="0.82293">
        <ele>108.2</ele>
        <time>2016-04-24T06:46:02Z</time>
      </trkpt>
      <trkpt lat="49.48304" lon="0.82309">
        <ele>108.3</ele>
        <time>2016-04-24T06:46:05Z</time>
      </trkpt>
      <trkpt lat="49.48301" lon="0.82328">
        <ele>108.4</ele>
        <time>2016-04-24T06:46:08Z</time>
      </trkpt>
      <trkpt lat="49.48301" lon="0.82348">
        <ele>108.5</ele>
        <time>2016-04-24T06:46:11Z</time>
      </trkpt>
      <trkpt lat="49.48301" lon="0.82366">
        <ele>108.5</ele>
        <time>2016-04-24T06:46:14Z</time>
      </trkpt>
      <trkpt lat="49.48302" lon="0.82383">
        <ele>108.6</ele>
        <time>2016-04-24T06:46:17Z</time>
      </trkpt>
      <trkpt lat="49.48304" lon="0.82401">
        <ele>108.6</ele>
        <time>2016-04-24T06:46:20Z</time>
      </trkpt>
      <trkpt lat="49.48306" lon="0.82418">
        <ele>108.5</ele>
        <time>2016-04-24T06:46:23Z</time>
      </trkpt>
      <trkpt lat="49.48308" lon="0.82436">
        <ele>108.3</ele>
        <time>2016-04-24T06:46:26Z</time>
      </trkpt>
      <trkpt lat="49.48308" lon="0.82453">
        <ele>108.2</ele>
        <time>2016-04-24T06:46:29Z</time>
      </trkpt>
      <trkpt lat="49.48307" lon="0.82472">
        <ele>108.1</ele>
        <time>2016-04-24T06:46:32Z</time>
      </trkpt>
      <trkpt lat="49.48304" lon="0.82487">
        <ele>108.1</ele>
        <time>2016-04-24T06:46:34Z</time>
      </trkpt>
      <trkpt lat="49.48302" lon="0.82502">
        <ele>108</ele>
        <time>2016-04-24T06:46:36Z</time>
      </trkpt>
      <trkpt lat="49.48299" lon="0.82517">
        <ele>107.9</ele>
        <time>2016-04-24T06:46:38Z</time>
      </trkpt>
      <trkpt lat="49.48297" lon="0.82533">
        <ele>107.8</ele>
        <time>2016-04-24T06:46:40Z</time>
      </trkpt>
      <trkpt lat="49.48295" lon="0.8255">
        <ele>107.7</ele>
        <time>2016-04-24T06:46:42Z</time>
      </trkpt>
      <trkpt lat="49.48297" lon="0.82566">
        <ele>107.5</ele>
        <time>2016-04-24T06:46:44Z</time>
      </trkpt>
      <trkpt lat="49.48299" lon="0.82582">
        <ele>107.4</ele>
        <time>2016-04-24T06:46:46Z</time>
      </trkpt>
      <trkpt lat="49.48302" lon="0.82598">
        <ele>107.2</ele>
        <time>2016-04-24T06:46:48Z</time>
      </trkpt>
      <trkpt lat="49.48306" lon="0.82614">
        <ele>107.1</ele>
        <time>2016-04-24T06:46:50Z</time>
      </trkpt>
      <trkpt lat="49.48309" lon="0.82631">
        <ele>106.9</ele>
        <time>2016-04-24T06:46:52Z</time>
      </trkpt>
      <trkpt lat="49.48312" lon="0.82646">
        <ele>106.7</ele>
        <time>2016-04-24T06:46:54Z</time>
      </trkpt>
      <trkpt lat="49.48316" lon="0.82662">
        <ele>106.6</ele>
        <time>2016-04-24T06:46:56Z</time>
      </trkpt>
      <trkpt lat="49.4832" lon="0.82677">
        <ele>106.4</ele>
        <time>2016-04-24T06:46:58Z</time>
      </trkpt>
      <trkpt lat="49.48324" lon="0.82694">
        <ele>106.2</ele>
        <time>2016-04-24T06:47:00Z</time>
      </trkpt>
      <trkpt lat="49.48328" lon="0.82711">
        <ele>105.9</ele>
        <time>2016-04-24T06:47:02Z</time>
      </trkpt>
      <trkpt lat="49.48333" lon="0.82728">
        <ele>105.6</ele>
        <time>2016-04-24T06:47:04Z</time>
      </trkpt>
      <trkpt lat="49.48339" lon="0.82745">
        <ele>105.5</ele>
        <time>2016-04-24T06:47:06Z</time>
      </trkpt>
      <trkpt lat="49.48345" lon="0.82761">
        <ele>105.4</ele>
        <time>2016-04-24T06:47:08Z</time>
      </trkpt>
      <trkpt lat="49.48351" lon="0.82777">
        <ele>105.2</ele>
        <time>2016-04-24T06:47:10Z</time>
      </trkpt>
      <trkpt lat="49.48357" lon="0.82792">
        <ele>105.1</ele>
        <time>2016-04-24T06:47:12Z</time>
      </trkpt>
      <trkpt lat="49.48362" lon="0.82807">
        <ele>104.7</ele>
        <time>2016-04-24T06:47:14Z</time>
      </trkpt>
      <trkpt lat="49.48368" lon="0.82823">
        <ele>104.3</ele>
        <time>2016-04-24T06:47:16Z</time>
      </trkpt>
      <trkpt lat="49.48374" lon="0.82838">
        <ele>103.9</ele>
        <time>2016-04-24T06:47:18Z</time>
      </trkpt>
      <trkpt lat="49.4838" lon="0.82852">
        <ele>103.5</ele>
        <time>2016-04-24T06:47:20Z</time>
      </trkpt>
      <trkpt lat="49.48387" lon="0.82867">
        <ele>103.2</ele>
        <time>2016-04-24T06:47:22Z</time>
      </trkpt>
      <trkpt lat="49.48394" lon="0.82881">
        <ele>102.8</ele>
        <time>2016-04-24T06:47:24Z</time>
      </trkpt>
      <trkpt lat="49.484" lon="0.82895">
        <ele>102.4</ele>
        <time>2016-04-24T06:47:26Z</time>
      </trkpt>
      <trkpt lat="49.48405" lon="0.8291">
        <ele>102.3</ele>
        <time>2016-04-24T06:47:28Z</time>
      </trkpt>
      <trkpt lat="49.48409" lon="0.82925">
        <ele>102</ele>
        <time>2016-04-24T06:47:30Z</time>
      </trkpt>
      <trkpt lat="49.48414" lon="0.82941">
        <ele>101.6</ele>
        <time>2016-04-24T06:47:32Z</time>
      </trkpt>
      <trkpt lat="49.48418" lon="0.82957">
        <ele>101.3</ele>
        <time>2016-04-24T06:47:34Z</time>
      </trkpt>
      <trkpt lat="49.48422" lon="0.82974">
        <ele>101.1</ele>
        <time>2016-04-24T06:47:36Z</time>
      </trkpt>
      <trkpt lat="49.48426" lon="0.8299">
        <ele>100.7</ele>
        <time>2016-04-24T06:47:38Z</time>
      </trkpt>
      <trkpt lat="49.48429" lon="0.83006">
        <ele>100.3</ele>
        <time>2016-04-24T06:47:40Z</time>
      </trkpt>
      <trkpt lat="49.48434" lon="0.83021">
        <ele>100</ele>
        <time>2016-04-24T06:47:42Z</time>
      </trkpt>
      <trkpt lat="49.48442" lon="0.83038">
        <ele>99.8</ele>
        <time>2016-04-24T06:47:44Z</time>
      </trkpt>
      <trkpt lat="49.48451" lon="0.83055">
        <ele>99.6</ele>
        <time>2016-04-24T06:47:46Z</time>
      </trkpt>
      <trkpt lat="49.4846" lon="0.8307">
        <ele>99.4</ele>
        <time>2016-04-24T06:47:48Z</time>
      </trkpt>
      <trkpt lat="49.48469" lon="0.83087">
        <ele>99.1</ele>
        <time>2016-04-24T06:47:50Z</time>
      </trkpt>
      <trkpt lat="49.48477" lon="0.83103">
        <ele>99</ele>
        <time>2016-04-24T06:47:52Z</time>
      </trkpt>
      <trkpt lat="49.48484" lon="0.83119">
        <ele>98.7</ele>
        <time>2016-04-24T06:47:54Z</time>
      </trkpt>
      <trkpt lat="49.48489" lon="0.83134">
        <ele>98.5</ele>
        <time>2016-04-24T06:47:56Z</time>
      </trkpt>
      <trkpt lat="49.48495" lon="0.8315">
        <ele>98.3</ele>
        <time>2016-04-24T06:47:58Z</time>
      </trkpt>
      <trkpt lat="49.48501" lon="0.83169">
        <ele>98</ele>
        <time>2016-04-24T06:48:00Z</time>
      </trkpt>
      <trkpt lat="49.48507" lon="0.83188">
        <ele>97.5</ele>
        <time>2016-04-24T06:48:02Z</time>
      </trkpt>
      <trkpt lat="49.48512" lon="0.83209">
        <ele>96.8</ele>
        <time>2016-04-24T06:48:04Z</time>
      </trkpt>
      <trkpt lat="49.48517" lon="0.83231">
        <ele>96.2</ele>
        <time>2016-04-24T06:48:06Z</time>
      </trkpt>
      <trkpt lat="49.48522" lon="0.83253">
        <ele>95.5</ele>
        <time>2016-04-24T06:48:08Z</time>
      </trkpt>
      <trkpt lat="49.48528" lon="0.83276">
        <ele>94.9</ele>
        <time>2016-04-24T06:48:10Z</time>
      </trkpt>
      <trkpt lat="49.48534" lon="0.83298">
        <ele>94.4</ele>
        <time>2016-04-24T06:48:12Z</time>
      </trkpt>
      <trkpt lat="49.48541" lon="0.8332">
        <ele>93.6</ele>
        <time>2016-04-24T06:48:14Z</time>
      </trkpt>
      <trkpt lat="49.48546" lon="0.83342">
        <ele>92.8</ele>
        <time>2016-04-24T06:48:16Z</time>
      </trkpt>
      <trkpt lat="49.48551" lon="0.83365">
        <ele>92</ele>
        <time>2016-04-24T06:48:18Z</time>
      </trkpt>
      <trkpt lat="49.48556" lon="0.83384">
        <ele>90.9</ele>
        <time>2016-04-24T06:48:20Z</time>
      </trkpt>
      <trkpt lat="49.48565" lon="0.83402">
        <ele>89.9</ele>
        <time>2016-04-24T06:48:22Z</time>
      </trkpt>
      <trkpt lat="49.48576" lon="0.83418">
        <ele>88.8</ele>
        <time>2016-04-24T06:48:24Z</time>
      </trkpt>
      <trkpt lat="49.48588" lon="0.83433">
        <ele>87.8</ele>
        <time>2016-04-24T06:48:26Z</time>
      </trkpt>
      <trkpt lat="49.48599" lon="0.83447">
        <ele>86.8</ele>
        <time>2016-04-24T06:48:28Z</time>
      </trkpt>
      <trkpt lat="49.4861" lon="0.83461">
        <ele>86</ele>
        <time>2016-04-24T06:48:30Z</time>
      </trkpt>
      <trkpt lat="49.48621" lon="0.83475">
        <ele>85.2</ele>
        <time>2016-04-24T06:48:32Z</time>
      </trkpt>
      <trkpt lat="49.48635" lon="0.83489">
        <ele>84.3</ele>
        <time>2016-04-24T06:48:34Z</time>
      </trkpt>
      <trkpt lat="49.48647" lon="0.83501">
        <ele>83.5</ele>
        <time>2016-04-24T06:48:36Z</time>
      </trkpt>
      <trkpt lat="49.4866" lon="0.83511">
        <ele>82.7</ele>
        <time>2016-04-24T06:48:38Z</time>
      </trkpt>
      <trkpt lat="49.48671" lon="0.83521">
        <ele>81.9</ele>
        <time>2016-04-24T06:48:40Z</time>
      </trkpt>
      <trkpt lat="49.48682" lon="0.8353">
        <ele>81</ele>
        <time>2016-04-24T06:48:42Z</time>
      </trkpt>
      <trkpt lat="49.48693" lon="0.83539">
        <ele>79.9</ele>
        <time>2016-04-24T06:48:45Z</time>
      </trkpt>
      <trkpt lat="49.48702" lon="0.83542">
        <ele>74.9</ele>
        <time>2016-04-24T06:49:18Z</time>
      </trkpt>
      <trkpt lat="49.48711" lon="0.83552">
        <ele>74.4</ele>
        <time>2016-04-24T06:49:21Z</time>
      </trkpt>
      <trkpt lat="49.48719" lon="0.8356">
        <ele>74.2</ele>
        <time>2016-04-24T06:49:23Z</time>
      </trkpt>
      <trkpt lat="49.48727" lon="0.8357">
        <ele>73.9</ele>
        <time>2016-04-24T06:49:25Z</time>
      </trkpt>
      <trkpt lat="49.48736" lon="0.83573">
        <ele>73.3</ele>
        <time>2016-04-24T06:49:29Z</time>
      </trkpt>
      <trkpt lat="49.48747" lon="0.83577">
        <ele>72.4</ele>
        <time>2016-04-24T06:49:40Z</time>
      </trkpt>
      <trkpt lat="49.48751" lon="0.8359">
        <ele>71.6</ele>
        <time>2016-04-24T07:03:54Z</time>
      </trkpt>
      <trkpt lat="49.48758" lon="0.83598">
        <ele>71.5</ele>
        <time>2016-04-24T07:03:56Z</time>
      </trkpt>
      <trkpt lat="49.48766" lon="0.83606">
        <ele>71.5</ele>
        <time>2016-04-24T07:03:58Z</time>
      </trkpt>
      <trkpt lat="49.48773" lon="0.83619">
        <ele>71.2</ele>
        <time>2016-04-24T07:04:01Z</time>
      </trkpt>
      <trkpt lat="49.48778" lon="0.83632">
        <ele>71</ele>
        <time>2016-04-24T07:04:04Z</time>
      </trkpt>
      <trkpt lat="49.48786" lon="0.83646">
        <ele>70.8</ele>
        <time>2016-04-24T07:04:07Z</time>
      </trkpt>
      <trkpt lat="49.48794" lon="0.8366">
        <ele>70.8</ele>
        <time>2016-04-24T07:04:10Z</time>
      </trkpt>
      <trkpt lat="49.48801" lon="0.83673">
        <ele>70.8</ele>
        <time>2016-04-24T07:04:13Z</time>
      </trkpt>
      <trkpt lat="49.48807" lon="0.83687">
        <ele>71</ele>
        <time>2016-04-24T07:04:16Z</time>
      </trkpt>
      <trkpt lat="49.48815" lon="0.83699">
        <ele>71.2</ele>
        <time>2016-04-24T07:04:19Z</time>
      </trkpt>
      <trkpt lat="49.4882" lon="0.83713">
        <ele>71.3</ele>
        <time>2016-04-24T07:04:22Z</time>
      </trkpt>
      <trkpt lat="49.48825" lon="0.83728">
        <ele>71.5</ele>
        <time>2016-04-24T07:04:25Z</time>
      </trkpt>
      <trkpt lat="49.48832" lon="0.8374">
        <ele>71.5</ele>
        <time>2016-04-24T07:04:27Z</time>
      </trkpt>
      <trkpt lat="49.48838" lon="0.8375">
        <ele>71.6</ele>
        <time>2016-04-24T07:04:29Z</time>
      </trkpt>
      <trkpt lat="49.48843" lon="0.83769">
        <ele>71.6</ele>
        <time>2016-04-24T07:04:32Z</time>
      </trkpt>
      <trkpt lat="49.48842" lon="0.83787">
        <ele>71.5</ele>
        <time>2016-04-24T07:04:35Z</time>
      </trkpt>
      <trkpt lat="49.48836" lon="0.83804">
        <ele>71.3</ele>
        <time>2016-04-24T07:04:38Z</time>
      </trkpt>
      <trkpt lat="49.48828" lon="0.83817">
        <ele>70.9</ele>
        <time>2016-04-24T07:04:41Z</time>
      </trkpt>
      <trkpt lat="49.48821" lon="0.83827">
        <ele>70.6</ele>
        <time>2016-04-24T07:04:43Z</time>
      </trkpt>
      <trkpt lat="49.48812" lon="0.83838">
        <ele>70.1</ele>
        <time>2016-04-24T07:04:45Z</time>
      </trkpt>
      <trkpt lat="49.48804" lon="0.83847">
        <ele>69.7</ele>
        <time>2016-04-24T07:04:47Z</time>
      </trkpt>
      <trkpt lat="49.48795" lon="0.83857">
        <ele>69.2</ele>
        <time>2016-04-24T07:04:49Z</time>
      </trkpt>
      <trkpt lat="49.48785" lon="0.83874">
        <ele>68.2</ele>
        <time>2016-04-24T07:04:51Z</time>
      </trkpt>
      <trkpt lat="49.48777" lon="0.83896">
        <ele>67.7</ele>
        <time>2016-04-24T07:04:53Z</time>
      </trkpt>
      <trkpt lat="49.48774" lon="0.83921">
        <ele>67.2</ele>
        <time>2016-04-24T07:04:55Z</time>
      </trkpt>
      <trkpt lat="49.48774" lon="0.83948">
        <ele>66.5</ele>
        <time>2016-04-24T07:04:57Z</time>
      </trkpt>
      <trkpt lat="49.48774" lon="0.83974">
        <ele>65.7</ele>
        <time>2016-04-24T07:04:59Z</time>
      </trkpt>
      <trkpt lat="49.48774" lon="0.83998">
        <ele>64.9</ele>
        <time>2016-04-24T07:05:01Z</time>
      </trkpt>
      <trkpt lat="49.48773" lon="0.8402">
        <ele>64</ele>
        <time>2016-04-24T07:05:03Z</time>
      </trkpt>
      <trkpt lat="49.48773" lon="0.84045">
        <ele>62.7</ele>
        <time>2016-04-24T07:05:05Z</time>
      </trkpt>
      <trkpt lat="49.48776" lon="0.8407">
        <ele>61.8</ele>
        <time>2016-04-24T07:05:07Z</time>
      </trkpt>
      <trkpt lat="49.48783" lon="0.84093">
        <ele>60.8</ele>
        <time>2016-04-24T07:05:09Z</time>
      </trkpt>
      <trkpt lat="49.4879" lon="0.84117">
        <ele>59.9</ele>
        <time>2016-04-24T07:05:11Z</time>
      </trkpt>
      <trkpt lat="49.48795" lon="0.84141">
        <ele>59</ele>
        <time>2016-04-24T07:05:13Z</time>
      </trkpt>
      <trkpt lat="49.488" lon="0.84162">
        <ele>57.9</ele>
        <time>2016-04-24T07:05:15Z</time>
      </trkpt>
      <trkpt lat="49.48803" lon="0.8418">
        <ele>56.9</ele>
        <time>2016-04-24T07:05:17Z</time>
      </trkpt>
      <trkpt lat="49.48805" lon="0.84198">
        <ele>55.9</ele>
        <time>2016-04-24T07:05:19Z</time>
      </trkpt>
      <trkpt lat="49.48808" lon="0.84214">
        <ele>54.8</ele>
        <time>2016-04-24T07:05:21Z</time>
      </trkpt>
      <trkpt lat="49.48809" lon="0.84229">
        <ele>53.7</ele>
        <time>2016-04-24T07:05:23Z</time>
      </trkpt>
      <trkpt lat="49.4881" lon="0.84248">
        <ele>52.2</ele>
        <time>2016-04-24T07:05:26Z</time>
      </trkpt>
      <trkpt lat="49.48815" lon="0.84265">
        <ele>50.9</ele>
        <time>2016-04-24T07:05:29Z</time>
      </trkpt>
      <trkpt lat="49.48817" lon="0.84283">
        <ele>49.5</ele>
        <time>2016-04-24T07:05:33Z</time>
      </trkpt>
      <trkpt lat="49.4882" lon="0.84298">
        <ele>48.5</ele>
        <time>2016-04-24T07:05:36Z</time>
      </trkpt>
      <trkpt lat="49.48827" lon="0.84307">
        <ele>47</ele>
        <time>2016-04-24T07:05:41Z</time>
      </trkpt>
      <trkpt lat="49.4883" lon="0.84293">
        <ele>45.6</ele>
        <time>2016-04-24T07:05:47Z</time>
      </trkpt>
      <trkpt lat="49.48837" lon="0.84282">
        <ele>44.8</ele>
        <time>2016-04-24T07:05:53Z</time>
      </trkpt>
      <trkpt lat="49.48845" lon="0.8427">
        <ele>44.4</ele>
        <time>2016-04-24T07:05:57Z</time>
      </trkpt>
      <trkpt lat="49.48852" lon="0.84256">
        <ele>44.1</ele>
        <time>2016-04-24T07:06:01Z</time>
      </trkpt>
      <trkpt lat="49.48859" lon="0.84243">
        <ele>43.8</ele>
        <time>2016-04-24T07:06:06Z</time>
      </trkpt>
      <trkpt lat="49.48865" lon="0.84231">
        <ele>44</ele>
        <time>2016-04-24T07:06:11Z</time>
      </trkpt>
      <trkpt lat="49.48872" lon="0.84219">
        <ele>44.2</ele>
        <time>2016-04-24T07:06:16Z</time>
      </trkpt>
      <trkpt lat="49.48878" lon="0.84208">
        <ele>44.5</ele>
        <time>2016-04-24T07:06:22Z</time>
      </trkpt>
      <trkpt lat="49.48885" lon="0.84195">
        <ele>44.6</ele>
        <time>2016-04-24T07:06:27Z</time>
      </trkpt>
      <trkpt lat="49.4889" lon="0.84184">
        <ele>44.8</ele>
        <time>2016-04-24T07:06:32Z</time>
      </trkpt>
      <trkpt lat="49.48898" lon="0.84174">
        <ele>44.9</ele>
        <time>2016-04-24T07:06:36Z</time>
      </trkpt>
      <trkpt lat="49.48904" lon="0.84161">
        <ele>45.1</ele>
        <time>2016-04-24T07:06:41Z</time>
      </trkpt>
      <trkpt lat="49.48911" lon="0.8415">
        <ele>45.3</ele>
        <time>2016-04-24T07:06:45Z</time>
      </trkpt>
      <trkpt lat="49.48918" lon="0.84138">
        <ele>45.6</ele>
        <time>2016-04-24T07:06:50Z</time>
      </trkpt>
      <trkpt lat="49.48925" lon="0.84126">
        <ele>46</ele>
        <time>2016-04-24T07:06:55Z</time>
      </trkpt>
      <trkpt lat="49.48933" lon="0.84112">
        <ele>46.4</ele>
        <time>2016-04-24T07:07:00Z</time>
      </trkpt>
      <trkpt lat="49.48939" lon="0.84102">
        <ele>46.7</ele>
        <time>2016-04-24T07:07:04Z</time>
      </trkpt>
      <trkpt lat="49.48947" lon="0.84089">
        <ele>47.2</ele>
        <time>2016-04-24T07:07:09Z</time>
      </trkpt>
      <trkpt lat="49.48955" lon="0.84078">
        <ele>47.6</ele>
        <time>2016-04-24T07:07:13Z</time>
      </trkpt>
      <trkpt lat="49.48959" lon="0.84067">
        <ele>47.9</ele>
        <time>2016-04-24T07:07:18Z</time>
      </trkpt>
      <trkpt lat="49.48966" lon="0.84054">
        <ele>48.2</ele>
        <time>2016-04-24T07:07:23Z</time>
      </trkpt>
      <trkpt lat="49.48971" lon="0.84038">
        <ele>48.6</ele>
        <time>2016-04-24T07:07:28Z</time>
      </trkpt>
      <trkpt lat="49.48977" lon="0.84026">
        <ele>48.9</ele>
        <time>2016-04-24T07:07:32Z</time>
      </trkpt>
      <trkpt lat="49.4898" lon="0.84012">
        <ele>49.2</ele>
        <time>2016-04-24T07:07:36Z</time>
      </trkpt>
      <trkpt lat="49.48984" lon="0.84">
        <ele>49.5</ele>
        <time>2016-04-24T07:07:41Z</time>
      </trkpt>
      <trkpt lat="49.48989" lon="0.83987">
        <ele>50</ele>
        <time>2016-04-24T07:07:46Z</time>
      </trkpt>
      <trkpt lat="49.48993" lon="0.83972">
        <ele>50.4</ele>
        <time>2016-04-24T07:07:51Z</time>
      </trkpt>
      <trkpt lat="49.48998" lon="0.83961">
        <ele>50.8</ele>
        <time>2016-04-24T07:07:55Z</time>
      </trkpt>
      <trkpt lat="49.49003" lon="0.83948">
        <ele>51.2</ele>
        <time>2016-04-24T07:07:59Z</time>
      </trkpt>
      <trkpt lat="49.49008" lon="0.83935">
        <ele>51.6</ele>
        <time>2016-04-24T07:08:03Z</time>
      </trkpt>
      <trkpt lat="49.49014" lon="0.83923">
        <ele>52.2</ele>
        <time>2016-04-24T07:08:07Z</time>
      </trkpt>
      <trkpt lat="49.49019" lon="0.83911">
        <ele>52.6</ele>
        <time>2016-04-24T07:08:11Z</time>
      </trkpt>
      <trkpt lat="49.49021" lon="0.83896">
        <ele>53.1</ele>
        <time>2016-04-24T07:08:16Z</time>
      </trkpt>
      <trkpt lat="49.49027" lon="0.83882">
        <ele>53.4</ele>
        <time>2016-04-24T07:08:20Z</time>
      </trkpt>
      <trkpt lat="49.49032" lon="0.83869">
        <ele>53.7</ele>
        <time>2016-04-24T07:08:24Z</time>
      </trkpt>
      <trkpt lat="49.49039" lon="0.83856">
        <ele>53.8</ele>
        <time>2016-04-24T07:08:28Z</time>
      </trkpt>
      <trkpt lat="49.49044" lon="0.83844">
        <ele>54</ele>
        <time>2016-04-24T07:08:32Z</time>
      </trkpt>
      <trkpt lat="49.49047" lon="0.8383">
        <ele>54</ele>
        <time>2016-04-24T07:08:35Z</time>
      </trkpt>
      <trkpt lat="49.49052" lon="0.83816">
        <ele>54.3</ele>
        <time>2016-04-24T07:08:40Z</time>
      </trkpt>
      <trkpt lat="49.49056" lon="0.83803">
        <ele>54.7</ele>
        <time>2016-04-24T07:08:45Z</time>
      </trkpt>
      <trkpt lat="49.49058" lon="0.83788">
        <ele>54.9</ele>
        <time>2016-04-24T07:08:50Z</time>
      </trkpt>
      <trkpt lat="49.4906" lon="0.83773">
        <ele>55.2</ele>
        <time>2016-04-24T07:08:55Z</time>
      </trkpt>
      <trkpt lat="49.4906" lon="0.83756">
        <ele>55.6</ele>
        <time>2016-04-24T07:09:00Z</time>
      </trkpt>
      <trkpt lat="49.49061" lon="0.83739">
        <ele>55.9</ele>
        <time>2016-04-24T07:09:05Z</time>
      </trkpt>
      <trkpt lat="49.49061" lon="0.83724">
        <ele>56.3</ele>
        <time>2016-04-24T07:09:09Z</time>
      </trkpt>
      <trkpt lat="49.49061" lon="0.8371">
        <ele>56.7</ele>
        <time>2016-04-24T07:09:13Z</time>
      </trkpt>
      <trkpt lat="49.4906" lon="0.83694">
        <ele>57.1</ele>
        <time>2016-04-24T07:09:17Z</time>
      </trkpt>
      <trkpt lat="49.49059" lon="0.8368">
        <ele>57.4</ele>
        <time>2016-04-24T07:09:21Z</time>
      </trkpt>
      <trkpt lat="49.49059" lon="0.83663">
        <ele>57.7</ele>
        <time>2016-04-24T07:09:26Z</time>
      </trkpt>
      <trkpt lat="49.49061" lon="0.83646">
        <ele>58.2</ele>
        <time>2016-04-24T07:09:31Z</time>
      </trkpt>
      <trkpt lat="49.49062" lon="0.8363">
        <ele>58.8</ele>
        <time>2016-04-24T07:09:36Z</time>
      </trkpt>
      <trkpt lat="49.49062" lon="0.83615">
        <ele>59</ele>
        <time>2016-04-24T07:09:40Z</time>
      </trkpt>
      <trkpt lat="49.49062" lon="0.83599">
        <ele>59.4</ele>
        <time>2016-04-24T07:09:45Z</time>
      </trkpt>
      <trkpt lat="49.49063" lon="0.83582">
        <ele>59.7</ele>
        <time>2016-04-24T07:09:50Z</time>
      </trkpt>
      <trkpt lat="49.49063" lon="0.83567">
        <ele>60.1</ele>
        <time>2016-04-24T07:09:55Z</time>
      </trkpt>
      <trkpt lat="49.49063" lon="0.83551">
        <ele>60.5</ele>
        <time>2016-04-24T07:10:00Z</time>
      </trkpt>
      <trkpt lat="49.49064" lon="0.83537">
        <ele>60.8</ele>
        <time>2016-04-24T07:10:04Z</time>
      </trkpt>
      <trkpt lat="49.49061" lon="0.83522">
        <ele>61</ele>
        <time>2016-04-24T07:10:08Z</time>
      </trkpt>
      <trkpt lat="49.49059" lon="0.83506">
        <ele>61.5</ele>
        <time>2016-04-24T07:10:12Z</time>
      </trkpt>
      <trkpt lat="49.49059" lon="0.8349">
        <ele>61.8</ele>
        <time>2016-04-24T07:10:16Z</time>
      </trkpt>
      <trkpt lat="49.49058" lon="0.83476">
        <ele>62.1</ele>
        <time>2016-04-24T07:10:20Z</time>
      </trkpt>
      <trkpt lat="49.49059" lon="0.8346">
        <ele>62.4</ele>
        <time>2016-04-24T07:10:25Z</time>
      </trkpt>
      <trkpt lat="49.49058" lon="0.83445">
        <ele>62.7</ele>
        <time>2016-04-24T07:10:29Z</time>
      </trkpt>
      <trkpt lat="49.49057" lon="0.8343">
        <ele>63</ele>
        <time>2016-04-24T07:10:33Z</time>
      </trkpt>
      <trkpt lat="49.49058" lon="0.83415">
        <ele>63.5</ele>
        <time>2016-04-24T07:10:37Z</time>
      </trkpt>
      <trkpt lat="49.49059" lon="0.83398">
        <ele>64</ele>
        <time>2016-04-24T07:10:41Z</time>
      </trkpt>
      <trkpt lat="49.49059" lon="0.83382">
        <ele>64.4</ele>
        <time>2016-04-24T07:10:45Z</time>
      </trkpt>
      <trkpt lat="49.4906" lon="0.83367">
        <ele>64.8</ele>
        <time>2016-04-24T07:10:49Z</time>
      </trkpt>
      <trkpt lat="49.4906" lon="0.83351">
        <ele>65.2</ele>
        <time>2016-04-24T07:10:53Z</time>
      </trkpt>
      <trkpt lat="49.4906" lon="0.83336">
        <ele>65.6</ele>
        <time>2016-04-24T07:10:57Z</time>
      </trkpt>
      <trkpt lat="49.49059" lon="0.83319">
        <ele>66</ele>
        <time>2016-04-24T07:11:01Z</time>
      </trkpt>
      <trkpt lat="49.49058" lon="0.83302">
        <ele>66.2</ele>
        <time>2016-04-24T07:11:05Z</time>
      </trkpt>
      <trkpt lat="49.49059" lon="0.83285">
        <ele>66.6</ele>
        <time>2016-04-24T07:11:09Z</time>
      </trkpt>
      <trkpt lat="49.49058" lon="0.8327">
        <ele>67</ele>
        <time>2016-04-24T07:11:13Z</time>
      </trkpt>
      <trkpt lat="49.49056" lon="0.83253">
        <ele>67.4</ele>
        <time>2016-04-24T07:11:18Z</time>
      </trkpt>
      <trkpt lat="49.49055" lon="0.83238">
        <ele>67.8</ele>
        <time>2016-04-24T07:11:22Z</time>
      </trkpt>
      <trkpt lat="49.49056" lon="0.83223">
        <ele>68.1</ele>
        <time>2016-04-24T07:11:26Z</time>
      </trkpt>
      <trkpt lat="49.49056" lon="0.83208">
        <ele>68.4</ele>
        <time>2016-04-24T07:11:30Z</time>
      </trkpt>
      <trkpt lat="49.49056" lon="0.83192">
        <ele>68.7</ele>
        <time>2016-04-24T07:11:34Z</time>
      </trkpt>
      <trkpt lat="49.49055" lon="0.83175">
        <ele>68.9</ele>
        <time>2016-04-24T07:11:39Z</time>
      </trkpt>
      <trkpt lat="49.49055" lon="0.83159">
        <ele>69.2</ele>
        <time>2016-04-24T07:11:44Z</time>
      </trkpt>
      <trkpt lat="49.49055" lon="0.83142">
        <ele>69.5</ele>
        <time>2016-04-24T07:11:49Z</time>
      </trkpt>
      <trkpt lat="49.49055" lon="0.83125">
        <ele>69.8</ele>
        <time>2016-04-24T07:11:54Z</time>
      </trkpt>
      <trkpt lat="49.49054" lon="0.83108">
        <ele>70</ele>
        <time>2016-04-24T07:11:59Z</time>
      </trkpt>
      <trkpt lat="49.49053" lon="0.83092">
        <ele>70.4</ele>
        <time>2016-04-24T07:12:04Z</time>
      </trkpt>
      <trkpt lat="49.49054" lon="0.83077">
        <ele>70.7</ele>
        <time>2016-04-24T07:12:09Z</time>
      </trkpt>
      <trkpt lat="49.49055" lon="0.83062">
        <ele>71</ele>
        <time>2016-04-24T07:12:14Z</time>
      </trkpt>
      <trkpt lat="49.49055" lon="0.83046">
        <ele>71.4</ele>
        <time>2016-04-24T07:12:19Z</time>
      </trkpt>
      <trkpt lat="49.49054" lon="0.83031">
        <ele>71.7</ele>
        <time>2016-04-24T07:12:24Z</time>
      </trkpt>
      <trkpt lat="49.49053" lon="0.83017">
        <ele>72</ele>
        <time>2016-04-24T07:12:29Z</time>
      </trkpt>
      <trkpt lat="49.49055" lon="0.83001">
        <ele>72.4</ele>
        <time>2016-04-24T07:12:34Z</time>
      </trkpt>
      <trkpt lat="49.49055" lon="0.82985">
        <ele>72.6</ele>
        <time>2016-04-24T07:12:39Z</time>
      </trkpt>
      <trkpt lat="49.49054" lon="0.82969">
        <ele>72.9</ele>
        <time>2016-04-24T07:12:44Z</time>
      </trkpt>
      <trkpt lat="49.49054" lon="0.82953">
        <ele>73.1</ele>
        <time>2016-04-24T07:12:49Z</time>
      </trkpt>
      <trkpt lat="49.49051" lon="0.82938">
        <ele>73.5</ele>
        <time>2016-04-24T07:12:54Z</time>
      </trkpt>
      <trkpt lat="49.49046" lon="0.82923">
        <ele>74</ele>
        <time>2016-04-24T07:12:59Z</time>
      </trkpt>
      <trkpt lat="49.4904" lon="0.82912">
        <ele>74.5</ele>
        <time>2016-04-24T07:13:03Z</time>
      </trkpt>
      <trkpt lat="49.49034" lon="0.82901">
        <ele>74.9</ele>
        <time>2016-04-24T07:13:07Z</time>
      </trkpt>
      <trkpt lat="49.49027" lon="0.8289">
        <ele>75.3</ele>
        <time>2016-04-24T07:13:11Z</time>
      </trkpt>
      <trkpt lat="49.49021" lon="0.82876">
        <ele>75.6</ele>
        <time>2016-04-24T07:13:15Z</time>
      </trkpt>
      <trkpt lat="49.49015" lon="0.82863">
        <ele>76</ele>
        <time>2016-04-24T07:13:19Z</time>
      </trkpt>
      <trkpt lat="49.49008" lon="0.82851">
        <ele>76.3</ele>
        <time>2016-04-24T07:13:23Z</time>
      </trkpt>
      <trkpt lat="49.49002" lon="0.8284">
        <ele>76.5</ele>
        <time>2016-04-24T07:13:27Z</time>
      </trkpt>
      <trkpt lat="49.48996" lon="0.82825">
        <ele>76.8</ele>
        <time>2016-04-24T07:13:32Z</time>
      </trkpt>
      <trkpt lat="49.4899" lon="0.82813">
        <ele>77.2</ele>
        <time>2016-04-24T07:13:36Z</time>
      </trkpt>
      <trkpt lat="49.48986" lon="0.828">
        <ele>77.6</ele>
        <time>2016-04-24T07:13:40Z</time>
      </trkpt>
      <trkpt lat="49.48983" lon="0.82785">
        <ele>78</ele>
        <time>2016-04-24T07:13:44Z</time>
      </trkpt>
      <trkpt lat="49.48982" lon="0.82768">
        <ele>78.3</ele>
        <time>2016-04-24T07:13:48Z</time>
      </trkpt>
      <trkpt lat="49.48982" lon="0.82753">
        <ele>78.6</ele>
        <time>2016-04-24T07:13:52Z</time>
      </trkpt>
      <trkpt lat="49.48981" lon="0.82739">
        <ele>78.9</ele>
        <time>2016-04-24T07:13:56Z</time>
      </trkpt>
      <trkpt lat="49.4898" lon="0.82724">
        <ele>79.1</ele>
        <time>2016-04-24T07:14:00Z</time>
      </trkpt>
      <trkpt lat="49.48981" lon="0.82707">
        <ele>79.4</ele>
        <time>2016-04-24T07:14:04Z</time>
      </trkpt>
      <trkpt lat="49.48981" lon="0.8269">
        <ele>79.6</ele>
        <time>2016-04-24T07:14:08Z</time>
      </trkpt>
      <trkpt lat="49.48981" lon="0.82674">
        <ele>79.7</ele>
        <time>2016-04-24T07:14:12Z</time>
      </trkpt>
      <trkpt lat="49.4898" lon="0.82658">
        <ele>79.8</ele>
        <time>2016-04-24T07:14:16Z</time>
      </trkpt>
      <trkpt lat="49.48979" lon="0.82643">
        <ele>79.9</ele>
        <time>2016-04-24T07:14:20Z</time>
      </trkpt>
      <trkpt lat="49.48981" lon="0.82629">
        <ele>80.2</ele>
        <time>2016-04-24T07:14:25Z</time>
      </trkpt>
      <trkpt lat="49.4898" lon="0.82614">
        <ele>80.5</ele>
        <time>2016-04-24T07:14:30Z</time>
      </trkpt>
      <trkpt lat="49.48978" lon="0.82601">
        <ele>80.8</ele>
        <time>2016-04-24T07:14:35Z</time>
      </trkpt>
      <trkpt lat="49.48978" lon="0.82586">
        <ele>81.1</ele>
        <time>2016-04-24T07:14:40Z</time>
      </trkpt>
      <trkpt lat="49.48976" lon="0.82572">
        <ele>81.4</ele>
        <time>2016-04-24T07:14:45Z</time>
      </trkpt>
      <trkpt lat="49.48978" lon="0.82556">
        <ele>82</ele>
        <time>2016-04-24T07:14:51Z</time>
      </trkpt>
      <trkpt lat="49.48979" lon="0.82541">
        <ele>82.5</ele>
        <time>2016-04-24T07:14:57Z</time>
      </trkpt>
      <trkpt lat="49.4898" lon="0.82527">
        <ele>82.9</ele>
        <time>2016-04-24T07:15:03Z</time>
      </trkpt>
      <trkpt lat="49.48985" lon="0.82514">
        <ele>83.7</ele>
        <time>2016-04-24T07:15:11Z</time>
      </trkpt>
      <trkpt lat="49.48994" lon="0.82521">
        <ele>84.5</ele>
        <time>2016-04-24T07:15:19Z</time>
      </trkpt>
      <trkpt lat="49.49001" lon="0.82532">
        <ele>85.4</ele>
        <time>2016-04-24T07:15:26Z</time>
      </trkpt>
      <trkpt lat="49.49005" lon="0.82545">
        <ele>86.4</ele>
        <time>2016-04-24T07:15:34Z</time>
      </trkpt>
      <trkpt lat="49.4901" lon="0.82556">
        <ele>87.5</ele>
        <time>2016-04-24T07:15:41Z</time>
      </trkpt>
      <trkpt lat="49.49017" lon="0.82569">
        <ele>89.2</ele>
        <time>2016-04-24T07:15:50Z</time>
      </trkpt>
      <trkpt lat="49.49024" lon="0.82578">
        <ele>90.9</ele>
        <time>2016-04-24T07:15:58Z</time>
      </trkpt>
      <trkpt lat="49.49031" lon="0.82589">
        <ele>93</ele>
        <time>2016-04-24T07:16:08Z</time>
      </trkpt>
      <trkpt lat="49.49039" lon="0.82597">
        <ele>94.5</ele>
        <time>2016-04-24T07:16:17Z</time>
      </trkpt>
      <trkpt lat="49.49047" lon="0.82604">
        <ele>95.4</ele>
        <time>2016-04-24T07:16:24Z</time>
      </trkpt>
      <trkpt lat="49.49055" lon="0.8261">
        <ele>96.1</ele>
        <time>2016-04-24T07:16:31Z</time>
      </trkpt>
      <trkpt lat="49.49063" lon="0.82616">
        <ele>96.9</ele>
        <time>2016-04-24T07:16:38Z</time>
      </trkpt>
      <trkpt lat="49.49072" lon="0.82623">
        <ele>97.5</ele>
        <time>2016-04-24T07:16:44Z</time>
      </trkpt>
      <trkpt lat="49.4908" lon="0.82629">
        <ele>98.2</ele>
        <time>2016-04-24T07:16:52Z</time>
      </trkpt>
      <trkpt lat="49.4909" lon="0.82631">
        <ele>99.1</ele>
        <time>2016-04-24T07:16:59Z</time>
      </trkpt>
      <trkpt lat="49.49099" lon="0.82632">
        <ele>100</ele>
        <time>2016-04-24T07:17:09Z</time>
      </trkpt>
      <trkpt lat="49.49108" lon="0.82638">
        <ele>100.6</ele>
        <time>2016-04-24T07:17:17Z</time>
      </trkpt>
      <trkpt lat="49.49116" lon="0.82647">
        <ele>101.2</ele>
        <time>2016-04-24T07:17:23Z</time>
      </trkpt>
      <trkpt lat="49.49125" lon="0.82655">
        <ele>101.6</ele>
        <time>2016-04-24T07:17:28Z</time>
      </trkpt>
      <trkpt lat="49.49133" lon="0.82663">
        <ele>102</ele>
        <time>2016-04-24T07:17:34Z</time>
      </trkpt>
      <trkpt lat="49.4914" lon="0.82673">
        <ele>102.5</ele>
        <time>2016-04-24T07:17:42Z</time>
      </trkpt>
      <trkpt lat="49.4915" lon="0.82677">
        <ele>103.2</ele>
        <time>2016-04-24T07:17:50Z</time>
      </trkpt>
      <trkpt lat="49.49159" lon="0.82682">
        <ele>103.8</ele>
        <time>2016-04-24T07:17:56Z</time>
      </trkpt>
      <trkpt lat="49.49168" lon="0.8269">
        <ele>104.5</ele>
        <time>2016-04-24T07:18:01Z</time>
      </trkpt>
      <trkpt lat="49.49178" lon="0.82696">
        <ele>105.2</ele>
        <time>2016-04-24T07:18:07Z</time>
      </trkpt>
      <trkpt lat="49.49186" lon="0.82701">
        <ele>105.9</ele>
        <time>2016-04-24T07:18:14Z</time>
      </trkpt>
      <trkpt lat="49.49195" lon="0.82708">
        <ele>106.5</ele>
        <time>2016-04-24T07:18:20Z</time>
      </trkpt>
      <trkpt lat="49.49204" lon="0.82714">
        <ele>107.1</ele>
        <time>2016-04-24T07:18:26Z</time>
      </trkpt>
      <trkpt lat="49.49213" lon="0.82721">
        <ele>107.5</ele>
        <time>2016-04-24T07:18:31Z</time>
      </trkpt>
      <trkpt lat="49.49223" lon="0.82729">
        <ele>108.1</ele>
        <time>2016-04-24T07:18:38Z</time>
      </trkpt>
      <trkpt lat="49.49231" lon="0.82735">
        <ele>108.6</ele>
        <time>2016-04-24T07:18:44Z</time>
      </trkpt>
      <trkpt lat="49.4924" lon="0.82741">
        <ele>109.1</ele>
        <time>2016-04-24T07:18:50Z</time>
      </trkpt>
      <trkpt lat="49.49248" lon="0.82747">
        <ele>109.6</ele>
        <time>2016-04-24T07:18:56Z</time>
      </trkpt>
      <trkpt lat="49.49258" lon="0.82751">
        <ele>109.9</ele>
        <time>2016-04-24T07:19:00Z</time>
      </trkpt>
      <trkpt lat="49.49267" lon="0.82758">
        <ele>110.3</ele>
        <time>2016-04-24T07:19:04Z</time>
      </trkpt>
      <trkpt lat="49.49276" lon="0.82764">
        <ele>110.8</ele>
        <time>2016-04-24T07:19:09Z</time>
      </trkpt>
      <trkpt lat="49.49286" lon="0.82771">
        <ele>111.3</ele>
        <time>2016-04-24T07:19:14Z</time>
      </trkpt>
      <trkpt lat="49.49296" lon="0.82779">
        <ele>111.8</ele>
        <time>2016-04-24T07:19:19Z</time>
      </trkpt>
      <trkpt lat="49.49306" lon="0.82786">
        <ele>112.2</ele>
        <time>2016-04-24T07:19:25Z</time>
      </trkpt>
      <trkpt lat="49.49314" lon="0.82793">
        <ele>112.4</ele>
        <time>2016-04-24T07:19:29Z</time>
      </trkpt>
      <trkpt lat="49.49324" lon="0.82798">
        <ele>112.5</ele>
        <time>2016-04-24T07:19:32Z</time>
      </trkpt>
      <trkpt lat="49.49333" lon="0.82804">
        <ele>112.6</ele>
        <time>2016-04-24T07:19:36Z</time>
      </trkpt>
      <trkpt lat="49.49342" lon="0.82811">
        <ele>113</ele>
        <time>2016-04-24T07:19:40Z</time>
      </trkpt>
      <trkpt lat="49.49351" lon="0.82816">
        <ele>113.5</ele>
        <time>2016-04-24T07:19:45Z</time>
      </trkpt>
      <trkpt lat="49.4936" lon="0.82822">
        <ele>113.8</ele>
        <time>2016-04-24T07:19:50Z</time>
      </trkpt>
      <trkpt lat="49.49367" lon="0.82829">
        <ele>114.2</ele>
        <time>2016-04-24T07:19:54Z</time>
      </trkpt>
      <trkpt lat="49.49378" lon="0.82835">
        <ele>114.5</ele>
        <time>2016-04-24T07:19:59Z</time>
      </trkpt>
      <trkpt lat="49.49388" lon="0.8284">
        <ele>114.8</ele>
        <time>2016-04-24T07:20:03Z</time>
      </trkpt>
      <trkpt lat="49.49396" lon="0.82846">
        <ele>115</ele>
        <time>2016-04-24T07:20:07Z</time>
      </trkpt>
      <trkpt lat="49.49404" lon="0.82851">
        <ele>115.2</ele>
        <time>2016-04-24T07:20:11Z</time>
      </trkpt>
      <trkpt lat="49.49412" lon="0.82858">
        <ele>115.4</ele>
        <time>2016-04-24T07:20:16Z</time>
      </trkpt>
      <trkpt lat="49.49421" lon="0.82864">
        <ele>115.6</ele>
        <time>2016-04-24T07:20:20Z</time>
      </trkpt>
      <trkpt lat="49.49431" lon="0.82872">
        <ele>115.9</ele>
        <time>2016-04-24T07:20:26Z</time>
      </trkpt>
      <trkpt lat="49.4944" lon="0.82876">
        <ele>116.1</ele>
        <time>2016-04-24T07:20:31Z</time>
      </trkpt>
      <trkpt lat="49.49451" lon="0.82881">
        <ele>116.4</ele>
        <time>2016-04-24T07:20:35Z</time>
      </trkpt>
      <trkpt lat="49.4946" lon="0.82887">
        <ele>116.6</ele>
        <time>2016-04-24T07:20:39Z</time>
      </trkpt>
      <trkpt lat="49.49471" lon="0.82891">
        <ele>116.8</ele>
        <time>2016-04-24T07:20:43Z</time>
      </trkpt>
      <trkpt lat="49.4948" lon="0.82898">
        <ele>116.9</ele>
        <time>2016-04-24T07:20:47Z</time>
      </trkpt>
      <trkpt lat="49.49489" lon="0.82909">
        <ele>117.2</ele>
        <time>2016-04-24T07:20:52Z</time>
      </trkpt>
      <trkpt lat="49.49499" lon="0.82917">
        <ele>117.3</ele>
        <time>2016-04-24T07:20:57Z</time>
      </trkpt>
      <trkpt lat="49.49508" lon="0.82925">
        <ele>117.3</ele>
        <time>2016-04-24T07:21:01Z</time>
      </trkpt>
      <trkpt lat="49.49517" lon="0.82928">
        <ele>117.4</ele>
        <time>2016-04-24T07:21:04Z</time>
      </trkpt>
      <trkpt lat="49.49527" lon="0.82934">
        <ele>117.5</ele>
        <time>2016-04-24T07:21:08Z</time>
      </trkpt>
      <trkpt lat="49.49538" lon="0.82941">
        <ele>117.5</ele>
        <time>2016-04-24T07:21:12Z</time>
      </trkpt>
      <trkpt lat="49.49548" lon="0.82946">
        <ele>117.5</ele>
        <time>2016-04-24T07:21:15Z</time>
      </trkpt>
      <trkpt lat="49.49556" lon="0.82935">
        <ele>117.6</ele>
        <time>2016-04-24T07:21:19Z</time>
      </trkpt>
      <trkpt lat="49.49562" lon="0.82921">
        <ele>117.6</ele>
        <time>2016-04-24T07:21:23Z</time>
      </trkpt>
      <trkpt lat="49.49568" lon="0.82908">
        <ele>117.7</ele>
        <time>2016-04-24T07:21:26Z</time>
      </trkpt>
      <trkpt lat="49.49573" lon="0.82894">
        <ele>117.7</ele>
        <time>2016-04-24T07:21:29Z</time>
      </trkpt>
      <trkpt lat="49.49577" lon="0.82879">
        <ele>117.8</ele>
        <time>2016-04-24T07:21:32Z</time>
      </trkpt>
      <trkpt lat="49.49583" lon="0.82864">
        <ele>117.9</ele>
        <time>2016-04-24T07:21:35Z</time>
      </trkpt>
      <trkpt lat="49.4959" lon="0.82849">
        <ele>118.1</ele>
        <time>2016-04-24T07:21:38Z</time>
      </trkpt>
      <trkpt lat="49.49599" lon="0.82837">
        <ele>118.2</ele>
        <time>2016-04-24T07:21:41Z</time>
      </trkpt>
      <trkpt lat="49.49609" lon="0.82825">
        <ele>118.2</ele>
        <time>2016-04-24T07:21:44Z</time>
      </trkpt>
      <trkpt lat="49.4962" lon="0.82818">
        <ele>118.3</ele>
        <time>2016-04-24T07:21:47Z</time>
      </trkpt>
      <trkpt lat="49.49632" lon="0.82811">
        <ele>118.3</ele>
        <time>2016-04-24T07:21:50Z</time>
      </trkpt>
      <trkpt lat="49.49642" lon="0.82803">
        <ele>118.3</ele>
        <time>2016-04-24T07:21:53Z</time>
      </trkpt>
      <trkpt lat="49.49651" lon="0.82791">
        <ele>118.3</ele>
        <time>2016-04-24T07:21:56Z</time>
      </trkpt>
      <trkpt lat="49.49658" lon="0.82776">
        <ele>118.3</ele>
        <time>2016-04-24T07:21:59Z</time>
      </trkpt>
      <trkpt lat="49.49664" lon="0.8276">
        <ele>118.3</ele>
        <time>2016-04-24T07:22:02Z</time>
      </trkpt>
      <trkpt lat="49.49668" lon="0.82743">
        <ele>118.4</ele>
        <time>2016-04-24T07:22:05Z</time>
      </trkpt>
      <trkpt lat="49.49672" lon="0.82728">
        <ele>118.4</ele>
        <time>2016-04-24T07:22:08Z</time>
      </trkpt>
      <trkpt lat="49.49677" lon="0.82714">
        <ele>118.6</ele>
        <time>2016-04-24T07:22:11Z</time>
      </trkpt>
      <trkpt lat="49.49685" lon="0.82702">
        <ele>118.8</ele>
        <time>2016-04-24T07:22:14Z</time>
      </trkpt>
      <trkpt lat="49.49693" lon="0.82689">
        <ele>118.8</ele>
        <time>2016-04-24T07:22:17Z</time>
      </trkpt>
      <trkpt lat="49.49701" lon="0.82676">
        <ele>118.9</ele>
        <time>2016-04-24T07:22:20Z</time>
      </trkpt>
      <trkpt lat="49.49709" lon="0.82663">
        <ele>118.9</ele>
        <time>2016-04-24T07:22:23Z</time>
      </trkpt>
      <trkpt lat="49.49718" lon="0.82651">
        <ele>119</ele>
        <time>2016-04-24T07:22:26Z</time>
      </trkpt>
      <trkpt lat="49.49726" lon="0.82638">
        <ele>119</ele>
        <time>2016-04-24T07:22:29Z</time>
      </trkpt>
      <trkpt lat="49.49735" lon="0.82625">
        <ele>119</ele>
        <time>2016-04-24T07:22:32Z</time>
      </trkpt>
      <trkpt lat="49.49743" lon="0.82612">
        <ele>119.1</ele>
        <time>2016-04-24T07:22:35Z</time>
      </trkpt>
      <trkpt lat="49.4975" lon="0.82599">
        <ele>119.1</ele>
        <time>2016-04-24T07:22:38Z</time>
      </trkpt>
      <trkpt lat="49.49758" lon="0.82586">
        <ele>119.1</ele>
        <time>2016-04-24T07:22:41Z</time>
      </trkpt>
      <trkpt lat="49.49764" lon="0.8257">
        <ele>119.1</ele>
        <time>2016-04-24T07:22:44Z</time>
      </trkpt>
      <trkpt lat="49.49772" lon="0.82556">
        <ele>119.1</ele>
        <time>2016-04-24T07:22:47Z</time>
      </trkpt>
      <trkpt lat="49.49777" lon="0.8254">
        <ele>119.2</ele>
        <time>2016-04-24T07:22:50Z</time>
      </trkpt>
      <trkpt lat="49.49784" lon="0.82526">
        <ele>119.2</ele>
        <time>2016-04-24T07:22:53Z</time>
      </trkpt>
      <trkpt lat="49.4979" lon="0.82511">
        <ele>119.3</ele>
        <time>2016-04-24T07:22:56Z</time>
      </trkpt>
      <trkpt lat="49.49796" lon="0.82498">
        <ele>119.4</ele>
        <time>2016-04-24T07:22:59Z</time>
      </trkpt>
      <trkpt lat="49.49802" lon="0.82487">
        <ele>119.5</ele>
        <time>2016-04-24T07:23:02Z</time>
      </trkpt>
      <trkpt lat="49.4981" lon="0.82476">
        <ele>119.6</ele>
        <time>2016-04-24T07:23:05Z</time>
      </trkpt>
      <trkpt lat="49.49819" lon="0.82468">
        <ele>119.8</ele>
        <time>2016-04-24T07:23:08Z</time>
      </trkpt>
      <trkpt lat="49.49827" lon="0.8246">
        <ele>120.1</ele>
        <time>2016-04-24T07:23:11Z</time>
      </trkpt>
      <trkpt lat="49.49835" lon="0.82453">
        <ele>120.3</ele>
        <time>2016-04-24T07:23:14Z</time>
      </trkpt>
      <trkpt lat="49.49843" lon="0.82445">
        <ele>120.4</ele>
        <time>2016-04-24T07:23:17Z</time>
      </trkpt>
      <trkpt lat="49.49851" lon="0.82438">
        <ele>120.6</ele>
        <time>2016-04-24T07:23:20Z</time>
      </trkpt>
      <trkpt lat="49.49857" lon="0.82424">
        <ele>120.8</ele>
        <time>2016-04-24T07:23:24Z</time>
      </trkpt>
      <trkpt lat="49.49863" lon="0.8241">
        <ele>121.1</ele>
        <time>2016-04-24T07:23:28Z</time>
      </trkpt>
      <trkpt lat="49.49866" lon="0.82394">
        <ele>121.4</ele>
        <time>2016-04-24T07:23:32Z</time>
      </trkpt>
      <trkpt lat="49.49868" lon="0.82377">
        <ele>121.7</ele>
        <time>2016-04-24T07:23:36Z</time>
      </trkpt>
      <trkpt lat="49.49865" lon="0.82358">
        <ele>121.9</ele>
        <time>2016-04-24T07:23:40Z</time>
      </trkpt>
      <trkpt lat="49.49863" lon="0.82344">
        <ele>122</ele>
        <time>2016-04-24T07:23:43Z</time>
      </trkpt>
      <trkpt lat="49.49858" lon="0.82328">
        <ele>122.2</ele>
        <time>2016-04-24T07:23:47Z</time>
      </trkpt>
      <trkpt lat="49.49854" lon="0.82312">
        <ele>122.4</ele>
        <time>2016-04-24T07:23:51Z</time>
      </trkpt>
      <trkpt lat="49.49851" lon="0.82299">
        <ele>122.6</ele>
        <time>2016-04-24T07:23:54Z</time>
      </trkpt>
      <trkpt lat="49.49848" lon="0.82284">
        <ele>122.8</ele>
        <time>2016-04-24T07:23:57Z</time>
      </trkpt>
      <trkpt lat="49.49844" lon="0.82268">
        <ele>122.9</ele>
        <time>2016-04-24T07:24:00Z</time>
      </trkpt>
      <trkpt lat="49.49839" lon="0.82251">
        <ele>123</ele>
        <time>2016-04-24T07:24:03Z</time>
      </trkpt>
      <trkpt lat="49.49833" lon="0.82234">
        <ele>123.2</ele>
        <time>2016-04-24T07:24:06Z</time>
      </trkpt>
      <trkpt lat="49.49827" lon="0.82218">
        <ele>123.3</ele>
        <time>2016-04-24T07:24:09Z</time>
      </trkpt>
      <trkpt lat="49.4982" lon="0.82205">
        <ele>123.5</ele>
        <time>2016-04-24T07:24:12Z</time>
      </trkpt>
      <trkpt lat="49.49811" lon="0.82192">
        <ele>123.7</ele>
        <time>2016-04-24T07:24:15Z</time>
      </trkpt>
      <trkpt lat="49.49802" lon="0.82179">
        <ele>123.8</ele>
        <time>2016-04-24T07:24:18Z</time>
      </trkpt>
      <trkpt lat="49.49798" lon="0.82161">
        <ele>123.9</ele>
        <time>2016-04-24T07:24:21Z</time>
      </trkpt>
      <trkpt lat="49.49797" lon="0.82144">
        <ele>123.9</ele>
        <time>2016-04-24T07:24:24Z</time>
      </trkpt>
      <trkpt lat="49.49796" lon="0.82127">
        <ele>124</ele>
        <time>2016-04-24T07:24:27Z</time>
      </trkpt>
      <trkpt lat="49.49794" lon="0.82111">
        <ele>124</ele>
        <time>2016-04-24T07:24:30Z</time>
      </trkpt>
      <trkpt lat="49.4979" lon="0.82096">
        <ele>124.1</ele>
        <time>2016-04-24T07:24:33Z</time>
      </trkpt>
      <trkpt lat="49.49786" lon="0.82082">
        <ele>124.1</ele>
        <time>2016-04-24T07:24:36Z</time>
      </trkpt>
      <trkpt lat="49.49782" lon="0.82066">
        <ele>124.1</ele>
        <time>2016-04-24T07:24:39Z</time>
      </trkpt>
      <trkpt lat="49.49777" lon="0.82052">
        <ele>124.2</ele>
        <time>2016-04-24T07:24:42Z</time>
      </trkpt>
      <trkpt lat="49.49773" lon="0.82038">
        <ele>124.2</ele>
        <time>2016-04-24T07:24:45Z</time>
      </trkpt>
      <trkpt lat="49.4977" lon="0.82024">
        <ele>124.2</ele>
        <time>2016-04-24T07:24:49Z</time>
      </trkpt>
      <trkpt lat="49.49762" lon="0.82011">
        <ele>124.7</ele>
        <time>2016-04-24T07:26:09Z</time>
      </trkpt>
      <trkpt lat="49.49757" lon="0.81998">
        <ele>124.6</ele>
        <time>2016-04-24T07:26:13Z</time>
      </trkpt>
      <trkpt lat="49.49752" lon="0.81979">
        <ele>124.6</ele>
        <time>2016-04-24T07:26:16Z</time>
      </trkpt>
      <trkpt lat="49.49748" lon="0.81966">
        <ele>124.6</ele>
        <time>2016-04-24T07:26:18Z</time>
      </trkpt>
      <trkpt lat="49.49746" lon="0.81948">
        <ele>124.6</ele>
        <time>2016-04-24T07:26:21Z</time>
      </trkpt>
      <trkpt lat="49.4974" lon="0.81935">
        <ele>124.6</ele>
        <time>2016-04-24T07:26:23Z</time>
      </trkpt>
      <trkpt lat="49.49735" lon="0.81921">
        <ele>124.6</ele>
        <time>2016-04-24T07:26:25Z</time>
      </trkpt>
      <trkpt lat="49.4973" lon="0.81908">
        <ele>124.6</ele>
        <time>2016-04-24T07:26:27Z</time>
      </trkpt>
      <trkpt lat="49.49726" lon="0.81894">
        <ele>124.6</ele>
        <time>2016-04-24T07:26:29Z</time>
      </trkpt>
      <trkpt lat="49.49722" lon="0.81881">
        <ele>124.5</ele>
        <time>2016-04-24T07:26:31Z</time>
      </trkpt>
      <trkpt lat="49.49718" lon="0.81867">
        <ele>124.4</ele>
        <time>2016-04-24T07:26:33Z</time>
      </trkpt>
      <trkpt lat="49.49714" lon="0.81853">
        <ele>124.2</ele>
        <time>2016-04-24T07:26:35Z</time>
      </trkpt>
      <trkpt lat="49.49708" lon="0.81834">
        <ele>124.1</ele>
        <time>2016-04-24T07:26:38Z</time>
      </trkpt>
      <trkpt lat="49.49704" lon="0.81821">
        <ele>124</ele>
        <time>2016-04-24T07:26:40Z</time>
      </trkpt>
      <trkpt lat="49.49699" lon="0.81803">
        <ele>123.9</ele>
        <time>2016-04-24T07:26:43Z</time>
      </trkpt>
      <trkpt lat="49.49694" lon="0.81787">
        <ele>123.8</ele>
        <time>2016-04-24T07:26:46Z</time>
      </trkpt>
      <trkpt lat="49.49689" lon="0.81771">
        <ele>123.8</ele>
        <time>2016-04-24T07:26:49Z</time>
      </trkpt>
      <trkpt lat="49.49684" lon="0.81756">
        <ele>123.9</ele>
        <time>2016-04-24T07:26:52Z</time>
      </trkpt>
      <trkpt lat="49.4968" lon="0.8174">
        <ele>123.9</ele>
        <time>2016-04-24T07:26:55Z</time>
      </trkpt>
      <trkpt lat="49.49675" lon="0.81723">
        <ele>124</ele>
        <time>2016-04-24T07:26:58Z</time>
      </trkpt>
      <trkpt lat="49.4967" lon="0.81705">
        <ele>124</ele>
        <time>2016-04-24T07:27:01Z</time>
      </trkpt>
      <trkpt lat="49.49665" lon="0.81687">
        <ele>124</ele>
        <time>2016-04-24T07:27:04Z</time>
      </trkpt>
      <trkpt lat="49.4966" lon="0.8167">
        <ele>124</ele>
        <time>2016-04-24T07:27:07Z</time>
      </trkpt>
      <trkpt lat="49.49655" lon="0.81652">
        <ele>124</ele>
        <time>2016-04-24T07:27:10Z</time>
      </trkpt>
      <trkpt lat="49.4965" lon="0.81635">
        <ele>123.9</ele>
        <time>2016-04-24T07:27:13Z</time>
      </trkpt>
      <trkpt lat="49.49645" lon="0.81618">
        <ele>123.8</ele>
        <time>2016-04-24T07:27:16Z</time>
      </trkpt>
      <trkpt lat="49.49638" lon="0.816">
        <ele>123.7</ele>
        <time>2016-04-24T07:27:19Z</time>
      </trkpt>
      <trkpt lat="49.49633" lon="0.81587">
        <ele>123.7</ele>
        <time>2016-04-24T07:27:21Z</time>
      </trkpt>
      <trkpt lat="49.49629" lon="0.81575">
        <ele>123.7</ele>
        <time>2016-04-24T07:27:23Z</time>
      </trkpt>
      <trkpt lat="49.49623" lon="0.81556">
        <ele>123.7</ele>
        <time>2016-04-24T07:27:26Z</time>
      </trkpt>
      <trkpt lat="49.49618" lon="0.81538">
        <ele>123.6</ele>
        <time>2016-04-24T07:27:29Z</time>
      </trkpt>
      <trkpt lat="49.49612" lon="0.8152">
        <ele>123.6</ele>
        <time>2016-04-24T07:27:32Z</time>
      </trkpt>
      <trkpt lat="49.49607" lon="0.81503">
        <ele>123.6</ele>
        <time>2016-04-24T07:27:35Z</time>
      </trkpt>
      <trkpt lat="49.49602" lon="0.81485">
        <ele>123.6</ele>
        <time>2016-04-24T07:27:38Z</time>
      </trkpt>
      <trkpt lat="49.49597" lon="0.81468">
        <ele>123.6</ele>
        <time>2016-04-24T07:27:41Z</time>
      </trkpt>
      <trkpt lat="49.49592" lon="0.81453">
        <ele>123.6</ele>
        <time>2016-04-24T07:27:44Z</time>
      </trkpt>
      <trkpt lat="49.49588" lon="0.81439">
        <ele>123.7</ele>
        <time>2016-04-24T07:27:47Z</time>
      </trkpt>
      <trkpt lat="49.49584" lon="0.81423">
        <ele>123.8</ele>
        <time>2016-04-24T07:27:51Z</time>
      </trkpt>
      <trkpt lat="49.49586" lon="0.81409">
        <ele>124.1</ele>
        <time>2016-04-24T07:27:54Z</time>
      </trkpt>
      <trkpt lat="49.49591" lon="0.81396">
        <ele>124.2</ele>
        <time>2016-04-24T07:27:57Z</time>
      </trkpt>
      <trkpt lat="49.49597" lon="0.81385">
        <ele>124.4</ele>
        <time>2016-04-24T07:28:00Z</time>
      </trkpt>
      <trkpt lat="49.49608" lon="0.81384">
        <ele>124.4</ele>
        <time>2016-04-24T07:28:03Z</time>
      </trkpt>
      <trkpt lat="49.49618" lon="0.81384">
        <ele>124.5</ele>
        <time>2016-04-24T07:28:06Z</time>
      </trkpt>
      <trkpt lat="49.4963" lon="0.81386">
        <ele>124.6</ele>
        <time>2016-04-24T07:28:09Z</time>
      </trkpt>
      <trkpt lat="49.49639" lon="0.81388">
        <ele>124.8</ele>
        <time>2016-04-24T07:28:12Z</time>
      </trkpt>
      <trkpt lat="49.49651" lon="0.81391">
        <ele>124.9</ele>
        <time>2016-04-24T07:28:15Z</time>
      </trkpt>
      <trkpt lat="49.49662" lon="0.81395">
        <ele>125</ele>
        <time>2016-04-24T07:28:18Z</time>
      </trkpt>
      <trkpt lat="49.49673" lon="0.81398">
        <ele>125.1</ele>
        <time>2016-04-24T07:28:21Z</time>
      </trkpt>
      <trkpt lat="49.49685" lon="0.814">
        <ele>125.2</ele>
        <time>2016-04-24T07:28:24Z</time>
      </trkpt>
      <trkpt lat="49.49695" lon="0.81401">
        <ele>125.2</ele>
        <time>2016-04-24T07:28:27Z</time>
      </trkpt>
      <trkpt lat="49.49704" lon="0.81404">
        <ele>125.3</ele>
        <time>2016-04-24T07:28:30Z</time>
      </trkpt>
      <trkpt lat="49.49716" lon="0.81407">
        <ele>125.4</ele>
        <time>2016-04-24T07:28:34Z</time>
      </trkpt>
      <trkpt lat="49.49726" lon="0.8141">
        <ele>125.5</ele>
        <time>2016-04-24T07:28:37Z</time>
      </trkpt>
      <trkpt lat="49.49735" lon="0.81413">
        <ele>125.6</ele>
        <time>2016-04-24T07:28:40Z</time>
      </trkpt>
      <trkpt lat="49.49744" lon="0.81416">
        <ele>125.7</ele>
        <time>2016-04-24T07:28:43Z</time>
      </trkpt>
      <trkpt lat="49.49754" lon="0.81418">
        <ele>125.7</ele>
        <time>2016-04-24T07:28:46Z</time>
      </trkpt>
      <trkpt lat="49.49764" lon="0.81417">
        <ele>125.9</ele>
        <time>2016-04-24T07:28:49Z</time>
      </trkpt>
      <trkpt lat="49.49775" lon="0.81418">
        <ele>126.1</ele>
        <time>2016-04-24T07:28:52Z</time>
      </trkpt>
      <trkpt lat="49.49786" lon="0.81418">
        <ele>126.2</ele>
        <time>2016-04-24T07:28:55Z</time>
      </trkpt>
      <trkpt lat="49.49797" lon="0.81417">
        <ele>126.4</ele>
        <time>2016-04-24T07:28:58Z</time>
      </trkpt>
      <trkpt lat="49.49807" lon="0.81417">
        <ele>126.5</ele>
        <time>2016-04-24T07:29:01Z</time>
      </trkpt>
      <trkpt lat="49.49817" lon="0.81416">
        <ele>126.7</ele>
        <time>2016-04-24T07:29:04Z</time>
      </trkpt>
      <trkpt lat="49.49828" lon="0.81416">
        <ele>126.8</ele>
        <time>2016-04-24T07:29:07Z</time>
      </trkpt>
      <trkpt lat="49.49838" lon="0.81418">
        <ele>126.9</ele>
        <time>2016-04-24T07:29:10Z</time>
      </trkpt>
      <trkpt lat="49.49848" lon="0.81419">
        <ele>127</ele>
        <time>2016-04-24T07:29:13Z</time>
      </trkpt>
      <trkpt lat="49.49857" lon="0.81422">
        <ele>127.1</ele>
        <time>2016-04-24T07:29:16Z</time>
      </trkpt>
      <trkpt lat="49.49867" lon="0.81425">
        <ele>127.3</ele>
        <time>2016-04-24T07:29:19Z</time>
      </trkpt>
      <trkpt lat="49.49876" lon="0.81427">
        <ele>127.5</ele>
        <time>2016-04-24T07:29:22Z</time>
      </trkpt>
      <trkpt lat="49.49886" lon="0.8143">
        <ele>127.7</ele>
        <time>2016-04-24T07:29:25Z</time>
      </trkpt>
      <trkpt lat="49.49896" lon="0.81432">
        <ele>127.9</ele>
        <time>2016-04-24T07:29:28Z</time>
      </trkpt>
      <trkpt lat="49.49907" lon="0.81432">
        <ele>128.2</ele>
        <time>2016-04-24T07:29:31Z</time>
      </trkpt>
      <trkpt lat="49.49919" lon="0.81432">
        <ele>128.4</ele>
        <time>2016-04-24T07:29:34Z</time>
      </trkpt>
      <trkpt lat="49.49931" lon="0.81433">
        <ele>128.5</ele>
        <time>2016-04-24T07:29:37Z</time>
      </trkpt>
      <trkpt lat="49.49944" lon="0.81433">
        <ele>128.6</ele>
        <time>2016-04-24T07:29:40Z</time>
      </trkpt>
      <trkpt lat="49.49954" lon="0.81434">
        <ele>128.7</ele>
        <time>2016-04-24T07:29:42Z</time>
      </trkpt>
      <trkpt lat="49.49963" lon="0.81435">
        <ele>128.7</ele>
        <time>2016-04-24T07:29:44Z</time>
      </trkpt>
      <trkpt lat="49.49973" lon="0.81438">
        <ele>128.7</ele>
        <time>2016-04-24T07:29:46Z</time>
      </trkpt>
      <trkpt lat="49.49985" lon="0.8144">
        <ele>128.6</ele>
        <time>2016-04-24T07:29:48Z</time>
      </trkpt>
      <trkpt lat="49.49997" lon="0.81444">
        <ele>128.5</ele>
        <time>2016-04-24T07:29:50Z</time>
      </trkpt>
      <trkpt lat="49.50008" lon="0.81448">
        <ele>128.6</ele>
        <time>2016-04-24T07:29:52Z</time>
      </trkpt>
      <trkpt lat="49.50019" lon="0.81454">
        <ele>128.6</ele>
        <time>2016-04-24T07:29:54Z</time>
      </trkpt>
      <trkpt lat="49.5003" lon="0.8146">
        <ele>128.6</ele>
        <time>2016-04-24T07:29:56Z</time>
      </trkpt>
      <trkpt lat="49.50043" lon="0.81466">
        <ele>128.4</ele>
        <time>2016-04-24T07:29:58Z</time>
      </trkpt>
      <trkpt lat="49.50056" lon="0.81474">
        <ele>128.2</ele>
        <time>2016-04-24T07:30:00Z</time>
      </trkpt>
      <trkpt lat="49.50069" lon="0.81481">
        <ele>127.9</ele>
        <time>2016-04-24T07:30:02Z</time>
      </trkpt>
      <trkpt lat="49.50081" lon="0.81487">
        <ele>127.7</ele>
        <time>2016-04-24T07:30:04Z</time>
      </trkpt>
      <trkpt lat="49.50092" lon="0.81494">
        <ele>127.5</ele>
        <time>2016-04-24T07:30:06Z</time>
      </trkpt>
      <trkpt lat="49.50103" lon="0.81499">
        <ele>127.3</ele>
        <time>2016-04-24T07:30:08Z</time>
      </trkpt>
      <trkpt lat="49.50112" lon="0.8149">
        <ele>126.9</ele>
        <time>2016-04-24T07:30:12Z</time>
      </trkpt>
      <trkpt lat="49.50117" lon="0.81474">
        <ele>126.7</ele>
        <time>2016-04-24T07:30:15Z</time>
      </trkpt>
      <trkpt lat="49.5012" lon="0.8146">
        <ele>126.4</ele>
        <time>2016-04-24T07:30:17Z</time>
      </trkpt>
      <trkpt lat="49.50123" lon="0.81445">
        <ele>126.2</ele>
        <time>2016-04-24T07:30:19Z</time>
      </trkpt>
      <trkpt lat="49.50126" lon="0.81432">
        <ele>126</ele>
        <time>2016-04-24T07:30:21Z</time>
      </trkpt>
      <trkpt lat="49.50129" lon="0.81418">
        <ele>125.8</ele>
        <time>2016-04-24T07:30:23Z</time>
      </trkpt>
      <trkpt lat="49.50132" lon="0.81404">
        <ele>125.7</ele>
        <time>2016-04-24T07:30:25Z</time>
      </trkpt>
      <trkpt lat="49.50136" lon="0.8139">
        <ele>125.6</ele>
        <time>2016-04-24T07:30:27Z</time>
      </trkpt>
      <trkpt lat="49.50139" lon="0.81377">
        <ele>125.5</ele>
        <time>2016-04-24T07:30:29Z</time>
      </trkpt>
      <trkpt lat="49.50143" lon="0.81364">
        <ele>125.4</ele>
        <time>2016-04-24T07:30:31Z</time>
      </trkpt>
      <trkpt lat="49.50146" lon="0.8135">
        <ele>125.3</ele>
        <time>2016-04-24T07:30:33Z</time>
      </trkpt>
      <trkpt lat="49.5015" lon="0.81337">
        <ele>125.2</ele>
        <time>2016-04-24T07:30:35Z</time>
      </trkpt>
      <trkpt lat="49.50153" lon="0.81324">
        <ele>125.1</ele>
        <time>2016-04-24T07:30:37Z</time>
      </trkpt>
      <trkpt lat="49.50157" lon="0.8131">
        <ele>124.9</ele>
        <time>2016-04-24T07:30:39Z</time>
      </trkpt>
      <trkpt lat="49.5016" lon="0.81296">
        <ele>124.7</ele>
        <time>2016-04-24T07:30:41Z</time>
      </trkpt>
      <trkpt lat="49.50164" lon="0.81281">
        <ele>124.6</ele>
        <time>2016-04-24T07:30:43Z</time>
      </trkpt>
      <trkpt lat="49.50167" lon="0.81266">
        <ele>124.5</ele>
        <time>2016-04-24T07:30:45Z</time>
      </trkpt>
      <trkpt lat="49.50171" lon="0.81252">
        <ele>124.5</ele>
        <time>2016-04-24T07:30:47Z</time>
      </trkpt>
      <trkpt lat="49.50176" lon="0.81238">
        <ele>124.6</ele>
        <time>2016-04-24T07:30:49Z</time>
      </trkpt>
      <trkpt lat="49.5018" lon="0.81225">
        <ele>124.7</ele>
        <time>2016-04-24T07:30:51Z</time>
      </trkpt>
      <trkpt lat="49.50183" lon="0.81212">
        <ele>124.8</ele>
        <time>2016-04-24T07:30:53Z</time>
      </trkpt>
      <trkpt lat="49.50187" lon="0.81198">
        <ele>124.8</ele>
        <time>2016-04-24T07:30:55Z</time>
      </trkpt>
      <trkpt lat="49.50191" lon="0.81183">
        <ele>124.9</ele>
        <time>2016-04-24T07:30:57Z</time>
      </trkpt>
      <trkpt lat="49.50195" lon="0.81169">
        <ele>124.9</ele>
        <time>2016-04-24T07:30:59Z</time>
      </trkpt>
      <trkpt lat="49.50198" lon="0.81155">
        <ele>124.9</ele>
        <time>2016-04-24T07:31:01Z</time>
      </trkpt>
      <trkpt lat="49.50202" lon="0.81141">
        <ele>125</ele>
        <time>2016-04-24T07:31:03Z</time>
      </trkpt>
      <trkpt lat="49.50205" lon="0.81127">
        <ele>125</ele>
        <time>2016-04-24T07:31:05Z</time>
      </trkpt>
      <trkpt lat="49.50209" lon="0.81114">
        <ele>124.9</ele>
        <time>2016-04-24T07:31:07Z</time>
      </trkpt>
      <trkpt lat="49.50213" lon="0.811">
        <ele>124.8</ele>
        <time>2016-04-24T07:31:09Z</time>
      </trkpt>
      <trkpt lat="49.50216" lon="0.81086">
        <ele>124.7</ele>
        <time>2016-04-24T07:31:11Z</time>
      </trkpt>
      <trkpt lat="49.5022" lon="0.81072">
        <ele>124.5</ele>
        <time>2016-04-24T07:31:13Z</time>
      </trkpt>
      <trkpt lat="49.50223" lon="0.81058">
        <ele>124.3</ele>
        <time>2016-04-24T07:31:15Z</time>
      </trkpt>
      <trkpt lat="49.50227" lon="0.81044">
        <ele>124.2</ele>
        <time>2016-04-24T07:31:17Z</time>
      </trkpt>
      <trkpt lat="49.5023" lon="0.81031">
        <ele>124.1</ele>
        <time>2016-04-24T07:31:19Z</time>
      </trkpt>
      <trkpt lat="49.50235" lon="0.81012">
        <ele>123.9</ele>
        <time>2016-04-24T07:31:22Z</time>
      </trkpt>
      <trkpt lat="49.5024" lon="0.80994">
        <ele>123.7</ele>
        <time>2016-04-24T07:31:25Z</time>
      </trkpt>
      <trkpt lat="49.50245" lon="0.80975">
        <ele>123.3</ele>
        <time>2016-04-24T07:31:28Z</time>
      </trkpt>
      <trkpt lat="49.5025" lon="0.80957">
        <ele>123</ele>
        <time>2016-04-24T07:31:31Z</time>
      </trkpt>
      <trkpt lat="49.50255" lon="0.80939">
        <ele>122.7</ele>
        <time>2016-04-24T07:31:34Z</time>
      </trkpt>
      <trkpt lat="49.5026" lon="0.8092">
        <ele>122.4</ele>
        <time>2016-04-24T07:31:37Z</time>
      </trkpt>
      <trkpt lat="49.50265" lon="0.80901">
        <ele>121.9</ele>
        <time>2016-04-24T07:31:40Z</time>
      </trkpt>
      <trkpt lat="49.50269" lon="0.80888">
        <ele>121.6</ele>
        <time>2016-04-24T07:31:42Z</time>
      </trkpt>
      <trkpt lat="49.50272" lon="0.80874">
        <ele>121.3</ele>
        <time>2016-04-24T07:31:44Z</time>
      </trkpt>
      <trkpt lat="49.5028" lon="0.80861">
        <ele>120.8</ele>
        <time>2016-04-24T07:31:47Z</time>
      </trkpt>
      <trkpt lat="49.50293" lon="0.8086">
        <ele>120.3</ele>
        <time>2016-04-24T07:31:50Z</time>
      </trkpt>
      <trkpt lat="49.50305" lon="0.80865">
        <ele>120</ele>
        <time>2016-04-24T07:31:53Z</time>
      </trkpt>
      <trkpt lat="49.50315" lon="0.8087">
        <ele>119.8</ele>
        <time>2016-04-24T07:31:56Z</time>
      </trkpt>
      <trkpt lat="49.50325" lon="0.80874">
        <ele>119.6</ele>
        <time>2016-04-24T07:32:00Z</time>
      </trkpt>
      <trkpt lat="49.50336" lon="0.80875">
        <ele>119.5</ele>
        <time>2016-04-24T07:32:05Z</time>
      </trkpt>
      <trkpt lat="49.50346" lon="0.80882">
        <ele>119.6</ele>
        <time>2016-04-24T07:32:09Z</time>
      </trkpt>
      <trkpt lat="49.50354" lon="0.80888">
        <ele>119.7</ele>
        <time>2016-04-24T07:32:12Z</time>
      </trkpt>
      <trkpt lat="49.50361" lon="0.80896">
        <ele>119.8</ele>
        <time>2016-04-24T07:32:15Z</time>
      </trkpt>
      <trkpt lat="49.5037" lon="0.80904">
        <ele>120.1</ele>
        <time>2016-04-24T07:32:18Z</time>
      </trkpt>
      <trkpt lat="49.50378" lon="0.80909">
        <ele>120.3</ele>
        <time>2016-04-24T07:32:21Z</time>
      </trkpt>
      <trkpt lat="49.50388" lon="0.80917">
        <ele>120.7</ele>
        <time>2016-04-24T07:32:25Z</time>
      </trkpt>
      <trkpt lat="49.50398" lon="0.80924">
        <ele>121</ele>
        <time>2016-04-24T07:32:29Z</time>
      </trkpt>
      <trkpt lat="49.50409" lon="0.80929">
        <ele>121.3</ele>
        <time>2016-04-24T07:32:33Z</time>
      </trkpt>
      <trkpt lat="49.50419" lon="0.80935">
        <ele>121.7</ele>
        <time>2016-04-24T07:32:37Z</time>
      </trkpt>
      <trkpt lat="49.5043" lon="0.80934">
        <ele>122</ele>
        <time>2016-04-24T07:32:41Z</time>
      </trkpt>
      <trkpt lat="49.50435" lon="0.8092">
        <ele>122.4</ele>
        <time>2016-04-24T07:32:45Z</time>
      </trkpt>
      <trkpt lat="49.50439" lon="0.80903">
        <ele>122.8</ele>
        <time>2016-04-24T07:32:49Z</time>
      </trkpt>
      <trkpt lat="49.50441" lon="0.80887">
        <ele>123.1</ele>
        <time>2016-04-24T07:32:52Z</time>
      </trkpt>
      <trkpt lat="49.50444" lon="0.80873">
        <ele>123.3</ele>
        <time>2016-04-24T07:32:55Z</time>
      </trkpt>
      <trkpt lat="49.50446" lon="0.80858">
        <ele>123.5</ele>
        <time>2016-04-24T07:32:58Z</time>
      </trkpt>
      <trkpt lat="49.5045" lon="0.80843">
        <ele>123.7</ele>
        <time>2016-04-24T07:33:01Z</time>
      </trkpt>
      <trkpt lat="49.50454" lon="0.80826">
        <ele>123.9</ele>
        <time>2016-04-24T07:33:04Z</time>
      </trkpt>
      <trkpt lat="49.50459" lon="0.80815">
        <ele>124</ele>
        <time>2016-04-24T07:33:07Z</time>
      </trkpt>
      <trkpt lat="49.50469" lon="0.80812">
        <ele>124.1</ele>
        <time>2016-04-24T07:33:10Z</time>
      </trkpt>
      <trkpt lat="49.50478" lon="0.80817">
        <ele>124.2</ele>
        <time>2016-04-24T07:33:13Z</time>
      </trkpt>
      <trkpt lat="49.50486" lon="0.80823">
        <ele>124.3</ele>
        <time>2016-04-24T07:33:16Z</time>
      </trkpt>
      <trkpt lat="49.50496" lon="0.80829">
        <ele>124.4</ele>
        <time>2016-04-24T07:33:19Z</time>
      </trkpt>
      <trkpt lat="49.50506" lon="0.80834">
        <ele>124.5</ele>
        <time>2016-04-24T07:33:22Z</time>
      </trkpt>
      <trkpt lat="49.50516" lon="0.80836">
        <ele>124.7</ele>
        <time>2016-04-24T07:33:25Z</time>
      </trkpt>
      <trkpt lat="49.50525" lon="0.80832">
        <ele>125</ele>
        <time>2016-04-24T07:33:28Z</time>
      </trkpt>
      <trkpt lat="49.50535" lon="0.80823">
        <ele>125.4</ele>
        <time>2016-04-24T07:33:32Z</time>
      </trkpt>
      <trkpt lat="49.50543" lon="0.80815">
        <ele>126.4</ele>
        <time>2016-04-24T07:33:35Z</time>
      </trkpt>
      <trkpt lat="49.5055" lon="0.80805">
        <ele>126.9</ele>
        <time>2016-04-24T07:33:39Z</time>
      </trkpt>
      <trkpt lat="49.50561" lon="0.80798">
        <ele>126.5</ele>
        <time>2016-04-24T07:33:43Z</time>
      </trkpt>
      <trkpt lat="49.50571" lon="0.80796">
        <ele>126.1</ele>
        <time>2016-04-24T07:33:47Z</time>
      </trkpt>
      <trkpt lat="49.5058" lon="0.80794">
        <ele>126.9</ele>
        <time>2016-04-24T07:33:52Z</time>
      </trkpt>
      <trkpt lat="49.5059" lon="0.80794">
        <ele>126.8</ele>
        <time>2016-04-24T07:33:55Z</time>
      </trkpt>
      <trkpt lat="49.506" lon="0.80796">
        <ele>126.8</ele>
        <time>2016-04-24T07:33:58Z</time>
      </trkpt>
      <trkpt lat="49.50609" lon="0.80801">
        <ele>128.2</ele>
        <time>2016-04-24T07:34:04Z</time>
      </trkpt>
      <trkpt lat="49.50619" lon="0.80801">
        <ele>128.8</ele>
        <time>2016-04-24T07:34:10Z</time>
      </trkpt>
      <trkpt lat="49.50628" lon="0.80791">
        <ele>128.5</ele>
        <time>2016-04-24T07:34:18Z</time>
      </trkpt>
      <trkpt lat="49.50636" lon="0.80779">
        <ele>129</ele>
        <time>2016-04-24T07:34:23Z</time>
      </trkpt>
      <trkpt lat="49.50641" lon="0.80767">
        <ele>129.1</ele>
        <time>2016-04-24T07:34:26Z</time>
      </trkpt>
      <trkpt lat="49.50651" lon="0.80757">
        <ele>129.2</ele>
        <time>2016-04-24T07:34:30Z</time>
      </trkpt>
      <trkpt lat="49.50657" lon="0.80745">
        <ele>129.3</ele>
        <time>2016-04-24T07:34:33Z</time>
      </trkpt>
      <trkpt lat="49.50663" lon="0.80733">
        <ele>129.3</ele>
        <time>2016-04-24T07:34:36Z</time>
      </trkpt>
      <trkpt lat="49.50669" lon="0.80722">
        <ele>129.4</ele>
        <time>2016-04-24T07:34:39Z</time>
      </trkpt>
      <trkpt lat="49.50675" lon="0.80706">
        <ele>129.5</ele>
        <time>2016-04-24T07:34:43Z</time>
      </trkpt>
      <trkpt lat="49.50681" lon="0.80694">
        <ele>129.5</ele>
        <time>2016-04-24T07:34:46Z</time>
      </trkpt>
      <trkpt lat="49.50688" lon="0.8068">
        <ele>129.6</ele>
        <time>2016-04-24T07:34:50Z</time>
      </trkpt>
      <trkpt lat="49.50694" lon="0.80669">
        <ele>129.8</ele>
        <time>2016-04-24T07:34:53Z</time>
      </trkpt>
      <trkpt lat="49.507" lon="0.80656">
        <ele>129.8</ele>
        <time>2016-04-24T07:34:56Z</time>
      </trkpt>
      <trkpt lat="49.50706" lon="0.80641">
        <ele>129.9</ele>
        <time>2016-04-24T07:34:59Z</time>
      </trkpt>
      <trkpt lat="49.50714" lon="0.80627">
        <ele>129.9</ele>
        <time>2016-04-24T07:35:02Z</time>
      </trkpt>
      <trkpt lat="49.50721" lon="0.80612">
        <ele>129.9</ele>
        <time>2016-04-24T07:35:05Z</time>
      </trkpt>
      <trkpt lat="49.50729" lon="0.80598">
        <ele>129.9</ele>
        <time>2016-04-24T07:35:08Z</time>
      </trkpt>
      <trkpt lat="49.50737" lon="0.80584">
        <ele>129.8</ele>
        <time>2016-04-24T07:35:11Z</time>
      </trkpt>
      <trkpt lat="49.50745" lon="0.8057">
        <ele>129.7</ele>
        <time>2016-04-24T07:35:14Z</time>
      </trkpt>
      <trkpt lat="49.50752" lon="0.80555">
        <ele>129.7</ele>
        <time>2016-04-24T07:35:17Z</time>
      </trkpt>
      <trkpt lat="49.50759" lon="0.8054">
        <ele>129.7</ele>
        <time>2016-04-24T07:35:20Z</time>
      </trkpt>
      <trkpt lat="49.50767" lon="0.80527">
        <ele>129.7</ele>
        <time>2016-04-24T07:35:23Z</time>
      </trkpt>
      <trkpt lat="49.50775" lon="0.80515">
        <ele>129.6</ele>
        <time>2016-04-24T07:35:26Z</time>
      </trkpt>
      <trkpt lat="49.50784" lon="0.80504">
        <ele>129.6</ele>
        <time>2016-04-24T07:35:29Z</time>
      </trkpt>
      <trkpt lat="49.50791" lon="0.80496">
        <ele>129.6</ele>
        <time>2016-04-24T07:35:31Z</time>
      </trkpt>
      <trkpt lat="49.50799" lon="0.80488">
        <ele>129.6</ele>
        <time>2016-04-24T07:35:33Z</time>
      </trkpt>
      <trkpt lat="49.50807" lon="0.80479">
        <ele>129.6</ele>
        <time>2016-04-24T07:35:35Z</time>
      </trkpt>
      <trkpt lat="49.50814" lon="0.80469">
        <ele>129.6</ele>
        <time>2016-04-24T07:35:37Z</time>
      </trkpt>
      <trkpt lat="49.50821" lon="0.80459">
        <ele>129.6</ele>
        <time>2016-04-24T07:35:39Z</time>
      </trkpt>
      <trkpt lat="49.50827" lon="0.80447">
        <ele>129.5</ele>
        <time>2016-04-24T07:35:41Z</time>
      </trkpt>
      <trkpt lat="49.50834" lon="0.80434">
        <ele>129.4</ele>
        <time>2016-04-24T07:35:43Z</time>
      </trkpt>
      <trkpt lat="49.50841" lon="0.8042">
        <ele>129.2</ele>
        <time>2016-04-24T07:35:45Z</time>
      </trkpt>
      <trkpt lat="49.50846" lon="0.80404">
        <ele>129.1</ele>
        <time>2016-04-24T07:35:47Z</time>
      </trkpt>
      <trkpt lat="49.50851" lon="0.80388">
        <ele>128.9</ele>
        <time>2016-04-24T07:35:49Z</time>
      </trkpt>
      <trkpt lat="49.50856" lon="0.80371">
        <ele>128.7</ele>
        <time>2016-04-24T07:35:51Z</time>
      </trkpt>
      <trkpt lat="49.50862" lon="0.80355">
        <ele>128.6</ele>
        <time>2016-04-24T07:35:53Z</time>
      </trkpt>
      <trkpt lat="49.50867" lon="0.80338">
        <ele>128.4</ele>
        <time>2016-04-24T07:35:55Z</time>
      </trkpt>
      <trkpt lat="49.50874" lon="0.80321">
        <ele>128</ele>
        <time>2016-04-24T07:35:57Z</time>
      </trkpt>
      <trkpt lat="49.5088" lon="0.80304">
        <ele>127.7</ele>
        <time>2016-04-24T07:35:59Z</time>
      </trkpt>
      <trkpt lat="49.50886" lon="0.80287">
        <ele>127.4</ele>
        <time>2016-04-24T07:36:01Z</time>
      </trkpt>
      <trkpt lat="49.50893" lon="0.80271">
        <ele>127.1</ele>
        <time>2016-04-24T07:36:03Z</time>
      </trkpt>
      <trkpt lat="49.509" lon="0.80256">
        <ele>126.9</ele>
        <time>2016-04-24T07:36:05Z</time>
      </trkpt>
      <trkpt lat="49.50908" lon="0.80244">
        <ele>126.7</ele>
        <time>2016-04-24T07:36:07Z</time>
      </trkpt>
      <trkpt lat="49.50915" lon="0.80232">
        <ele>126.6</ele>
        <time>2016-04-24T07:36:09Z</time>
      </trkpt>
      <trkpt lat="49.50922" lon="0.80223">
        <ele>126.6</ele>
        <time>2016-04-24T07:36:11Z</time>
      </trkpt>
      <trkpt lat="49.5093" lon="0.80213">
        <ele>126.6</ele>
        <time>2016-04-24T07:36:13Z</time>
      </trkpt>
      <trkpt lat="49.50939" lon="0.80202">
        <ele>126.6</ele>
        <time>2016-04-24T07:36:15Z</time>
      </trkpt>
      <trkpt lat="49.50947" lon="0.80191">
        <ele>126.5</ele>
        <time>2016-04-24T07:36:17Z</time>
      </trkpt>
      <trkpt lat="49.50953" lon="0.80179">
        <ele>126.5</ele>
        <time>2016-04-24T07:36:19Z</time>
      </trkpt>
      <trkpt lat="49.50961" lon="0.80166">
        <ele>126.3</ele>
        <time>2016-04-24T07:36:21Z</time>
      </trkpt>
      <trkpt lat="49.50968" lon="0.80153">
        <ele>126.2</ele>
        <time>2016-04-24T07:36:23Z</time>
      </trkpt>
      <trkpt lat="49.50976" lon="0.80139">
        <ele>126.1</ele>
        <time>2016-04-24T07:36:25Z</time>
      </trkpt>
      <trkpt lat="49.50982" lon="0.80123">
        <ele>126</ele>
        <time>2016-04-24T07:36:27Z</time>
      </trkpt>
      <trkpt lat="49.50989" lon="0.80106">
        <ele>125.9</ele>
        <time>2016-04-24T07:36:29Z</time>
      </trkpt>
      <trkpt lat="49.50993" lon="0.80087">
        <ele>125.7</ele>
        <time>2016-04-24T07:36:31Z</time>
      </trkpt>
      <trkpt lat="49.50998" lon="0.80068">
        <ele>125.5</ele>
        <time>2016-04-24T07:36:33Z</time>
      </trkpt>
      <trkpt lat="49.51002" lon="0.80051">
        <ele>125.3</ele>
        <time>2016-04-24T07:36:35Z</time>
      </trkpt>
      <trkpt lat="49.51005" lon="0.80033">
        <ele>125.2</ele>
        <time>2016-04-24T07:36:37Z</time>
      </trkpt>
      <trkpt lat="49.51006" lon="0.80017">
        <ele>125.1</ele>
        <time>2016-04-24T07:36:39Z</time>
      </trkpt>
      <trkpt lat="49.51007" lon="0.80003">
        <ele>125</ele>
        <time>2016-04-24T07:36:41Z</time>
      </trkpt>
      <trkpt lat="49.51009" lon="0.79988">
        <ele>124.9</ele>
        <time>2016-04-24T07:36:43Z</time>
      </trkpt>
      <trkpt lat="49.5101" lon="0.79974">
        <ele>124.9</ele>
        <time>2016-04-24T07:36:45Z</time>
      </trkpt>
      <trkpt lat="49.51012" lon="0.7996">
        <ele>125</ele>
        <time>2016-04-24T07:36:47Z</time>
      </trkpt>
      <trkpt lat="49.51014" lon="0.79942">
        <ele>125.3</ele>
        <time>2016-04-24T07:36:50Z</time>
      </trkpt>
      <trkpt lat="49.51016" lon="0.79922">
        <ele>125.5</ele>
        <time>2016-04-24T07:36:53Z</time>
      </trkpt>
      <trkpt lat="49.51017" lon="0.79903">
        <ele>125.9</ele>
        <time>2016-04-24T07:36:56Z</time>
      </trkpt>
      <trkpt lat="49.5102" lon="0.79884">
        <ele>126.2</ele>
        <time>2016-04-24T07:36:59Z</time>
      </trkpt>
      <trkpt lat="49.51022" lon="0.79865">
        <ele>126.5</ele>
        <time>2016-04-24T07:37:02Z</time>
      </trkpt>
      <trkpt lat="49.51025" lon="0.79848">
        <ele>126.8</ele>
        <time>2016-04-24T07:37:05Z</time>
      </trkpt>
      <trkpt lat="49.51027" lon="0.7983">
        <ele>127</ele>
        <time>2016-04-24T07:37:08Z</time>
      </trkpt>
      <trkpt lat="49.51029" lon="0.79812">
        <ele>127.1</ele>
        <time>2016-04-24T07:37:11Z</time>
      </trkpt>
      <trkpt lat="49.51031" lon="0.79795">
        <ele>127.3</ele>
        <time>2016-04-24T07:37:14Z</time>
      </trkpt>
      <trkpt lat="49.51032" lon="0.79778">
        <ele>127.4</ele>
        <time>2016-04-24T07:37:17Z</time>
      </trkpt>
      <trkpt lat="49.51034" lon="0.79762">
        <ele>127.6</ele>
        <time>2016-04-24T07:37:20Z</time>
      </trkpt>
      <trkpt lat="49.51034" lon="0.79745">
        <ele>127.8</ele>
        <time>2016-04-24T07:37:23Z</time>
      </trkpt>
      <trkpt lat="49.51036" lon="0.79729">
        <ele>127.9</ele>
        <time>2016-04-24T07:37:26Z</time>
      </trkpt>
      <trkpt lat="49.51035" lon="0.79712">
        <ele>128</ele>
        <time>2016-04-24T07:37:29Z</time>
      </trkpt>
      <trkpt lat="49.51035" lon="0.79693">
        <ele>128</ele>
        <time>2016-04-24T07:37:32Z</time>
      </trkpt>
      <trkpt lat="49.51034" lon="0.79674">
        <ele>128.1</ele>
        <time>2016-04-24T07:37:35Z</time>
      </trkpt>
      <trkpt lat="49.51037" lon="0.79656">
        <ele>128.1</ele>
        <time>2016-04-24T07:37:38Z</time>
      </trkpt>
      <trkpt lat="49.51037" lon="0.79637">
        <ele>128</ele>
        <time>2016-04-24T07:37:41Z</time>
      </trkpt>
      <trkpt lat="49.51036" lon="0.79617">
        <ele>127.8</ele>
        <time>2016-04-24T07:37:44Z</time>
      </trkpt>
      <trkpt lat="49.51036" lon="0.79603">
        <ele>127.8</ele>
        <time>2016-04-24T07:37:46Z</time>
      </trkpt>
      <trkpt lat="49.51036" lon="0.79583">
        <ele>127.7</ele>
        <time>2016-04-24T07:37:49Z</time>
      </trkpt>
      <trkpt lat="49.51036" lon="0.79566">
        <ele>127.9</ele>
        <time>2016-04-24T07:37:52Z</time>
      </trkpt>
      <trkpt lat="49.51037" lon="0.7955">
        <ele>128</ele>
        <time>2016-04-24T07:37:55Z</time>
      </trkpt>
      <trkpt lat="49.51039" lon="0.79536">
        <ele>128.2</ele>
        <time>2016-04-24T07:37:58Z</time>
      </trkpt>
      <trkpt lat="49.5104" lon="0.79521">
        <ele>128.3</ele>
        <time>2016-04-24T07:38:01Z</time>
      </trkpt>
      <trkpt lat="49.51041" lon="0.79507">
        <ele>128.4</ele>
        <time>2016-04-24T07:38:04Z</time>
      </trkpt>
      <trkpt lat="49.51042" lon="0.79489">
        <ele>128.5</ele>
        <time>2016-04-24T07:38:08Z</time>
      </trkpt>
      <trkpt lat="49.51041" lon="0.79475">
        <ele>128.6</ele>
        <time>2016-04-24T07:38:11Z</time>
      </trkpt>
      <trkpt lat="49.5104" lon="0.79461">
        <ele>128.8</ele>
        <time>2016-04-24T07:38:14Z</time>
      </trkpt>
      <trkpt lat="49.51041" lon="0.79443">
        <ele>129</ele>
        <time>2016-04-24T07:38:18Z</time>
      </trkpt>
      <trkpt lat="49.51042" lon="0.79428">
        <ele>129.1</ele>
        <time>2016-04-24T07:38:21Z</time>
      </trkpt>
      <trkpt lat="49.51043" lon="0.79414">
        <ele>129.2</ele>
        <time>2016-04-24T07:38:24Z</time>
      </trkpt>
      <trkpt lat="49.51045" lon="0.79398">
        <ele>129.3</ele>
        <time>2016-04-24T07:38:27Z</time>
      </trkpt>
      <trkpt lat="49.51048" lon="0.79383">
        <ele>129.4</ele>
        <time>2016-04-24T07:38:30Z</time>
      </trkpt>
      <trkpt lat="49.51051" lon="0.79369">
        <ele>129.6</ele>
        <time>2016-04-24T07:38:33Z</time>
      </trkpt>
      <trkpt lat="49.51055" lon="0.79355">
        <ele>129.9</ele>
        <time>2016-04-24T07:38:36Z</time>
      </trkpt>
      <trkpt lat="49.51061" lon="0.79341">
        <ele>130.2</ele>
        <time>2016-04-24T07:38:39Z</time>
      </trkpt>
      <trkpt lat="49.51064" lon="0.79326">
        <ele>130.5</ele>
        <time>2016-04-24T07:38:42Z</time>
      </trkpt>
      <trkpt lat="49.51068" lon="0.79313">
        <ele>130.7</ele>
        <time>2016-04-24T07:38:45Z</time>
      </trkpt>
      <trkpt lat="49.51074" lon="0.793">
        <ele>130.9</ele>
        <time>2016-04-24T07:38:48Z</time>
      </trkpt>
      <trkpt lat="49.51079" lon="0.79287">
        <ele>131</ele>
        <time>2016-04-24T07:38:51Z</time>
      </trkpt>
      <trkpt lat="49.51083" lon="0.79271">
        <ele>131.2</ele>
        <time>2016-04-24T07:38:55Z</time>
      </trkpt>
      <trkpt lat="49.51084" lon="0.79257">
        <ele>131.4</ele>
        <time>2016-04-24T07:38:58Z</time>
      </trkpt>
      <trkpt lat="49.51085" lon="0.7924">
        <ele>131.6</ele>
        <time>2016-04-24T07:39:02Z</time>
      </trkpt>
      <trkpt lat="49.51084" lon="0.79226">
        <ele>131.8</ele>
        <time>2016-04-24T07:39:05Z</time>
      </trkpt>
      <trkpt lat="49.51084" lon="0.79212">
        <ele>132</ele>
        <time>2016-04-24T07:39:08Z</time>
      </trkpt>
      <trkpt lat="49.51083" lon="0.79194">
        <ele>132.1</ele>
        <time>2016-04-24T07:39:12Z</time>
      </trkpt>
      <trkpt lat="49.5108" lon="0.7918">
        <ele>132.1</ele>
        <time>2016-04-24T07:39:15Z</time>
      </trkpt>
      <trkpt lat="49.51079" lon="0.79164">
        <ele>132.1</ele>
        <time>2016-04-24T07:39:18Z</time>
      </trkpt>
      <trkpt lat="49.5108" lon="0.79149">
        <ele>132.1</ele>
        <time>2016-04-24T07:39:21Z</time>
      </trkpt>
      <trkpt lat="49.51081" lon="0.79134">
        <ele>132.4</ele>
        <time>2016-04-24T07:39:24Z</time>
      </trkpt>
      <trkpt lat="49.51083" lon="0.79118">
        <ele>132.6</ele>
        <time>2016-04-24T07:39:27Z</time>
      </trkpt>
      <trkpt lat="49.51085" lon="0.79101">
        <ele>132.7</ele>
        <time>2016-04-24T07:39:30Z</time>
      </trkpt>
      <trkpt lat="49.51088" lon="0.79085">
        <ele>132.8</ele>
        <time>2016-04-24T07:39:33Z</time>
      </trkpt>
      <trkpt lat="49.5109" lon="0.79068">
        <ele>132.9</ele>
        <time>2016-04-24T07:39:36Z</time>
      </trkpt>
      <trkpt lat="49.51091" lon="0.79052">
        <ele>133</ele>
        <time>2016-04-24T07:39:39Z</time>
      </trkpt>
      <trkpt lat="49.51092" lon="0.79035">
        <ele>133</ele>
        <time>2016-04-24T07:39:42Z</time>
      </trkpt>
      <trkpt lat="49.51095" lon="0.79018">
        <ele>133.1</ele>
        <time>2016-04-24T07:39:45Z</time>
      </trkpt>
      <trkpt lat="49.51098" lon="0.79">
        <ele>133.1</ele>
        <time>2016-04-24T07:39:48Z</time>
      </trkpt>
      <trkpt lat="49.51102" lon="0.78983">
        <ele>132.9</ele>
        <time>2016-04-24T07:39:51Z</time>
      </trkpt>
      <trkpt lat="49.51107" lon="0.78965">
        <ele>132.8</ele>
        <time>2016-04-24T07:39:54Z</time>
      </trkpt>
      <trkpt lat="49.51112" lon="0.78948">
        <ele>132.7</ele>
        <time>2016-04-24T07:39:57Z</time>
      </trkpt>
      <trkpt lat="49.51118" lon="0.78931">
        <ele>132.8</ele>
        <time>2016-04-24T07:40:00Z</time>
      </trkpt>
      <trkpt lat="49.51124" lon="0.78914">
        <ele>132.8</ele>
        <time>2016-04-24T07:40:03Z</time>
      </trkpt>
      <trkpt lat="49.51129" lon="0.78901">
        <ele>132.8</ele>
        <time>2016-04-24T07:40:05Z</time>
      </trkpt>
      <trkpt lat="49.51133" lon="0.78889">
        <ele>132.9</ele>
        <time>2016-04-24T07:40:07Z</time>
      </trkpt>
      <trkpt lat="49.51138" lon="0.78876">
        <ele>132.9</ele>
        <time>2016-04-24T07:40:09Z</time>
      </trkpt>
      <trkpt lat="49.51143" lon="0.78864">
        <ele>132.9</ele>
        <time>2016-04-24T07:40:11Z</time>
      </trkpt>
      <trkpt lat="49.51148" lon="0.78852">
        <ele>132.9</ele>
        <time>2016-04-24T07:40:13Z</time>
      </trkpt>
      <trkpt lat="49.51154" lon="0.78839">
        <ele>132.9</ele>
        <time>2016-04-24T07:40:15Z</time>
      </trkpt>
      <trkpt lat="49.5116" lon="0.78826">
        <ele>132.9</ele>
        <time>2016-04-24T07:40:17Z</time>
      </trkpt>
      <trkpt lat="49.51166" lon="0.78813">
        <ele>132.8</ele>
        <time>2016-04-24T07:40:19Z</time>
      </trkpt>
      <trkpt lat="49.51172" lon="0.788">
        <ele>132.7</ele>
        <time>2016-04-24T07:40:21Z</time>
      </trkpt>
      <trkpt lat="49.51178" lon="0.78786">
        <ele>132.6</ele>
        <time>2016-04-24T07:40:23Z</time>
      </trkpt>
      <trkpt lat="49.51184" lon="0.78772">
        <ele>132.4</ele>
        <time>2016-04-24T07:40:25Z</time>
      </trkpt>
      <trkpt lat="49.51191" lon="0.78758">
        <ele>132.3</ele>
        <time>2016-04-24T07:40:27Z</time>
      </trkpt>
      <trkpt lat="49.51197" lon="0.78743">
        <ele>132</ele>
        <time>2016-04-24T07:40:29Z</time>
      </trkpt>
      <trkpt lat="49.51205" lon="0.78728">
        <ele>131.6</ele>
        <time>2016-04-24T07:40:31Z</time>
      </trkpt>
      <trkpt lat="49.51213" lon="0.7871">
        <ele>131.3</ele>
        <time>2016-04-24T07:40:33Z</time>
      </trkpt>
      <trkpt lat="49.51222" lon="0.78694">
        <ele>131.1</ele>
        <time>2016-04-24T07:40:35Z</time>
      </trkpt>
      <trkpt lat="49.51233" lon="0.78678">
        <ele>130.6</ele>
        <time>2016-04-24T07:40:37Z</time>
      </trkpt>
      <trkpt lat="49.51245" lon="0.78661">
        <ele>130.2</ele>
        <time>2016-04-24T07:40:39Z</time>
      </trkpt>
      <trkpt lat="49.51254" lon="0.78647">
        <ele>129.8</ele>
        <time>2016-04-24T07:40:41Z</time>
      </trkpt>
      <trkpt lat="49.51259" lon="0.78634">
        <ele>129.2</ele>
        <time>2016-04-24T07:40:43Z</time>
      </trkpt>
      <trkpt lat="49.51265" lon="0.78624">
        <ele>128.7</ele>
        <time>2016-04-24T07:40:45Z</time>
      </trkpt>
      <trkpt lat="49.51277" lon="0.78626">
        <ele>127.8</ele>
        <time>2016-04-24T07:40:49Z</time>
      </trkpt>
      <trkpt lat="49.51288" lon="0.78631">
        <ele>127.3</ele>
        <time>2016-04-24T07:40:53Z</time>
      </trkpt>
      <trkpt lat="49.51297" lon="0.78634">
        <ele>127.2</ele>
        <time>2016-04-24T07:40:56Z</time>
      </trkpt>
      <trkpt lat="49.51306" lon="0.78638">
        <ele>127.1</ele>
        <time>2016-04-24T07:40:59Z</time>
      </trkpt>
      <trkpt lat="49.51317" lon="0.78643">
        <ele>127.1</ele>
        <time>2016-04-24T07:41:03Z</time>
      </trkpt>
      <trkpt lat="49.5133" lon="0.78646">
        <ele>127.3</ele>
        <time>2016-04-24T07:41:07Z</time>
      </trkpt>
      <trkpt lat="49.51342" lon="0.78646">
        <ele>127.4</ele>
        <time>2016-04-24T07:41:10Z</time>
      </trkpt>
      <trkpt lat="49.51355" lon="0.78645">
        <ele>127.5</ele>
        <time>2016-04-24T07:41:14Z</time>
      </trkpt>
      <trkpt lat="49.51365" lon="0.78641">
        <ele>127.7</ele>
        <time>2016-04-24T07:41:18Z</time>
      </trkpt>
      <trkpt lat="49.51374" lon="0.78636">
        <ele>127.9</ele>
        <time>2016-04-24T07:41:21Z</time>
      </trkpt>
      <trkpt lat="49.51386" lon="0.78629">
        <ele>128</ele>
        <time>2016-04-24T07:41:24Z</time>
      </trkpt>
      <trkpt lat="49.51396" lon="0.78625">
        <ele>128</ele>
        <time>2016-04-24T07:41:27Z</time>
      </trkpt>
      <trkpt lat="49.51407" lon="0.78617">
        <ele>128</ele>
        <time>2016-04-24T07:41:31Z</time>
      </trkpt>
      <trkpt lat="49.51415" lon="0.78613">
        <ele>128</ele>
        <time>2016-04-24T07:41:34Z</time>
      </trkpt>
      <trkpt lat="49.51429" lon="0.78607">
        <ele>128</ele>
        <time>2016-04-24T07:41:38Z</time>
      </trkpt>
      <trkpt lat="49.51437" lon="0.78602">
        <ele>128</ele>
        <time>2016-04-24T07:41:41Z</time>
      </trkpt>
      <trkpt lat="49.51446" lon="0.78595">
        <ele>128</ele>
        <time>2016-04-24T07:41:44Z</time>
      </trkpt>
      <trkpt lat="49.51455" lon="0.7859">
        <ele>128</ele>
        <time>2016-04-24T07:41:47Z</time>
      </trkpt>
      <trkpt lat="49.51464" lon="0.78586">
        <ele>128</ele>
        <time>2016-04-24T07:41:50Z</time>
      </trkpt>
      <trkpt lat="49.51475" lon="0.78582">
        <ele>128</ele>
        <time>2016-04-24T07:41:53Z</time>
      </trkpt>
      <trkpt lat="49.51485" lon="0.78574">
        <ele>127.9</ele>
        <time>2016-04-24T07:41:56Z</time>
      </trkpt>
      <trkpt lat="49.51498" lon="0.78568">
        <ele>127.9</ele>
        <time>2016-04-24T07:41:59Z</time>
      </trkpt>
      <trkpt lat="49.51508" lon="0.78562">
        <ele>127.9</ele>
        <time>2016-04-24T07:42:02Z</time>
      </trkpt>
      <trkpt lat="49.51518" lon="0.78557">
        <ele>127.9</ele>
        <time>2016-04-24T07:42:04Z</time>
      </trkpt>
      <trkpt lat="49.51527" lon="0.78552">
        <ele>127.9</ele>
        <time>2016-04-24T07:42:06Z</time>
      </trkpt>
      <trkpt lat="49.5154" lon="0.78545">
        <ele>127.7</ele>
        <time>2016-04-24T07:42:09Z</time>
      </trkpt>
      <trkpt lat="49.51549" lon="0.78541">
        <ele>127.6</ele>
        <time>2016-04-24T07:42:11Z</time>
      </trkpt>
      <trkpt lat="49.51559" lon="0.78533">
        <ele>127.2</ele>
        <time>2016-04-24T07:42:14Z</time>
      </trkpt>
      <trkpt lat="49.51568" lon="0.78527">
        <ele>127.1</ele>
        <time>2016-04-24T07:42:16Z</time>
      </trkpt>
      <trkpt lat="49.51577" lon="0.78524">
        <ele>126.9</ele>
        <time>2016-04-24T07:42:18Z</time>
      </trkpt>
      <trkpt lat="49.51586" lon="0.7852">
        <ele>126.9</ele>
        <time>2016-04-24T07:42:20Z</time>
      </trkpt>
      <trkpt lat="49.51599" lon="0.78514">
        <ele>126.6</ele>
        <time>2016-04-24T07:42:23Z</time>
      </trkpt>
      <trkpt lat="49.51609" lon="0.78507">
        <ele>126.2</ele>
        <time>2016-04-24T07:42:25Z</time>
      </trkpt>
      <trkpt lat="49.51619" lon="0.78502">
        <ele>125.9</ele>
        <time>2016-04-24T07:42:27Z</time>
      </trkpt>
      <trkpt lat="49.51628" lon="0.78499">
        <ele>125.6</ele>
        <time>2016-04-24T07:42:29Z</time>
      </trkpt>
      <trkpt lat="49.51639" lon="0.78499">
        <ele>125.2</ele>
        <time>2016-04-24T07:42:32Z</time>
      </trkpt>
      <trkpt lat="49.51648" lon="0.78492">
        <ele>124.7</ele>
        <time>2016-04-24T07:42:38Z</time>
      </trkpt>
      <trkpt lat="49.51659" lon="0.78495">
        <ele>124.4</ele>
        <time>2016-04-24T07:42:41Z</time>
      </trkpt>
      <trkpt lat="49.51661" lon="0.78511">
        <ele>124</ele>
        <time>2016-04-24T07:42:45Z</time>
      </trkpt>
      <trkpt lat="49.51659" lon="0.78528">
        <ele>123.8</ele>
        <time>2016-04-24T07:42:49Z</time>
      </trkpt>
      <trkpt lat="49.51661" lon="0.78544">
        <ele>123.7</ele>
        <time>2016-04-24T07:42:53Z</time>
      </trkpt>
      <trkpt lat="49.51669" lon="0.78555">
        <ele>123.7</ele>
        <time>2016-04-24T07:42:58Z</time>
      </trkpt>
      <trkpt lat="49.51679" lon="0.7856">
        <ele>123.8</ele>
        <time>2016-04-24T07:43:03Z</time>
      </trkpt>
      <trkpt lat="49.51689" lon="0.78562">
        <ele>123.9</ele>
        <time>2016-04-24T07:43:08Z</time>
      </trkpt>
      <trkpt lat="49.517" lon="0.78563">
        <ele>124.2</ele>
        <time>2016-04-24T07:43:13Z</time>
      </trkpt>
      <trkpt lat="49.5171" lon="0.78564">
        <ele>124.4</ele>
        <time>2016-04-24T07:43:16Z</time>
      </trkpt>
      <trkpt lat="49.5172" lon="0.78565">
        <ele>124.5</ele>
        <time>2016-04-24T07:43:19Z</time>
      </trkpt>
      <trkpt lat="49.5173" lon="0.78567">
        <ele>124.7</ele>
        <time>2016-04-24T07:43:22Z</time>
      </trkpt>
      <trkpt lat="49.5174" lon="0.78568">
        <ele>124.8</ele>
        <time>2016-04-24T07:43:25Z</time>
      </trkpt>
      <trkpt lat="49.5175" lon="0.78569">
        <ele>124.8</ele>
        <time>2016-04-24T07:43:28Z</time>
      </trkpt>
      <trkpt lat="49.51762" lon="0.7857">
        <ele>124.9</ele>
        <time>2016-04-24T07:43:31Z</time>
      </trkpt>
      <trkpt lat="49.51775" lon="0.78573">
        <ele>124.9</ele>
        <time>2016-04-24T07:43:34Z</time>
      </trkpt>
      <trkpt lat="49.51787" lon="0.78575">
        <ele>125</ele>
        <time>2016-04-24T07:43:37Z</time>
      </trkpt>
      <trkpt lat="49.51796" lon="0.78576">
        <ele>124.7</ele>
        <time>2016-04-24T07:43:40Z</time>
      </trkpt>
      <trkpt lat="49.51805" lon="0.78576">
        <ele>124.9</ele>
        <time>2016-04-24T07:43:51Z</time>
      </trkpt>
      <trkpt lat="49.51816" lon="0.78577">
        <ele>125</ele>
        <time>2016-04-24T07:43:56Z</time>
      </trkpt>
      <trkpt lat="49.51827" lon="0.7858">
        <ele>125.1</ele>
        <time>2016-04-24T07:44:00Z</time>
      </trkpt>
      <trkpt lat="49.51837" lon="0.78582">
        <ele>125.2</ele>
        <time>2016-04-24T07:44:03Z</time>
      </trkpt>
      <trkpt lat="49.51846" lon="0.78583">
        <ele>125.3</ele>
        <time>2016-04-24T07:44:06Z</time>
      </trkpt>
      <trkpt lat="49.51853" lon="0.78573">
        <ele>125.7</ele>
        <time>2016-04-24T07:44:12Z</time>
      </trkpt>
      <trkpt lat="49.51856" lon="0.78557">
        <ele>125.9</ele>
        <time>2016-04-24T07:44:16Z</time>
      </trkpt>
      <trkpt lat="49.51857" lon="0.7854">
        <ele>126.1</ele>
        <time>2016-04-24T07:44:20Z</time>
      </trkpt>
      <trkpt lat="49.51859" lon="0.78525">
        <ele>126.2</ele>
        <time>2016-04-24T07:44:23Z</time>
      </trkpt>
      <trkpt lat="49.5186" lon="0.78506">
        <ele>126.3</ele>
        <time>2016-04-24T07:44:27Z</time>
      </trkpt>
      <trkpt lat="49.51862" lon="0.78492">
        <ele>126.4</ele>
        <time>2016-04-24T07:44:30Z</time>
      </trkpt>
      <trkpt lat="49.51862" lon="0.78476">
        <ele>126.5</ele>
        <time>2016-04-24T07:44:33Z</time>
      </trkpt>
      <trkpt lat="49.51863" lon="0.78462">
        <ele>126.6</ele>
        <time>2016-04-24T07:44:36Z</time>
      </trkpt>
      <trkpt lat="49.51866" lon="0.78447">
        <ele>126.6</ele>
        <time>2016-04-24T07:44:39Z</time>
      </trkpt>
      <trkpt lat="49.51867" lon="0.78432">
        <ele>126.6</ele>
        <time>2016-04-24T07:44:42Z</time>
      </trkpt>
      <trkpt lat="49.51867" lon="0.78417">
        <ele>126.7</ele>
        <time>2016-04-24T07:44:45Z</time>
      </trkpt>
      <trkpt lat="49.51862" lon="0.78401">
        <ele>126.6</ele>
        <time>2016-04-24T07:44:48Z</time>
      </trkpt>
      <trkpt lat="49.51861" lon="0.78384">
        <ele>126.5</ele>
        <time>2016-04-24T07:44:51Z</time>
      </trkpt>
      <trkpt lat="49.51861" lon="0.78367">
        <ele>126.4</ele>
        <time>2016-04-24T07:44:54Z</time>
      </trkpt>
      <trkpt lat="49.51863" lon="0.78348">
        <ele>126.3</ele>
        <time>2016-04-24T07:44:57Z</time>
      </trkpt>
      <trkpt lat="49.51864" lon="0.7833">
        <ele>126.1</ele>
        <time>2016-04-24T07:45:00Z</time>
      </trkpt>
      <trkpt lat="49.51865" lon="0.78309">
        <ele>126</ele>
        <time>2016-04-24T07:45:03Z</time>
      </trkpt>
      <trkpt lat="49.51864" lon="0.78295">
        <ele>125.9</ele>
        <time>2016-04-24T07:45:05Z</time>
      </trkpt>
      <trkpt lat="49.51863" lon="0.7828">
        <ele>125.8</ele>
        <time>2016-04-24T07:45:07Z</time>
      </trkpt>
      <trkpt lat="49.51864" lon="0.78265">
        <ele>125.6</ele>
        <time>2016-04-24T07:45:09Z</time>
      </trkpt>
      <trkpt lat="49.51865" lon="0.78251">
        <ele>125.5</ele>
        <time>2016-04-24T07:45:11Z</time>
      </trkpt>
      <trkpt lat="49.51866" lon="0.78237">
        <ele>125.4</ele>
        <time>2016-04-24T07:45:13Z</time>
      </trkpt>
      <trkpt lat="49.51868" lon="0.78217">
        <ele>125.2</ele>
        <time>2016-04-24T07:45:16Z</time>
      </trkpt>
      <trkpt lat="49.51866" lon="0.78198">
        <ele>124.8</ele>
        <time>2016-04-24T07:45:19Z</time>
      </trkpt>
      <trkpt lat="49.51865" lon="0.78183">
        <ele>124.4</ele>
        <time>2016-04-24T07:45:21Z</time>
      </trkpt>
      <trkpt lat="49.51865" lon="0.78163">
        <ele>124.1</ele>
        <time>2016-04-24T07:45:24Z</time>
      </trkpt>
      <trkpt lat="49.51865" lon="0.78149">
        <ele>123.8</ele>
        <time>2016-04-24T07:45:27Z</time>
      </trkpt>
      <trkpt lat="49.51868" lon="0.78132">
        <ele>123.4</ele>
        <time>2016-04-24T07:45:31Z</time>
      </trkpt>
      <trkpt lat="49.51872" lon="0.78114">
        <ele>123.1</ele>
        <time>2016-04-24T07:45:34Z</time>
      </trkpt>
      <trkpt lat="49.51876" lon="0.78101">
        <ele>123</ele>
        <time>2016-04-24T07:45:36Z</time>
      </trkpt>
      <trkpt lat="49.51881" lon="0.78087">
        <ele>122.8</ele>
        <time>2016-04-24T07:45:38Z</time>
      </trkpt>
      <trkpt lat="49.51885" lon="0.78071">
        <ele>122.5</ele>
        <time>2016-04-24T07:45:40Z</time>
      </trkpt>
      <trkpt lat="49.51888" lon="0.78057">
        <ele>122.3</ele>
        <time>2016-04-24T07:45:42Z</time>
      </trkpt>
      <trkpt lat="49.51888" lon="0.78036">
        <ele>122.1</ele>
        <time>2016-04-24T07:45:45Z</time>
      </trkpt>
      <trkpt lat="49.51887" lon="0.7802">
        <ele>121.7</ele>
        <time>2016-04-24T07:45:47Z</time>
      </trkpt>
      <trkpt lat="49.51888" lon="0.78005">
        <ele>121.2</ele>
        <time>2016-04-24T07:45:49Z</time>
      </trkpt>
      <trkpt lat="49.51892" lon="0.77991">
        <ele>120.8</ele>
        <time>2016-04-24T07:45:51Z</time>
      </trkpt>
      <trkpt lat="49.51896" lon="0.77978">
        <ele>120.6</ele>
        <time>2016-04-24T07:45:53Z</time>
      </trkpt>
      <trkpt lat="49.51899" lon="0.77964">
        <ele>120.4</ele>
        <time>2016-04-24T07:45:55Z</time>
      </trkpt>
      <trkpt lat="49.51902" lon="0.77951">
        <ele>120.4</ele>
        <time>2016-04-24T07:45:57Z</time>
      </trkpt>
      <trkpt lat="49.51904" lon="0.77936">
        <ele>120.5</ele>
        <time>2016-04-24T07:45:59Z</time>
      </trkpt>
      <trkpt lat="49.51904" lon="0.77921">
        <ele>120.4</ele>
        <time>2016-04-24T07:46:01Z</time>
      </trkpt>
      <trkpt lat="49.51906" lon="0.77907">
        <ele>120.3</ele>
        <time>2016-04-24T07:46:03Z</time>
      </trkpt>
      <trkpt lat="49.51916" lon="0.77894">
        <ele>120.2</ele>
        <time>2016-04-24T07:46:06Z</time>
      </trkpt>
      <trkpt lat="49.51924" lon="0.77883">
        <ele>120.1</ele>
        <time>2016-04-24T07:46:09Z</time>
      </trkpt>
      <trkpt lat="49.51933" lon="0.77873">
        <ele>119.8</ele>
        <time>2016-04-24T07:46:12Z</time>
      </trkpt>
      <trkpt lat="49.51941" lon="0.77865">
        <ele>119.6</ele>
        <time>2016-04-24T07:46:15Z</time>
      </trkpt>
      <trkpt lat="49.51951" lon="0.77856">
        <ele>119.6</ele>
        <time>2016-04-24T07:46:18Z</time>
      </trkpt>
      <trkpt lat="49.51959" lon="0.77844">
        <ele>119.5</ele>
        <time>2016-04-24T07:46:21Z</time>
      </trkpt>
      <trkpt lat="49.51968" lon="0.77833">
        <ele>119.4</ele>
        <time>2016-04-24T07:46:24Z</time>
      </trkpt>
      <trkpt lat="49.51979" lon="0.77824">
        <ele>119.3</ele>
        <time>2016-04-24T07:46:27Z</time>
      </trkpt>
      <trkpt lat="49.51987" lon="0.77809">
        <ele>119.3</ele>
        <time>2016-04-24T07:46:30Z</time>
      </trkpt>
      <trkpt lat="49.51994" lon="0.77792">
        <ele>119.2</ele>
        <time>2016-04-24T07:46:33Z</time>
      </trkpt>
      <trkpt lat="49.51998" lon="0.77776">
        <ele>118.9</ele>
        <time>2016-04-24T07:46:36Z</time>
      </trkpt>
      <trkpt lat="49.52005" lon="0.77766">
        <ele>119</ele>
        <time>2016-04-24T07:46:39Z</time>
      </trkpt>
      <trkpt lat="49.52013" lon="0.77757">
        <ele>119.1</ele>
        <time>2016-04-24T07:46:42Z</time>
      </trkpt>
      <trkpt lat="49.5202" lon="0.77748">
        <ele>119.2</ele>
        <time>2016-04-24T07:46:45Z</time>
      </trkpt>
      <trkpt lat="49.52031" lon="0.77738">
        <ele>119.4</ele>
        <time>2016-04-24T07:46:48Z</time>
      </trkpt>
      <trkpt lat="49.5204" lon="0.77729">
        <ele>119.6</ele>
        <time>2016-04-24T07:46:51Z</time>
      </trkpt>
      <trkpt lat="49.52048" lon="0.77723">
        <ele>119.7</ele>
        <time>2016-04-24T07:46:54Z</time>
      </trkpt>
      <trkpt lat="49.52056" lon="0.77713">
        <ele>120.1</ele>
        <time>2016-04-24T07:46:59Z</time>
      </trkpt>
      <trkpt lat="49.52064" lon="0.77704">
        <ele>120.5</ele>
        <time>2016-04-24T07:47:03Z</time>
      </trkpt>
      <trkpt lat="49.52072" lon="0.77697">
        <ele>120.9</ele>
        <time>2016-04-24T07:47:07Z</time>
      </trkpt>
      <trkpt lat="49.52081" lon="0.7769">
        <ele>121.2</ele>
        <time>2016-04-24T07:47:11Z</time>
      </trkpt>
      <trkpt lat="49.52089" lon="0.77681">
        <ele>121.4</ele>
        <time>2016-04-24T07:47:15Z</time>
      </trkpt>
      <trkpt lat="49.52099" lon="0.77675">
        <ele>121.6</ele>
        <time>2016-04-24T07:47:19Z</time>
      </trkpt>
      <trkpt lat="49.52108" lon="0.7767">
        <ele>121.7</ele>
        <time>2016-04-24T07:47:22Z</time>
      </trkpt>
      <trkpt lat="49.52117" lon="0.77662">
        <ele>121.9</ele>
        <time>2016-04-24T07:47:27Z</time>
      </trkpt>
      <trkpt lat="49.52127" lon="0.77653">
        <ele>122.1</ele>
        <time>2016-04-24T07:47:31Z</time>
      </trkpt>
      <trkpt lat="49.52135" lon="0.77645">
        <ele>122.3</ele>
        <time>2016-04-24T07:47:35Z</time>
      </trkpt>
      <trkpt lat="49.52144" lon="0.77639">
        <ele>122.4</ele>
        <time>2016-04-24T07:47:38Z</time>
      </trkpt>
      <trkpt lat="49.52152" lon="0.7763">
        <ele>122.6</ele>
        <time>2016-04-24T07:47:42Z</time>
      </trkpt>
      <trkpt lat="49.52162" lon="0.77621">
        <ele>122.7</ele>
        <time>2016-04-24T07:47:46Z</time>
      </trkpt>
      <trkpt lat="49.5217" lon="0.77612">
        <ele>122.8</ele>
        <time>2016-04-24T07:47:49Z</time>
      </trkpt>
      <trkpt lat="49.52181" lon="0.77603">
        <ele>122.9</ele>
        <time>2016-04-24T07:47:52Z</time>
      </trkpt>
      <trkpt lat="49.5219" lon="0.77596">
        <ele>123</ele>
        <time>2016-04-24T07:47:55Z</time>
      </trkpt>
      <trkpt lat="49.52199" lon="0.77585">
        <ele>123.2</ele>
        <time>2016-04-24T07:47:59Z</time>
      </trkpt>
      <trkpt lat="49.5221" lon="0.77578">
        <ele>123.3</ele>
        <time>2016-04-24T07:48:03Z</time>
      </trkpt>
      <trkpt lat="49.52218" lon="0.77574">
        <ele>123.4</ele>
        <time>2016-04-24T07:48:06Z</time>
      </trkpt>
      <trkpt lat="49.52228" lon="0.7757">
        <ele>123.4</ele>
        <time>2016-04-24T07:48:10Z</time>
      </trkpt>
      <trkpt lat="49.52238" lon="0.77566">
        <ele>123.5</ele>
        <time>2016-04-24T07:48:15Z</time>
      </trkpt>
      <trkpt lat="49.52246" lon="0.77558">
        <ele>123.5</ele>
        <time>2016-04-24T07:48:18Z</time>
      </trkpt>
      <trkpt lat="49.52261" lon="0.77551">
        <ele>123.6</ele>
        <time>2016-04-24T07:48:21Z</time>
      </trkpt>
      <trkpt lat="49.52272" lon="0.77548">
        <ele>123.6</ele>
        <time>2016-04-24T07:48:23Z</time>
      </trkpt>
      <trkpt lat="49.52283" lon="0.77545">
        <ele>123.6</ele>
        <time>2016-04-24T07:48:26Z</time>
      </trkpt>
      <trkpt lat="49.52294" lon="0.77544">
        <ele>123.5</ele>
        <time>2016-04-24T07:48:29Z</time>
      </trkpt>
      <trkpt lat="49.52304" lon="0.77546">
        <ele>123.5</ele>
        <time>2016-04-24T07:48:31Z</time>
      </trkpt>
      <trkpt lat="49.52316" lon="0.77546">
        <ele>123.4</ele>
        <time>2016-04-24T07:48:34Z</time>
      </trkpt>
      <trkpt lat="49.52327" lon="0.77548">
        <ele>122.8</ele>
        <time>2016-04-24T07:48:37Z</time>
      </trkpt>
      <trkpt lat="49.52337" lon="0.77547">
        <ele>122.5</ele>
        <time>2016-04-24T07:48:40Z</time>
      </trkpt>
      <trkpt lat="49.52347" lon="0.77541">
        <ele>122.3</ele>
        <time>2016-04-24T07:48:43Z</time>
      </trkpt>
      <trkpt lat="49.52355" lon="0.77534">
        <ele>122.1</ele>
        <time>2016-04-24T07:48:46Z</time>
      </trkpt>
      <trkpt lat="49.52365" lon="0.77536">
        <ele>121.9</ele>
        <time>2016-04-24T07:48:51Z</time>
      </trkpt>
      <trkpt lat="49.52376" lon="0.77535">
        <ele>121.7</ele>
        <time>2016-04-24T07:48:55Z</time>
      </trkpt>
      <trkpt lat="49.52386" lon="0.77531">
        <ele>121.5</ele>
        <time>2016-04-24T07:48:59Z</time>
      </trkpt>
      <trkpt lat="49.52399" lon="0.77528">
        <ele>121.3</ele>
        <time>2016-04-24T07:49:02Z</time>
      </trkpt>
      <trkpt lat="49.52408" lon="0.77527">
        <ele>120.9</ele>
        <time>2016-04-24T07:49:06Z</time>
      </trkpt>
      <trkpt lat="49.52419" lon="0.77522">
        <ele>120.5</ele>
        <time>2016-04-24T07:49:09Z</time>
      </trkpt>
      <trkpt lat="49.52427" lon="0.77515">
        <ele>120.1</ele>
        <time>2016-04-24T07:49:11Z</time>
      </trkpt>
      <trkpt lat="49.52436" lon="0.77503">
        <ele>119.2</ele>
        <time>2016-04-24T07:49:14Z</time>
      </trkpt>
      <trkpt lat="49.52444" lon="0.77493">
        <ele>118.3</ele>
        <time>2016-04-24T07:49:17Z</time>
      </trkpt>
      <trkpt lat="49.52452" lon="0.77483">
        <ele>116.9</ele>
        <time>2016-04-24T07:49:22Z</time>
      </trkpt>
      <trkpt lat="49.5246" lon="0.77472">
        <ele>116.3</ele>
        <time>2016-04-24T07:49:25Z</time>
      </trkpt>
      <trkpt lat="49.5247" lon="0.77463">
        <ele>115.6</ele>
        <time>2016-04-24T07:49:29Z</time>
      </trkpt>
      <trkpt lat="49.52479" lon="0.77459">
        <ele>115.2</ele>
        <time>2016-04-24T07:49:33Z</time>
      </trkpt>
      <trkpt lat="49.52489" lon="0.77459">
        <ele>115</ele>
        <time>2016-04-24T07:49:39Z</time>
      </trkpt>
      <trkpt lat="49.52499" lon="0.77463">
        <ele>115.1</ele>
        <time>2016-04-24T07:49:44Z</time>
      </trkpt>
      <trkpt lat="49.5251" lon="0.77465">
        <ele>115.3</ele>
        <time>2016-04-24T07:49:49Z</time>
      </trkpt>
      <trkpt lat="49.52522" lon="0.77467">
        <ele>115.5</ele>
        <time>2016-04-24T07:49:54Z</time>
      </trkpt>
      <trkpt lat="49.52531" lon="0.77471">
        <ele>115.7</ele>
        <time>2016-04-24T07:49:57Z</time>
      </trkpt>
      <trkpt lat="49.5254" lon="0.77475">
        <ele>116</ele>
        <time>2016-04-24T07:50:02Z</time>
      </trkpt>
      <trkpt lat="49.52549" lon="0.77481">
        <ele>116.3</ele>
        <time>2016-04-24T07:50:07Z</time>
      </trkpt>
      <trkpt lat="49.5256" lon="0.77484">
        <ele>116.9</ele>
        <time>2016-04-24T07:50:13Z</time>
      </trkpt>
      <trkpt lat="49.5257" lon="0.77481">
        <ele>117.4</ele>
        <time>2016-04-24T07:50:19Z</time>
      </trkpt>
      <trkpt lat="49.52579" lon="0.77474">
        <ele>117.7</ele>
        <time>2016-04-24T07:50:24Z</time>
      </trkpt>
      <trkpt lat="49.52586" lon="0.77459">
        <ele>117.8</ele>
        <time>2016-04-24T07:50:27Z</time>
      </trkpt>
      <trkpt lat="49.52588" lon="0.77444">
        <ele>117.8</ele>
        <time>2016-04-24T07:50:30Z</time>
      </trkpt>
      <trkpt lat="49.52589" lon="0.77427">
        <ele>117.8</ele>
        <time>2016-04-24T07:50:33Z</time>
      </trkpt>
      <trkpt lat="49.52592" lon="0.77411">
        <ele>117.7</ele>
        <time>2016-04-24T07:50:36Z</time>
      </trkpt>
      <trkpt lat="49.52595" lon="0.77395">
        <ele>117.7</ele>
        <time>2016-04-24T07:50:39Z</time>
      </trkpt>
      <trkpt lat="49.52599" lon="0.77378">
        <ele>117.6</ele>
        <time>2016-04-24T07:50:42Z</time>
      </trkpt>
      <trkpt lat="49.52602" lon="0.7736">
        <ele>117.4</ele>
        <time>2016-04-24T07:50:45Z</time>
      </trkpt>
      <trkpt lat="49.52605" lon="0.77342">
        <ele>116.7</ele>
        <time>2016-04-24T07:50:48Z</time>
      </trkpt>
      <trkpt lat="49.52609" lon="0.7733">
        <ele>116.3</ele>
        <time>2016-04-24T07:50:50Z</time>
      </trkpt>
      <trkpt lat="49.52615" lon="0.77318">
        <ele>115.8</ele>
        <time>2016-04-24T07:50:52Z</time>
      </trkpt>
      <trkpt lat="49.52623" lon="0.77305">
        <ele>115</ele>
        <time>2016-04-24T07:50:55Z</time>
      </trkpt>
      <trkpt lat="49.52628" lon="0.77293">
        <ele>114.4</ele>
        <time>2016-04-24T07:50:57Z</time>
      </trkpt>
      <trkpt lat="49.52634" lon="0.77282">
        <ele>113.8</ele>
        <time>2016-04-24T07:50:59Z</time>
      </trkpt>
      <trkpt lat="49.52643" lon="0.77265">
        <ele>112.9</ele>
        <time>2016-04-24T07:51:02Z</time>
      </trkpt>
      <trkpt lat="49.52649" lon="0.77252">
        <ele>112.2</ele>
        <time>2016-04-24T07:51:04Z</time>
      </trkpt>
      <trkpt lat="49.52653" lon="0.77239">
        <ele>111.4</ele>
        <time>2016-04-24T07:51:06Z</time>
      </trkpt>
      <trkpt lat="49.5266" lon="0.77223">
        <ele>110.1</ele>
        <time>2016-04-24T07:51:09Z</time>
      </trkpt>
      <trkpt lat="49.52667" lon="0.77209">
        <ele>108.7</ele>
        <time>2016-04-24T07:51:12Z</time>
      </trkpt>
      <trkpt lat="49.52673" lon="0.77195">
        <ele>106.2</ele>
        <time>2016-04-24T07:51:16Z</time>
      </trkpt>
      <trkpt lat="49.5268" lon="0.77181">
        <ele>104.1</ele>
        <time>2016-04-24T07:51:20Z</time>
      </trkpt>
      <trkpt lat="49.52685" lon="0.77164">
        <ele>102.5</ele>
        <time>2016-04-24T07:51:23Z</time>
      </trkpt>
      <trkpt lat="49.52688" lon="0.77149">
        <ele>101.3</ele>
        <time>2016-04-24T07:51:25Z</time>
      </trkpt>
      <trkpt lat="49.52691" lon="0.77131">
        <ele>100</ele>
        <time>2016-04-24T07:51:27Z</time>
      </trkpt>
      <trkpt lat="49.52697" lon="0.77112">
        <ele>98.6</ele>
        <time>2016-04-24T07:51:29Z</time>
      </trkpt>
      <trkpt lat="49.527" lon="0.77096">
        <ele>97.2</ele>
        <time>2016-04-24T07:51:31Z</time>
      </trkpt>
      <trkpt lat="49.52703" lon="0.7708">
        <ele>95.7</ele>
        <time>2016-04-24T07:51:33Z</time>
      </trkpt>
      <trkpt lat="49.52706" lon="0.77066">
        <ele>94.3</ele>
        <time>2016-04-24T07:51:35Z</time>
      </trkpt>
      <trkpt lat="49.52707" lon="0.77048">
        <ele>92.3</ele>
        <time>2016-04-24T07:51:38Z</time>
      </trkpt>
      <trkpt lat="49.52707" lon="0.77031">
        <ele>90.4</ele>
        <time>2016-04-24T07:51:41Z</time>
      </trkpt>
      <trkpt lat="49.52706" lon="0.77016">
        <ele>89.2</ele>
        <time>2016-04-24T07:51:43Z</time>
      </trkpt>
      <trkpt lat="49.52706" lon="0.76998">
        <ele>87.2</ele>
        <time>2016-04-24T07:51:46Z</time>
      </trkpt>
      <trkpt lat="49.52705" lon="0.76981">
        <ele>85.3</ele>
        <time>2016-04-24T07:51:49Z</time>
      </trkpt>
      <trkpt lat="49.52705" lon="0.76962">
        <ele>83.3</ele>
        <time>2016-04-24T07:51:52Z</time>
      </trkpt>
      <trkpt lat="49.52703" lon="0.76945">
        <ele>81.3</ele>
        <time>2016-04-24T07:51:55Z</time>
      </trkpt>
      <trkpt lat="49.52704" lon="0.7693">
        <ele>79.4</ele>
        <time>2016-04-24T07:51:58Z</time>
      </trkpt>
      <trkpt lat="49.52709" lon="0.76915">
        <ele>77.3</ele>
        <time>2016-04-24T07:52:01Z</time>
      </trkpt>
      <trkpt lat="49.52717" lon="0.76904">
        <ele>75.1</ele>
        <time>2016-04-24T07:52:04Z</time>
      </trkpt>
      <trkpt lat="49.52722" lon="0.76889">
        <ele>72.1</ele>
        <time>2016-04-24T07:52:08Z</time>
      </trkpt>
      <trkpt lat="49.52719" lon="0.76873">
        <ele>70.1</ele>
        <time>2016-04-24T07:52:11Z</time>
      </trkpt>
      <trkpt lat="49.52715" lon="0.76856">
        <ele>67.1</ele>
        <time>2016-04-24T07:52:15Z</time>
      </trkpt>
      <trkpt lat="49.52716" lon="0.76841">
        <ele>64.6</ele>
        <time>2016-04-24T07:52:19Z</time>
      </trkpt>
      <trkpt lat="49.52724" lon="0.76828">
        <ele>62.7</ele>
        <time>2016-04-24T07:52:22Z</time>
      </trkpt>
      <trkpt lat="49.5273" lon="0.76816">
        <ele>60.7</ele>
        <time>2016-04-24T07:52:25Z</time>
      </trkpt>
      <trkpt lat="49.52727" lon="0.76802">
        <ele>59.3</ele>
        <time>2016-04-24T07:52:27Z</time>
      </trkpt>
      <trkpt lat="49.5272" lon="0.76783">
        <ele>57.8</ele>
        <time>2016-04-24T07:52:29Z</time>
      </trkpt>
      <trkpt lat="49.52713" lon="0.76769">
        <ele>56.4</ele>
        <time>2016-04-24T07:52:31Z</time>
      </trkpt>
      <trkpt lat="49.52704" lon="0.76757">
        <ele>54.9</ele>
        <time>2016-04-24T07:52:33Z</time>
      </trkpt>
      <trkpt lat="49.52692" lon="0.76746">
        <ele>53.3</ele>
        <time>2016-04-24T07:52:35Z</time>
      </trkpt>
      <trkpt lat="49.52678" lon="0.76732">
        <ele>51.7</ele>
        <time>2016-04-24T07:52:37Z</time>
      </trkpt>
      <trkpt lat="49.52669" lon="0.76724">
        <ele>50.1</ele>
        <time>2016-04-24T07:52:39Z</time>
      </trkpt>
      <trkpt lat="49.52661" lon="0.76715">
        <ele>47.3</ele>
        <time>2016-04-24T07:52:43Z</time>
      </trkpt>
      <trkpt lat="49.52659" lon="0.76699">
        <ele>45</ele>
        <time>2016-04-24T07:52:47Z</time>
      </trkpt>
      <trkpt lat="49.52667" lon="0.76689">
        <ele>42.4</ele>
        <time>2016-04-24T07:52:52Z</time>
      </trkpt>
      <trkpt lat="49.52678" lon="0.76689">
        <ele>41.1</ele>
        <time>2016-04-24T07:52:55Z</time>
      </trkpt>
      <trkpt lat="49.5269" lon="0.76689">
        <ele>39.9</ele>
        <time>2016-04-24T07:52:58Z</time>
      </trkpt>
      <trkpt lat="49.52704" lon="0.7669">
        <ele>38.8</ele>
        <time>2016-04-24T07:53:01Z</time>
      </trkpt>
      <trkpt lat="49.52713" lon="0.7669">
        <ele>38.2</ele>
        <time>2016-04-24T07:53:03Z</time>
      </trkpt>
      <trkpt lat="49.52722" lon="0.76689">
        <ele>37.5</ele>
        <time>2016-04-24T07:53:05Z</time>
      </trkpt>
      <trkpt lat="49.52732" lon="0.7669">
        <ele>37</ele>
        <time>2016-04-24T07:53:07Z</time>
      </trkpt>
      <trkpt lat="49.52742" lon="0.76689">
        <ele>36.5</ele>
        <time>2016-04-24T07:53:09Z</time>
      </trkpt>
      <trkpt lat="49.52752" lon="0.76688">
        <ele>36</ele>
        <time>2016-04-24T07:53:11Z</time>
      </trkpt>
      <trkpt lat="49.52763" lon="0.76688">
        <ele>35.4</ele>
        <time>2016-04-24T07:53:13Z</time>
      </trkpt>
      <trkpt lat="49.52773" lon="0.76687">
        <ele>34.9</ele>
        <time>2016-04-24T07:53:15Z</time>
      </trkpt>
      <trkpt lat="49.52782" lon="0.76686">
        <ele>34.5</ele>
        <time>2016-04-24T07:53:17Z</time>
      </trkpt>
      <trkpt lat="49.52792" lon="0.76695">
        <ele>33.8</ele>
        <time>2016-04-24T07:53:20Z</time>
      </trkpt>
      <trkpt lat="49.52797" lon="0.76711">
        <ele>33.2</ele>
        <time>2016-04-24T07:53:23Z</time>
      </trkpt>
      <trkpt lat="49.52803" lon="0.76727">
        <ele>32.6</ele>
        <time>2016-04-24T07:53:26Z</time>
      </trkpt>
      <trkpt lat="49.52808" lon="0.76742">
        <ele>32</ele>
        <time>2016-04-24T07:53:29Z</time>
      </trkpt>
      <trkpt lat="49.52814" lon="0.76752">
        <ele>31.4</ele>
        <time>2016-04-24T07:53:33Z</time>
      </trkpt>
      <trkpt lat="49.52815" lon="0.76769">
        <ele>30.8</ele>
        <time>2016-04-24T07:53:38Z</time>
      </trkpt>
      <trkpt lat="49.52818" lon="0.76783">
        <ele>30.5</ele>
        <time>2016-04-24T07:53:42Z</time>
      </trkpt>
      <trkpt lat="49.52823" lon="0.76796">
        <ele>30.2</ele>
        <time>2016-04-24T07:53:47Z</time>
      </trkpt>
      <trkpt lat="49.52816" lon="0.76787">
        <ele>24.4</ele>
        <time>2016-04-24T08:00:57Z</time>
      </trkpt>
      <trkpt lat="49.52818" lon="0.76771">
        <ele>23.5</ele>
        <time>2016-04-24T08:01:49Z</time>
      </trkpt>
      <trkpt lat="49.52826" lon="0.76757">
        <ele>23.3</ele>
        <time>2016-04-24T08:01:52Z</time>
      </trkpt>
      <trkpt lat="49.52834" lon="0.7675">
        <ele>22.9</ele>
        <time>2016-04-24T08:01:55Z</time>
      </trkpt>
      <trkpt lat="49.52849" lon="0.76748">
        <ele>22.3</ele>
        <time>2016-04-24T08:01:59Z</time>
      </trkpt>
      <trkpt lat="49.52858" lon="0.76741">
        <ele>21.7</ele>
        <time>2016-04-24T08:02:01Z</time>
      </trkpt>
      <trkpt lat="49.52873" lon="0.76733">
        <ele>21.1</ele>
        <time>2016-04-24T08:02:03Z</time>
      </trkpt>
      <trkpt lat="49.52882" lon="0.76729">
        <ele>20.9</ele>
        <time>2016-04-24T08:02:04Z</time>
      </trkpt>
      <trkpt lat="49.5289" lon="0.76724">
        <ele>20.6</ele>
        <time>2016-04-24T08:02:05Z</time>
      </trkpt>
      <trkpt lat="49.52899" lon="0.76719">
        <ele>20.2</ele>
        <time>2016-04-24T08:02:06Z</time>
      </trkpt>
      <trkpt lat="49.52909" lon="0.76714">
        <ele>19.9</ele>
        <time>2016-04-24T08:02:07Z</time>
      </trkpt>
      <trkpt lat="49.52917" lon="0.76708">
        <ele>19.5</ele>
        <time>2016-04-24T08:02:08Z</time>
      </trkpt>
      <trkpt lat="49.52933" lon="0.76697">
        <ele>18.9</ele>
        <time>2016-04-24T08:02:10Z</time>
      </trkpt>
      <trkpt lat="49.52948" lon="0.76687">
        <ele>18.3</ele>
        <time>2016-04-24T08:02:12Z</time>
      </trkpt>
      <trkpt lat="49.5296" lon="0.76676">
        <ele>17.8</ele>
        <time>2016-04-24T08:02:14Z</time>
      </trkpt>
      <trkpt lat="49.52969" lon="0.76661">
        <ele>17.3</ele>
        <time>2016-04-24T08:02:16Z</time>
      </trkpt>
      <trkpt lat="49.52974" lon="0.76646">
        <ele>16.9</ele>
        <time>2016-04-24T08:02:18Z</time>
      </trkpt>
      <trkpt lat="49.52977" lon="0.76633">
        <ele>16.6</ele>
        <time>2016-04-24T08:02:20Z</time>
      </trkpt>
      <trkpt lat="49.52977" lon="0.76614">
        <ele>16.3</ele>
        <time>2016-04-24T08:02:23Z</time>
      </trkpt>
      <trkpt lat="49.52975" lon="0.76598">
        <ele>16</ele>
        <time>2016-04-24T08:02:26Z</time>
      </trkpt>
      <trkpt lat="49.52973" lon="0.76584">
        <ele>15.8</ele>
        <time>2016-04-24T08:02:29Z</time>
      </trkpt>
      <trkpt lat="49.5297" lon="0.76567">
        <ele>15.9</ele>
        <time>2016-04-24T08:02:33Z</time>
      </trkpt>
      <trkpt lat="49.52967" lon="0.76552">
        <ele>16</ele>
        <time>2016-04-24T08:02:36Z</time>
      </trkpt>
      <trkpt lat="49.52963" lon="0.76538">
        <ele>16.1</ele>
        <time>2016-04-24T08:02:39Z</time>
      </trkpt>
      <trkpt lat="49.52959" lon="0.76523">
        <ele>16.4</ele>
        <time>2016-04-24T08:02:42Z</time>
      </trkpt>
      <trkpt lat="49.52955" lon="0.76508">
        <ele>16.7</ele>
        <time>2016-04-24T08:02:45Z</time>
      </trkpt>
      <trkpt lat="49.52952" lon="0.76495">
        <ele>17</ele>
        <time>2016-04-24T08:02:48Z</time>
      </trkpt>
      <trkpt lat="49.5295" lon="0.76481">
        <ele>17.4</ele>
        <time>2016-04-24T08:02:51Z</time>
      </trkpt>
      <trkpt lat="49.52946" lon="0.76464">
        <ele>17.9</ele>
        <time>2016-04-24T08:02:55Z</time>
      </trkpt>
      <trkpt lat="49.52941" lon="0.7645">
        <ele>18.3</ele>
        <time>2016-04-24T08:02:59Z</time>
      </trkpt>
      <trkpt lat="49.52937" lon="0.76435">
        <ele>18.8</ele>
        <time>2016-04-24T08:03:04Z</time>
      </trkpt>
      <trkpt lat="49.52936" lon="0.76419">
        <ele>19.2</ele>
        <time>2016-04-24T08:03:09Z</time>
      </trkpt>
      <trkpt lat="49.52934" lon="0.76404">
        <ele>19.9</ele>
        <time>2016-04-24T08:03:15Z</time>
      </trkpt>
      <trkpt lat="49.52933" lon="0.76387">
        <ele>20.6</ele>
        <time>2016-04-24T08:03:21Z</time>
      </trkpt>
      <trkpt lat="49.52932" lon="0.76371">
        <ele>21.1</ele>
        <time>2016-04-24T08:03:25Z</time>
      </trkpt>
      <trkpt lat="49.52931" lon="0.76356">
        <ele>21.6</ele>
        <time>2016-04-24T08:03:29Z</time>
      </trkpt>
      <trkpt lat="49.52931" lon="0.76339">
        <ele>22.2</ele>
        <time>2016-04-24T08:03:33Z</time>
      </trkpt>
      <trkpt lat="49.52929" lon="0.76322">
        <ele>23</ele>
        <time>2016-04-24T08:03:38Z</time>
      </trkpt>
      <trkpt lat="49.52927" lon="0.76307">
        <ele>23.9</ele>
        <time>2016-04-24T08:03:43Z</time>
      </trkpt>
      <trkpt lat="49.52926" lon="0.76291">
        <ele>24.7</ele>
        <time>2016-04-24T08:03:49Z</time>
      </trkpt>
      <trkpt lat="49.52926" lon="0.76277">
        <ele>25.5</ele>
        <time>2016-04-24T08:03:55Z</time>
      </trkpt>
      <trkpt lat="49.52929" lon="0.76263">
        <ele>26.5</ele>
        <time>2016-04-24T08:04:02Z</time>
      </trkpt>
      <trkpt lat="49.52932" lon="0.76248">
        <ele>27.7</ele>
        <time>2016-04-24T08:04:11Z</time>
      </trkpt>
      <trkpt lat="49.52935" lon="0.76235">
        <ele>28.7</ele>
        <time>2016-04-24T08:04:19Z</time>
      </trkpt>
      <trkpt lat="49.52944" lon="0.7623">
        <ele>29.6</ele>
        <time>2016-04-24T08:04:27Z</time>
      </trkpt>
      <trkpt lat="49.52954" lon="0.76227">
        <ele>30.4</ele>
        <time>2016-04-24T08:04:33Z</time>
      </trkpt>
      <trkpt lat="49.52963" lon="0.76224">
        <ele>31.6</ele>
        <time>2016-04-24T08:04:44Z</time>
      </trkpt>
      <trkpt lat="49.52972" lon="0.76223">
        <ele>32.5</ele>
        <time>2016-04-24T08:04:52Z</time>
      </trkpt>
      <trkpt lat="49.52982" lon="0.76221">
        <ele>33.2</ele>
        <time>2016-04-24T08:04:59Z</time>
      </trkpt>
      <trkpt lat="49.52992" lon="0.76222">
        <ele>34</ele>
        <time>2016-04-24T08:05:07Z</time>
      </trkpt>
      <trkpt lat="49.53002" lon="0.76219">
        <ele>35.4</ele>
        <time>2016-04-24T08:05:17Z</time>
      </trkpt>
      <trkpt lat="49.5301" lon="0.76225">
        <ele>36.7</ele>
        <time>2016-04-24T08:05:26Z</time>
      </trkpt>
      <trkpt lat="49.53019" lon="0.76228">
        <ele>38</ele>
        <time>2016-04-24T08:05:35Z</time>
      </trkpt>
      <trkpt lat="49.53028" lon="0.76231">
        <ele>39.1</ele>
        <time>2016-04-24T08:05:42Z</time>
      </trkpt>
      <trkpt lat="49.53038" lon="0.7623">
        <ele>40.2</ele>
        <time>2016-04-24T08:05:50Z</time>
      </trkpt>
      <trkpt lat="49.53047" lon="0.76225">
        <ele>40.9</ele>
        <time>2016-04-24T08:05:56Z</time>
      </trkpt>
      <trkpt lat="49.53057" lon="0.76224">
        <ele>41.3</ele>
        <time>2016-04-24T08:06:00Z</time>
      </trkpt>
      <trkpt lat="49.53067" lon="0.76225">
        <ele>41.7</ele>
        <time>2016-04-24T08:06:04Z</time>
      </trkpt>
      <trkpt lat="49.53078" lon="0.76226">
        <ele>41.9</ele>
        <time>2016-04-24T08:06:08Z</time>
      </trkpt>
      <trkpt lat="49.53087" lon="0.76226">
        <ele>42.1</ele>
        <time>2016-04-24T08:06:11Z</time>
      </trkpt>
      <trkpt lat="49.53098" lon="0.76226">
        <ele>42.1</ele>
        <time>2016-04-24T08:06:15Z</time>
      </trkpt>
      <trkpt lat="49.53108" lon="0.76224">
        <ele>42.1</ele>
        <time>2016-04-24T08:06:19Z</time>
      </trkpt>
      <trkpt lat="49.53117" lon="0.76223">
        <ele>42.1</ele>
        <time>2016-04-24T08:06:23Z</time>
      </trkpt>
      <trkpt lat="49.53126" lon="0.76215">
        <ele>42.3</ele>
        <time>2016-04-24T08:06:28Z</time>
      </trkpt>
      <trkpt lat="49.53136" lon="0.76207">
        <ele>42.6</ele>
        <time>2016-04-24T08:06:33Z</time>
      </trkpt>
      <trkpt lat="49.53147" lon="0.76198">
        <ele>42.9</ele>
        <time>2016-04-24T08:06:37Z</time>
      </trkpt>
      <trkpt lat="49.53157" lon="0.76188">
        <ele>43.1</ele>
        <time>2016-04-24T08:06:40Z</time>
      </trkpt>
      <trkpt lat="49.53168" lon="0.7618">
        <ele>43.2</ele>
        <time>2016-04-24T08:06:43Z</time>
      </trkpt>
      <trkpt lat="49.53179" lon="0.7617">
        <ele>43</ele>
        <time>2016-04-24T08:06:46Z</time>
      </trkpt>
      <trkpt lat="49.53187" lon="0.76163">
        <ele>42.7</ele>
        <time>2016-04-24T08:06:48Z</time>
      </trkpt>
      <trkpt lat="49.53199" lon="0.76154">
        <ele>42.3</ele>
        <time>2016-04-24T08:06:51Z</time>
      </trkpt>
      <trkpt lat="49.53207" lon="0.76144">
        <ele>42.1</ele>
        <time>2016-04-24T08:06:53Z</time>
      </trkpt>
      <trkpt lat="49.53214" lon="0.76133">
        <ele>41.9</ele>
        <time>2016-04-24T08:06:55Z</time>
      </trkpt>
      <trkpt lat="49.53222" lon="0.76123">
        <ele>41.5</ele>
        <time>2016-04-24T08:06:57Z</time>
      </trkpt>
      <trkpt lat="49.53231" lon="0.76113">
        <ele>40.8</ele>
        <time>2016-04-24T08:07:00Z</time>
      </trkpt>
      <trkpt lat="49.53241" lon="0.76103">
        <ele>40</ele>
        <time>2016-04-24T08:07:03Z</time>
      </trkpt>
      <trkpt lat="49.53252" lon="0.76091">
        <ele>38.9</ele>
        <time>2016-04-24T08:07:06Z</time>
      </trkpt>
      <trkpt lat="49.53262" lon="0.76087">
        <ele>38</ele>
        <time>2016-04-24T08:07:08Z</time>
      </trkpt>
      <trkpt lat="49.53273" lon="0.7608">
        <ele>37.1</ele>
        <time>2016-04-24T08:07:10Z</time>
      </trkpt>
      <trkpt lat="49.53286" lon="0.76075">
        <ele>36.2</ele>
        <time>2016-04-24T08:07:12Z</time>
      </trkpt>
      <trkpt lat="49.53298" lon="0.76072">
        <ele>35.4</ele>
        <time>2016-04-24T08:07:14Z</time>
      </trkpt>
      <trkpt lat="49.53308" lon="0.76066">
        <ele>34.6</ele>
        <time>2016-04-24T08:07:16Z</time>
      </trkpt>
      <trkpt lat="49.53318" lon="0.76061">
        <ele>33.8</ele>
        <time>2016-04-24T08:07:18Z</time>
      </trkpt>
      <trkpt lat="49.53327" lon="0.76058">
        <ele>33.2</ele>
        <time>2016-04-24T08:07:20Z</time>
      </trkpt>
      <trkpt lat="49.53339" lon="0.76054">
        <ele>32.4</ele>
        <time>2016-04-24T08:07:23Z</time>
      </trkpt>
      <trkpt lat="49.53349" lon="0.76054">
        <ele>31.9</ele>
        <time>2016-04-24T08:07:25Z</time>
      </trkpt>
      <trkpt lat="49.53358" lon="0.76051">
        <ele>31.2</ele>
        <time>2016-04-24T08:07:27Z</time>
      </trkpt>
      <trkpt lat="49.5337" lon="0.76047">
        <ele>30.5</ele>
        <time>2016-04-24T08:07:29Z</time>
      </trkpt>
      <trkpt lat="49.5338" lon="0.76044">
        <ele>30</ele>
        <time>2016-04-24T08:07:31Z</time>
      </trkpt>
      <trkpt lat="49.53393" lon="0.76037">
        <ele>29.2</ele>
        <time>2016-04-24T08:07:34Z</time>
      </trkpt>
      <trkpt lat="49.53404" lon="0.76033">
        <ele>28.6</ele>
        <time>2016-04-24T08:07:37Z</time>
      </trkpt>
      <trkpt lat="49.53415" lon="0.76027">
        <ele>28</ele>
        <time>2016-04-24T08:07:41Z</time>
      </trkpt>
      <trkpt lat="49.53424" lon="0.76029">
        <ele>27.7</ele>
        <time>2016-04-24T08:07:44Z</time>
      </trkpt>
      <trkpt lat="49.53435" lon="0.76032">
        <ele>27.3</ele>
        <time>2016-04-24T08:07:48Z</time>
      </trkpt>
      <trkpt lat="49.53444" lon="0.76034">
        <ele>27</ele>
        <time>2016-04-24T08:07:51Z</time>
      </trkpt>
      <trkpt lat="49.53454" lon="0.76043">
        <ele>27.1</ele>
        <time>2016-04-24T08:07:55Z</time>
      </trkpt>
      <trkpt lat="49.53465" lon="0.76055">
        <ele>27.1</ele>
        <time>2016-04-24T08:07:58Z</time>
      </trkpt>
      <trkpt lat="49.53473" lon="0.76069">
        <ele>27.2</ele>
        <time>2016-04-24T08:08:01Z</time>
      </trkpt>
      <trkpt lat="49.53479" lon="0.76079">
        <ele>27</ele>
        <time>2016-04-24T08:08:03Z</time>
      </trkpt>
      <trkpt lat="49.53489" lon="0.76091">
        <ele>27.1</ele>
        <time>2016-04-24T08:08:06Z</time>
      </trkpt>
      <trkpt lat="49.53496" lon="0.76102">
        <ele>27.1</ele>
        <time>2016-04-24T08:08:09Z</time>
      </trkpt>
      <trkpt lat="49.53505" lon="0.76109">
        <ele>27.1</ele>
        <time>2016-04-24T08:08:11Z</time>
      </trkpt>
      <trkpt lat="49.53516" lon="0.76118">
        <ele>27.1</ele>
        <time>2016-04-24T08:08:13Z</time>
      </trkpt>
      <trkpt lat="49.53525" lon="0.76126">
        <ele>27</ele>
        <time>2016-04-24T08:08:15Z</time>
      </trkpt>
      <trkpt lat="49.53537" lon="0.76136">
        <ele>26.9</ele>
        <time>2016-04-24T08:08:18Z</time>
      </trkpt>
      <trkpt lat="49.53545" lon="0.76142">
        <ele>26.8</ele>
        <time>2016-04-24T08:08:20Z</time>
      </trkpt>
      <trkpt lat="49.53554" lon="0.76145">
        <ele>26.7</ele>
        <time>2016-04-24T08:08:26Z</time>
      </trkpt>
      <trkpt lat="49.53564" lon="0.76145">
        <ele>26.6</ele>
        <time>2016-04-24T08:08:32Z</time>
      </trkpt>
      <trkpt lat="49.53568" lon="0.76129">
        <ele>26.4</ele>
        <time>2016-04-24T08:08:39Z</time>
      </trkpt>
      <trkpt lat="49.53567" lon="0.76113">
        <ele>26.4</ele>
        <time>2016-04-24T08:08:43Z</time>
      </trkpt>
      <trkpt lat="49.53557" lon="0.7611">
        <ele>26.4</ele>
        <time>2016-04-24T08:08:45Z</time>
      </trkpt>
      <trkpt lat="49.53545" lon="0.76105">
        <ele>26.4</ele>
        <time>2016-04-24T08:08:47Z</time>
      </trkpt>
      <trkpt lat="49.53541" lon="0.76089">
        <ele>26.4</ele>
        <time>2016-04-24T08:08:51Z</time>
      </trkpt>
      <trkpt lat="49.5354" lon="0.76073">
        <ele>26.4</ele>
        <time>2016-04-24T08:08:56Z</time>
      </trkpt>
      <trkpt lat="49.5354" lon="0.76058">
        <ele>26.3</ele>
        <time>2016-04-24T08:09:00Z</time>
      </trkpt>
      <trkpt lat="49.5354" lon="0.76043">
        <ele>26.3</ele>
        <time>2016-04-24T08:09:04Z</time>
      </trkpt>
      <trkpt lat="49.53541" lon="0.76027">
        <ele>26.2</ele>
        <time>2016-04-24T08:09:08Z</time>
      </trkpt>
      <trkpt lat="49.53546" lon="0.76011">
        <ele>26.2</ele>
        <time>2016-04-24T08:09:12Z</time>
      </trkpt>
      <trkpt lat="49.53551" lon="0.75999">
        <ele>26.1</ele>
        <time>2016-04-24T08:09:14Z</time>
      </trkpt>
      <trkpt lat="49.53559" lon="0.75991">
        <ele>26.1</ele>
        <time>2016-04-24T08:09:17Z</time>
      </trkpt>
      <trkpt lat="49.53565" lon="0.75981">
        <ele>26</ele>
        <time>2016-04-24T08:09:21Z</time>
      </trkpt>
      <trkpt lat="49.53573" lon="0.75973">
        <ele>26</ele>
        <time>2016-04-24T08:09:25Z</time>
      </trkpt>
      <trkpt lat="49.53582" lon="0.75964">
        <ele>25.8</ele>
        <time>2016-04-24T08:09:28Z</time>
      </trkpt>
      <trkpt lat="49.53593" lon="0.75957">
        <ele>25.6</ele>
        <time>2016-04-24T08:09:31Z</time>
      </trkpt>
      <trkpt lat="49.53606" lon="0.75952">
        <ele>25.6</ele>
        <time>2016-04-24T08:09:34Z</time>
      </trkpt>
      <trkpt lat="49.53616" lon="0.75948">
        <ele>25.6</ele>
        <time>2016-04-24T08:09:36Z</time>
      </trkpt>
      <trkpt lat="49.53625" lon="0.75943">
        <ele>25.6</ele>
        <time>2016-04-24T08:09:38Z</time>
      </trkpt>
      <trkpt lat="49.53633" lon="0.75937">
        <ele>25.5</ele>
        <time>2016-04-24T08:09:40Z</time>
      </trkpt>
      <trkpt lat="49.53643" lon="0.75933">
        <ele>25.4</ele>
        <time>2016-04-24T08:09:42Z</time>
      </trkpt>
      <trkpt lat="49.53653" lon="0.75928">
        <ele>25.3</ele>
        <time>2016-04-24T08:09:44Z</time>
      </trkpt>
      <trkpt lat="49.53663" lon="0.75925">
        <ele>25.1</ele>
        <time>2016-04-24T08:09:46Z</time>
      </trkpt>
      <trkpt lat="49.53671" lon="0.75918">
        <ele>24.9</ele>
        <time>2016-04-24T08:09:48Z</time>
      </trkpt>
      <trkpt lat="49.53681" lon="0.75907">
        <ele>24.3</ele>
        <time>2016-04-24T08:09:51Z</time>
      </trkpt>
      <trkpt lat="49.53687" lon="0.75897">
        <ele>23.3</ele>
        <time>2016-04-24T08:09:54Z</time>
      </trkpt>
      <trkpt lat="49.53694" lon="0.75885">
        <ele>21.7</ele>
        <time>2016-04-24T08:09:59Z</time>
      </trkpt>
      <trkpt lat="49.53701" lon="0.75872">
        <ele>20.8</ele>
        <time>2016-04-24T08:10:02Z</time>
      </trkpt>
      <trkpt lat="49.5371" lon="0.75868">
        <ele>19.7</ele>
        <time>2016-04-24T08:10:07Z</time>
      </trkpt>
      <trkpt lat="49.53719" lon="0.75876">
        <ele>19.2</ele>
        <time>2016-04-24T08:10:11Z</time>
      </trkpt>
      <trkpt lat="49.53727" lon="0.75881">
        <ele>19.1</ele>
        <time>2016-04-24T08:10:17Z</time>
      </trkpt>
      <trkpt lat="49.53736" lon="0.75887">
        <ele>19.6</ele>
        <time>2016-04-24T08:10:23Z</time>
      </trkpt>
      <trkpt lat="49.53745" lon="0.75892">
        <ele>20.2</ele>
        <time>2016-04-24T08:10:30Z</time>
      </trkpt>
      <trkpt lat="49.53754" lon="0.75895">
        <ele>20.8</ele>
        <time>2016-04-24T08:10:36Z</time>
      </trkpt>
      <trkpt lat="49.53764" lon="0.75897">
        <ele>21.7</ele>
        <time>2016-04-24T08:10:45Z</time>
      </trkpt>
      <trkpt lat="49.53773" lon="0.759">
        <ele>22.5</ele>
        <time>2016-04-24T08:10:52Z</time>
      </trkpt>
      <trkpt lat="49.53782" lon="0.75899">
        <ele>23.5</ele>
        <time>2016-04-24T08:11:03Z</time>
      </trkpt>
      <trkpt lat="49.53791" lon="0.75898">
        <ele>24</ele>
        <time>2016-04-24T08:11:12Z</time>
      </trkpt>
      <trkpt lat="49.53802" lon="0.759">
        <ele>24.5</ele>
        <time>2016-04-24T08:11:18Z</time>
      </trkpt>
      <trkpt lat="49.53813" lon="0.75901">
        <ele>24.8</ele>
        <time>2016-04-24T08:11:24Z</time>
      </trkpt>
      <trkpt lat="49.53822" lon="0.75902">
        <ele>25.3</ele>
        <time>2016-04-24T08:11:31Z</time>
      </trkpt>
      <trkpt lat="49.53832" lon="0.75904">
        <ele>25.7</ele>
        <time>2016-04-24T08:11:36Z</time>
      </trkpt>
      <trkpt lat="49.53841" lon="0.75908">
        <ele>26.1</ele>
        <time>2016-04-24T08:11:41Z</time>
      </trkpt>
      <trkpt lat="49.5385" lon="0.7591">
        <ele>26.6</ele>
        <time>2016-04-24T08:11:46Z</time>
      </trkpt>
      <trkpt lat="49.5386" lon="0.75912">
        <ele>26.8</ele>
        <time>2016-04-24T08:11:50Z</time>
      </trkpt>
      <trkpt lat="49.53871" lon="0.75915">
        <ele>27.1</ele>
        <time>2016-04-24T08:11:55Z</time>
      </trkpt>
      <trkpt lat="49.5388" lon="0.7592">
        <ele>27.4</ele>
        <time>2016-04-24T08:12:00Z</time>
      </trkpt>
      <trkpt lat="49.53888" lon="0.75927">
        <ele>27.8</ele>
        <time>2016-04-24T08:12:05Z</time>
      </trkpt>
      <trkpt lat="49.53897" lon="0.75934">
        <ele>28</ele>
        <time>2016-04-24T08:12:11Z</time>
      </trkpt>
      <trkpt lat="49.53906" lon="0.75943">
        <ele>28.3</ele>
        <time>2016-04-24T08:12:16Z</time>
      </trkpt>
      <trkpt lat="49.53916" lon="0.75952">
        <ele>28.6</ele>
        <time>2016-04-24T08:12:20Z</time>
      </trkpt>
      <trkpt lat="49.53924" lon="0.75957">
        <ele>29.1</ele>
        <time>2016-04-24T08:12:24Z</time>
      </trkpt>
      <trkpt lat="49.53933" lon="0.75963">
        <ele>29.5</ele>
        <time>2016-04-24T08:12:28Z</time>
      </trkpt>
      <trkpt lat="49.53942" lon="0.75969">
        <ele>29.7</ele>
        <time>2016-04-24T08:12:32Z</time>
      </trkpt>
      <trkpt lat="49.53951" lon="0.75976">
        <ele>30.2</ele>
        <time>2016-04-24T08:12:38Z</time>
      </trkpt>
      <trkpt lat="49.53959" lon="0.75981">
        <ele>30.5</ele>
        <time>2016-04-24T08:12:42Z</time>
      </trkpt>
      <trkpt lat="49.53969" lon="0.75989">
        <ele>30.9</ele>
        <time>2016-04-24T08:12:47Z</time>
      </trkpt>
      <trkpt lat="49.53979" lon="0.75993">
        <ele>31.1</ele>
        <time>2016-04-24T08:12:51Z</time>
      </trkpt>
      <trkpt lat="49.53988" lon="0.75997">
        <ele>31.4</ele>
        <time>2016-04-24T08:12:55Z</time>
      </trkpt>
      <trkpt lat="49.53998" lon="0.76002">
        <ele>31.6</ele>
        <time>2016-04-24T08:13:00Z</time>
      </trkpt>
      <trkpt lat="49.54007" lon="0.76006">
        <ele>31.7</ele>
        <time>2016-04-24T08:13:04Z</time>
      </trkpt>
      <trkpt lat="49.54015" lon="0.76009">
        <ele>32</ele>
        <time>2016-04-24T08:13:08Z</time>
      </trkpt>
      <trkpt lat="49.54024" lon="0.76013">
        <ele>32.2</ele>
        <time>2016-04-24T08:13:12Z</time>
      </trkpt>
      <trkpt lat="49.54034" lon="0.76017">
        <ele>32.5</ele>
        <time>2016-04-24T08:13:16Z</time>
      </trkpt>
      <trkpt lat="49.54043" lon="0.76021">
        <ele>32.6</ele>
        <time>2016-04-24T08:13:20Z</time>
      </trkpt>
      <trkpt lat="49.54054" lon="0.76025">
        <ele>32.9</ele>
        <time>2016-04-24T08:13:25Z</time>
      </trkpt>
      <trkpt lat="49.54063" lon="0.7603">
        <ele>33.2</ele>
        <time>2016-04-24T08:13:30Z</time>
      </trkpt>
      <trkpt lat="49.54071" lon="0.76034">
        <ele>33.4</ele>
        <time>2016-04-24T08:13:35Z</time>
      </trkpt>
      <trkpt lat="49.54081" lon="0.76038">
        <ele>33.6</ele>
        <time>2016-04-24T08:13:40Z</time>
      </trkpt>
      <trkpt lat="49.5409" lon="0.7604">
        <ele>33.8</ele>
        <time>2016-04-24T08:13:46Z</time>
      </trkpt>
      <trkpt lat="49.541" lon="0.76041">
        <ele>34.1</ele>
        <time>2016-04-24T08:13:53Z</time>
      </trkpt>
      <trkpt lat="49.5411" lon="0.76045">
        <ele>34.5</ele>
        <time>2016-04-24T08:13:58Z</time>
      </trkpt>
      <trkpt lat="49.54119" lon="0.76048">
        <ele>35</ele>
        <time>2016-04-24T08:14:05Z</time>
      </trkpt>
      <trkpt lat="49.54128" lon="0.76053">
        <ele>35.4</ele>
        <time>2016-04-24T08:14:11Z</time>
      </trkpt>
      <trkpt lat="49.54136" lon="0.76059">
        <ele>35.7</ele>
        <time>2016-04-24T08:14:17Z</time>
      </trkpt>
      <trkpt lat="49.54146" lon="0.76065">
        <ele>36</ele>
        <time>2016-04-24T08:14:23Z</time>
      </trkpt>
      <trkpt lat="49.54155" lon="0.76068">
        <ele>36.3</ele>
        <time>2016-04-24T08:14:29Z</time>
      </trkpt>
      <trkpt lat="49.54165" lon="0.7607">
        <ele>36.7</ele>
        <time>2016-04-24T08:14:36Z</time>
      </trkpt>
      <trkpt lat="49.54175" lon="0.76074">
        <ele>37</ele>
        <time>2016-04-24T08:14:42Z</time>
      </trkpt>
      <trkpt lat="49.54184" lon="0.76078">
        <ele>37.3</ele>
        <time>2016-04-24T08:14:48Z</time>
      </trkpt>
      <trkpt lat="49.54195" lon="0.76082">
        <ele>37.7</ele>
        <time>2016-04-24T08:14:53Z</time>
      </trkpt>
      <trkpt lat="49.54205" lon="0.76087">
        <ele>37.9</ele>
        <time>2016-04-24T08:14:58Z</time>
      </trkpt>
      <trkpt lat="49.54214" lon="0.76092">
        <ele>38.2</ele>
        <time>2016-04-24T08:15:04Z</time>
      </trkpt>
      <trkpt lat="49.54224" lon="0.76096">
        <ele>38.4</ele>
        <time>2016-04-24T08:15:09Z</time>
      </trkpt>
      <trkpt lat="49.54235" lon="0.76097">
        <ele>38.8</ele>
        <time>2016-04-24T08:15:16Z</time>
      </trkpt>
      <trkpt lat="49.54244" lon="0.76098">
        <ele>39.1</ele>
        <time>2016-04-24T08:15:22Z</time>
      </trkpt>
      <trkpt lat="49.54255" lon="0.76097">
        <ele>39.4</ele>
        <time>2016-04-24T08:15:26Z</time>
      </trkpt>
      <trkpt lat="49.54265" lon="0.76099">
        <ele>39.6</ele>
        <time>2016-04-24T08:15:31Z</time>
      </trkpt>
      <trkpt lat="49.54274" lon="0.76103">
        <ele>39.9</ele>
        <time>2016-04-24T08:15:37Z</time>
      </trkpt>
      <trkpt lat="49.54284" lon="0.76112">
        <ele>40.2</ele>
        <time>2016-04-24T08:15:42Z</time>
      </trkpt>
      <trkpt lat="49.54293" lon="0.76117">
        <ele>40.4</ele>
        <time>2016-04-24T08:15:47Z</time>
      </trkpt>
      <trkpt lat="49.54303" lon="0.76117">
        <ele>40.9</ele>
        <time>2016-04-24T08:15:54Z</time>
      </trkpt>
      <trkpt lat="49.54312" lon="0.76119">
        <ele>41.1</ele>
        <time>2016-04-24T08:15:57Z</time>
      </trkpt>
      <trkpt lat="49.54322" lon="0.76119">
        <ele>41.3</ele>
        <time>2016-04-24T08:16:03Z</time>
      </trkpt>
      <trkpt lat="49.54333" lon="0.76116">
        <ele>42.7</ele>
        <time>2016-04-24T08:16:29Z</time>
      </trkpt>
      <trkpt lat="49.54343" lon="0.76119">
        <ele>42.8</ele>
        <time>2016-04-24T08:16:33Z</time>
      </trkpt>
      <trkpt lat="49.54353" lon="0.76124">
        <ele>42.8</ele>
        <time>2016-04-24T08:16:38Z</time>
      </trkpt>
      <trkpt lat="49.54364" lon="0.76129">
        <ele>42.8</ele>
        <time>2016-04-24T08:16:43Z</time>
      </trkpt>
      <trkpt lat="49.54374" lon="0.76135">
        <ele>42.7</ele>
        <time>2016-04-24T08:16:48Z</time>
      </trkpt>
      <trkpt lat="49.54381" lon="0.76146">
        <ele>42.6</ele>
        <time>2016-04-24T08:16:52Z</time>
      </trkpt>
      <trkpt lat="49.54385" lon="0.76162">
        <ele>42.5</ele>
        <time>2016-04-24T08:16:57Z</time>
      </trkpt>
      <trkpt lat="49.54385" lon="0.76178">
        <ele>42.4</ele>
        <time>2016-04-24T08:17:01Z</time>
      </trkpt>
      <trkpt lat="49.54385" lon="0.76192">
        <ele>42.4</ele>
        <time>2016-04-24T08:17:05Z</time>
      </trkpt>
      <trkpt lat="49.54389" lon="0.76208">
        <ele>42.3</ele>
        <time>2016-04-24T08:17:10Z</time>
      </trkpt>
      <trkpt lat="49.54388" lon="0.76224">
        <ele>42.2</ele>
        <time>2016-04-24T08:17:14Z</time>
      </trkpt>
      <trkpt lat="49.54381" lon="0.76236">
        <ele>42.1</ele>
        <time>2016-04-24T08:17:19Z</time>
      </trkpt>
      <trkpt lat="49.54379" lon="0.7625">
        <ele>42.3</ele>
        <time>2016-04-24T08:17:25Z</time>
      </trkpt>
      <trkpt lat="49.54381" lon="0.76264">
        <ele>42.5</ele>
        <time>2016-04-24T08:17:30Z</time>
      </trkpt>
      <trkpt lat="49.54381" lon="0.76278">
        <ele>42.7</ele>
        <time>2016-04-24T08:17:36Z</time>
      </trkpt>
      <trkpt lat="49.54382" lon="0.76291">
        <ele>42.9</ele>
        <time>2016-04-24T08:17:43Z</time>
      </trkpt>
      <trkpt lat="49.54385" lon="0.76305">
        <ele>43.1</ele>
        <time>2016-04-24T08:17:49Z</time>
      </trkpt>
      <trkpt lat="49.54383" lon="0.7632">
        <ele>43.4</ele>
        <time>2016-04-24T08:17:56Z</time>
      </trkpt>
      <trkpt lat="49.54383" lon="0.76335">
        <ele>44</ele>
        <time>2016-04-24T08:18:04Z</time>
      </trkpt>
      <trkpt lat="49.54383" lon="0.76351">
        <ele>44.6</ele>
        <time>2016-04-24T08:18:11Z</time>
      </trkpt>
      <trkpt lat="49.54387" lon="0.76364">
        <ele>45</ele>
        <time>2016-04-24T08:18:17Z</time>
      </trkpt>
      <trkpt lat="49.54392" lon="0.76379">
        <ele>45.4</ele>
        <time>2016-04-24T08:18:23Z</time>
      </trkpt>
      <trkpt lat="49.54394" lon="0.76393">
        <ele>45.9</ele>
        <time>2016-04-24T08:18:30Z</time>
      </trkpt>
      <trkpt lat="49.54395" lon="0.76407">
        <ele>46.3</ele>
        <time>2016-04-24T08:18:36Z</time>
      </trkpt>
      <trkpt lat="49.54401" lon="0.76419">
        <ele>46.8</ele>
        <time>2016-04-24T08:18:44Z</time>
      </trkpt>
      <trkpt lat="49.5441" lon="0.76416">
        <ele>46.5</ele>
        <time>2016-04-24T08:18:47Z</time>
      </trkpt>
      <trkpt lat="49.5442" lon="0.76409">
        <ele>46</ele>
        <time>2016-04-24T08:18:50Z</time>
      </trkpt>
      <trkpt lat="49.54428" lon="0.764">
        <ele>45.1</ele>
        <time>2016-04-24T08:18:53Z</time>
      </trkpt>
      <trkpt lat="49.54437" lon="0.76392">
        <ele>44</ele>
        <time>2016-04-24T08:18:56Z</time>
      </trkpt>
      <trkpt lat="49.54445" lon="0.76385">
        <ele>42.2</ele>
        <time>2016-04-24T08:19:00Z</time>
      </trkpt>
      <trkpt lat="49.54456" lon="0.7638">
        <ele>40.1</ele>
        <time>2016-04-24T08:19:04Z</time>
      </trkpt>
      <trkpt lat="49.5447" lon="0.76373">
        <ele>38</ele>
        <time>2016-04-24T08:19:08Z</time>
      </trkpt>
      <trkpt lat="49.54481" lon="0.76371">
        <ele>35.7</ele>
        <time>2016-04-24T08:19:12Z</time>
      </trkpt>
      <trkpt lat="49.54491" lon="0.76373">
        <ele>33.3</ele>
        <time>2016-04-24T08:19:16Z</time>
      </trkpt>
      <trkpt lat="49.545" lon="0.76373">
        <ele>31.6</ele>
        <time>2016-04-24T08:19:19Z</time>
      </trkpt>
      <trkpt lat="49.5451" lon="0.76373">
        <ele>30</ele>
        <time>2016-04-24T08:19:22Z</time>
      </trkpt>
      <trkpt lat="49.54521" lon="0.76374">
        <ele>28.1</ele>
        <time>2016-04-24T08:19:26Z</time>
      </trkpt>
      <trkpt lat="49.54531" lon="0.76373">
        <ele>24.1</ele>
        <time>2016-04-24T08:19:39Z</time>
      </trkpt>
      <trkpt lat="49.5454" lon="0.76372">
        <ele>22.6</ele>
        <time>2016-04-24T08:19:51Z</time>
      </trkpt>
      <trkpt lat="49.54545" lon="0.7636">
        <ele>21.6</ele>
        <time>2016-04-24T08:20:18Z</time>
      </trkpt>
      <trkpt lat="49.54548" lon="0.76343">
        <ele>21.6</ele>
        <time>2016-04-24T08:20:22Z</time>
      </trkpt>
      <trkpt lat="49.54552" lon="0.76327">
        <ele>21.5</ele>
        <time>2016-04-24T08:20:25Z</time>
      </trkpt>
      <trkpt lat="49.54553" lon="0.76313">
        <ele>21.4</ele>
        <time>2016-04-24T08:20:27Z</time>
      </trkpt>
      <trkpt lat="49.54555" lon="0.76299">
        <ele>21.3</ele>
        <time>2016-04-24T08:20:29Z</time>
      </trkpt>
      <trkpt lat="49.54556" lon="0.76283">
        <ele>21.1</ele>
        <time>2016-04-24T08:20:31Z</time>
      </trkpt>
      <trkpt lat="49.54558" lon="0.76266">
        <ele>20.8</ele>
        <time>2016-04-24T08:20:33Z</time>
      </trkpt>
      <trkpt lat="49.54561" lon="0.76249">
        <ele>20.5</ele>
        <time>2016-04-24T08:20:35Z</time>
      </trkpt>
      <trkpt lat="49.54564" lon="0.76231">
        <ele>20.2</ele>
        <time>2016-04-24T08:20:37Z</time>
      </trkpt>
      <trkpt lat="49.54569" lon="0.76213">
        <ele>19.8</ele>
        <time>2016-04-24T08:20:39Z</time>
      </trkpt>
      <trkpt lat="49.54576" lon="0.76194">
        <ele>19.3</ele>
        <time>2016-04-24T08:20:41Z</time>
      </trkpt>
      <trkpt lat="49.54583" lon="0.76172">
        <ele>18.7</ele>
        <time>2016-04-24T08:20:43Z</time>
      </trkpt>
      <trkpt lat="49.5459" lon="0.76147">
        <ele>18.1</ele>
        <time>2016-04-24T08:20:45Z</time>
      </trkpt>
      <trkpt lat="49.54598" lon="0.76121">
        <ele>17.3</ele>
        <time>2016-04-24T08:20:47Z</time>
      </trkpt>
      <trkpt lat="49.54601" lon="0.76108">
        <ele>16.9</ele>
        <time>2016-04-24T08:20:48Z</time>
      </trkpt>
      <trkpt lat="49.54604" lon="0.76094">
        <ele>16.6</ele>
        <time>2016-04-24T08:20:49Z</time>
      </trkpt>
      <trkpt lat="49.54607" lon="0.76078">
        <ele>16.1</ele>
        <time>2016-04-24T08:20:50Z</time>
      </trkpt>
      <trkpt lat="49.54611" lon="0.76063">
        <ele>15.6</ele>
        <time>2016-04-24T08:20:51Z</time>
      </trkpt>
      <trkpt lat="49.54613" lon="0.76048">
        <ele>15.1</ele>
        <time>2016-04-24T08:20:52Z</time>
      </trkpt>
      <trkpt lat="49.54616" lon="0.76033">
        <ele>14.5</ele>
        <time>2016-04-24T08:20:53Z</time>
      </trkpt>
      <trkpt lat="49.54618" lon="0.76018">
        <ele>14</ele>
        <time>2016-04-24T08:20:54Z</time>
      </trkpt>
      <trkpt lat="49.5462" lon="0.76002">
        <ele>13.5</ele>
        <time>2016-04-24T08:20:55Z</time>
      </trkpt>
      <trkpt lat="49.54622" lon="0.75986">
        <ele>12.9</ele>
        <time>2016-04-24T08:20:56Z</time>
      </trkpt>
      <trkpt lat="49.54624" lon="0.7597">
        <ele>12.3</ele>
        <time>2016-04-24T08:20:57Z</time>
      </trkpt>
      <trkpt lat="49.54625" lon="0.75954">
        <ele>11.8</ele>
        <time>2016-04-24T08:20:58Z</time>
      </trkpt>
      <trkpt lat="49.54626" lon="0.75938">
        <ele>11.2</ele>
        <time>2016-04-24T08:20:59Z</time>
      </trkpt>
      <trkpt lat="49.54628" lon="0.75923">
        <ele>10.6</ele>
        <time>2016-04-24T08:21:00Z</time>
      </trkpt>
      <trkpt lat="49.54629" lon="0.75909">
        <ele>10.1</ele>
        <time>2016-04-24T08:21:01Z</time>
      </trkpt>
      <trkpt lat="49.5463" lon="0.75883">
        <ele>8.8</ele>
        <time>2016-04-24T08:21:03Z</time>
      </trkpt>
      <trkpt lat="49.54629" lon="0.75862">
        <ele>7.5</ele>
        <time>2016-04-24T08:21:05Z</time>
      </trkpt>
      <trkpt lat="49.54623" lon="0.75844">
        <ele>6.2</ele>
        <time>2016-04-24T08:21:07Z</time>
      </trkpt>
      <trkpt lat="49.54613" lon="0.75826">
        <ele>5</ele>
        <time>2016-04-24T08:21:09Z</time>
      </trkpt>
      <trkpt lat="49.54604" lon="0.75809">
        <ele>3.8</ele>
        <time>2016-04-24T08:21:11Z</time>
      </trkpt>
      <trkpt lat="49.54595" lon="0.75791">
        <ele>2.8</ele>
        <time>2016-04-24T08:21:13Z</time>
      </trkpt>
      <trkpt lat="49.54586" lon="0.75775">
        <ele>1.8</ele>
        <time>2016-04-24T08:21:15Z</time>
      </trkpt>
      <trkpt lat="49.54578" lon="0.75759">
        <ele>1</ele>
        <time>2016-04-24T08:21:17Z</time>
      </trkpt>
      <trkpt lat="49.54571" lon="0.75745">
        <ele>0.2</ele>
        <time>2016-04-24T08:21:19Z</time>
      </trkpt>
      <trkpt lat="49.54564" lon="0.75733">
        <ele>-0.4</ele>
        <time>2016-04-24T08:21:21Z</time>
      </trkpt>
      <trkpt lat="49.54558" lon="0.75723">
        <ele>-1</ele>
        <time>2016-04-24T08:21:23Z</time>
      </trkpt>
      <trkpt lat="49.54552" lon="0.75712">
        <ele>-1.5</ele>
        <time>2016-04-24T08:21:25Z</time>
      </trkpt>
      <trkpt lat="49.54545" lon="0.75696">
        <ele>-2.2</ele>
        <time>2016-04-24T08:21:28Z</time>
      </trkpt>
      <trkpt lat="49.5454" lon="0.7568">
        <ele>-2.7</ele>
        <time>2016-04-24T08:21:31Z</time>
      </trkpt>
      <trkpt lat="49.54538" lon="0.75664">
        <ele>-3.1</ele>
        <time>2016-04-24T08:21:34Z</time>
      </trkpt>
      <trkpt lat="49.54538" lon="0.75647">
        <ele>-3.4</ele>
        <time>2016-04-24T08:21:38Z</time>
      </trkpt>
      <trkpt lat="49.54538" lon="0.75633">
        <ele>-3.4</ele>
        <time>2016-04-24T08:21:42Z</time>
      </trkpt>
      <trkpt lat="49.5454" lon="0.75617">
        <ele>-3.2</ele>
        <time>2016-04-24T08:21:47Z</time>
      </trkpt>
      <trkpt lat="49.5454" lon="0.75602">
        <ele>-2.9</ele>
        <time>2016-04-24T08:21:52Z</time>
      </trkpt>
      <trkpt lat="49.54535" lon="0.75589">
        <ele>-2.5</ele>
        <time>2016-04-24T08:21:57Z</time>
      </trkpt>
      <trkpt lat="49.54524" lon="0.75584">
        <ele>-2.2</ele>
        <time>2016-04-24T08:22:01Z</time>
      </trkpt>
      <trkpt lat="49.54513" lon="0.75583">
        <ele>-2</ele>
        <time>2016-04-24T08:22:05Z</time>
      </trkpt>
      <trkpt lat="49.54503" lon="0.75583">
        <ele>-1.8</ele>
        <time>2016-04-24T08:22:09Z</time>
      </trkpt>
      <trkpt lat="49.54495" lon="0.75575">
        <ele>-1.6</ele>
        <time>2016-04-24T08:22:13Z</time>
      </trkpt>
      <trkpt lat="49.54495" lon="0.75559">
        <ele>-1.3</ele>
        <time>2016-04-24T08:22:20Z</time>
      </trkpt>
      <trkpt lat="49.54496" lon="0.75544">
        <ele>-0.5</ele>
        <time>2016-04-24T08:22:28Z</time>
      </trkpt>
      <trkpt lat="49.54495" lon="0.75529">
        <ele>0.3</ele>
        <time>2016-04-24T08:22:36Z</time>
      </trkpt>
      <trkpt lat="49.54493" lon="0.75514">
        <ele>1.2</ele>
        <time>2016-04-24T08:22:42Z</time>
      </trkpt>
      <trkpt lat="49.54493" lon="0.755">
        <ele>2.1</ele>
        <time>2016-04-24T08:22:49Z</time>
      </trkpt>
      <trkpt lat="49.54494" lon="0.75486">
        <ele>3.2</ele>
        <time>2016-04-24T08:22:57Z</time>
      </trkpt>
      <trkpt lat="49.545" lon="0.75473">
        <ele>6.1</ele>
        <time>2016-04-24T08:23:32Z</time>
      </trkpt>
      <trkpt lat="49.5451" lon="0.7547">
        <ele>6.8</ele>
        <time>2016-04-24T08:23:40Z</time>
      </trkpt>
      <trkpt lat="49.54518" lon="0.75462">
        <ele>7.6</ele>
        <time>2016-04-24T08:23:50Z</time>
      </trkpt>
      <trkpt lat="49.54526" lon="0.75455">
        <ele>8.2</ele>
        <time>2016-04-24T08:23:58Z</time>
      </trkpt>
      <trkpt lat="49.54535" lon="0.75449">
        <ele>8.8</ele>
        <time>2016-04-24T08:24:06Z</time>
      </trkpt>
      <trkpt lat="49.54544" lon="0.75441">
        <ele>9.3</ele>
        <time>2016-04-24T08:24:13Z</time>
      </trkpt>
      <trkpt lat="49.54551" lon="0.75432">
        <ele>9.6</ele>
        <time>2016-04-24T08:24:19Z</time>
      </trkpt>
      <trkpt lat="49.5456" lon="0.75424">
        <ele>9.9</ele>
        <time>2016-04-24T08:24:26Z</time>
      </trkpt>
      <trkpt lat="49.54568" lon="0.75417">
        <ele>10.2</ele>
        <time>2016-04-24T08:24:32Z</time>
      </trkpt>
      <trkpt lat="49.54576" lon="0.7541">
        <ele>10.5</ele>
        <time>2016-04-24T08:24:38Z</time>
      </trkpt>
      <trkpt lat="49.54585" lon="0.75402">
        <ele>11</ele>
        <time>2016-04-24T08:24:44Z</time>
      </trkpt>
      <trkpt lat="49.54594" lon="0.75398">
        <ele>11.5</ele>
        <time>2016-04-24T08:24:50Z</time>
      </trkpt>
      <trkpt lat="49.54602" lon="0.75392">
        <ele>12</ele>
        <time>2016-04-24T08:24:56Z</time>
      </trkpt>
      <trkpt lat="49.54612" lon="0.75389">
        <ele>12.7</ele>
        <time>2016-04-24T08:25:02Z</time>
      </trkpt>
      <trkpt lat="49.54621" lon="0.75382">
        <ele>13.3</ele>
        <time>2016-04-24T08:25:09Z</time>
      </trkpt>
      <trkpt lat="49.54628" lon="0.75373">
        <ele>14.2</ele>
        <time>2016-04-24T08:25:16Z</time>
      </trkpt>
      <trkpt lat="49.54634" lon="0.75361">
        <ele>14.8</ele>
        <time>2016-04-24T08:25:22Z</time>
      </trkpt>
      <trkpt lat="49.54638" lon="0.75345">
        <ele>15.4</ele>
        <time>2016-04-24T08:25:28Z</time>
      </trkpt>
      <trkpt lat="49.54635" lon="0.75332">
        <ele>16.2</ele>
        <time>2016-04-24T08:25:33Z</time>
      </trkpt>
      <trkpt lat="49.54627" lon="0.75323">
        <ele>17.8</ele>
        <time>2016-04-24T08:25:42Z</time>
      </trkpt>
      <trkpt lat="49.54618" lon="0.75321">
        <ele>19.6</ele>
        <time>2016-04-24T08:25:52Z</time>
      </trkpt>
      <trkpt lat="49.54608" lon="0.75323">
        <ele>21</ele>
        <time>2016-04-24T08:26:00Z</time>
      </trkpt>
      <trkpt lat="49.54598" lon="0.75324">
        <ele>22.2</ele>
        <time>2016-04-24T08:26:09Z</time>
      </trkpt>
      <trkpt lat="49.54588" lon="0.75324">
        <ele>23.1</ele>
        <time>2016-04-24T08:26:16Z</time>
      </trkpt>
      <trkpt lat="49.54579" lon="0.75325">
        <ele>24.3</ele>
        <time>2016-04-24T08:26:24Z</time>
      </trkpt>
      <trkpt lat="49.5457" lon="0.75324">
        <ele>25.6</ele>
        <time>2016-04-24T08:26:33Z</time>
      </trkpt>
      <trkpt lat="49.54559" lon="0.75325">
        <ele>26.6</ele>
        <time>2016-04-24T08:26:41Z</time>
      </trkpt>
      <trkpt lat="49.5455" lon="0.75327">
        <ele>27.5</ele>
        <time>2016-04-24T08:26:48Z</time>
      </trkpt>
      <trkpt lat="49.54541" lon="0.75326">
        <ele>28.6</ele>
        <time>2016-04-24T08:26:56Z</time>
      </trkpt>
      <trkpt lat="49.54531" lon="0.75329">
        <ele>29.7</ele>
        <time>2016-04-24T08:27:03Z</time>
      </trkpt>
      <trkpt lat="49.54522" lon="0.75333">
        <ele>30.5</ele>
        <time>2016-04-24T08:27:09Z</time>
      </trkpt>
      <trkpt lat="49.54513" lon="0.75334">
        <ele>31.3</ele>
        <time>2016-04-24T08:27:15Z</time>
      </trkpt>
      <trkpt lat="49.54502" lon="0.75332">
        <ele>32.3</ele>
        <time>2016-04-24T08:27:23Z</time>
      </trkpt>
      <trkpt lat="49.54492" lon="0.75331">
        <ele>33</ele>
        <time>2016-04-24T08:27:30Z</time>
      </trkpt>
      <trkpt lat="49.54486" lon="0.75321">
        <ele>33.6</ele>
        <time>2016-04-24T08:27:41Z</time>
      </trkpt>
      <trkpt lat="49.54483" lon="0.75305">
        <ele>33.8</ele>
        <time>2016-04-24T08:27:46Z</time>
      </trkpt>
      <trkpt lat="49.54492" lon="0.753">
        <ele>33.9</ele>
        <time>2016-04-24T08:27:51Z</time>
      </trkpt>
      <trkpt lat="49.54502" lon="0.75296">
        <ele>34</ele>
        <time>2016-04-24T08:27:56Z</time>
      </trkpt>
      <trkpt lat="49.54512" lon="0.75293">
        <ele>34.1</ele>
        <time>2016-04-24T08:28:00Z</time>
      </trkpt>
      <trkpt lat="49.54523" lon="0.7529">
        <ele>34.1</ele>
        <time>2016-04-24T08:28:05Z</time>
      </trkpt>
      <trkpt lat="49.54532" lon="0.75287">
        <ele>34.1</ele>
        <time>2016-04-24T08:28:09Z</time>
      </trkpt>
      <trkpt lat="49.54542" lon="0.75284">
        <ele>34.2</ele>
        <time>2016-04-24T08:28:13Z</time>
      </trkpt>
      <trkpt lat="49.54552" lon="0.75281">
        <ele>34.3</ele>
        <time>2016-04-24T08:28:17Z</time>
      </trkpt>
      <trkpt lat="49.54562" lon="0.75276">
        <ele>34.5</ele>
        <time>2016-04-24T08:28:21Z</time>
      </trkpt>
      <trkpt lat="49.54573" lon="0.7527">
        <ele>34.6</ele>
        <time>2016-04-24T08:28:25Z</time>
      </trkpt>
      <trkpt lat="49.54583" lon="0.75264">
        <ele>34.7</ele>
        <time>2016-04-24T08:28:29Z</time>
      </trkpt>
      <trkpt lat="49.54593" lon="0.75257">
        <ele>34.7</ele>
        <time>2016-04-24T08:28:32Z</time>
      </trkpt>
      <trkpt lat="49.54603" lon="0.7525">
        <ele>34.5</ele>
        <time>2016-04-24T08:28:35Z</time>
      </trkpt>
      <trkpt lat="49.54611" lon="0.75243">
        <ele>34.1</ele>
        <time>2016-04-24T08:28:38Z</time>
      </trkpt>
      <trkpt lat="49.54619" lon="0.7523">
        <ele>32.7</ele>
        <time>2016-04-24T08:28:49Z</time>
      </trkpt>
      <trkpt lat="49.5463" lon="0.75221">
        <ele>32</ele>
        <time>2016-04-24T08:28:52Z</time>
      </trkpt>
      <trkpt lat="49.54637" lon="0.75206">
        <ele>31.2</ele>
        <time>2016-04-24T08:28:56Z</time>
      </trkpt>
      <trkpt lat="49.54634" lon="0.75191">
        <ele>30.5</ele>
        <time>2016-04-24T08:29:00Z</time>
      </trkpt>
      <trkpt lat="49.5463" lon="0.75178">
        <ele>30</ele>
        <time>2016-04-24T08:29:04Z</time>
      </trkpt>
      <trkpt lat="49.54626" lon="0.75164">
        <ele>29.4</ele>
        <time>2016-04-24T08:29:10Z</time>
      </trkpt>
      <trkpt lat="49.54621" lon="0.7515">
        <ele>29</ele>
        <time>2016-04-24T08:29:16Z</time>
      </trkpt>
      <trkpt lat="49.54616" lon="0.75138">
        <ele>29.1</ele>
        <time>2016-04-24T08:29:22Z</time>
      </trkpt>
      <trkpt lat="49.54609" lon="0.75127">
        <ele>29.4</ele>
        <time>2016-04-24T08:29:29Z</time>
      </trkpt>
      <trkpt lat="49.546" lon="0.75123">
        <ele>30.9</ele>
        <time>2016-04-24T08:29:58Z</time>
      </trkpt>
      <trkpt lat="49.54595" lon="0.75111">
        <ele>31.8</ele>
        <time>2016-04-24T08:30:11Z</time>
      </trkpt>
      <trkpt lat="49.5459" lon="0.75099">
        <ele>33</ele>
        <time>2016-04-24T08:30:34Z</time>
      </trkpt>
      <trkpt lat="49.54582" lon="0.7509">
        <ele>33.6</ele>
        <time>2016-04-24T08:30:40Z</time>
      </trkpt>
      <trkpt lat="49.54576" lon="0.75079">
        <ele>34.2</ele>
        <time>2016-04-24T08:30:48Z</time>
      </trkpt>
      <trkpt lat="49.54573" lon="0.75065">
        <ele>34.9</ele>
        <time>2016-04-24T08:30:57Z</time>
      </trkpt>
      <trkpt lat="49.5457" lon="0.7505">
        <ele>35.5</ele>
        <time>2016-04-24T08:31:06Z</time>
      </trkpt>
      <trkpt lat="49.54565" lon="0.75038">
        <ele>36.1</ele>
        <time>2016-04-24T08:31:12Z</time>
      </trkpt>
      <trkpt lat="49.54561" lon="0.75025">
        <ele>36.7</ele>
        <time>2016-04-24T08:31:20Z</time>
      </trkpt>
      <trkpt lat="49.54558" lon="0.75011">
        <ele>37.7</ele>
        <time>2016-04-24T08:31:29Z</time>
      </trkpt>
      <trkpt lat="49.54556" lon="0.74997">
        <ele>38.9</ele>
        <time>2016-04-24T08:31:39Z</time>
      </trkpt>
      <trkpt lat="49.54554" lon="0.74982">
        <ele>39.9</ele>
        <time>2016-04-24T08:31:49Z</time>
      </trkpt>
      <trkpt lat="49.54547" lon="0.74971">
        <ele>41.2</ele>
        <time>2016-04-24T08:31:59Z</time>
      </trkpt>
      <trkpt lat="49.54542" lon="0.7496">
        <ele>42.8</ele>
        <time>2016-04-24T08:32:12Z</time>
      </trkpt>
      <trkpt lat="49.54538" lon="0.74947">
        <ele>44.2</ele>
        <time>2016-04-24T08:32:26Z</time>
      </trkpt>
      <trkpt lat="49.54538" lon="0.74932">
        <ele>45.8</ele>
        <time>2016-04-24T08:32:41Z</time>
      </trkpt>
      <trkpt lat="49.54535" lon="0.74918">
        <ele>46.9</ele>
        <time>2016-04-24T08:32:51Z</time>
      </trkpt>
      <trkpt lat="49.54532" lon="0.74904">
        <ele>48.2</ele>
        <time>2016-04-24T08:33:06Z</time>
      </trkpt>
      <trkpt lat="49.54528" lon="0.74891">
        <ele>49.6</ele>
        <time>2016-04-24T08:33:17Z</time>
      </trkpt>
      <trkpt lat="49.54529" lon="0.74876">
        <ele>51</ele>
        <time>2016-04-24T08:33:30Z</time>
      </trkpt>
      <trkpt lat="49.54527" lon="0.74861">
        <ele>51.9</ele>
        <time>2016-04-24T08:33:40Z</time>
      </trkpt>
      <trkpt lat="49.54526" lon="0.74847">
        <ele>53.6</ele>
        <time>2016-04-24T08:33:57Z</time>
      </trkpt>
      <trkpt lat="49.54527" lon="0.74833">
        <ele>54.4</ele>
        <time>2016-04-24T08:34:09Z</time>
      </trkpt>
      <trkpt lat="49.54521" lon="0.74821">
        <ele>55.4</ele>
        <time>2016-04-24T08:34:22Z</time>
      </trkpt>
      <trkpt lat="49.54517" lon="0.74809">
        <ele>56.7</ele>
        <time>2016-04-24T08:34:32Z</time>
      </trkpt>
      <trkpt lat="49.54516" lon="0.74795">
        <ele>58</ele>
        <time>2016-04-24T08:34:45Z</time>
      </trkpt>
      <trkpt lat="49.54515" lon="0.74781">
        <ele>59.7</ele>
        <time>2016-04-24T08:35:05Z</time>
      </trkpt>
      <trkpt lat="49.54511" lon="0.74767">
        <ele>60.7</ele>
        <time>2016-04-24T08:35:17Z</time>
      </trkpt>
      <trkpt lat="49.5451" lon="0.74753">
        <ele>61.3</ele>
        <time>2016-04-24T08:35:28Z</time>
      </trkpt>
      <trkpt lat="49.54508" lon="0.74738">
        <ele>62.2</ele>
        <time>2016-04-24T08:35:38Z</time>
      </trkpt>
      <trkpt lat="49.54507" lon="0.74723">
        <ele>63.1</ele>
        <time>2016-04-24T08:35:48Z</time>
      </trkpt>
      <trkpt lat="49.545" lon="0.74713">
        <ele>63.6</ele>
        <time>2016-04-24T08:35:57Z</time>
      </trkpt>
      <trkpt lat="49.54496" lon="0.74726">
        <ele>64.5</ele>
        <time>2016-04-24T08:36:08Z</time>
      </trkpt>
      <trkpt lat="49.54496" lon="0.7474">
        <ele>65</ele>
        <time>2016-04-24T08:36:16Z</time>
      </trkpt>
      <trkpt lat="49.54493" lon="0.74755">
        <ele>65.6</ele>
        <time>2016-04-24T08:36:25Z</time>
      </trkpt>
      <trkpt lat="49.5449" lon="0.7477">
        <ele>66.3</ele>
        <time>2016-04-24T08:36:34Z</time>
      </trkpt>
      <trkpt lat="49.5449" lon="0.74785">
        <ele>66.9</ele>
        <time>2016-04-24T08:36:49Z</time>
      </trkpt>
      <trkpt lat="49.54488" lon="0.748">
        <ele>67.5</ele>
        <time>2016-04-24T08:36:57Z</time>
      </trkpt>
      <trkpt lat="49.54485" lon="0.74815">
        <ele>68.2</ele>
        <time>2016-04-24T08:37:05Z</time>
      </trkpt>
      <trkpt lat="49.54482" lon="0.7483">
        <ele>68.7</ele>
        <time>2016-04-24T08:37:13Z</time>
      </trkpt>
      <trkpt lat="49.54479" lon="0.74845">
        <ele>69.1</ele>
        <time>2016-04-24T08:37:21Z</time>
      </trkpt>
      <trkpt lat="49.54474" lon="0.74859">
        <ele>69.4</ele>
        <time>2016-04-24T08:37:27Z</time>
      </trkpt>
      <trkpt lat="49.5447" lon="0.74871">
        <ele>69.6</ele>
        <time>2016-04-24T08:37:32Z</time>
      </trkpt>
      <trkpt lat="49.54464" lon="0.74883">
        <ele>69.8</ele>
        <time>2016-04-24T08:37:37Z</time>
      </trkpt>
      <trkpt lat="49.54462" lon="0.74898">
        <ele>70</ele>
        <time>2016-04-24T08:37:42Z</time>
      </trkpt>
      <trkpt lat="49.54459" lon="0.74914">
        <ele>70.2</ele>
        <time>2016-04-24T08:37:47Z</time>
      </trkpt>
      <trkpt lat="49.54457" lon="0.74929">
        <ele>70.3</ele>
        <time>2016-04-24T08:37:52Z</time>
      </trkpt>
      <trkpt lat="49.54455" lon="0.74945">
        <ele>70.4</ele>
        <time>2016-04-24T08:37:58Z</time>
      </trkpt>
      <trkpt lat="49.54451" lon="0.74959">
        <ele>70.5</ele>
        <time>2016-04-24T08:38:02Z</time>
      </trkpt>
      <trkpt lat="49.54451" lon="0.74973">
        <ele>70.6</ele>
        <time>2016-04-24T08:38:07Z</time>
      </trkpt>
      <trkpt lat="49.54451" lon="0.74987">
        <ele>70.6</ele>
        <time>2016-04-24T08:38:12Z</time>
      </trkpt>
      <trkpt lat="49.54449" lon="0.75003">
        <ele>70.9</ele>
        <time>2016-04-24T08:38:18Z</time>
      </trkpt>
      <trkpt lat="49.5445" lon="0.75018">
        <ele>71</ele>
        <time>2016-04-24T08:38:23Z</time>
      </trkpt>
      <trkpt lat="49.54447" lon="0.75031">
        <ele>71.2</ele>
        <time>2016-04-24T08:38:27Z</time>
      </trkpt>
      <trkpt lat="49.5444" lon="0.75046">
        <ele>71.3</ele>
        <time>2016-04-24T08:38:31Z</time>
      </trkpt>
      <trkpt lat="49.54434" lon="0.75056">
        <ele>71.3</ele>
        <time>2016-04-24T08:38:34Z</time>
      </trkpt>
      <trkpt lat="49.54423" lon="0.75064">
        <ele>71.4</ele>
        <time>2016-04-24T08:38:38Z</time>
      </trkpt>
      <trkpt lat="49.54413" lon="0.7507">
        <ele>71.5</ele>
        <time>2016-04-24T08:38:42Z</time>
      </trkpt>
      <trkpt lat="49.54402" lon="0.75072">
        <ele>71.6</ele>
        <time>2016-04-24T08:38:46Z</time>
      </trkpt>
      <trkpt lat="49.5439" lon="0.75072">
        <ele>71.4</ele>
        <time>2016-04-24T08:38:50Z</time>
      </trkpt>
      <trkpt lat="49.54381" lon="0.75071">
        <ele>71.3</ele>
        <time>2016-04-24T08:38:54Z</time>
      </trkpt>
      <trkpt lat="49.54371" lon="0.7507">
        <ele>71.2</ele>
        <time>2016-04-24T08:38:59Z</time>
      </trkpt>
      <trkpt lat="49.5436" lon="0.75068">
        <ele>71.2</ele>
        <time>2016-04-24T08:39:03Z</time>
      </trkpt>
      <trkpt lat="49.54352" lon="0.75062">
        <ele>71.1</ele>
        <time>2016-04-24T08:39:09Z</time>
      </trkpt>
      <trkpt lat="49.54346" lon="0.7505">
        <ele>71.6</ele>
        <time>2016-04-24T08:39:21Z</time>
      </trkpt>
      <trkpt lat="49.54338" lon="0.7504">
        <ele>72.1</ele>
        <time>2016-04-24T08:39:28Z</time>
      </trkpt>
      <trkpt lat="49.54331" lon="0.7503">
        <ele>72.6</ele>
        <time>2016-04-24T08:39:34Z</time>
      </trkpt>
      <trkpt lat="49.54323" lon="0.7502">
        <ele>73.8</ele>
        <time>2016-04-24T08:39:45Z</time>
      </trkpt>
      <trkpt lat="49.54314" lon="0.75014">
        <ele>74.5</ele>
        <time>2016-04-24T08:39:51Z</time>
      </trkpt>
      <trkpt lat="49.54305" lon="0.75008">
        <ele>75.5</ele>
        <time>2016-04-24T08:39:59Z</time>
      </trkpt>
      <trkpt lat="49.54297" lon="0.75001">
        <ele>76.4</ele>
        <time>2016-04-24T08:40:06Z</time>
      </trkpt>
      <trkpt lat="49.54288" lon="0.74994">
        <ele>77.3</ele>
        <time>2016-04-24T08:40:14Z</time>
      </trkpt>
      <trkpt lat="49.54279" lon="0.74988">
        <ele>78.3</ele>
        <time>2016-04-24T08:40:23Z</time>
      </trkpt>
      <trkpt lat="49.54272" lon="0.74979">
        <ele>79.4</ele>
        <time>2016-04-24T08:40:32Z</time>
      </trkpt>
      <trkpt lat="49.54266" lon="0.74968">
        <ele>80.3</ele>
        <time>2016-04-24T08:40:40Z</time>
      </trkpt>
      <trkpt lat="49.54258" lon="0.74959">
        <ele>80.9</ele>
        <time>2016-04-24T08:40:45Z</time>
      </trkpt>
      <trkpt lat="49.54249" lon="0.74954">
        <ele>81.8</ele>
        <time>2016-04-24T08:40:52Z</time>
      </trkpt>
      <trkpt lat="49.54242" lon="0.74946">
        <ele>82.8</ele>
        <time>2016-04-24T08:41:00Z</time>
      </trkpt>
      <trkpt lat="49.54236" lon="0.74935">
        <ele>83.7</ele>
        <time>2016-04-24T08:41:09Z</time>
      </trkpt>
      <trkpt lat="49.54231" lon="0.74923">
        <ele>84.3</ele>
        <time>2016-04-24T08:41:16Z</time>
      </trkpt>
      <trkpt lat="49.54226" lon="0.74911">
        <ele>85.6</ele>
        <time>2016-04-24T08:41:27Z</time>
      </trkpt>
      <trkpt lat="49.54222" lon="0.74897">
        <ele>87</ele>
        <time>2016-04-24T08:41:37Z</time>
      </trkpt>
      <trkpt lat="49.54219" lon="0.74885">
        <ele>88.4</ele>
        <time>2016-04-24T08:41:47Z</time>
      </trkpt>
      <trkpt lat="49.54213" lon="0.74873">
        <ele>89.2</ele>
        <time>2016-04-24T08:41:53Z</time>
      </trkpt>
      <trkpt lat="49.54205" lon="0.74865">
        <ele>90.2</ele>
        <time>2016-04-24T08:42:01Z</time>
      </trkpt>
      <trkpt lat="49.54198" lon="0.74855">
        <ele>91.3</ele>
        <time>2016-04-24T08:42:10Z</time>
      </trkpt>
      <trkpt lat="49.54193" lon="0.74843">
        <ele>92.5</ele>
        <time>2016-04-24T08:42:21Z</time>
      </trkpt>
      <trkpt lat="49.54188" lon="0.7483">
        <ele>93.3</ele>
        <time>2016-04-24T08:42:30Z</time>
      </trkpt>
      <trkpt lat="49.54181" lon="0.74819">
        <ele>94.1</ele>
        <time>2016-04-24T08:42:38Z</time>
      </trkpt>
      <trkpt lat="49.54174" lon="0.7481">
        <ele>94.9</ele>
        <time>2016-04-24T08:42:46Z</time>
      </trkpt>
      <trkpt lat="49.54168" lon="0.74798">
        <ele>95.5</ele>
        <time>2016-04-24T08:42:52Z</time>
      </trkpt>
      <trkpt lat="49.54161" lon="0.74788">
        <ele>95.9</ele>
        <time>2016-04-24T08:42:57Z</time>
      </trkpt>
      <trkpt lat="49.54153" lon="0.74782">
        <ele>96.6</ele>
        <time>2016-04-24T08:43:04Z</time>
      </trkpt>
      <trkpt lat="49.54144" lon="0.74776">
        <ele>97.1</ele>
        <time>2016-04-24T08:43:11Z</time>
      </trkpt>
      <trkpt lat="49.54136" lon="0.74768">
        <ele>97.5</ele>
        <time>2016-04-24T08:43:18Z</time>
      </trkpt>
      <trkpt lat="49.54128" lon="0.74761">
        <ele>97.9</ele>
        <time>2016-04-24T08:43:26Z</time>
      </trkpt>
      <trkpt lat="49.5412" lon="0.7475">
        <ele>98.1</ele>
        <time>2016-04-24T08:43:32Z</time>
      </trkpt>
      <trkpt lat="49.54114" lon="0.74738">
        <ele>98.5</ele>
        <time>2016-04-24T08:43:39Z</time>
      </trkpt>
      <trkpt lat="49.54108" lon="0.74728">
        <ele>98.9</ele>
        <time>2016-04-24T08:43:45Z</time>
      </trkpt>
      <trkpt lat="49.541" lon="0.74719">
        <ele>99.4</ele>
        <time>2016-04-24T08:43:54Z</time>
      </trkpt>
      <trkpt lat="49.54091" lon="0.74711">
        <ele>99.7</ele>
        <time>2016-04-24T08:44:00Z</time>
      </trkpt>
      <trkpt lat="49.54084" lon="0.74702">
        <ele>100</ele>
        <time>2016-04-24T08:44:08Z</time>
      </trkpt>
      <trkpt lat="49.54076" lon="0.74696">
        <ele>100.2</ele>
        <time>2016-04-24T08:44:14Z</time>
      </trkpt>
      <trkpt lat="49.54068" lon="0.74687">
        <ele>100.5</ele>
        <time>2016-04-24T08:44:19Z</time>
      </trkpt>
      <trkpt lat="49.5406" lon="0.74677">
        <ele>100.6</ele>
        <time>2016-04-24T08:44:24Z</time>
      </trkpt>
      <trkpt lat="49.54053" lon="0.74665">
        <ele>100.8</ele>
        <time>2016-04-24T08:44:28Z</time>
      </trkpt>
      <trkpt lat="49.54048" lon="0.74651">
        <ele>101</ele>
        <time>2016-04-24T08:44:34Z</time>
      </trkpt>
      <trkpt lat="49.54043" lon="0.74639">
        <ele>101.2</ele>
        <time>2016-04-24T08:44:39Z</time>
      </trkpt>
      <trkpt lat="49.54036" lon="0.74628">
        <ele>101.3</ele>
        <time>2016-04-24T08:44:43Z</time>
      </trkpt>
      <trkpt lat="49.5403" lon="0.74616">
        <ele>101.4</ele>
        <time>2016-04-24T08:44:47Z</time>
      </trkpt>
      <trkpt lat="49.54021" lon="0.74605">
        <ele>101.5</ele>
        <time>2016-04-24T08:44:51Z</time>
      </trkpt>
      <trkpt lat="49.54013" lon="0.74597">
        <ele>101.6</ele>
        <time>2016-04-24T08:44:54Z</time>
      </trkpt>
      <trkpt lat="49.54005" lon="0.74587">
        <ele>101.6</ele>
        <time>2016-04-24T08:44:57Z</time>
      </trkpt>
      <trkpt lat="49.53997" lon="0.74577">
        <ele>101.7</ele>
        <time>2016-04-24T08:45:00Z</time>
      </trkpt>
      <trkpt lat="49.5399" lon="0.74563">
        <ele>101.8</ele>
        <time>2016-04-24T08:45:03Z</time>
      </trkpt>
      <trkpt lat="49.53984" lon="0.7455">
        <ele>101.8</ele>
        <time>2016-04-24T08:45:06Z</time>
      </trkpt>
      <trkpt lat="49.53978" lon="0.74537">
        <ele>101.9</ele>
        <time>2016-04-24T08:45:09Z</time>
      </trkpt>
      <trkpt lat="49.53972" lon="0.74524">
        <ele>101.9</ele>
        <time>2016-04-24T08:45:12Z</time>
      </trkpt>
      <trkpt lat="49.53967" lon="0.74511">
        <ele>102</ele>
        <time>2016-04-24T08:45:16Z</time>
      </trkpt>
      <trkpt lat="49.53962" lon="0.74498">
        <ele>101.9</ele>
        <time>2016-04-24T08:45:20Z</time>
      </trkpt>
      <trkpt lat="49.53956" lon="0.74482">
        <ele>101.9</ele>
        <time>2016-04-24T08:45:24Z</time>
      </trkpt>
      <trkpt lat="49.53953" lon="0.74468">
        <ele>101.9</ele>
        <time>2016-04-24T08:45:28Z</time>
      </trkpt>
      <trkpt lat="49.53949" lon="0.74451">
        <ele>102</ele>
        <time>2016-04-24T08:45:33Z</time>
      </trkpt>
      <trkpt lat="49.53944" lon="0.74438">
        <ele>101.9</ele>
        <time>2016-04-24T08:45:38Z</time>
      </trkpt>
      <trkpt lat="49.53942" lon="0.74421">
        <ele>101.8</ele>
        <time>2016-04-24T08:45:43Z</time>
      </trkpt>
      <trkpt lat="49.53933" lon="0.74415">
        <ele>101.8</ele>
        <time>2016-04-24T08:45:47Z</time>
      </trkpt>
      <trkpt lat="49.53923" lon="0.74411">
        <ele>102.1</ele>
        <time>2016-04-24T08:45:50Z</time>
      </trkpt>
      <trkpt lat="49.53912" lon="0.74407">
        <ele>102.2</ele>
        <time>2016-04-24T08:45:53Z</time>
      </trkpt>
      <trkpt lat="49.53901" lon="0.74404">
        <ele>102.1</ele>
        <time>2016-04-24T08:45:56Z</time>
      </trkpt>
      <trkpt lat="49.53889" lon="0.74402">
        <ele>101.9</ele>
        <time>2016-04-24T08:45:59Z</time>
      </trkpt>
      <trkpt lat="49.53879" lon="0.74401">
        <ele>101.9</ele>
        <time>2016-04-24T08:46:01Z</time>
      </trkpt>
      <trkpt lat="49.53869" lon="0.74398">
        <ele>101.9</ele>
        <time>2016-04-24T08:46:03Z</time>
      </trkpt>
      <trkpt lat="49.53859" lon="0.74396">
        <ele>101.9</ele>
        <time>2016-04-24T08:46:05Z</time>
      </trkpt>
      <trkpt lat="49.5385" lon="0.74393">
        <ele>101.8</ele>
        <time>2016-04-24T08:46:07Z</time>
      </trkpt>
      <trkpt lat="49.53838" lon="0.74389">
        <ele>102</ele>
        <time>2016-04-24T08:46:10Z</time>
      </trkpt>
      <trkpt lat="49.53829" lon="0.74387">
        <ele>102.1</ele>
        <time>2016-04-24T08:46:12Z</time>
      </trkpt>
      <trkpt lat="49.53819" lon="0.74384">
        <ele>102.1</ele>
        <time>2016-04-24T08:46:14Z</time>
      </trkpt>
      <trkpt lat="49.5381" lon="0.74383">
        <ele>102.1</ele>
        <time>2016-04-24T08:46:16Z</time>
      </trkpt>
      <trkpt lat="49.538" lon="0.74381">
        <ele>102.1</ele>
        <time>2016-04-24T08:46:18Z</time>
      </trkpt>
      <trkpt lat="49.5379" lon="0.74378">
        <ele>102.1</ele>
        <time>2016-04-24T08:46:20Z</time>
      </trkpt>
      <trkpt lat="49.53779" lon="0.74375">
        <ele>102</ele>
        <time>2016-04-24T08:46:22Z</time>
      </trkpt>
      <trkpt lat="49.53769" lon="0.74374">
        <ele>101.9</ele>
        <time>2016-04-24T08:46:24Z</time>
      </trkpt>
      <trkpt lat="49.5376" lon="0.74371">
        <ele>101.9</ele>
        <time>2016-04-24T08:46:26Z</time>
      </trkpt>
      <trkpt lat="49.53747" lon="0.74368">
        <ele>101.9</ele>
        <time>2016-04-24T08:46:29Z</time>
      </trkpt>
      <trkpt lat="49.53736" lon="0.74368">
        <ele>101.9</ele>
        <time>2016-04-24T08:46:31Z</time>
      </trkpt>
      <trkpt lat="49.53726" lon="0.74366">
        <ele>101.9</ele>
        <time>2016-04-24T08:46:33Z</time>
      </trkpt>
      <trkpt lat="49.53715" lon="0.74363">
        <ele>101.9</ele>
        <time>2016-04-24T08:46:36Z</time>
      </trkpt>
      <trkpt lat="49.53705" lon="0.74358">
        <ele>102</ele>
        <time>2016-04-24T08:46:39Z</time>
      </trkpt>
      <trkpt lat="49.53694" lon="0.74356">
        <ele>102.1</ele>
        <time>2016-04-24T08:46:43Z</time>
      </trkpt>
      <trkpt lat="49.53685" lon="0.74352">
        <ele>102.2</ele>
        <time>2016-04-24T08:46:47Z</time>
      </trkpt>
      <trkpt lat="49.53674" lon="0.7435">
        <ele>102.4</ele>
        <time>2016-04-24T08:46:52Z</time>
      </trkpt>
      <trkpt lat="49.53664" lon="0.74347">
        <ele>102.6</ele>
        <time>2016-04-24T08:46:56Z</time>
      </trkpt>
      <trkpt lat="49.53654" lon="0.74344">
        <ele>102.9</ele>
        <time>2016-04-24T08:47:01Z</time>
      </trkpt>
      <trkpt lat="49.53643" lon="0.74341">
        <ele>103.1</ele>
        <time>2016-04-24T08:47:05Z</time>
      </trkpt>
      <trkpt lat="49.53632" lon="0.7434">
        <ele>103.4</ele>
        <time>2016-04-24T08:47:10Z</time>
      </trkpt>
      <trkpt lat="49.53622" lon="0.74336">
        <ele>103.6</ele>
        <time>2016-04-24T08:47:14Z</time>
      </trkpt>
      <trkpt lat="49.53613" lon="0.74334">
        <ele>103.9</ele>
        <time>2016-04-24T08:47:18Z</time>
      </trkpt>
      <trkpt lat="49.53603" lon="0.74332">
        <ele>104.3</ele>
        <time>2016-04-24T08:47:22Z</time>
      </trkpt>
      <trkpt lat="49.53593" lon="0.74329">
        <ele>104.7</ele>
        <time>2016-04-24T08:47:26Z</time>
      </trkpt>
      <trkpt lat="49.53584" lon="0.74327">
        <ele>105</ele>
        <time>2016-04-24T08:47:30Z</time>
      </trkpt>
      <trkpt lat="49.53572" lon="0.74325">
        <ele>105.3</ele>
        <time>2016-04-24T08:47:34Z</time>
      </trkpt>
      <trkpt lat="49.53563" lon="0.74323">
        <ele>105.6</ele>
        <time>2016-04-24T08:47:37Z</time>
      </trkpt>
      <trkpt lat="49.53554" lon="0.74319">
        <ele>105.8</ele>
        <time>2016-04-24T08:47:40Z</time>
      </trkpt>
      <trkpt lat="49.53545" lon="0.74316">
        <ele>106.1</ele>
        <time>2016-04-24T08:47:43Z</time>
      </trkpt>
      <trkpt lat="49.53535" lon="0.74311">
        <ele>106.3</ele>
        <time>2016-04-24T08:47:47Z</time>
      </trkpt>
      <trkpt lat="49.53531" lon="0.74295">
        <ele>106.6</ele>
        <time>2016-04-24T08:47:52Z</time>
      </trkpt>
      <trkpt lat="49.53531" lon="0.74279">
        <ele>106.9</ele>
        <time>2016-04-24T08:47:57Z</time>
      </trkpt>
      <trkpt lat="49.53533" lon="0.74264">
        <ele>107.1</ele>
        <time>2016-04-24T08:48:02Z</time>
      </trkpt>
      <trkpt lat="49.53535" lon="0.74248">
        <ele>107.3</ele>
        <time>2016-04-24T08:48:06Z</time>
      </trkpt>
      <trkpt lat="49.53537" lon="0.74234">
        <ele>107.6</ele>
        <time>2016-04-24T08:48:12Z</time>
      </trkpt>
      <trkpt lat="49.53537" lon="0.74219">
        <ele>107.9</ele>
        <time>2016-04-24T08:48:17Z</time>
      </trkpt>
      <trkpt lat="49.53538" lon="0.74205">
        <ele>108.2</ele>
        <time>2016-04-24T08:48:22Z</time>
      </trkpt>
      <trkpt lat="49.53539" lon="0.74189">
        <ele>108.6</ele>
        <time>2016-04-24T08:48:27Z</time>
      </trkpt>
      <trkpt lat="49.5354" lon="0.74171">
        <ele>108.9</ele>
        <time>2016-04-24T08:48:32Z</time>
      </trkpt>
      <trkpt lat="49.5354" lon="0.74156">
        <ele>109.1</ele>
        <time>2016-04-24T08:48:36Z</time>
      </trkpt>
      <trkpt lat="49.53541" lon="0.74142">
        <ele>109.4</ele>
        <time>2016-04-24T08:48:40Z</time>
      </trkpt>
      <trkpt lat="49.53543" lon="0.74127">
        <ele>109.7</ele>
        <time>2016-04-24T08:48:44Z</time>
      </trkpt>
      <trkpt lat="49.53545" lon="0.7411">
        <ele>110</ele>
        <time>2016-04-24T08:48:49Z</time>
      </trkpt>
      <trkpt lat="49.53545" lon="0.74093">
        <ele>110.3</ele>
        <time>2016-04-24T08:48:54Z</time>
      </trkpt>
      <trkpt lat="49.53546" lon="0.74078">
        <ele>110.5</ele>
        <time>2016-04-24T08:48:58Z</time>
      </trkpt>
      <trkpt lat="49.53547" lon="0.74064">
        <ele>110.7</ele>
        <time>2016-04-24T08:49:02Z</time>
      </trkpt>
      <trkpt lat="49.53549" lon="0.74048">
        <ele>111.1</ele>
        <time>2016-04-24T08:49:06Z</time>
      </trkpt>
      <trkpt lat="49.5355" lon="0.74032">
        <ele>111.4</ele>
        <time>2016-04-24T08:49:10Z</time>
      </trkpt>
      <trkpt lat="49.53552" lon="0.74016">
        <ele>111.6</ele>
        <time>2016-04-24T08:49:14Z</time>
      </trkpt>
      <trkpt lat="49.53554" lon="0.73999">
        <ele>111.9</ele>
        <time>2016-04-24T08:49:19Z</time>
      </trkpt>
      <trkpt lat="49.53557" lon="0.73984">
        <ele>112.1</ele>
        <time>2016-04-24T08:49:23Z</time>
      </trkpt>
      <trkpt lat="49.53559" lon="0.73968">
        <ele>112.2</ele>
        <time>2016-04-24T08:49:27Z</time>
      </trkpt>
      <trkpt lat="49.53559" lon="0.73951">
        <ele>112.4</ele>
        <time>2016-04-24T08:49:31Z</time>
      </trkpt>
      <trkpt lat="49.5356" lon="0.73933">
        <ele>112.5</ele>
        <time>2016-04-24T08:49:35Z</time>
      </trkpt>
      <trkpt lat="49.53563" lon="0.73917">
        <ele>112.5</ele>
        <time>2016-04-24T08:49:38Z</time>
      </trkpt>
      <trkpt lat="49.53565" lon="0.73903">
        <ele>112.6</ele>
        <time>2016-04-24T08:49:41Z</time>
      </trkpt>
      <trkpt lat="49.53566" lon="0.73887">
        <ele>112.6</ele>
        <time>2016-04-24T08:49:44Z</time>
      </trkpt>
      <trkpt lat="49.53567" lon="0.7387">
        <ele>112.6</ele>
        <time>2016-04-24T08:49:48Z</time>
      </trkpt>
      <trkpt lat="49.53569" lon="0.73855">
        <ele>112.5</ele>
        <time>2016-04-24T08:49:52Z</time>
      </trkpt>
      <trkpt lat="49.53571" lon="0.73837">
        <ele>112.5</ele>
        <time>2016-04-24T08:49:56Z</time>
      </trkpt>
      <trkpt lat="49.53571" lon="0.73822">
        <ele>112.5</ele>
        <time>2016-04-24T08:49:59Z</time>
      </trkpt>
      <trkpt lat="49.53573" lon="0.73808">
        <ele>112.5</ele>
        <time>2016-04-24T08:50:02Z</time>
      </trkpt>
      <trkpt lat="49.53573" lon="0.73793">
        <ele>112.5</ele>
        <time>2016-04-24T08:50:05Z</time>
      </trkpt>
      <trkpt lat="49.53575" lon="0.73776">
        <ele>112.6</ele>
        <time>2016-04-24T08:50:09Z</time>
      </trkpt>
      <trkpt lat="49.53575" lon="0.7376">
        <ele>112.6</ele>
        <time>2016-04-24T08:50:12Z</time>
      </trkpt>
      <trkpt lat="49.53577" lon="0.73745">
        <ele>112.6</ele>
        <time>2016-04-24T08:50:15Z</time>
      </trkpt>
      <trkpt lat="49.53578" lon="0.73728">
        <ele>112.6</ele>
        <time>2016-04-24T08:50:18Z</time>
      </trkpt>
      <trkpt lat="49.53579" lon="0.7371">
        <ele>112.7</ele>
        <time>2016-04-24T08:50:21Z</time>
      </trkpt>
      <trkpt lat="49.53581" lon="0.7369">
        <ele>112.7</ele>
        <time>2016-04-24T08:50:24Z</time>
      </trkpt>
      <trkpt lat="49.53582" lon="0.73675">
        <ele>112.7</ele>
        <time>2016-04-24T08:50:26Z</time>
      </trkpt>
      <trkpt lat="49.53583" lon="0.73655">
        <ele>112.7</ele>
        <time>2016-04-24T08:50:29Z</time>
      </trkpt>
      <trkpt lat="49.53584" lon="0.73637">
        <ele>112.5</ele>
        <time>2016-04-24T08:50:32Z</time>
      </trkpt>
      <trkpt lat="49.53584" lon="0.73618">
        <ele>112.3</ele>
        <time>2016-04-24T08:50:35Z</time>
      </trkpt>
      <trkpt lat="49.53584" lon="0.736">
        <ele>112</ele>
        <time>2016-04-24T08:50:38Z</time>
      </trkpt>
      <trkpt lat="49.53583" lon="0.73586">
        <ele>111.9</ele>
        <time>2016-04-24T08:50:40Z</time>
      </trkpt>
      <trkpt lat="49.53583" lon="0.7357">
        <ele>111.7</ele>
        <time>2016-04-24T08:50:43Z</time>
      </trkpt>
      <trkpt lat="49.53582" lon="0.73556">
        <ele>111.5</ele>
        <time>2016-04-24T08:50:47Z</time>
      </trkpt>
      <trkpt lat="49.53582" lon="0.73537">
        <ele>111.3</ele>
        <time>2016-04-24T08:50:51Z</time>
      </trkpt>
      <trkpt lat="49.53588" lon="0.73524">
        <ele>111.1</ele>
        <time>2016-04-24T08:50:54Z</time>
      </trkpt>
      <trkpt lat="49.53594" lon="0.73514">
        <ele>110.7</ele>
        <time>2016-04-24T08:50:57Z</time>
      </trkpt>
      <trkpt lat="49.53602" lon="0.73505">
        <ele>111.5</ele>
        <time>2016-04-24T08:54:47Z</time>
      </trkpt>
      <trkpt lat="49.53609" lon="0.73496">
        <ele>111.6</ele>
        <time>2016-04-24T08:54:50Z</time>
      </trkpt>
      <trkpt lat="49.53619" lon="0.73484">
        <ele>111.6</ele>
        <time>2016-04-24T08:54:54Z</time>
      </trkpt>
      <trkpt lat="49.53626" lon="0.73472">
        <ele>111.6</ele>
        <time>2016-04-24T08:54:57Z</time>
      </trkpt>
      <trkpt lat="49.5362" lon="0.73459">
        <ele>111.6</ele>
        <time>2016-04-24T08:55:02Z</time>
      </trkpt>
      <trkpt lat="49.53611" lon="0.73453">
        <ele>111.6</ele>
        <time>2016-04-24T08:55:05Z</time>
      </trkpt>
      <trkpt lat="49.53602" lon="0.73446">
        <ele>111.5</ele>
        <time>2016-04-24T08:55:08Z</time>
      </trkpt>
      <trkpt lat="49.53594" lon="0.73439">
        <ele>111.5</ele>
        <time>2016-04-24T08:55:11Z</time>
      </trkpt>
      <trkpt lat="49.53586" lon="0.7343">
        <ele>111.4</ele>
        <time>2016-04-24T08:55:14Z</time>
      </trkpt>
      <trkpt lat="49.5358" lon="0.7342">
        <ele>111.4</ele>
        <time>2016-04-24T08:55:17Z</time>
      </trkpt>
      <trkpt lat="49.53572" lon="0.73408">
        <ele>111.3</ele>
        <time>2016-04-24T08:55:21Z</time>
      </trkpt>
      <trkpt lat="49.53564" lon="0.73398">
        <ele>111.2</ele>
        <time>2016-04-24T08:55:24Z</time>
      </trkpt>
      <trkpt lat="49.53557" lon="0.7339">
        <ele>111.2</ele>
        <time>2016-04-24T08:55:27Z</time>
      </trkpt>
      <trkpt lat="49.53549" lon="0.73382">
        <ele>111.2</ele>
        <time>2016-04-24T08:55:30Z</time>
      </trkpt>
      <trkpt lat="49.53538" lon="0.73374">
        <ele>111.2</ele>
        <time>2016-04-24T08:55:34Z</time>
      </trkpt>
      <trkpt lat="49.53529" lon="0.73366">
        <ele>111.3</ele>
        <time>2016-04-24T08:55:38Z</time>
      </trkpt>
      <trkpt lat="49.53518" lon="0.73358">
        <ele>111.4</ele>
        <time>2016-04-24T08:55:42Z</time>
      </trkpt>
      <trkpt lat="49.53509" lon="0.73354">
        <ele>111.5</ele>
        <time>2016-04-24T08:55:47Z</time>
      </trkpt>
      <trkpt lat="49.535" lon="0.73345">
        <ele>111.6</ele>
        <time>2016-04-24T08:55:51Z</time>
      </trkpt>
      <trkpt lat="49.53492" lon="0.73338">
        <ele>111.8</ele>
        <time>2016-04-24T08:55:55Z</time>
      </trkpt>
      <trkpt lat="49.53483" lon="0.73331">
        <ele>112</ele>
        <time>2016-04-24T08:56:00Z</time>
      </trkpt>
      <trkpt lat="49.53474" lon="0.73321">
        <ele>112.2</ele>
        <time>2016-04-24T08:56:05Z</time>
      </trkpt>
      <trkpt lat="49.53463" lon="0.73314">
        <ele>112.3</ele>
        <time>2016-04-24T08:56:08Z</time>
      </trkpt>
      <trkpt lat="49.53454" lon="0.73307">
        <ele>112.3</ele>
        <time>2016-04-24T08:56:11Z</time>
      </trkpt>
      <trkpt lat="49.53446" lon="0.733">
        <ele>112.4</ele>
        <time>2016-04-24T08:56:14Z</time>
      </trkpt>
      <trkpt lat="49.53435" lon="0.73293">
        <ele>112.6</ele>
        <time>2016-04-24T08:56:18Z</time>
      </trkpt>
      <trkpt lat="49.53427" lon="0.73287">
        <ele>112.7</ele>
        <time>2016-04-24T08:56:21Z</time>
      </trkpt>
      <trkpt lat="49.53418" lon="0.73279">
        <ele>112.8</ele>
        <time>2016-04-24T08:56:24Z</time>
      </trkpt>
      <trkpt lat="49.53407" lon="0.7327">
        <ele>112.8</ele>
        <time>2016-04-24T08:56:27Z</time>
      </trkpt>
      <trkpt lat="49.53398" lon="0.73264">
        <ele>112.8</ele>
        <time>2016-04-24T08:56:30Z</time>
      </trkpt>
      <trkpt lat="49.5339" lon="0.73258">
        <ele>112.8</ele>
        <time>2016-04-24T08:56:33Z</time>
      </trkpt>
      <trkpt lat="49.53379" lon="0.73247">
        <ele>112.9</ele>
        <time>2016-04-24T08:56:36Z</time>
      </trkpt>
      <trkpt lat="49.5337" lon="0.73239">
        <ele>112.9</ele>
        <time>2016-04-24T08:56:39Z</time>
      </trkpt>
      <trkpt lat="49.53361" lon="0.73231">
        <ele>112.9</ele>
        <time>2016-04-24T08:56:42Z</time>
      </trkpt>
      <trkpt lat="49.53351" lon="0.73223">
        <ele>112.9</ele>
        <time>2016-04-24T08:56:45Z</time>
      </trkpt>
      <trkpt lat="49.53341" lon="0.73216">
        <ele>113</ele>
        <time>2016-04-24T08:56:48Z</time>
      </trkpt>
      <trkpt lat="49.5333" lon="0.73208">
        <ele>113</ele>
        <time>2016-04-24T08:56:51Z</time>
      </trkpt>
      <trkpt lat="49.53319" lon="0.732">
        <ele>113</ele>
        <time>2016-04-24T08:56:54Z</time>
      </trkpt>
      <trkpt lat="49.53309" lon="0.73191">
        <ele>112.9</ele>
        <time>2016-04-24T08:56:57Z</time>
      </trkpt>
      <trkpt lat="49.53298" lon="0.73181">
        <ele>112.9</ele>
        <time>2016-04-24T08:57:00Z</time>
      </trkpt>
      <trkpt lat="49.53288" lon="0.73174">
        <ele>112.9</ele>
        <time>2016-04-24T08:57:03Z</time>
      </trkpt>
      <trkpt lat="49.53279" lon="0.73167">
        <ele>112.9</ele>
        <time>2016-04-24T08:57:05Z</time>
      </trkpt>
      <trkpt lat="49.5327" lon="0.7316">
        <ele>112.9</ele>
        <time>2016-04-24T08:57:07Z</time>
      </trkpt>
      <trkpt lat="49.53261" lon="0.73154">
        <ele>112.6</ele>
        <time>2016-04-24T08:57:09Z</time>
      </trkpt>
      <trkpt lat="49.53252" lon="0.73148">
        <ele>112.5</ele>
        <time>2016-04-24T08:57:11Z</time>
      </trkpt>
      <trkpt lat="49.53244" lon="0.73142">
        <ele>112.3</ele>
        <time>2016-04-24T08:57:13Z</time>
      </trkpt>
      <trkpt lat="49.53233" lon="0.73133">
        <ele>112.2</ele>
        <time>2016-04-24T08:57:16Z</time>
      </trkpt>
      <trkpt lat="49.53222" lon="0.73123">
        <ele>111.7</ele>
        <time>2016-04-24T08:57:19Z</time>
      </trkpt>
      <trkpt lat="49.53212" lon="0.73114">
        <ele>111.5</ele>
        <time>2016-04-24T08:57:21Z</time>
      </trkpt>
      <trkpt lat="49.53202" lon="0.73107">
        <ele>111.3</ele>
        <time>2016-04-24T08:57:23Z</time>
      </trkpt>
      <trkpt lat="49.53193" lon="0.73098">
        <ele>111.1</ele>
        <time>2016-04-24T08:57:25Z</time>
      </trkpt>
      <trkpt lat="49.53181" lon="0.73092">
        <ele>111</ele>
        <time>2016-04-24T08:57:27Z</time>
      </trkpt>
      <trkpt lat="49.5317" lon="0.73089">
        <ele>110.9</ele>
        <time>2016-04-24T08:57:29Z</time>
      </trkpt>
      <trkpt lat="49.53157" lon="0.73087">
        <ele>110.7</ele>
        <time>2016-04-24T08:57:31Z</time>
      </trkpt>
      <trkpt lat="49.53144" lon="0.73088">
        <ele>110.5</ele>
        <time>2016-04-24T08:57:33Z</time>
      </trkpt>
      <trkpt lat="49.53132" lon="0.73091">
        <ele>110.2</ele>
        <time>2016-04-24T08:57:35Z</time>
      </trkpt>
      <trkpt lat="49.53119" lon="0.73098">
        <ele>109.7</ele>
        <time>2016-04-24T08:57:37Z</time>
      </trkpt>
      <trkpt lat="49.53109" lon="0.73107">
        <ele>109.2</ele>
        <time>2016-04-24T08:57:39Z</time>
      </trkpt>
      <trkpt lat="49.53103" lon="0.73118">
        <ele>108.5</ele>
        <time>2016-04-24T08:57:42Z</time>
      </trkpt>
      <trkpt lat="49.53102" lon="0.73134">
        <ele>107.8</ele>
        <time>2016-04-24T08:57:46Z</time>
      </trkpt>
      <trkpt lat="49.53106" lon="0.73147">
        <ele>107.3</ele>
        <time>2016-04-24T08:57:50Z</time>
      </trkpt>
      <trkpt lat="49.53107" lon="0.73162">
        <ele>107.3</ele>
        <time>2016-04-24T08:57:55Z</time>
      </trkpt>
      <trkpt lat="49.5311" lon="0.73178">
        <ele>107.4</ele>
        <time>2016-04-24T08:58:00Z</time>
      </trkpt>
      <trkpt lat="49.53113" lon="0.73192">
        <ele>107.6</ele>
        <time>2016-04-24T08:58:05Z</time>
      </trkpt>
      <trkpt lat="49.53115" lon="0.73208">
        <ele>108.3</ele>
        <time>2016-04-24T08:58:11Z</time>
      </trkpt>
      <trkpt lat="49.5312" lon="0.73222">
        <ele>108.7</ele>
        <time>2016-04-24T08:58:15Z</time>
      </trkpt>
      <trkpt lat="49.53122" lon="0.73238">
        <ele>109.3</ele>
        <time>2016-04-24T08:58:20Z</time>
      </trkpt>
      <trkpt lat="49.53127" lon="0.73254">
        <ele>109.8</ele>
        <time>2016-04-24T08:58:25Z</time>
      </trkpt>
      <trkpt lat="49.53132" lon="0.73268">
        <ele>110.2</ele>
        <time>2016-04-24T08:58:29Z</time>
      </trkpt>
      <trkpt lat="49.53135" lon="0.73283">
        <ele>110.6</ele>
        <time>2016-04-24T08:58:33Z</time>
      </trkpt>
      <trkpt lat="49.5314" lon="0.73298">
        <ele>111.1</ele>
        <time>2016-04-24T08:58:38Z</time>
      </trkpt>
      <trkpt lat="49.53144" lon="0.73314">
        <ele>111.5</ele>
        <time>2016-04-24T08:58:43Z</time>
      </trkpt>
      <trkpt lat="49.53147" lon="0.73328">
        <ele>111.9</ele>
        <time>2016-04-24T08:58:48Z</time>
      </trkpt>
      <trkpt lat="49.5315" lon="0.73344">
        <ele>112.4</ele>
        <time>2016-04-24T08:58:54Z</time>
      </trkpt>
      <trkpt lat="49.53155" lon="0.73358">
        <ele>112.8</ele>
        <time>2016-04-24T08:58:58Z</time>
      </trkpt>
      <trkpt lat="49.53162" lon="0.73371">
        <ele>113.3</ele>
        <time>2016-04-24T08:59:02Z</time>
      </trkpt>
      <trkpt lat="49.53164" lon="0.73387">
        <ele>113.8</ele>
        <time>2016-04-24T08:59:07Z</time>
      </trkpt>
      <trkpt lat="49.53168" lon="0.734">
        <ele>114.2</ele>
        <time>2016-04-24T08:59:12Z</time>
      </trkpt>
      <trkpt lat="49.5317" lon="0.73416">
        <ele>114.7</ele>
        <time>2016-04-24T08:59:17Z</time>
      </trkpt>
      <trkpt lat="49.53174" lon="0.73429">
        <ele>115.2</ele>
        <time>2016-04-24T08:59:22Z</time>
      </trkpt>
      <trkpt lat="49.53175" lon="0.73449">
        <ele>115.5</ele>
        <time>2016-04-24T08:59:27Z</time>
      </trkpt>
      <trkpt lat="49.53177" lon="0.73466">
        <ele>115.7</ele>
        <time>2016-04-24T08:59:31Z</time>
      </trkpt>
      <trkpt lat="49.53179" lon="0.7348">
        <ele>116</ele>
        <time>2016-04-24T08:59:35Z</time>
      </trkpt>
      <trkpt lat="49.53185" lon="0.73492">
        <ele>116.3</ele>
        <time>2016-04-24T08:59:39Z</time>
      </trkpt>
      <trkpt lat="49.53188" lon="0.73507">
        <ele>116.5</ele>
        <time>2016-04-24T08:59:43Z</time>
      </trkpt>
      <trkpt lat="49.53193" lon="0.7352">
        <ele>116.6</ele>
        <time>2016-04-24T08:59:46Z</time>
      </trkpt>
      <trkpt lat="49.53197" lon="0.73535">
        <ele>116.9</ele>
        <time>2016-04-24T08:59:50Z</time>
      </trkpt>
      <trkpt lat="49.53201" lon="0.73548">
        <ele>117</ele>
        <time>2016-04-24T08:59:54Z</time>
      </trkpt>
      <trkpt lat="49.53205" lon="0.73562">
        <ele>117.2</ele>
        <time>2016-04-24T08:59:58Z</time>
      </trkpt>
      <trkpt lat="49.53209" lon="0.73577">
        <ele>117.5</ele>
        <time>2016-04-24T09:00:02Z</time>
      </trkpt>
      <trkpt lat="49.53213" lon="0.73591">
        <ele>117.7</ele>
        <time>2016-04-24T09:00:06Z</time>
      </trkpt>
      <trkpt lat="49.53215" lon="0.73608">
        <ele>117.9</ele>
        <time>2016-04-24T09:00:10Z</time>
      </trkpt>
      <trkpt lat="49.53217" lon="0.73627">
        <ele>118</ele>
        <time>2016-04-24T09:00:14Z</time>
      </trkpt>
      <trkpt lat="49.53222" lon="0.73641">
        <ele>118.1</ele>
        <time>2016-04-24T09:00:17Z</time>
      </trkpt>
      <trkpt lat="49.53227" lon="0.73655">
        <ele>118.2</ele>
        <time>2016-04-24T09:00:20Z</time>
      </trkpt>
      <trkpt lat="49.53233" lon="0.73671">
        <ele>118.2</ele>
        <time>2016-04-24T09:00:23Z</time>
      </trkpt>
      <trkpt lat="49.53236" lon="0.73686">
        <ele>118.3</ele>
        <time>2016-04-24T09:00:26Z</time>
      </trkpt>
      <trkpt lat="49.53242" lon="0.73703">
        <ele>118.4</ele>
        <time>2016-04-24T09:00:29Z</time>
      </trkpt>
      <trkpt lat="49.53244" lon="0.73719">
        <ele>118.5</ele>
        <time>2016-04-24T09:00:32Z</time>
      </trkpt>
      <trkpt lat="49.53245" lon="0.73734">
        <ele>118.6</ele>
        <time>2016-04-24T09:00:35Z</time>
      </trkpt>
      <trkpt lat="49.53242" lon="0.73748">
        <ele>118.7</ele>
        <time>2016-04-24T09:00:38Z</time>
      </trkpt>
      <trkpt lat="49.53233" lon="0.73754">
        <ele>118.7</ele>
        <time>2016-04-24T09:00:41Z</time>
      </trkpt>
      <trkpt lat="49.53223" lon="0.7376">
        <ele>118.7</ele>
        <time>2016-04-24T09:00:44Z</time>
      </trkpt>
      <trkpt lat="49.53213" lon="0.73766">
        <ele>118.7</ele>
        <time>2016-04-24T09:00:47Z</time>
      </trkpt>
      <trkpt lat="49.53203" lon="0.73775">
        <ele>118.7</ele>
        <time>2016-04-24T09:00:50Z</time>
      </trkpt>
      <trkpt lat="49.53192" lon="0.73785">
        <ele>118.6</ele>
        <time>2016-04-24T09:00:53Z</time>
      </trkpt>
      <trkpt lat="49.53185" lon="0.73794">
        <ele>118.6</ele>
        <time>2016-04-24T09:00:55Z</time>
      </trkpt>
      <trkpt lat="49.53176" lon="0.73804">
        <ele>118.4</ele>
        <time>2016-04-24T09:00:57Z</time>
      </trkpt>
      <trkpt lat="49.53167" lon="0.73816">
        <ele>118.3</ele>
        <time>2016-04-24T09:00:59Z</time>
      </trkpt>
      <trkpt lat="49.53157" lon="0.73828">
        <ele>118.2</ele>
        <time>2016-04-24T09:01:01Z</time>
      </trkpt>
      <trkpt lat="49.53146" lon="0.7384">
        <ele>117.9</ele>
        <time>2016-04-24T09:01:03Z</time>
      </trkpt>
      <trkpt lat="49.53136" lon="0.73854">
        <ele>117.5</ele>
        <time>2016-04-24T09:01:05Z</time>
      </trkpt>
      <trkpt lat="49.53126" lon="0.73868">
        <ele>117.1</ele>
        <time>2016-04-24T09:01:07Z</time>
      </trkpt>
      <trkpt lat="49.53116" lon="0.73881">
        <ele>116.8</ele>
        <time>2016-04-24T09:01:09Z</time>
      </trkpt>
      <trkpt lat="49.53107" lon="0.73895">
        <ele>116.7</ele>
        <time>2016-04-24T09:01:11Z</time>
      </trkpt>
      <trkpt lat="49.53097" lon="0.73907">
        <ele>116.6</ele>
        <time>2016-04-24T09:01:13Z</time>
      </trkpt>
      <trkpt lat="49.53089" lon="0.73919">
        <ele>116.5</ele>
        <time>2016-04-24T09:01:15Z</time>
      </trkpt>
      <trkpt lat="49.53081" lon="0.7393">
        <ele>116.4</ele>
        <time>2016-04-24T09:01:17Z</time>
      </trkpt>
      <trkpt lat="49.53073" lon="0.73942">
        <ele>116.2</ele>
        <time>2016-04-24T09:01:19Z</time>
      </trkpt>
      <trkpt lat="49.53066" lon="0.73952">
        <ele>116</ele>
        <time>2016-04-24T09:01:21Z</time>
      </trkpt>
      <trkpt lat="49.53059" lon="0.73964">
        <ele>115.9</ele>
        <time>2016-04-24T09:01:23Z</time>
      </trkpt>
      <trkpt lat="49.53052" lon="0.73976">
        <ele>115.9</ele>
        <time>2016-04-24T09:01:25Z</time>
      </trkpt>
      <trkpt lat="49.53045" lon="0.73989">
        <ele>115.7</ele>
        <time>2016-04-24T09:01:27Z</time>
      </trkpt>
      <trkpt lat="49.53038" lon="0.74002">
        <ele>115.7</ele>
        <time>2016-04-24T09:01:29Z</time>
      </trkpt>
      <trkpt lat="49.53031" lon="0.74015">
        <ele>115.8</ele>
        <time>2016-04-24T09:01:31Z</time>
      </trkpt>
      <trkpt lat="49.53025" lon="0.74028">
        <ele>116</ele>
        <time>2016-04-24T09:01:33Z</time>
      </trkpt>
      <trkpt lat="49.5302" lon="0.74041">
        <ele>115.9</ele>
        <time>2016-04-24T09:01:35Z</time>
      </trkpt>
      <trkpt lat="49.53015" lon="0.74053">
        <ele>115.8</ele>
        <time>2016-04-24T09:01:37Z</time>
      </trkpt>
      <trkpt lat="49.5301" lon="0.74067">
        <ele>115.7</ele>
        <time>2016-04-24T09:01:39Z</time>
      </trkpt>
      <trkpt lat="49.53006" lon="0.74079">
        <ele>115.6</ele>
        <time>2016-04-24T09:01:41Z</time>
      </trkpt>
      <trkpt lat="49.52998" lon="0.74096">
        <ele>115.3</ele>
        <time>2016-04-24T09:01:44Z</time>
      </trkpt>
      <trkpt lat="49.52989" lon="0.74111">
        <ele>115.1</ele>
        <time>2016-04-24T09:01:47Z</time>
      </trkpt>
      <trkpt lat="49.52979" lon="0.74124">
        <ele>115.1</ele>
        <time>2016-04-24T09:01:50Z</time>
      </trkpt>
      <trkpt lat="49.52969" lon="0.74134">
        <ele>115</ele>
        <time>2016-04-24T09:01:53Z</time>
      </trkpt>
      <trkpt lat="49.5296" lon="0.74144">
        <ele>114.9</ele>
        <time>2016-04-24T09:01:56Z</time>
      </trkpt>
      <trkpt lat="49.5295" lon="0.74155">
        <ele>114.8</ele>
        <time>2016-04-24T09:01:59Z</time>
      </trkpt>
      <trkpt lat="49.52938" lon="0.74165">
        <ele>114.5</ele>
        <time>2016-04-24T09:02:02Z</time>
      </trkpt>
      <trkpt lat="49.5293" lon="0.74174">
        <ele>114.2</ele>
        <time>2016-04-24T09:02:05Z</time>
      </trkpt>
      <trkpt lat="49.52922" lon="0.74184">
        <ele>114</ele>
        <time>2016-04-24T09:02:08Z</time>
      </trkpt>
      <trkpt lat="49.52914" lon="0.74196">
        <ele>113.8</ele>
        <time>2016-04-24T09:02:11Z</time>
      </trkpt>
      <trkpt lat="49.52905" lon="0.74205">
        <ele>113.6</ele>
        <time>2016-04-24T09:02:14Z</time>
      </trkpt>
      <trkpt lat="49.52893" lon="0.74214">
        <ele>113.2</ele>
        <time>2016-04-24T09:02:17Z</time>
      </trkpt>
      <trkpt lat="49.52881" lon="0.7422">
        <ele>112.7</ele>
        <time>2016-04-24T09:02:20Z</time>
      </trkpt>
      <trkpt lat="49.52871" lon="0.74225">
        <ele>112.3</ele>
        <time>2016-04-24T09:02:23Z</time>
      </trkpt>
      <trkpt lat="49.52862" lon="0.74234">
        <ele>111.8</ele>
        <time>2016-04-24T09:02:26Z</time>
      </trkpt>
      <trkpt lat="49.52853" lon="0.74244">
        <ele>110.9</ele>
        <time>2016-04-24T09:02:30Z</time>
      </trkpt>
      <trkpt lat="49.52846" lon="0.74257">
        <ele>110.4</ele>
        <time>2016-04-24T09:02:33Z</time>
      </trkpt>
      <trkpt lat="49.52837" lon="0.74268">
        <ele>109.7</ele>
        <time>2016-04-24T09:02:36Z</time>
      </trkpt>
      <trkpt lat="49.52824" lon="0.74273">
        <ele>108.7</ele>
        <time>2016-04-24T09:02:39Z</time>
      </trkpt>
      <trkpt lat="49.52814" lon="0.74275">
        <ele>107.9</ele>
        <time>2016-04-24T09:02:41Z</time>
      </trkpt>
      <trkpt lat="49.52805" lon="0.74277">
        <ele>107</ele>
        <time>2016-04-24T09:02:43Z</time>
      </trkpt>
      <trkpt lat="49.52794" lon="0.74284">
        <ele>105.3</ele>
        <time>2016-04-24T09:02:46Z</time>
      </trkpt>
      <trkpt lat="49.52782" lon="0.74294">
        <ele>103.4</ele>
        <time>2016-04-24T09:02:49Z</time>
      </trkpt>
      <trkpt lat="49.52772" lon="0.74305">
        <ele>101.9</ele>
        <time>2016-04-24T09:02:52Z</time>
      </trkpt>
      <trkpt lat="49.52762" lon="0.74318">
        <ele>100.2</ele>
        <time>2016-04-24T09:02:55Z</time>
      </trkpt>
      <trkpt lat="49.52754" lon="0.74328">
        <ele>99.1</ele>
        <time>2016-04-24T09:02:57Z</time>
      </trkpt>
      <trkpt lat="49.52747" lon="0.74338">
        <ele>97.8</ele>
        <time>2016-04-24T09:02:59Z</time>
      </trkpt>
      <trkpt lat="49.5274" lon="0.74347">
        <ele>96.5</ele>
        <time>2016-04-24T09:03:01Z</time>
      </trkpt>
      <trkpt lat="49.52732" lon="0.74362">
        <ele>94.4</ele>
        <time>2016-04-24T09:03:04Z</time>
      </trkpt>
      <trkpt lat="49.52728" lon="0.74379">
        <ele>92.8</ele>
        <time>2016-04-24T09:03:07Z</time>
      </trkpt>
      <trkpt lat="49.52723" lon="0.74397">
        <ele>91.2</ele>
        <time>2016-04-24T09:03:10Z</time>
      </trkpt>
      <trkpt lat="49.52711" lon="0.74403">
        <ele>89.6</ele>
        <time>2016-04-24T09:03:13Z</time>
      </trkpt>
      <trkpt lat="49.527" lon="0.74402">
        <ele>88.5</ele>
        <time>2016-04-24T09:03:15Z</time>
      </trkpt>
      <trkpt lat="49.52688" lon="0.74403">
        <ele>86.9</ele>
        <time>2016-04-24T09:03:17Z</time>
      </trkpt>
      <trkpt lat="49.52679" lon="0.74404">
        <ele>85.2</ele>
        <time>2016-04-24T09:03:19Z</time>
      </trkpt>
      <trkpt lat="49.52668" lon="0.74404">
        <ele>83.7</ele>
        <time>2016-04-24T09:03:21Z</time>
      </trkpt>
      <trkpt lat="49.52658" lon="0.74403">
        <ele>82.4</ele>
        <time>2016-04-24T09:03:23Z</time>
      </trkpt>
      <trkpt lat="49.52649" lon="0.74399">
        <ele>81</ele>
        <time>2016-04-24T09:03:25Z</time>
      </trkpt>
      <trkpt lat="49.52641" lon="0.74393">
        <ele>79.6</ele>
        <time>2016-04-24T09:03:27Z</time>
      </trkpt>
      <trkpt lat="49.52628" lon="0.74385">
        <ele>77.7</ele>
        <time>2016-04-24T09:03:30Z</time>
      </trkpt>
      <trkpt lat="49.52617" lon="0.74377">
        <ele>75.7</ele>
        <time>2016-04-24T09:03:33Z</time>
      </trkpt>
      <trkpt lat="49.52608" lon="0.74371">
        <ele>74.1</ele>
        <time>2016-04-24T09:03:36Z</time>
      </trkpt>
      <trkpt lat="49.52596" lon="0.74369">
        <ele>72.2</ele>
        <time>2016-04-24T09:03:40Z</time>
      </trkpt>
      <trkpt lat="49.52587" lon="0.74366">
        <ele>70.8</ele>
        <time>2016-04-24T09:03:43Z</time>
      </trkpt>
      <trkpt lat="49.52576" lon="0.7436">
        <ele>69.2</ele>
        <time>2016-04-24T09:03:46Z</time>
      </trkpt>
      <trkpt lat="49.52566" lon="0.7436">
        <ele>67.9</ele>
        <time>2016-04-24T09:03:49Z</time>
      </trkpt>
      <trkpt lat="49.52555" lon="0.74355">
        <ele>66.6</ele>
        <time>2016-04-24T09:03:52Z</time>
      </trkpt>
      <trkpt lat="49.52545" lon="0.74349">
        <ele>65.5</ele>
        <time>2016-04-24T09:03:55Z</time>
      </trkpt>
      <trkpt lat="49.52534" lon="0.7434">
        <ele>64</ele>
        <time>2016-04-24T09:03:58Z</time>
      </trkpt>
      <trkpt lat="49.52523" lon="0.74336">
        <ele>62.8</ele>
        <time>2016-04-24T09:04:01Z</time>
      </trkpt>
      <trkpt lat="49.52514" lon="0.74335">
        <ele>61.4</ele>
        <time>2016-04-24T09:04:04Z</time>
      </trkpt>
      <trkpt lat="49.52501" lon="0.74335">
        <ele>60</ele>
        <time>2016-04-24T09:04:07Z</time>
      </trkpt>
      <trkpt lat="49.52491" lon="0.74333">
        <ele>58.9</ele>
        <time>2016-04-24T09:04:10Z</time>
      </trkpt>
      <trkpt lat="49.52483" lon="0.74325">
        <ele>57.5</ele>
        <time>2016-04-24T09:04:14Z</time>
      </trkpt>
      <trkpt lat="49.52473" lon="0.74318">
        <ele>56.2</ele>
        <time>2016-04-24T09:04:18Z</time>
      </trkpt>
      <trkpt lat="49.52461" lon="0.74304">
        <ele>55</ele>
        <time>2016-04-24T09:04:21Z</time>
      </trkpt>
      <trkpt lat="49.5245" lon="0.74297">
        <ele>53.9</ele>
        <time>2016-04-24T09:04:23Z</time>
      </trkpt>
      <trkpt lat="49.52439" lon="0.74297">
        <ele>53</ele>
        <time>2016-04-24T09:04:25Z</time>
      </trkpt>
      <trkpt lat="49.52427" lon="0.74305">
        <ele>51.9</ele>
        <time>2016-04-24T09:04:27Z</time>
      </trkpt>
      <trkpt lat="49.52417" lon="0.74316">
        <ele>50.7</ele>
        <time>2016-04-24T09:04:29Z</time>
      </trkpt>
      <trkpt lat="49.5241" lon="0.74333">
        <ele>49.5</ele>
        <time>2016-04-24T09:04:31Z</time>
      </trkpt>
      <trkpt lat="49.52406" lon="0.74352">
        <ele>48.4</ele>
        <time>2016-04-24T09:04:33Z</time>
      </trkpt>
      <trkpt lat="49.52404" lon="0.74373">
        <ele>47.4</ele>
        <time>2016-04-24T09:04:35Z</time>
      </trkpt>
      <trkpt lat="49.52401" lon="0.74395">
        <ele>46.4</ele>
        <time>2016-04-24T09:04:37Z</time>
      </trkpt>
      <trkpt lat="49.52398" lon="0.74412">
        <ele>45.5</ele>
        <time>2016-04-24T09:04:39Z</time>
      </trkpt>
      <trkpt lat="49.52395" lon="0.7443">
        <ele>44.8</ele>
        <time>2016-04-24T09:04:41Z</time>
      </trkpt>
      <trkpt lat="49.52393" lon="0.74449">
        <ele>44</ele>
        <time>2016-04-24T09:04:43Z</time>
      </trkpt>
      <trkpt lat="49.52391" lon="0.74468">
        <ele>43.3</ele>
        <time>2016-04-24T09:04:45Z</time>
      </trkpt>
      <trkpt lat="49.52389" lon="0.74489">
        <ele>42.4</ele>
        <time>2016-04-24T09:04:47Z</time>
      </trkpt>
      <trkpt lat="49.52388" lon="0.7451">
        <ele>41.7</ele>
        <time>2016-04-24T09:04:49Z</time>
      </trkpt>
      <trkpt lat="49.52387" lon="0.74533">
        <ele>41.1</ele>
        <time>2016-04-24T09:04:51Z</time>
      </trkpt>
      <trkpt lat="49.52386" lon="0.74556">
        <ele>40.5</ele>
        <time>2016-04-24T09:04:53Z</time>
      </trkpt>
      <trkpt lat="49.52384" lon="0.74579">
        <ele>40</ele>
        <time>2016-04-24T09:04:55Z</time>
      </trkpt>
      <trkpt lat="49.52382" lon="0.74602">
        <ele>39.5</ele>
        <time>2016-04-24T09:04:57Z</time>
      </trkpt>
      <trkpt lat="49.52382" lon="0.74623">
        <ele>39.1</ele>
        <time>2016-04-24T09:04:59Z</time>
      </trkpt>
      <trkpt lat="49.52381" lon="0.74641">
        <ele>38.9</ele>
        <time>2016-04-24T09:05:01Z</time>
      </trkpt>
      <trkpt lat="49.52379" lon="0.74657">
        <ele>38.7</ele>
        <time>2016-04-24T09:05:03Z</time>
      </trkpt>
      <trkpt lat="49.52378" lon="0.74672">
        <ele>38.5</ele>
        <time>2016-04-24T09:05:05Z</time>
      </trkpt>
      <trkpt lat="49.52377" lon="0.74687">
        <ele>38.3</ele>
        <time>2016-04-24T09:05:07Z</time>
      </trkpt>
      <trkpt lat="49.52375" lon="0.74703">
        <ele>38.2</ele>
        <time>2016-04-24T09:05:09Z</time>
      </trkpt>
      <trkpt lat="49.52375" lon="0.74722">
        <ele>37.8</ele>
        <time>2016-04-24T09:05:11Z</time>
      </trkpt>
      <trkpt lat="49.52373" lon="0.74743">
        <ele>37.5</ele>
        <time>2016-04-24T09:05:13Z</time>
      </trkpt>
      <trkpt lat="49.5237" lon="0.74765">
        <ele>37</ele>
        <time>2016-04-24T09:05:15Z</time>
      </trkpt>
      <trkpt lat="49.52364" lon="0.74789">
        <ele>36.4</ele>
        <time>2016-04-24T09:05:17Z</time>
      </trkpt>
      <trkpt lat="49.5236" lon="0.74802">
        <ele>36.1</ele>
        <time>2016-04-24T09:05:18Z</time>
      </trkpt>
      <trkpt lat="49.52358" lon="0.74817">
        <ele>35.7</ele>
        <time>2016-04-24T09:05:19Z</time>
      </trkpt>
      <trkpt lat="49.52355" lon="0.74831">
        <ele>35.3</ele>
        <time>2016-04-24T09:05:20Z</time>
      </trkpt>
      <trkpt lat="49.52354" lon="0.74846">
        <ele>34.7</ele>
        <time>2016-04-24T09:05:21Z</time>
      </trkpt>
      <trkpt lat="49.52354" lon="0.74863">
        <ele>34.2</ele>
        <time>2016-04-24T09:05:22Z</time>
      </trkpt>
      <trkpt lat="49.52355" lon="0.74879">
        <ele>33.5</ele>
        <time>2016-04-24T09:05:23Z</time>
      </trkpt>
      <trkpt lat="49.52357" lon="0.74895">
        <ele>32.9</ele>
        <time>2016-04-24T09:05:24Z</time>
      </trkpt>
      <trkpt lat="49.5236" lon="0.74912">
        <ele>32.2</ele>
        <time>2016-04-24T09:05:25Z</time>
      </trkpt>
      <trkpt lat="49.52363" lon="0.74929">
        <ele>31.5</ele>
        <time>2016-04-24T09:05:26Z</time>
      </trkpt>
      <trkpt lat="49.52367" lon="0.74945">
        <ele>30.7</ele>
        <time>2016-04-24T09:05:27Z</time>
      </trkpt>
      <trkpt lat="49.52371" lon="0.74962">
        <ele>29.8</ele>
        <time>2016-04-24T09:05:28Z</time>
      </trkpt>
      <trkpt lat="49.52376" lon="0.74978">
        <ele>29</ele>
        <time>2016-04-24T09:05:29Z</time>
      </trkpt>
      <trkpt lat="49.5238" lon="0.74992">
        <ele>28.3</ele>
        <time>2016-04-24T09:05:30Z</time>
      </trkpt>
      <trkpt lat="49.52385" lon="0.75015">
        <ele>26.8</ele>
        <time>2016-04-24T09:05:32Z</time>
      </trkpt>
      <trkpt lat="49.52387" lon="0.75031">
        <ele>25.3</ele>
        <time>2016-04-24T09:05:34Z</time>
      </trkpt>
      <trkpt lat="49.52386" lon="0.75045">
        <ele>23.2</ele>
        <time>2016-04-24T09:05:37Z</time>
      </trkpt>
      <trkpt lat="49.52383" lon="0.75063">
        <ele>14.1</ele>
        <time>2016-04-24T09:06:12Z</time>
      </trkpt>
      <trkpt lat="49.5238" lon="0.75076">
        <ele>13.9</ele>
        <time>2016-04-24T09:06:15Z</time>
      </trkpt>
      <trkpt lat="49.52376" lon="0.75091">
        <ele>13.8</ele>
        <time>2016-04-24T09:06:19Z</time>
      </trkpt>
      <trkpt lat="49.52372" lon="0.75105">
        <ele>13.7</ele>
        <time>2016-04-24T09:06:22Z</time>
      </trkpt>
      <trkpt lat="49.52368" lon="0.7512">
        <ele>13.6</ele>
        <time>2016-04-24T09:06:25Z</time>
      </trkpt>
      <trkpt lat="49.52365" lon="0.75133">
        <ele>13.3</ele>
        <time>2016-04-24T09:06:28Z</time>
      </trkpt>
      <trkpt lat="49.52361" lon="0.7515">
        <ele>13.1</ele>
        <time>2016-04-24T09:06:32Z</time>
      </trkpt>
      <trkpt lat="49.52357" lon="0.75167">
        <ele>12.8</ele>
        <time>2016-04-24T09:06:37Z</time>
      </trkpt>
      <trkpt lat="49.52355" lon="0.75182">
        <ele>12.6</ele>
        <time>2016-04-24T09:06:40Z</time>
      </trkpt>
      <trkpt lat="49.52359" lon="0.75198">
        <ele>12.5</ele>
        <time>2016-04-24T09:06:43Z</time>
      </trkpt>
      <trkpt lat="49.52363" lon="0.75214">
        <ele>12.3</ele>
        <time>2016-04-24T09:06:46Z</time>
      </trkpt>
      <trkpt lat="49.52367" lon="0.75229">
        <ele>12.2</ele>
        <time>2016-04-24T09:06:49Z</time>
      </trkpt>
      <trkpt lat="49.52368" lon="0.75244">
        <ele>12.1</ele>
        <time>2016-04-24T09:06:52Z</time>
      </trkpt>
      <trkpt lat="49.52368" lon="0.7526">
        <ele>12.2</ele>
        <time>2016-04-24T09:06:55Z</time>
      </trkpt>
      <trkpt lat="49.52365" lon="0.75278">
        <ele>12.3</ele>
        <time>2016-04-24T09:06:58Z</time>
      </trkpt>
      <trkpt lat="49.52361" lon="0.75295">
        <ele>12.4</ele>
        <time>2016-04-24T09:07:01Z</time>
      </trkpt>
      <trkpt lat="49.52358" lon="0.75313">
        <ele>12.4</ele>
        <time>2016-04-24T09:07:04Z</time>
      </trkpt>
      <trkpt lat="49.52355" lon="0.75329">
        <ele>12.3</ele>
        <time>2016-04-24T09:07:07Z</time>
      </trkpt>
      <trkpt lat="49.52352" lon="0.75345">
        <ele>12.3</ele>
        <time>2016-04-24T09:07:10Z</time>
      </trkpt>
      <trkpt lat="49.52348" lon="0.7536">
        <ele>12.3</ele>
        <time>2016-04-24T09:07:13Z</time>
      </trkpt>
      <trkpt lat="49.52344" lon="0.75376">
        <ele>12.3</ele>
        <time>2016-04-24T09:07:16Z</time>
      </trkpt>
      <trkpt lat="49.52342" lon="0.75391">
        <ele>12.3</ele>
        <time>2016-04-24T09:07:19Z</time>
      </trkpt>
      <trkpt lat="49.52339" lon="0.75408">
        <ele>12.2</ele>
        <time>2016-04-24T09:07:22Z</time>
      </trkpt>
      <trkpt lat="49.52337" lon="0.75424">
        <ele>12.3</ele>
        <time>2016-04-24T09:07:25Z</time>
      </trkpt>
      <trkpt lat="49.52336" lon="0.7544">
        <ele>12.4</ele>
        <time>2016-04-24T09:07:28Z</time>
      </trkpt>
      <trkpt lat="49.52334" lon="0.75455">
        <ele>12.4</ele>
        <time>2016-04-24T09:07:31Z</time>
      </trkpt>
      <trkpt lat="49.52333" lon="0.7547">
        <ele>12.5</ele>
        <time>2016-04-24T09:07:35Z</time>
      </trkpt>
      <trkpt lat="49.5234" lon="0.7548">
        <ele>12.6</ele>
        <time>2016-04-24T09:07:41Z</time>
      </trkpt>
      <trkpt lat="49.52349" lon="0.75485">
        <ele>12.7</ele>
        <time>2016-04-24T09:07:44Z</time>
      </trkpt>
      <trkpt lat="49.52359" lon="0.75488">
        <ele>12.7</ele>
        <time>2016-04-24T09:07:48Z</time>
      </trkpt>
      <trkpt lat="49.52366" lon="0.755">
        <ele>12.8</ele>
        <time>2016-04-24T09:07:51Z</time>
      </trkpt>
      <trkpt lat="49.52367" lon="0.75515">
        <ele>12.9</ele>
        <time>2016-04-24T09:07:54Z</time>
      </trkpt>
      <trkpt lat="49.52368" lon="0.75532">
        <ele>12.9</ele>
        <time>2016-04-24T09:07:57Z</time>
      </trkpt>
      <trkpt lat="49.52367" lon="0.75548">
        <ele>13</ele>
        <time>2016-04-24T09:08:00Z</time>
      </trkpt>
      <trkpt lat="49.52369" lon="0.75562">
        <ele>13.1</ele>
        <time>2016-04-24T09:08:04Z</time>
      </trkpt>
      <trkpt lat="49.52366" lon="0.75577">
        <ele>13.2</ele>
        <time>2016-04-24T09:08:10Z</time>
      </trkpt>
      <trkpt lat="49.52366" lon="0.75593">
        <ele>13.3</ele>
        <time>2016-04-24T09:08:14Z</time>
      </trkpt>
      <trkpt lat="49.52364" lon="0.75607">
        <ele>13.3</ele>
        <time>2016-04-24T09:08:17Z</time>
      </trkpt>
      <trkpt lat="49.52362" lon="0.75621">
        <ele>13.4</ele>
        <time>2016-04-24T09:08:20Z</time>
      </trkpt>
      <trkpt lat="49.52361" lon="0.75635">
        <ele>13.4</ele>
        <time>2016-04-24T09:08:23Z</time>
      </trkpt>
      <trkpt lat="49.52359" lon="0.75651">
        <ele>13.4</ele>
        <time>2016-04-24T09:08:26Z</time>
      </trkpt>
      <trkpt lat="49.52358" lon="0.75666">
        <ele>13.3</ele>
        <time>2016-04-24T09:08:29Z</time>
      </trkpt>
      <trkpt lat="49.52357" lon="0.75681">
        <ele>13.3</ele>
        <time>2016-04-24T09:08:32Z</time>
      </trkpt>
      <trkpt lat="49.52355" lon="0.75696">
        <ele>13.3</ele>
        <time>2016-04-24T09:08:35Z</time>
      </trkpt>
      <trkpt lat="49.52353" lon="0.75711">
        <ele>13.3</ele>
        <time>2016-04-24T09:08:38Z</time>
      </trkpt>
      <trkpt lat="49.52352" lon="0.75727">
        <ele>13.3</ele>
        <time>2016-04-24T09:08:41Z</time>
      </trkpt>
      <trkpt lat="49.52352" lon="0.75746">
        <ele>13.3</ele>
        <time>2016-04-24T09:08:44Z</time>
      </trkpt>
      <trkpt lat="49.52352" lon="0.75764">
        <ele>13.1</ele>
        <time>2016-04-24T09:08:47Z</time>
      </trkpt>
      <trkpt lat="49.52353" lon="0.7578">
        <ele>13</ele>
        <time>2016-04-24T09:08:50Z</time>
      </trkpt>
      <trkpt lat="49.52356" lon="0.75796">
        <ele>12.9</ele>
        <time>2016-04-24T09:08:53Z</time>
      </trkpt>
      <trkpt lat="49.52358" lon="0.75809">
        <ele>12.8</ele>
        <time>2016-04-24T09:08:56Z</time>
      </trkpt>
      <trkpt lat="49.5235" lon="0.75815">
        <ele>12.8</ele>
        <time>2016-04-24T09:09:00Z</time>
      </trkpt>
      <trkpt lat="49.52338" lon="0.75817">
        <ele>12.8</ele>
        <time>2016-04-24T09:09:04Z</time>
      </trkpt>
      <trkpt lat="49.52328" lon="0.75822">
        <ele>13</ele>
        <time>2016-04-24T09:09:08Z</time>
      </trkpt>
      <trkpt lat="49.52319" lon="0.75827">
        <ele>13.2</ele>
        <time>2016-04-24T09:09:13Z</time>
      </trkpt>
      <trkpt lat="49.52312" lon="0.75838">
        <ele>15.5</ele>
        <time>2016-04-24T09:10:04Z</time>
      </trkpt>
      <trkpt lat="49.52307" lon="0.75851">
        <ele>15.6</ele>
        <time>2016-04-24T09:10:07Z</time>
      </trkpt>
      <trkpt lat="49.52302" lon="0.75864">
        <ele>15.8</ele>
        <time>2016-04-24T09:10:12Z</time>
      </trkpt>
      <trkpt lat="49.52296" lon="0.75877">
        <ele>16</ele>
        <time>2016-04-24T09:10:19Z</time>
      </trkpt>
      <trkpt lat="49.52298" lon="0.75891">
        <ele>16.7</ele>
        <time>2016-04-24T09:10:28Z</time>
      </trkpt>
      <trkpt lat="49.52307" lon="0.75895">
        <ele>17.5</ele>
        <time>2016-04-24T09:10:37Z</time>
      </trkpt>
      <trkpt lat="49.52317" lon="0.75899">
        <ele>18</ele>
        <time>2016-04-24T09:10:45Z</time>
      </trkpt>
      <trkpt lat="49.52326" lon="0.75903">
        <ele>18.6</ele>
        <time>2016-04-24T09:10:53Z</time>
      </trkpt>
      <trkpt lat="49.52335" lon="0.75909">
        <ele>19.2</ele>
        <time>2016-04-24T09:11:01Z</time>
      </trkpt>
      <trkpt lat="49.52343" lon="0.75914">
        <ele>19.6</ele>
        <time>2016-04-24T09:11:07Z</time>
      </trkpt>
      <trkpt lat="49.52351" lon="0.75925">
        <ele>20.2</ele>
        <time>2016-04-24T09:11:15Z</time>
      </trkpt>
      <trkpt lat="49.52359" lon="0.75934">
        <ele>20.6</ele>
        <time>2016-04-24T09:11:22Z</time>
      </trkpt>
      <trkpt lat="49.52368" lon="0.75943">
        <ele>20.9</ele>
        <time>2016-04-24T09:11:28Z</time>
      </trkpt>
      <trkpt lat="49.52376" lon="0.75952">
        <ele>21.4</ele>
        <time>2016-04-24T09:11:34Z</time>
      </trkpt>
      <trkpt lat="49.52384" lon="0.7596">
        <ele>21.9</ele>
        <time>2016-04-24T09:11:39Z</time>
      </trkpt>
      <trkpt lat="49.52393" lon="0.75967">
        <ele>22.4</ele>
        <time>2016-04-24T09:11:44Z</time>
      </trkpt>
      <trkpt lat="49.52403" lon="0.75974">
        <ele>23.2</ele>
        <time>2016-04-24T09:11:50Z</time>
      </trkpt>
      <trkpt lat="49.52411" lon="0.75982">
        <ele>24.1</ele>
        <time>2016-04-24T09:11:56Z</time>
      </trkpt>
      <trkpt lat="49.52417" lon="0.75994">
        <ele>25.3</ele>
        <time>2016-04-24T09:12:05Z</time>
      </trkpt>
      <trkpt lat="49.52423" lon="0.76005">
        <ele>26.6</ele>
        <time>2016-04-24T09:12:14Z</time>
      </trkpt>
      <trkpt lat="49.52431" lon="0.76014">
        <ele>27.8</ele>
        <time>2016-04-24T09:12:23Z</time>
      </trkpt>
      <trkpt lat="49.52439" lon="0.76022">
        <ele>28.7</ele>
        <time>2016-04-24T09:12:31Z</time>
      </trkpt>
      <trkpt lat="49.52446" lon="0.76029">
        <ele>29.8</ele>
        <time>2016-04-24T09:12:39Z</time>
      </trkpt>
      <trkpt lat="49.52454" lon="0.76038">
        <ele>30.8</ele>
        <time>2016-04-24T09:12:47Z</time>
      </trkpt>
      <trkpt lat="49.52461" lon="0.76047">
        <ele>31.9</ele>
        <time>2016-04-24T09:12:55Z</time>
      </trkpt>
      <trkpt lat="49.52468" lon="0.76058">
        <ele>32.9</ele>
        <time>2016-04-24T09:13:03Z</time>
      </trkpt>
      <trkpt lat="49.52474" lon="0.76068">
        <ele>33.7</ele>
        <time>2016-04-24T09:13:10Z</time>
      </trkpt>
      <trkpt lat="49.52481" lon="0.76079">
        <ele>34.7</ele>
        <time>2016-04-24T09:13:18Z</time>
      </trkpt>
      <trkpt lat="49.52488" lon="0.76088">
        <ele>35.5</ele>
        <time>2016-04-24T09:13:25Z</time>
      </trkpt>
      <trkpt lat="49.52492" lon="0.76102">
        <ele>36.7</ele>
        <time>2016-04-24T09:13:35Z</time>
      </trkpt>
      <trkpt lat="49.52483" lon="0.76105">
        <ele>37.6</ele>
        <time>2016-04-24T09:13:43Z</time>
      </trkpt>
      <trkpt lat="49.52474" lon="0.76102">
        <ele>38.4</ele>
        <time>2016-04-24T09:13:51Z</time>
      </trkpt>
      <trkpt lat="49.52465" lon="0.76107">
        <ele>39.3</ele>
        <time>2016-04-24T09:13:59Z</time>
      </trkpt>
      <trkpt lat="49.52455" lon="0.76112">
        <ele>40.4</ele>
        <time>2016-04-24T09:14:08Z</time>
      </trkpt>
      <trkpt lat="49.52446" lon="0.7612">
        <ele>41.4</ele>
        <time>2016-04-24T09:14:17Z</time>
      </trkpt>
      <trkpt lat="49.52437" lon="0.76123">
        <ele>42.7</ele>
        <time>2016-04-24T09:14:26Z</time>
      </trkpt>
      <trkpt lat="49.52427" lon="0.76126">
        <ele>44</ele>
        <time>2016-04-24T09:14:36Z</time>
      </trkpt>
      <trkpt lat="49.52417" lon="0.76127">
        <ele>45.5</ele>
        <time>2016-04-24T09:14:46Z</time>
      </trkpt>
      <trkpt lat="49.52408" lon="0.7613">
        <ele>46.5</ele>
        <time>2016-04-24T09:14:54Z</time>
      </trkpt>
      <trkpt lat="49.52399" lon="0.76133">
        <ele>47.5</ele>
        <time>2016-04-24T09:15:03Z</time>
      </trkpt>
      <trkpt lat="49.5239" lon="0.76136">
        <ele>48.7</ele>
        <time>2016-04-24T09:15:12Z</time>
      </trkpt>
      <trkpt lat="49.52381" lon="0.76136">
        <ele>49.8</ele>
        <time>2016-04-24T09:15:21Z</time>
      </trkpt>
      <trkpt lat="49.52371" lon="0.76139">
        <ele>51</ele>
        <time>2016-04-24T09:15:31Z</time>
      </trkpt>
      <trkpt lat="49.52362" lon="0.76142">
        <ele>52.1</ele>
        <time>2016-04-24T09:15:40Z</time>
      </trkpt>
      <trkpt lat="49.52354" lon="0.76148">
        <ele>52.8</ele>
        <time>2016-04-24T09:15:48Z</time>
      </trkpt>
      <trkpt lat="49.52345" lon="0.76151">
        <ele>53.6</ele>
        <time>2016-04-24T09:15:57Z</time>
      </trkpt>
      <trkpt lat="49.52335" lon="0.76153">
        <ele>54.7</ele>
        <time>2016-04-24T09:16:06Z</time>
      </trkpt>
      <trkpt lat="49.52326" lon="0.76152">
        <ele>55.8</ele>
        <time>2016-04-24T09:16:15Z</time>
      </trkpt>
      <trkpt lat="49.52317" lon="0.76155">
        <ele>56.7</ele>
        <time>2016-04-24T09:16:23Z</time>
      </trkpt>
      <trkpt lat="49.52308" lon="0.76161">
        <ele>57.8</ele>
        <time>2016-04-24T09:16:35Z</time>
      </trkpt>
      <trkpt lat="49.52299" lon="0.76167">
        <ele>59.4</ele>
        <time>2016-04-24T09:16:46Z</time>
      </trkpt>
      <trkpt lat="49.5229" lon="0.7617">
        <ele>60.6</ele>
        <time>2016-04-24T09:16:53Z</time>
      </trkpt>
      <trkpt lat="49.52282" lon="0.76178">
        <ele>61.8</ele>
        <time>2016-04-24T09:17:04Z</time>
      </trkpt>
      <trkpt lat="49.52274" lon="0.76185">
        <ele>63.2</ele>
        <time>2016-04-24T09:17:16Z</time>
      </trkpt>
      <trkpt lat="49.52265" lon="0.76191">
        <ele>64.2</ele>
        <time>2016-04-24T09:17:25Z</time>
      </trkpt>
      <trkpt lat="49.52256" lon="0.76195">
        <ele>65.5</ele>
        <time>2016-04-24T09:17:35Z</time>
      </trkpt>
      <trkpt lat="49.52246" lon="0.76198">
        <ele>66.9</ele>
        <time>2016-04-24T09:17:46Z</time>
      </trkpt>
      <trkpt lat="49.52238" lon="0.76205">
        <ele>68.1</ele>
        <time>2016-04-24T09:17:55Z</time>
      </trkpt>
      <trkpt lat="49.52229" lon="0.76211">
        <ele>69.2</ele>
        <time>2016-04-24T09:18:05Z</time>
      </trkpt>
      <trkpt lat="49.5222" lon="0.76217">
        <ele>69.9</ele>
        <time>2016-04-24T09:18:13Z</time>
      </trkpt>
      <trkpt lat="49.52212" lon="0.76224">
        <ele>70.8</ele>
        <time>2016-04-24T09:18:23Z</time>
      </trkpt>
      <trkpt lat="49.52205" lon="0.76232">
        <ele>71.9</ele>
        <time>2016-04-24T09:18:32Z</time>
      </trkpt>
      <trkpt lat="49.52196" lon="0.76239">
        <ele>72.9</ele>
        <time>2016-04-24T09:18:43Z</time>
      </trkpt>
      <trkpt lat="49.52187" lon="0.76245">
        <ele>73.6</ele>
        <time>2016-04-24T09:18:52Z</time>
      </trkpt>
      <trkpt lat="49.52178" lon="0.7625">
        <ele>74.2</ele>
        <time>2016-04-24T09:19:00Z</time>
      </trkpt>
      <trkpt lat="49.5217" lon="0.76255">
        <ele>75</ele>
        <time>2016-04-24T09:19:09Z</time>
      </trkpt>
      <trkpt lat="49.52161" lon="0.76262">
        <ele>76.1</ele>
        <time>2016-04-24T09:19:19Z</time>
      </trkpt>
      <trkpt lat="49.52152" lon="0.76267">
        <ele>76.9</ele>
        <time>2016-04-24T09:19:27Z</time>
      </trkpt>
      <trkpt lat="49.52142" lon="0.76273">
        <ele>77.7</ele>
        <time>2016-04-24T09:19:35Z</time>
      </trkpt>
      <trkpt lat="49.52135" lon="0.76282">
        <ele>78.4</ele>
        <time>2016-04-24T09:19:43Z</time>
      </trkpt>
      <trkpt lat="49.52126" lon="0.7629">
        <ele>79.4</ele>
        <time>2016-04-24T09:19:52Z</time>
      </trkpt>
      <trkpt lat="49.52119" lon="0.763">
        <ele>80.3</ele>
        <time>2016-04-24T09:20:00Z</time>
      </trkpt>
      <trkpt lat="49.52112" lon="0.76312">
        <ele>81.2</ele>
        <time>2016-04-24T09:20:08Z</time>
      </trkpt>
      <trkpt lat="49.52105" lon="0.76322">
        <ele>82.1</ele>
        <time>2016-04-24T09:20:17Z</time>
      </trkpt>
      <trkpt lat="49.52098" lon="0.76332">
        <ele>82.7</ele>
        <time>2016-04-24T09:20:24Z</time>
      </trkpt>
      <trkpt lat="49.52091" lon="0.76342">
        <ele>83.4</ele>
        <time>2016-04-24T09:20:32Z</time>
      </trkpt>
      <trkpt lat="49.52086" lon="0.76355">
        <ele>83.9</ele>
        <time>2016-04-24T09:20:42Z</time>
      </trkpt>
      <trkpt lat="49.52081" lon="0.76368">
        <ele>84.5</ele>
        <time>2016-04-24T09:20:52Z</time>
      </trkpt>
      <trkpt lat="49.52076" lon="0.76381">
        <ele>85.1</ele>
        <time>2016-04-24T09:21:00Z</time>
      </trkpt>
      <trkpt lat="49.5207" lon="0.76392">
        <ele>85.5</ele>
        <time>2016-04-24T09:21:07Z</time>
      </trkpt>
      <trkpt lat="49.52064" lon="0.76404">
        <ele>86.1</ele>
        <time>2016-04-24T09:21:15Z</time>
      </trkpt>
      <trkpt lat="49.5206" lon="0.76418">
        <ele>86.5</ele>
        <time>2016-04-24T09:21:22Z</time>
      </trkpt>
      <trkpt lat="49.52054" lon="0.7643">
        <ele>86.8</ele>
        <time>2016-04-24T09:21:29Z</time>
      </trkpt>
      <trkpt lat="49.52048" lon="0.76441">
        <ele>87.2</ele>
        <time>2016-04-24T09:21:36Z</time>
      </trkpt>
      <trkpt lat="49.52042" lon="0.76453">
        <ele>87.6</ele>
        <time>2016-04-24T09:21:43Z</time>
      </trkpt>
      <trkpt lat="49.52037" lon="0.76464">
        <ele>88</ele>
        <time>2016-04-24T09:21:49Z</time>
      </trkpt>
      <trkpt lat="49.52031" lon="0.76479">
        <ele>88.3</ele>
        <time>2016-04-24T09:21:55Z</time>
      </trkpt>
      <trkpt lat="49.52025" lon="0.7649">
        <ele>88.7</ele>
        <time>2016-04-24T09:22:00Z</time>
      </trkpt>
      <trkpt lat="49.52019" lon="0.76505">
        <ele>88.9</ele>
        <time>2016-04-24T09:22:05Z</time>
      </trkpt>
      <trkpt lat="49.52014" lon="0.76516">
        <ele>89.2</ele>
        <time>2016-04-24T09:22:09Z</time>
      </trkpt>
      <trkpt lat="49.52008" lon="0.76529">
        <ele>89.6</ele>
        <time>2016-04-24T09:22:15Z</time>
      </trkpt>
      <trkpt lat="49.52003" lon="0.76544">
        <ele>90.2</ele>
        <time>2016-04-24T09:22:22Z</time>
      </trkpt>
      <trkpt lat="49.51998" lon="0.76559">
        <ele>90.6</ele>
        <time>2016-04-24T09:22:28Z</time>
      </trkpt>
      <trkpt lat="49.51993" lon="0.7657">
        <ele>90.8</ele>
        <time>2016-04-24T09:22:32Z</time>
      </trkpt>
      <trkpt lat="49.51989" lon="0.76585">
        <ele>91</ele>
        <time>2016-04-24T09:22:37Z</time>
      </trkpt>
      <trkpt lat="49.51983" lon="0.76598">
        <ele>91.1</ele>
        <time>2016-04-24T09:22:42Z</time>
      </trkpt>
      <trkpt lat="49.51978" lon="0.76612">
        <ele>91.3</ele>
        <time>2016-04-24T09:22:47Z</time>
      </trkpt>
      <trkpt lat="49.51971" lon="0.76626">
        <ele>91.5</ele>
        <time>2016-04-24T09:22:52Z</time>
      </trkpt>
      <trkpt lat="49.51966" lon="0.76638">
        <ele>91.8</ele>
        <time>2016-04-24T09:22:57Z</time>
      </trkpt>
      <trkpt lat="49.51959" lon="0.7665">
        <ele>92.1</ele>
        <time>2016-04-24T09:23:03Z</time>
      </trkpt>
      <trkpt lat="49.51953" lon="0.7666">
        <ele>92.3</ele>
        <time>2016-04-24T09:23:07Z</time>
      </trkpt>
      <trkpt lat="49.51945" lon="0.76669">
        <ele>92.4</ele>
        <time>2016-04-24T09:23:11Z</time>
      </trkpt>
      <trkpt lat="49.51938" lon="0.76681">
        <ele>92.3</ele>
        <time>2016-04-24T09:23:14Z</time>
      </trkpt>
      <trkpt lat="49.51932" lon="0.76695">
        <ele>92.3</ele>
        <time>2016-04-24T09:23:17Z</time>
      </trkpt>
      <trkpt lat="49.51926" lon="0.76706">
        <ele>91.9</ele>
        <time>2016-04-24T09:23:20Z</time>
      </trkpt>
      <trkpt lat="49.5192" lon="0.76716">
        <ele>91.6</ele>
        <time>2016-04-24T09:23:23Z</time>
      </trkpt>
      <trkpt lat="49.51913" lon="0.76729">
        <ele>91.3</ele>
        <time>2016-04-24T09:23:26Z</time>
      </trkpt>
      <trkpt lat="49.51906" lon="0.76743">
        <ele>91</ele>
        <time>2016-04-24T09:23:29Z</time>
      </trkpt>
      <trkpt lat="49.519" lon="0.76753">
        <ele>90.8</ele>
        <time>2016-04-24T09:23:31Z</time>
      </trkpt>
      <trkpt lat="49.51892" lon="0.76765">
        <ele>90.3</ele>
        <time>2016-04-24T09:23:34Z</time>
      </trkpt>
      <trkpt lat="49.51883" lon="0.76779">
        <ele>89.9</ele>
        <time>2016-04-24T09:23:37Z</time>
      </trkpt>
      <trkpt lat="49.51878" lon="0.76793">
        <ele>89.4</ele>
        <time>2016-04-24T09:23:40Z</time>
      </trkpt>
      <trkpt lat="49.51877" lon="0.76809">
        <ele>88.5</ele>
        <time>2016-04-24T09:23:45Z</time>
      </trkpt>
      <trkpt lat="49.51871" lon="0.76822">
        <ele>87.2</ele>
        <time>2016-04-24T09:23:52Z</time>
      </trkpt>
      <trkpt lat="49.51863" lon="0.76828">
        <ele>86.6</ele>
        <time>2016-04-24T09:23:56Z</time>
      </trkpt>
      <trkpt lat="49.51856" lon="0.76842">
        <ele>86</ele>
        <time>2016-04-24T09:23:59Z</time>
      </trkpt>
      <trkpt lat="49.51849" lon="0.76856">
        <ele>85.4</ele>
        <time>2016-04-24T09:24:02Z</time>
      </trkpt>
      <trkpt lat="49.51846" lon="0.76869">
        <ele>85</ele>
        <time>2016-04-24T09:24:06Z</time>
      </trkpt>
      <trkpt lat="49.51841" lon="0.76881">
        <ele>84.1</ele>
        <time>2016-04-24T09:24:12Z</time>
      </trkpt>
      <trkpt lat="49.5184" lon="0.76895">
        <ele>83.2</ele>
        <time>2016-04-24T09:24:37Z</time>
      </trkpt>
      <trkpt lat="49.51832" lon="0.76906">
        <ele>83.2</ele>
        <time>2016-04-24T09:24:47Z</time>
      </trkpt>
      <trkpt lat="49.51825" lon="0.76919">
        <ele>83.2</ele>
        <time>2016-04-24T09:24:53Z</time>
      </trkpt>
      <trkpt lat="49.51819" lon="0.7693">
        <ele>83.1</ele>
        <time>2016-04-24T09:24:58Z</time>
      </trkpt>
      <trkpt lat="49.51811" lon="0.76941">
        <ele>83.1</ele>
        <time>2016-04-24T09:25:03Z</time>
      </trkpt>
      <trkpt lat="49.51805" lon="0.76953">
        <ele>83.1</ele>
        <time>2016-04-24T09:25:08Z</time>
      </trkpt>
      <trkpt lat="49.51798" lon="0.76964">
        <ele>83.1</ele>
        <time>2016-04-24T09:25:14Z</time>
      </trkpt>
      <trkpt lat="49.51792" lon="0.76974">
        <ele>83.1</ele>
        <time>2016-04-24T09:25:20Z</time>
      </trkpt>
      <trkpt lat="49.51784" lon="0.76982">
        <ele>83.3</ele>
        <time>2016-04-24T09:25:26Z</time>
      </trkpt>
      <trkpt lat="49.51777" lon="0.76994">
        <ele>83.6</ele>
        <time>2016-04-24T09:25:34Z</time>
      </trkpt>
      <trkpt lat="49.5177" lon="0.77006">
        <ele>84</ele>
        <time>2016-04-24T09:25:41Z</time>
      </trkpt>
      <trkpt lat="49.51763" lon="0.77017">
        <ele>86.2</ele>
        <time>2016-04-24T09:26:14Z</time>
      </trkpt>
      <trkpt lat="49.51756" lon="0.77028">
        <ele>86.5</ele>
        <time>2016-04-24T09:26:20Z</time>
      </trkpt>
      <trkpt lat="49.51749" lon="0.7704">
        <ele>87.3</ele>
        <time>2016-04-24T09:26:33Z</time>
      </trkpt>
      <trkpt lat="49.51745" lon="0.77052">
        <ele>88.3</ele>
        <time>2016-04-24T09:26:43Z</time>
      </trkpt>
      <trkpt lat="49.51748" lon="0.77066">
        <ele>90.1</ele>
        <time>2016-04-24T09:26:58Z</time>
      </trkpt>
      <trkpt lat="49.51739" lon="0.77071">
        <ele>90.8</ele>
        <time>2016-04-24T09:27:06Z</time>
      </trkpt>
      <trkpt lat="49.5174" lon="0.77085">
        <ele>91.4</ele>
        <time>2016-04-24T09:27:17Z</time>
      </trkpt>
      <trkpt lat="49.51735" lon="0.77097">
        <ele>92</ele>
        <time>2016-04-24T09:27:27Z</time>
      </trkpt>
      <trkpt lat="49.51728" lon="0.77107">
        <ele>92.6</ele>
        <time>2016-04-24T09:27:41Z</time>
      </trkpt>
      <trkpt lat="49.51723" lon="0.7712">
        <ele>92.9</ele>
        <time>2016-04-24T09:27:50Z</time>
      </trkpt>
      <trkpt lat="49.51715" lon="0.7713">
        <ele>92.9</ele>
        <time>2016-04-24T09:27:56Z</time>
      </trkpt>
      <trkpt lat="49.5171" lon="0.77142">
        <ele>93.2</ele>
        <time>2016-04-24T09:28:03Z</time>
      </trkpt>
      <trkpt lat="49.51704" lon="0.77154">
        <ele>93.6</ele>
        <time>2016-04-24T09:28:12Z</time>
      </trkpt>
      <trkpt lat="49.51698" lon="0.77168">
        <ele>93.9</ele>
        <time>2016-04-24T09:28:18Z</time>
      </trkpt>
      <trkpt lat="49.51693" lon="0.77181">
        <ele>94.2</ele>
        <time>2016-04-24T09:28:23Z</time>
      </trkpt>
      <trkpt lat="49.51687" lon="0.77192">
        <ele>94.5</ele>
        <time>2016-04-24T09:28:29Z</time>
      </trkpt>
      <trkpt lat="49.51679" lon="0.77201">
        <ele>94.8</ele>
        <time>2016-04-24T09:28:34Z</time>
      </trkpt>
      <trkpt lat="49.51674" lon="0.77213">
        <ele>95.3</ele>
        <time>2016-04-24T09:28:40Z</time>
      </trkpt>
      <trkpt lat="49.5167" lon="0.77227">
        <ele>95.7</ele>
        <time>2016-04-24T09:28:45Z</time>
      </trkpt>
      <trkpt lat="49.51665" lon="0.7724">
        <ele>96.3</ele>
        <time>2016-04-24T09:28:51Z</time>
      </trkpt>
      <trkpt lat="49.51658" lon="0.77252">
        <ele>96.9</ele>
        <time>2016-04-24T09:28:57Z</time>
      </trkpt>
      <trkpt lat="49.5165" lon="0.7726">
        <ele>97.5</ele>
        <time>2016-04-24T09:29:03Z</time>
      </trkpt>
      <trkpt lat="49.51642" lon="0.77268">
        <ele>97.9</ele>
        <time>2016-04-24T09:29:08Z</time>
      </trkpt>
      <trkpt lat="49.51635" lon="0.7728">
        <ele>98.1</ele>
        <time>2016-04-24T09:29:13Z</time>
      </trkpt>
      <trkpt lat="49.51632" lon="0.77294">
        <ele>98.5</ele>
        <time>2016-04-24T09:29:19Z</time>
      </trkpt>
      <trkpt lat="49.51629" lon="0.77309">
        <ele>99.3</ele>
        <time>2016-04-24T09:29:26Z</time>
      </trkpt>
      <trkpt lat="49.51627" lon="0.77323">
        <ele>100.2</ele>
        <time>2016-04-24T09:29:34Z</time>
      </trkpt>
      <trkpt lat="49.51623" lon="0.77336">
        <ele>100.8</ele>
        <time>2016-04-24T09:29:41Z</time>
      </trkpt>
      <trkpt lat="49.51618" lon="0.7735">
        <ele>101.3</ele>
        <time>2016-04-24T09:29:48Z</time>
      </trkpt>
      <trkpt lat="49.51612" lon="0.7736">
        <ele>101.9</ele>
        <time>2016-04-24T09:29:56Z</time>
      </trkpt>
      <trkpt lat="49.51607" lon="0.77373">
        <ele>102.2</ele>
        <time>2016-04-24T09:30:01Z</time>
      </trkpt>
      <trkpt lat="49.51603" lon="0.7739">
        <ele>102.4</ele>
        <time>2016-04-24T09:30:06Z</time>
      </trkpt>
      <trkpt lat="49.516" lon="0.77405">
        <ele>102.5</ele>
        <time>2016-04-24T09:30:11Z</time>
      </trkpt>
      <trkpt lat="49.51596" lon="0.7742">
        <ele>102.6</ele>
        <time>2016-04-24T09:30:15Z</time>
      </trkpt>
      <trkpt lat="49.51591" lon="0.77436">
        <ele>102.6</ele>
        <time>2016-04-24T09:30:18Z</time>
      </trkpt>
      <trkpt lat="49.51585" lon="0.7745">
        <ele>102.6</ele>
        <time>2016-04-24T09:30:22Z</time>
      </trkpt>
      <trkpt lat="49.51578" lon="0.77464">
        <ele>102.5</ele>
        <time>2016-04-24T09:30:26Z</time>
      </trkpt>
      <trkpt lat="49.51572" lon="0.77475">
        <ele>102.4</ele>
        <time>2016-04-24T09:30:29Z</time>
      </trkpt>
      <trkpt lat="49.51564" lon="0.77488">
        <ele>102.2</ele>
        <time>2016-04-24T09:30:33Z</time>
      </trkpt>
      <trkpt lat="49.51556" lon="0.77502">
        <ele>102</ele>
        <time>2016-04-24T09:30:37Z</time>
      </trkpt>
      <trkpt lat="49.51548" lon="0.77513">
        <ele>101.7</ele>
        <time>2016-04-24T09:30:40Z</time>
      </trkpt>
      <trkpt lat="49.51539" lon="0.77525">
        <ele>101.5</ele>
        <time>2016-04-24T09:30:43Z</time>
      </trkpt>
      <trkpt lat="49.51531" lon="0.77538">
        <ele>101.2</ele>
        <time>2016-04-24T09:30:47Z</time>
      </trkpt>
      <trkpt lat="49.51526" lon="0.77554">
        <ele>101</ele>
        <time>2016-04-24T09:30:51Z</time>
      </trkpt>
      <trkpt lat="49.51525" lon="0.7757">
        <ele>100.9</ele>
        <time>2016-04-24T09:30:55Z</time>
      </trkpt>
      <trkpt lat="49.51523" lon="0.77585">
        <ele>100.7</ele>
        <time>2016-04-24T09:30:59Z</time>
      </trkpt>
      <trkpt lat="49.51524" lon="0.776">
        <ele>100.6</ele>
        <time>2016-04-24T09:31:04Z</time>
      </trkpt>
      <trkpt lat="49.51523" lon="0.77615">
        <ele>100.6</ele>
        <time>2016-04-24T09:31:09Z</time>
      </trkpt>
      <trkpt lat="49.51524" lon="0.77631">
        <ele>100.6</ele>
        <time>2016-04-24T09:31:13Z</time>
      </trkpt>
      <trkpt lat="49.51524" lon="0.77647">
        <ele>100.8</ele>
        <time>2016-04-24T09:31:17Z</time>
      </trkpt>
      <trkpt lat="49.51525" lon="0.77664">
        <ele>101</ele>
        <time>2016-04-24T09:31:22Z</time>
      </trkpt>
      <trkpt lat="49.51526" lon="0.77681">
        <ele>101.3</ele>
        <time>2016-04-24T09:31:27Z</time>
      </trkpt>
      <trkpt lat="49.51526" lon="0.77696">
        <ele>101.6</ele>
        <time>2016-04-24T09:31:32Z</time>
      </trkpt>
      <trkpt lat="49.51525" lon="0.7771">
        <ele>102.2</ele>
        <time>2016-04-24T09:31:37Z</time>
      </trkpt>
      <trkpt lat="49.51523" lon="0.77726">
        <ele>102.8</ele>
        <time>2016-04-24T09:31:43Z</time>
      </trkpt>
      <trkpt lat="49.51521" lon="0.77743">
        <ele>103.1</ele>
        <time>2016-04-24T09:31:48Z</time>
      </trkpt>
      <trkpt lat="49.51519" lon="0.77756">
        <ele>103.4</ele>
        <time>2016-04-24T09:31:52Z</time>
      </trkpt>
      <trkpt lat="49.51516" lon="0.77771">
        <ele>103.8</ele>
        <time>2016-04-24T09:31:58Z</time>
      </trkpt>
      <trkpt lat="49.51511" lon="0.77787">
        <ele>104.4</ele>
        <time>2016-04-24T09:32:04Z</time>
      </trkpt>
      <trkpt lat="49.5151" lon="0.77803">
        <ele>104.9</ele>
        <time>2016-04-24T09:32:10Z</time>
      </trkpt>
      <trkpt lat="49.51509" lon="0.77817">
        <ele>105.5</ele>
        <time>2016-04-24T09:32:16Z</time>
      </trkpt>
      <trkpt lat="49.51505" lon="0.77831">
        <ele>105.8</ele>
        <time>2016-04-24T09:32:21Z</time>
      </trkpt>
      <trkpt lat="49.51501" lon="0.77844">
        <ele>106.3</ele>
        <time>2016-04-24T09:32:27Z</time>
      </trkpt>
      <trkpt lat="49.51496" lon="0.77856">
        <ele>106.6</ele>
        <time>2016-04-24T09:32:32Z</time>
      </trkpt>
      <trkpt lat="49.51493" lon="0.7787">
        <ele>107.1</ele>
        <time>2016-04-24T09:32:38Z</time>
      </trkpt>
      <trkpt lat="49.51495" lon="0.77885">
        <ele>107.5</ele>
        <time>2016-04-24T09:32:45Z</time>
      </trkpt>
      <trkpt lat="49.51494" lon="0.77899">
        <ele>108</ele>
        <time>2016-04-24T09:32:52Z</time>
      </trkpt>
      <trkpt lat="49.51493" lon="0.77916">
        <ele>108.3</ele>
        <time>2016-04-24T09:32:58Z</time>
      </trkpt>
      <trkpt lat="49.51491" lon="0.77931">
        <ele>108.5</ele>
        <time>2016-04-24T09:33:03Z</time>
      </trkpt>
      <trkpt lat="49.51491" lon="0.77945">
        <ele>108.7</ele>
        <time>2016-04-24T09:33:08Z</time>
      </trkpt>
      <trkpt lat="49.5149" lon="0.77958">
        <ele>108.9</ele>
        <time>2016-04-24T09:33:14Z</time>
      </trkpt>
      <trkpt lat="49.51487" lon="0.77973">
        <ele>109</ele>
        <time>2016-04-24T09:33:21Z</time>
      </trkpt>
      <trkpt lat="49.51482" lon="0.77986">
        <ele>109.2</ele>
        <time>2016-04-24T09:33:27Z</time>
      </trkpt>
      <trkpt lat="49.51479" lon="0.78">
        <ele>109.7</ele>
        <time>2016-04-24T09:33:35Z</time>
      </trkpt>
      <trkpt lat="49.51474" lon="0.78013">
        <ele>110.1</ele>
        <time>2016-04-24T09:33:41Z</time>
      </trkpt>
      <trkpt lat="49.51469" lon="0.78025">
        <ele>110.3</ele>
        <time>2016-04-24T09:33:46Z</time>
      </trkpt>
      <trkpt lat="49.51465" lon="0.78039">
        <ele>110.5</ele>
        <time>2016-04-24T09:33:51Z</time>
      </trkpt>
      <trkpt lat="49.51462" lon="0.78053">
        <ele>110.6</ele>
        <time>2016-04-24T09:33:56Z</time>
      </trkpt>
      <trkpt lat="49.51459" lon="0.78066">
        <ele>111.1</ele>
        <time>2016-04-24T09:34:02Z</time>
      </trkpt>
      <trkpt lat="49.51455" lon="0.78081">
        <ele>111.4</ele>
        <time>2016-04-24T09:34:09Z</time>
      </trkpt>
      <trkpt lat="49.51452" lon="0.78095">
        <ele>111.6</ele>
        <time>2016-04-24T09:34:15Z</time>
      </trkpt>
      <trkpt lat="49.51449" lon="0.7811">
        <ele>111.8</ele>
        <time>2016-04-24T09:34:21Z</time>
      </trkpt>
      <trkpt lat="49.51448" lon="0.78125">
        <ele>112.1</ele>
        <time>2016-04-24T09:34:28Z</time>
      </trkpt>
      <trkpt lat="49.51443" lon="0.78138">
        <ele>112.5</ele>
        <time>2016-04-24T09:34:33Z</time>
      </trkpt>
      <trkpt lat="49.51439" lon="0.78152">
        <ele>112.7</ele>
        <time>2016-04-24T09:34:39Z</time>
      </trkpt>
      <trkpt lat="49.51438" lon="0.78166">
        <ele>113</ele>
        <time>2016-04-24T09:34:45Z</time>
      </trkpt>
      <trkpt lat="49.5144" lon="0.7818">
        <ele>113.1</ele>
        <time>2016-04-24T09:34:50Z</time>
      </trkpt>
      <trkpt lat="49.51443" lon="0.78196">
        <ele>113.4</ele>
        <time>2016-04-24T09:34:56Z</time>
      </trkpt>
      <trkpt lat="49.51445" lon="0.7821">
        <ele>113.5</ele>
        <time>2016-04-24T09:35:01Z</time>
      </trkpt>
      <trkpt lat="49.51448" lon="0.78226">
        <ele>113.9</ele>
        <time>2016-04-24T09:35:08Z</time>
      </trkpt>
      <trkpt lat="49.51449" lon="0.78241">
        <ele>114.3</ele>
        <time>2016-04-24T09:35:14Z</time>
      </trkpt>
      <trkpt lat="49.51447" lon="0.78255">
        <ele>114.5</ele>
        <time>2016-04-24T09:35:19Z</time>
      </trkpt>
      <trkpt lat="49.51444" lon="0.78269">
        <ele>114.6</ele>
        <time>2016-04-24T09:35:24Z</time>
      </trkpt>
      <trkpt lat="49.51442" lon="0.78284">
        <ele>114.7</ele>
        <time>2016-04-24T09:35:30Z</time>
      </trkpt>
      <trkpt lat="49.5144" lon="0.78299">
        <ele>114.7</ele>
        <time>2016-04-24T09:35:36Z</time>
      </trkpt>
      <trkpt lat="49.51435" lon="0.78313">
        <ele>114.8</ele>
        <time>2016-04-24T09:35:41Z</time>
      </trkpt>
      <trkpt lat="49.51429" lon="0.78327">
        <ele>114.8</ele>
        <time>2016-04-24T09:35:46Z</time>
      </trkpt>
      <trkpt lat="49.51423" lon="0.78339">
        <ele>114.9</ele>
        <time>2016-04-24T09:35:51Z</time>
      </trkpt>
      <trkpt lat="49.51416" lon="0.7835">
        <ele>115</ele>
        <time>2016-04-24T09:35:57Z</time>
      </trkpt>
      <trkpt lat="49.51409" lon="0.7836">
        <ele>115.1</ele>
        <time>2016-04-24T09:36:02Z</time>
      </trkpt>
      <trkpt lat="49.51401" lon="0.78371">
        <ele>115.2</ele>
        <time>2016-04-24T09:36:08Z</time>
      </trkpt>
      <trkpt lat="49.51395" lon="0.78385">
        <ele>115.2</ele>
        <time>2016-04-24T09:36:14Z</time>
      </trkpt>
      <trkpt lat="49.51393" lon="0.784">
        <ele>115.4</ele>
        <time>2016-04-24T09:36:20Z</time>
      </trkpt>
      <trkpt lat="49.5139" lon="0.78414">
        <ele>115.6</ele>
        <time>2016-04-24T09:36:28Z</time>
      </trkpt>
      <trkpt lat="49.51383" lon="0.78424">
        <ele>115.7</ele>
        <time>2016-04-24T09:36:35Z</time>
      </trkpt>
      <trkpt lat="49.51375" lon="0.78433">
        <ele>115.8</ele>
        <time>2016-04-24T09:36:41Z</time>
      </trkpt>
      <trkpt lat="49.51367" lon="0.78444">
        <ele>115.9</ele>
        <time>2016-04-24T09:36:47Z</time>
      </trkpt>
      <trkpt lat="49.51361" lon="0.78455">
        <ele>115.9</ele>
        <time>2016-04-24T09:36:51Z</time>
      </trkpt>
      <trkpt lat="49.51354" lon="0.78468">
        <ele>115.9</ele>
        <time>2016-04-24T09:36:55Z</time>
      </trkpt>
      <trkpt lat="49.51346" lon="0.78477">
        <ele>115.9</ele>
        <time>2016-04-24T09:36:58Z</time>
      </trkpt>
      <trkpt lat="49.51339" lon="0.78487">
        <ele>116</ele>
        <time>2016-04-24T09:37:01Z</time>
      </trkpt>
      <trkpt lat="49.51331" lon="0.78498">
        <ele>116</ele>
        <time>2016-04-24T09:37:04Z</time>
      </trkpt>
      <trkpt lat="49.51323" lon="0.78508">
        <ele>116</ele>
        <time>2016-04-24T09:37:07Z</time>
      </trkpt>
      <trkpt lat="49.51315" lon="0.78518">
        <ele>116</ele>
        <time>2016-04-24T09:37:10Z</time>
      </trkpt>
      <trkpt lat="49.51306" lon="0.7853">
        <ele>115.9</ele>
        <time>2016-04-24T09:37:13Z</time>
      </trkpt>
      <trkpt lat="49.51297" lon="0.78542">
        <ele>115.8</ele>
        <time>2016-04-24T09:37:16Z</time>
      </trkpt>
      <trkpt lat="49.51288" lon="0.78554">
        <ele>115.5</ele>
        <time>2016-04-24T09:37:19Z</time>
      </trkpt>
      <trkpt lat="49.51281" lon="0.78566">
        <ele>115.2</ele>
        <time>2016-04-24T09:37:22Z</time>
      </trkpt>
      <trkpt lat="49.51276" lon="0.78578">
        <ele>115.1</ele>
        <time>2016-04-24T09:37:25Z</time>
      </trkpt>
      <trkpt lat="49.5127" lon="0.78594">
        <ele>115</ele>
        <time>2016-04-24T09:37:28Z</time>
      </trkpt>
      <trkpt lat="49.51266" lon="0.78613">
        <ele>115</ele>
        <time>2016-04-24T09:37:31Z</time>
      </trkpt>
      <trkpt lat="49.51257" lon="0.78616">
        <ele>114.9</ele>
        <time>2016-04-24T09:37:41Z</time>
      </trkpt>
      <trkpt lat="49.51251" lon="0.78603">
        <ele>114.3</ele>
        <time>2016-04-24T09:38:20Z</time>
      </trkpt>
      <trkpt lat="49.51248" lon="0.78586">
        <ele>113.9</ele>
        <time>2016-04-24T09:38:24Z</time>
      </trkpt>
      <trkpt lat="49.51245" lon="0.78573">
        <ele>113.5</ele>
        <time>2016-04-24T09:38:28Z</time>
      </trkpt>
      <trkpt lat="49.51243" lon="0.78557">
        <ele>113</ele>
        <time>2016-04-24T09:38:32Z</time>
      </trkpt>
      <trkpt lat="49.5124" lon="0.78543">
        <ele>112.1</ele>
        <time>2016-04-24T09:38:37Z</time>
      </trkpt>
      <trkpt lat="49.51237" lon="0.78529">
        <ele>111</ele>
        <time>2016-04-24T09:38:42Z</time>
      </trkpt>
      <trkpt lat="49.51232" lon="0.78516">
        <ele>109.8</ele>
        <time>2016-04-24T09:38:47Z</time>
      </trkpt>
      <trkpt lat="49.51229" lon="0.78502">
        <ele>108.8</ele>
        <time>2016-04-24T09:38:51Z</time>
      </trkpt>
      <trkpt lat="49.51228" lon="0.78487">
        <ele>108</ele>
        <time>2016-04-24T09:38:54Z</time>
      </trkpt>
      <trkpt lat="49.51228" lon="0.78471">
        <ele>107</ele>
        <time>2016-04-24T09:38:57Z</time>
      </trkpt>
      <trkpt lat="49.5123" lon="0.78458">
        <ele>105.3</ele>
        <time>2016-04-24T09:39:01Z</time>
      </trkpt>
      <trkpt lat="49.5123" lon="0.78443">
        <ele>103.8</ele>
        <time>2016-04-24T09:39:05Z</time>
      </trkpt>
      <trkpt lat="49.51229" lon="0.78428">
        <ele>102.8</ele>
        <time>2016-04-24T09:39:08Z</time>
      </trkpt>
      <trkpt lat="49.5123" lon="0.78413">
        <ele>101.4</ele>
        <time>2016-04-24T09:39:11Z</time>
      </trkpt>
      <trkpt lat="49.51227" lon="0.78397">
        <ele>99.6</ele>
        <time>2016-04-24T09:39:15Z</time>
      </trkpt>
      <trkpt lat="49.51226" lon="0.78381">
        <ele>98.1</ele>
        <time>2016-04-24T09:39:18Z</time>
      </trkpt>
      <trkpt lat="49.51226" lon="0.78365">
        <ele>96.8</ele>
        <time>2016-04-24T09:39:21Z</time>
      </trkpt>
      <trkpt lat="49.51229" lon="0.78348">
        <ele>95.3</ele>
        <time>2016-04-24T09:39:24Z</time>
      </trkpt>
      <trkpt lat="49.51228" lon="0.78333">
        <ele>93.9</ele>
        <time>2016-04-24T09:39:27Z</time>
      </trkpt>
      <trkpt lat="49.51227" lon="0.78318">
        <ele>92.1</ele>
        <time>2016-04-24T09:39:31Z</time>
      </trkpt>
      <trkpt lat="49.51226" lon="0.78302">
        <ele>90.2</ele>
        <time>2016-04-24T09:39:35Z</time>
      </trkpt>
      <trkpt lat="49.51225" lon="0.78287">
        <ele>89.1</ele>
        <time>2016-04-24T09:39:37Z</time>
      </trkpt>
      <trkpt lat="49.51223" lon="0.78273">
        <ele>88.2</ele>
        <time>2016-04-24T09:39:39Z</time>
      </trkpt>
      <trkpt lat="49.51219" lon="0.78257">
        <ele>86.9</ele>
        <time>2016-04-24T09:39:42Z</time>
      </trkpt>
      <trkpt lat="49.51216" lon="0.78241">
        <ele>85.4</ele>
        <time>2016-04-24T09:39:46Z</time>
      </trkpt>
      <trkpt lat="49.51213" lon="0.78228">
        <ele>80.8</ele>
        <time>2016-04-24T09:39:59Z</time>
      </trkpt>
      <trkpt lat="49.51212" lon="0.78211">
        <ele>78</ele>
        <time>2016-04-24T09:40:22Z</time>
      </trkpt>
      <trkpt lat="49.51212" lon="0.78196">
        <ele>77.5</ele>
        <time>2016-04-24T09:40:25Z</time>
      </trkpt>
      <trkpt lat="49.51209" lon="0.78179">
        <ele>76.8</ele>
        <time>2016-04-24T09:40:29Z</time>
      </trkpt>
      <trkpt lat="49.51205" lon="0.78162">
        <ele>76.1</ele>
        <time>2016-04-24T09:40:33Z</time>
      </trkpt>
      <trkpt lat="49.51198" lon="0.78151">
        <ele>75.5</ele>
        <time>2016-04-24T09:40:38Z</time>
      </trkpt>
      <trkpt lat="49.5119" lon="0.7814">
        <ele>75.1</ele>
        <time>2016-04-24T09:40:43Z</time>
      </trkpt>
      <trkpt lat="49.51183" lon="0.78129">
        <ele>74.6</ele>
        <time>2016-04-24T09:40:47Z</time>
      </trkpt>
      <trkpt lat="49.51176" lon="0.78118">
        <ele>74.1</ele>
        <time>2016-04-24T09:40:50Z</time>
      </trkpt>
      <trkpt lat="49.51166" lon="0.78109">
        <ele>73.7</ele>
        <time>2016-04-24T09:40:55Z</time>
      </trkpt>
      <trkpt lat="49.51157" lon="0.78099">
        <ele>73.5</ele>
        <time>2016-04-24T09:40:59Z</time>
      </trkpt>
      <trkpt lat="49.5115" lon="0.78089">
        <ele>73.5</ele>
        <time>2016-04-24T09:41:04Z</time>
      </trkpt>
      <trkpt lat="49.51142" lon="0.78078">
        <ele>73.6</ele>
        <time>2016-04-24T09:41:09Z</time>
      </trkpt>
      <trkpt lat="49.51133" lon="0.78075">
        <ele>73.7</ele>
        <time>2016-04-24T09:41:14Z</time>
      </trkpt>
      <trkpt lat="49.51124" lon="0.7808">
        <ele>74.3</ele>
        <time>2016-04-24T09:41:24Z</time>
      </trkpt>
      <trkpt lat="49.51117" lon="0.78091">
        <ele>75.4</ele>
        <time>2016-04-24T09:41:35Z</time>
      </trkpt>
      <trkpt lat="49.5111" lon="0.78104">
        <ele>75.8</ele>
        <time>2016-04-24T09:41:39Z</time>
      </trkpt>
      <trkpt lat="49.51102" lon="0.78112">
        <ele>76.6</ele>
        <time>2016-04-24T09:41:46Z</time>
      </trkpt>
      <trkpt lat="49.51094" lon="0.78122">
        <ele>77.3</ele>
        <time>2016-04-24T09:41:53Z</time>
      </trkpt>
      <trkpt lat="49.51087" lon="0.7813">
        <ele>77.9</ele>
        <time>2016-04-24T09:42:00Z</time>
      </trkpt>
      <trkpt lat="49.5108" lon="0.78141">
        <ele>78.4</ele>
        <time>2016-04-24T09:42:07Z</time>
      </trkpt>
      <trkpt lat="49.51072" lon="0.78149">
        <ele>78.6</ele>
        <time>2016-04-24T09:42:13Z</time>
      </trkpt>
      <trkpt lat="49.51066" lon="0.78161">
        <ele>79</ele>
        <time>2016-04-24T09:42:21Z</time>
      </trkpt>
      <trkpt lat="49.51058" lon="0.78173">
        <ele>79.4</ele>
        <time>2016-04-24T09:42:28Z</time>
      </trkpt>
      <trkpt lat="49.51051" lon="0.78182">
        <ele>80</ele>
        <time>2016-04-24T09:42:35Z</time>
      </trkpt>
      <trkpt lat="49.51047" lon="0.78196">
        <ele>80.3</ele>
        <time>2016-04-24T09:42:40Z</time>
      </trkpt>
      <trkpt lat="49.51039" lon="0.78206">
        <ele>80.6</ele>
        <time>2016-04-24T09:42:48Z</time>
      </trkpt>
      <trkpt lat="49.51034" lon="0.7822">
        <ele>80.9</ele>
        <time>2016-04-24T09:42:54Z</time>
      </trkpt>
      <trkpt lat="49.51029" lon="0.78233">
        <ele>81.2</ele>
        <time>2016-04-24T09:43:01Z</time>
      </trkpt>
      <trkpt lat="49.51024" lon="0.78247">
        <ele>81.5</ele>
        <time>2016-04-24T09:43:07Z</time>
      </trkpt>
      <trkpt lat="49.5102" lon="0.78262">
        <ele>81.7</ele>
        <time>2016-04-24T09:43:12Z</time>
      </trkpt>
      <trkpt lat="49.51013" lon="0.78275">
        <ele>81.9</ele>
        <time>2016-04-24T09:43:17Z</time>
      </trkpt>
      <trkpt lat="49.51009" lon="0.78289">
        <ele>82.2</ele>
        <time>2016-04-24T09:43:22Z</time>
      </trkpt>
      <trkpt lat="49.51004" lon="0.78301">
        <ele>82.6</ele>
        <time>2016-04-24T09:43:27Z</time>
      </trkpt>
      <trkpt lat="49.50998" lon="0.78313">
        <ele>82.8</ele>
        <time>2016-04-24T09:43:31Z</time>
      </trkpt>
      <trkpt lat="49.50993" lon="0.78325">
        <ele>83</ele>
        <time>2016-04-24T09:43:35Z</time>
      </trkpt>
      <trkpt lat="49.50989" lon="0.78338">
        <ele>83.1</ele>
        <time>2016-04-24T09:43:39Z</time>
      </trkpt>
      <trkpt lat="49.50986" lon="0.78354">
        <ele>83.3</ele>
        <time>2016-04-24T09:43:44Z</time>
      </trkpt>
      <trkpt lat="49.50984" lon="0.78368">
        <ele>83.7</ele>
        <time>2016-04-24T09:43:51Z</time>
      </trkpt>
      <trkpt lat="49.50981" lon="0.78382">
        <ele>83.9</ele>
        <time>2016-04-24T09:43:56Z</time>
      </trkpt>
      <trkpt lat="49.50975" lon="0.78394">
        <ele>84</ele>
        <time>2016-04-24T09:44:01Z</time>
      </trkpt>
      <trkpt lat="49.50967" lon="0.78405">
        <ele>84</ele>
        <time>2016-04-24T09:44:06Z</time>
      </trkpt>
      <trkpt lat="49.50957" lon="0.78415">
        <ele>83.9</ele>
        <time>2016-04-24T09:44:10Z</time>
      </trkpt>
      <trkpt lat="49.50948" lon="0.78419">
        <ele>83.6</ele>
        <time>2016-04-24T09:44:12Z</time>
      </trkpt>
      <trkpt lat="49.50935" lon="0.78415">
        <ele>82.8</ele>
        <time>2016-04-24T09:44:14Z</time>
      </trkpt>
      <trkpt lat="49.50921" lon="0.78411">
        <ele>82</ele>
        <time>2016-04-24T09:44:16Z</time>
      </trkpt>
      <trkpt lat="49.50909" lon="0.7841">
        <ele>81.3</ele>
        <time>2016-04-24T09:44:18Z</time>
      </trkpt>
      <trkpt lat="49.50899" lon="0.78409">
        <ele>80.6</ele>
        <time>2016-04-24T09:44:20Z</time>
      </trkpt>
      <trkpt lat="49.5089" lon="0.78411">
        <ele>80</ele>
        <time>2016-04-24T09:44:22Z</time>
      </trkpt>
      <trkpt lat="49.50879" lon="0.78415">
        <ele>79.4</ele>
        <time>2016-04-24T09:44:24Z</time>
      </trkpt>
      <trkpt lat="49.50869" lon="0.78419">
        <ele>78.7</ele>
        <time>2016-04-24T09:44:26Z</time>
      </trkpt>
      <trkpt lat="49.50857" lon="0.78424">
        <ele>77.8</ele>
        <time>2016-04-24T09:44:28Z</time>
      </trkpt>
      <trkpt lat="49.50845" lon="0.78431">
        <ele>76.9</ele>
        <time>2016-04-24T09:44:30Z</time>
      </trkpt>
      <trkpt lat="49.50833" lon="0.78438">
        <ele>76</ele>
        <time>2016-04-24T09:44:32Z</time>
      </trkpt>
      <trkpt lat="49.50823" lon="0.78445">
        <ele>75.1</ele>
        <time>2016-04-24T09:44:34Z</time>
      </trkpt>
      <trkpt lat="49.50813" lon="0.78452">
        <ele>73.8</ele>
        <time>2016-04-24T09:44:36Z</time>
      </trkpt>
      <trkpt lat="49.50804" lon="0.78459">
        <ele>72.5</ele>
        <time>2016-04-24T09:44:38Z</time>
      </trkpt>
      <trkpt lat="49.50794" lon="0.78472">
        <ele>70.7</ele>
        <time>2016-04-24T09:44:41Z</time>
      </trkpt>
      <trkpt lat="49.50787" lon="0.78483">
        <ele>69.6</ele>
        <time>2016-04-24T09:44:43Z</time>
      </trkpt>
      <trkpt lat="49.5078" lon="0.78499">
        <ele>68</ele>
        <time>2016-04-24T09:44:46Z</time>
      </trkpt>
      <trkpt lat="49.50775" lon="0.78514">
        <ele>67</ele>
        <time>2016-04-24T09:44:48Z</time>
      </trkpt>
      <trkpt lat="49.5077" lon="0.78526">
        <ele>65.9</ele>
        <time>2016-04-24T09:44:50Z</time>
      </trkpt>
      <trkpt lat="49.50758" lon="0.78532">
        <ele>64.9</ele>
        <time>2016-04-24T09:44:52Z</time>
      </trkpt>
      <trkpt lat="49.50745" lon="0.7853">
        <ele>63.5</ele>
        <time>2016-04-24T09:44:54Z</time>
      </trkpt>
      <trkpt lat="49.50732" lon="0.78527">
        <ele>62.6</ele>
        <time>2016-04-24T09:44:56Z</time>
      </trkpt>
      <trkpt lat="49.50721" lon="0.78528">
        <ele>61.7</ele>
        <time>2016-04-24T09:44:58Z</time>
      </trkpt>
      <trkpt lat="49.50711" lon="0.78532">
        <ele>60.5</ele>
        <time>2016-04-24T09:45:00Z</time>
      </trkpt>
      <trkpt lat="49.50701" lon="0.78541">
        <ele>59.4</ele>
        <time>2016-04-24T09:45:02Z</time>
      </trkpt>
      <trkpt lat="49.5069" lon="0.78549">
        <ele>58.6</ele>
        <time>2016-04-24T09:45:04Z</time>
      </trkpt>
      <trkpt lat="49.50681" lon="0.78556">
        <ele>57.8</ele>
        <time>2016-04-24T09:45:06Z</time>
      </trkpt>
      <trkpt lat="49.50674" lon="0.78567">
        <ele>57.1</ele>
        <time>2016-04-24T09:45:08Z</time>
      </trkpt>
      <trkpt lat="49.50667" lon="0.78579">
        <ele>56.3</ele>
        <time>2016-04-24T09:45:10Z</time>
      </trkpt>
      <trkpt lat="49.50659" lon="0.78595">
        <ele>55.5</ele>
        <time>2016-04-24T09:45:12Z</time>
      </trkpt>
      <trkpt lat="49.50653" lon="0.78612">
        <ele>54.7</ele>
        <time>2016-04-24T09:45:14Z</time>
      </trkpt>
      <trkpt lat="49.50647" lon="0.78629">
        <ele>53.9</ele>
        <time>2016-04-24T09:45:16Z</time>
      </trkpt>
      <trkpt lat="49.50642" lon="0.78647">
        <ele>53.1</ele>
        <time>2016-04-24T09:45:18Z</time>
      </trkpt>
      <trkpt lat="49.50638" lon="0.78665">
        <ele>52.3</ele>
        <time>2016-04-24T09:45:20Z</time>
      </trkpt>
      <trkpt lat="49.50637" lon="0.78684">
        <ele>51.6</ele>
        <time>2016-04-24T09:45:22Z</time>
      </trkpt>
      <trkpt lat="49.5064" lon="0.78703">
        <ele>50.7</ele>
        <time>2016-04-24T09:45:24Z</time>
      </trkpt>
      <trkpt lat="49.50645" lon="0.7872">
        <ele>49.8</ele>
        <time>2016-04-24T09:45:26Z</time>
      </trkpt>
      <trkpt lat="49.50652" lon="0.78735">
        <ele>48.9</ele>
        <time>2016-04-24T09:45:28Z</time>
      </trkpt>
      <trkpt lat="49.50654" lon="0.78751">
        <ele>48.1</ele>
        <time>2016-04-24T09:45:30Z</time>
      </trkpt>
      <trkpt lat="49.50654" lon="0.7877">
        <ele>47.1</ele>
        <time>2016-04-24T09:45:32Z</time>
      </trkpt>
      <trkpt lat="49.50651" lon="0.78789">
        <ele>46.2</ele>
        <time>2016-04-24T09:45:34Z</time>
      </trkpt>
      <trkpt lat="49.50647" lon="0.78809">
        <ele>45.3</ele>
        <time>2016-04-24T09:45:36Z</time>
      </trkpt>
      <trkpt lat="49.50641" lon="0.78828">
        <ele>44</ele>
        <time>2016-04-24T09:45:38Z</time>
      </trkpt>
      <trkpt lat="49.50636" lon="0.78849">
        <ele>42.9</ele>
        <time>2016-04-24T09:45:40Z</time>
      </trkpt>
      <trkpt lat="49.50629" lon="0.7887">
        <ele>42</ele>
        <time>2016-04-24T09:45:42Z</time>
      </trkpt>
      <trkpt lat="49.50626" lon="0.78891">
        <ele>41.1</ele>
        <time>2016-04-24T09:45:44Z</time>
      </trkpt>
      <trkpt lat="49.50622" lon="0.78914">
        <ele>40.3</ele>
        <time>2016-04-24T09:45:46Z</time>
      </trkpt>
      <trkpt lat="49.5062" lon="0.78937">
        <ele>39.2</ele>
        <time>2016-04-24T09:45:48Z</time>
      </trkpt>
      <trkpt lat="49.50618" lon="0.78957">
        <ele>38.2</ele>
        <time>2016-04-24T09:45:50Z</time>
      </trkpt>
      <trkpt lat="49.50614" lon="0.78972">
        <ele>36.9</ele>
        <time>2016-04-24T09:45:53Z</time>
      </trkpt>
      <trkpt lat="49.50605" lon="0.78977">
        <ele>35.8</ele>
        <time>2016-04-24T09:45:56Z</time>
      </trkpt>
      <trkpt lat="49.50595" lon="0.78974">
        <ele>34.2</ele>
        <time>2016-04-24T09:46:01Z</time>
      </trkpt>
      <trkpt lat="49.50587" lon="0.78964">
        <ele>32.7</ele>
        <time>2016-04-24T09:46:08Z</time>
      </trkpt>
      <trkpt lat="49.5058" lon="0.78954">
        <ele>31.9</ele>
        <time>2016-04-24T09:46:14Z</time>
      </trkpt>
      <trkpt lat="49.50574" lon="0.78943">
        <ele>31.6</ele>
        <time>2016-04-24T09:46:20Z</time>
      </trkpt>
      <trkpt lat="49.50568" lon="0.78931">
        <ele>31.4</ele>
        <time>2016-04-24T09:46:27Z</time>
      </trkpt>
      <trkpt lat="49.50561" lon="0.78919">
        <ele>31.5</ele>
        <time>2016-04-24T09:46:34Z</time>
      </trkpt>
      <trkpt lat="49.50556" lon="0.78906">
        <ele>31.9</ele>
        <time>2016-04-24T09:46:41Z</time>
      </trkpt>
      <trkpt lat="49.50549" lon="0.78891">
        <ele>32.5</ele>
        <time>2016-04-24T09:46:48Z</time>
      </trkpt>
      <trkpt lat="49.50544" lon="0.78877">
        <ele>33.1</ele>
        <time>2016-04-24T09:46:54Z</time>
      </trkpt>
      <trkpt lat="49.50538" lon="0.78865">
        <ele>33.7</ele>
        <time>2016-04-24T09:47:00Z</time>
      </trkpt>
      <trkpt lat="49.50532" lon="0.78853">
        <ele>34.5</ele>
        <time>2016-04-24T09:47:07Z</time>
      </trkpt>
      <trkpt lat="49.50524" lon="0.78844">
        <ele>35.1</ele>
        <time>2016-04-24T09:47:13Z</time>
      </trkpt>
      <trkpt lat="49.50516" lon="0.78838">
        <ele>35.9</ele>
        <time>2016-04-24T09:47:21Z</time>
      </trkpt>
      <trkpt lat="49.50508" lon="0.78831">
        <ele>36.5</ele>
        <time>2016-04-24T09:47:27Z</time>
      </trkpt>
      <trkpt lat="49.50498" lon="0.78827">
        <ele>37.1</ele>
        <time>2016-04-24T09:47:33Z</time>
      </trkpt>
      <trkpt lat="49.50489" lon="0.78823">
        <ele>37.8</ele>
        <time>2016-04-24T09:47:40Z</time>
      </trkpt>
      <trkpt lat="49.50479" lon="0.78823">
        <ele>38.5</ele>
        <time>2016-04-24T09:47:47Z</time>
      </trkpt>
      <trkpt lat="49.5047" lon="0.78824">
        <ele>38.9</ele>
        <time>2016-04-24T09:47:53Z</time>
      </trkpt>
      <trkpt lat="49.5046" lon="0.78827">
        <ele>39.6</ele>
        <time>2016-04-24T09:48:02Z</time>
      </trkpt>
      <trkpt lat="49.50451" lon="0.78832">
        <ele>40.2</ele>
        <time>2016-04-24T09:48:09Z</time>
      </trkpt>
      <trkpt lat="49.50442" lon="0.78837">
        <ele>41</ele>
        <time>2016-04-24T09:48:18Z</time>
      </trkpt>
      <trkpt lat="49.50434" lon="0.78846">
        <ele>41.6</ele>
        <time>2016-04-24T09:48:26Z</time>
      </trkpt>
      <trkpt lat="49.50425" lon="0.78853">
        <ele>42.2</ele>
        <time>2016-04-24T09:48:34Z</time>
      </trkpt>
      <trkpt lat="49.50418" lon="0.78863">
        <ele>42.9</ele>
        <time>2016-04-24T09:48:44Z</time>
      </trkpt>
      <trkpt lat="49.50411" lon="0.78872">
        <ele>43.5</ele>
        <time>2016-04-24T09:48:52Z</time>
      </trkpt>
      <trkpt lat="49.50402" lon="0.7888">
        <ele>44.1</ele>
        <time>2016-04-24T09:48:59Z</time>
      </trkpt>
      <trkpt lat="49.50394" lon="0.78888">
        <ele>44.7</ele>
        <time>2016-04-24T09:49:06Z</time>
      </trkpt>
      <trkpt lat="49.50388" lon="0.789">
        <ele>45.4</ele>
        <time>2016-04-24T09:49:15Z</time>
      </trkpt>
      <trkpt lat="49.50383" lon="0.78912">
        <ele>46.1</ele>
        <time>2016-04-24T09:49:23Z</time>
      </trkpt>
      <trkpt lat="49.50376" lon="0.78923">
        <ele>46.8</ele>
        <time>2016-04-24T09:49:31Z</time>
      </trkpt>
      <trkpt lat="49.5037" lon="0.78934">
        <ele>47.4</ele>
        <time>2016-04-24T09:49:40Z</time>
      </trkpt>
      <trkpt lat="49.50363" lon="0.78944">
        <ele>47.9</ele>
        <time>2016-04-24T09:49:48Z</time>
      </trkpt>
      <trkpt lat="49.50356" lon="0.78954">
        <ele>49.1</ele>
        <time>2016-04-24T09:49:54Z</time>
      </trkpt>
      <trkpt lat="49.5035" lon="0.78966">
        <ele>49.7</ele>
        <time>2016-04-24T09:50:02Z</time>
      </trkpt>
      <trkpt lat="49.50344" lon="0.78977">
        <ele>50</ele>
        <time>2016-04-24T09:50:12Z</time>
      </trkpt>
      <trkpt lat="49.50337" lon="0.78987">
        <ele>50.6</ele>
        <time>2016-04-24T09:50:19Z</time>
      </trkpt>
      <trkpt lat="49.5033" lon="0.78997">
        <ele>50.9</ele>
        <time>2016-04-24T09:50:24Z</time>
      </trkpt>
      <trkpt lat="49.50324" lon="0.79011">
        <ele>51.3</ele>
        <time>2016-04-24T09:50:30Z</time>
      </trkpt>
      <trkpt lat="49.50316" lon="0.7902">
        <ele>51.8</ele>
        <time>2016-04-24T09:50:40Z</time>
      </trkpt>
      <trkpt lat="49.5031" lon="0.79031">
        <ele>52.3</ele>
        <time>2016-04-24T09:50:48Z</time>
      </trkpt>
      <trkpt lat="49.50304" lon="0.79042">
        <ele>52.7</ele>
        <time>2016-04-24T09:50:53Z</time>
      </trkpt>
      <trkpt lat="49.50296" lon="0.79056">
        <ele>53</ele>
        <time>2016-04-24T09:50:59Z</time>
      </trkpt>
      <trkpt lat="49.50289" lon="0.79069">
        <ele>53.1</ele>
        <time>2016-04-24T09:51:04Z</time>
      </trkpt>
      <trkpt lat="49.50285" lon="0.79082">
        <ele>53.2</ele>
        <time>2016-04-24T09:51:09Z</time>
      </trkpt>
      <trkpt lat="49.50278" lon="0.79093">
        <ele>53.4</ele>
        <time>2016-04-24T09:51:12Z</time>
      </trkpt>
      <trkpt lat="49.50271" lon="0.79104">
        <ele>53.4</ele>
        <time>2016-04-24T09:51:16Z</time>
      </trkpt>
      <trkpt lat="49.50263" lon="0.79116">
        <ele>53.3</ele>
        <time>2016-04-24T09:51:21Z</time>
      </trkpt>
      <trkpt lat="49.50253" lon="0.79127">
        <ele>53.4</ele>
        <time>2016-04-24T09:51:25Z</time>
      </trkpt>
      <trkpt lat="49.50245" lon="0.79135">
        <ele>53.4</ele>
        <time>2016-04-24T09:51:28Z</time>
      </trkpt>
      <trkpt lat="49.50237" lon="0.79145">
        <ele>53.4</ele>
        <time>2016-04-24T09:51:32Z</time>
      </trkpt>
      <trkpt lat="49.50227" lon="0.79152">
        <ele>53.3</ele>
        <time>2016-04-24T09:51:35Z</time>
      </trkpt>
      <trkpt lat="49.50217" lon="0.79157">
        <ele>53.1</ele>
        <time>2016-04-24T09:51:39Z</time>
      </trkpt>
      <trkpt lat="49.50208" lon="0.79159">
        <ele>53</ele>
        <time>2016-04-24T09:51:42Z</time>
      </trkpt>
      <trkpt lat="49.50197" lon="0.79165">
        <ele>52.8</ele>
        <time>2016-04-24T09:51:46Z</time>
      </trkpt>
      <trkpt lat="49.50187" lon="0.79168">
        <ele>52.8</ele>
        <time>2016-04-24T09:51:49Z</time>
      </trkpt>
      <trkpt lat="49.50177" lon="0.79173">
        <ele>52.7</ele>
        <time>2016-04-24T09:51:53Z</time>
      </trkpt>
      <trkpt lat="49.50168" lon="0.7918">
        <ele>52.6</ele>
        <time>2016-04-24T09:51:57Z</time>
      </trkpt>
      <trkpt lat="49.5016" lon="0.79193">
        <ele>52.5</ele>
        <time>2016-04-24T09:52:01Z</time>
      </trkpt>
      <trkpt lat="49.50153" lon="0.79207">
        <ele>52.5</ele>
        <time>2016-04-24T09:52:05Z</time>
      </trkpt>
      <trkpt lat="49.50147" lon="0.79222">
        <ele>52.4</ele>
        <time>2016-04-24T09:52:09Z</time>
      </trkpt>
      <trkpt lat="49.5014" lon="0.79233">
        <ele>52.4</ele>
        <time>2016-04-24T09:52:12Z</time>
      </trkpt>
      <trkpt lat="49.50134" lon="0.79245">
        <ele>52.4</ele>
        <time>2016-04-24T09:52:15Z</time>
      </trkpt>
      <trkpt lat="49.50129" lon="0.79257">
        <ele>52.4</ele>
        <time>2016-04-24T09:52:18Z</time>
      </trkpt>
      <trkpt lat="49.50122" lon="0.79269">
        <ele>52.4</ele>
        <time>2016-04-24T09:52:21Z</time>
      </trkpt>
      <trkpt lat="49.50116" lon="0.79285">
        <ele>52.3</ele>
        <time>2016-04-24T09:52:25Z</time>
      </trkpt>
      <trkpt lat="49.50109" lon="0.79301">
        <ele>52.3</ele>
        <time>2016-04-24T09:52:28Z</time>
      </trkpt>
      <trkpt lat="49.50102" lon="0.79314">
        <ele>52</ele>
        <time>2016-04-24T09:52:31Z</time>
      </trkpt>
      <trkpt lat="49.50093" lon="0.79327">
        <ele>51.9</ele>
        <time>2016-04-24T09:52:35Z</time>
      </trkpt>
      <trkpt lat="49.50085" lon="0.7934">
        <ele>51.8</ele>
        <time>2016-04-24T09:52:39Z</time>
      </trkpt>
      <trkpt lat="49.50077" lon="0.79352">
        <ele>51.7</ele>
        <time>2016-04-24T09:52:42Z</time>
      </trkpt>
      <trkpt lat="49.50071" lon="0.79365">
        <ele>51.6</ele>
        <time>2016-04-24T09:52:45Z</time>
      </trkpt>
      <trkpt lat="49.50063" lon="0.79377">
        <ele>51.5</ele>
        <time>2016-04-24T09:52:48Z</time>
      </trkpt>
      <trkpt lat="49.50056" lon="0.79387">
        <ele>51.4</ele>
        <time>2016-04-24T09:52:51Z</time>
      </trkpt>
      <trkpt lat="49.5005" lon="0.79399">
        <ele>51.4</ele>
        <time>2016-04-24T09:52:54Z</time>
      </trkpt>
      <trkpt lat="49.50046" lon="0.79414">
        <ele>51.4</ele>
        <time>2016-04-24T09:52:58Z</time>
      </trkpt>
      <trkpt lat="49.50046" lon="0.7943">
        <ele>51.4</ele>
        <time>2016-04-24T09:53:02Z</time>
      </trkpt>
      <trkpt lat="49.50044" lon="0.79447">
        <ele>51.4</ele>
        <time>2016-04-24T09:53:06Z</time>
      </trkpt>
      <trkpt lat="49.50042" lon="0.79463">
        <ele>51.4</ele>
        <time>2016-04-24T09:53:10Z</time>
      </trkpt>
      <trkpt lat="49.50041" lon="0.79478">
        <ele>51.4</ele>
        <time>2016-04-24T09:53:14Z</time>
      </trkpt>
      <trkpt lat="49.50042" lon="0.79492">
        <ele>51.3</ele>
        <time>2016-04-24T09:53:18Z</time>
      </trkpt>
      <trkpt lat="49.50045" lon="0.79508">
        <ele>51.3</ele>
        <time>2016-04-24T09:53:22Z</time>
      </trkpt>
      <trkpt lat="49.50051" lon="0.7952">
        <ele>51.3</ele>
        <time>2016-04-24T09:53:25Z</time>
      </trkpt>
      <trkpt lat="49.5005" lon="0.79535">
        <ele>51.2</ele>
        <time>2016-04-24T09:53:29Z</time>
      </trkpt>
      <trkpt lat="49.50051" lon="0.79551">
        <ele>51.2</ele>
        <time>2016-04-24T09:53:32Z</time>
      </trkpt>
      <trkpt lat="49.50053" lon="0.79566">
        <ele>51.2</ele>
        <time>2016-04-24T09:53:36Z</time>
      </trkpt>
      <trkpt lat="49.50054" lon="0.79581">
        <ele>51.1</ele>
        <time>2016-04-24T09:53:40Z</time>
      </trkpt>
      <trkpt lat="49.50055" lon="0.79595">
        <ele>51.2</ele>
        <time>2016-04-24T09:53:44Z</time>
      </trkpt>
      <trkpt lat="49.50058" lon="0.79611">
        <ele>51.2</ele>
        <time>2016-04-24T09:53:48Z</time>
      </trkpt>
      <trkpt lat="49.5006" lon="0.79626">
        <ele>51.3</ele>
        <time>2016-04-24T09:53:51Z</time>
      </trkpt>
      <trkpt lat="49.50066" lon="0.79636">
        <ele>51.4</ele>
        <time>2016-04-24T09:53:54Z</time>
      </trkpt>
      <trkpt lat="49.50072" lon="0.7965">
        <ele>51.5</ele>
        <time>2016-04-24T09:53:58Z</time>
      </trkpt>
      <trkpt lat="49.50078" lon="0.79663">
        <ele>51.5</ele>
        <time>2016-04-24T09:54:01Z</time>
      </trkpt>
      <trkpt lat="49.50085" lon="0.79673">
        <ele>51.3</ele>
        <time>2016-04-24T09:54:04Z</time>
      </trkpt>
      <trkpt lat="49.50092" lon="0.79687">
        <ele>51</ele>
        <time>2016-04-24T09:54:07Z</time>
      </trkpt>
      <trkpt lat="49.50099" lon="0.79696">
        <ele>50.8</ele>
        <time>2016-04-24T09:54:09Z</time>
      </trkpt>
      <trkpt lat="49.50106" lon="0.79707">
        <ele>50.5</ele>
        <time>2016-04-24T09:54:11Z</time>
      </trkpt>
      <trkpt lat="49.50113" lon="0.79719">
        <ele>50.2</ele>
        <time>2016-04-24T09:54:13Z</time>
      </trkpt>
      <trkpt lat="49.5012" lon="0.79734">
        <ele>49.7</ele>
        <time>2016-04-24T09:54:15Z</time>
      </trkpt>
      <trkpt lat="49.50127" lon="0.79752">
        <ele>49.3</ele>
        <time>2016-04-24T09:54:17Z</time>
      </trkpt>
      <trkpt lat="49.50136" lon="0.7977">
        <ele>48.8</ele>
        <time>2016-04-24T09:54:19Z</time>
      </trkpt>
      <trkpt lat="49.50141" lon="0.79785">
        <ele>48.2</ele>
        <time>2016-04-24T09:54:21Z</time>
      </trkpt>
      <trkpt lat="49.50146" lon="0.798">
        <ele>47.5</ele>
        <time>2016-04-24T09:54:23Z</time>
      </trkpt>
      <trkpt lat="49.50152" lon="0.79816">
        <ele>46.8</ele>
        <time>2016-04-24T09:54:25Z</time>
      </trkpt>
      <trkpt lat="49.50159" lon="0.7983">
        <ele>46.1</ele>
        <time>2016-04-24T09:54:27Z</time>
      </trkpt>
      <trkpt lat="49.50164" lon="0.79845">
        <ele>45.6</ele>
        <time>2016-04-24T09:54:29Z</time>
      </trkpt>
      <trkpt lat="49.50161" lon="0.79859">
        <ele>45</ele>
        <time>2016-04-24T09:54:31Z</time>
      </trkpt>
      <trkpt lat="49.50155" lon="0.79869">
        <ele>44.2</ele>
        <time>2016-04-24T09:54:34Z</time>
      </trkpt>
      <trkpt lat="49.50146" lon="0.79869">
        <ele>43.1</ele>
        <time>2016-04-24T09:54:40Z</time>
      </trkpt>
      <trkpt lat="49.50136" lon="0.79859">
        <ele>42.5</ele>
        <time>2016-04-24T09:54:44Z</time>
      </trkpt>
      <trkpt lat="49.50126" lon="0.79851">
        <ele>42.1</ele>
        <time>2016-04-24T09:54:47Z</time>
      </trkpt>
      <trkpt lat="49.50117" lon="0.79847">
        <ele>41.4</ele>
        <time>2016-04-24T09:54:55Z</time>
      </trkpt>
      <trkpt lat="49.50108" lon="0.79847">
        <ele>40.8</ele>
        <time>2016-04-24T09:55:02Z</time>
      </trkpt>
      <trkpt lat="49.50098" lon="0.79844">
        <ele>40.2</ele>
        <time>2016-04-24T09:55:10Z</time>
      </trkpt>
      <trkpt lat="49.50089" lon="0.79843">
        <ele>40</ele>
        <time>2016-04-24T09:55:15Z</time>
      </trkpt>
      <trkpt lat="49.50078" lon="0.79843">
        <ele>39.9</ele>
        <time>2016-04-24T09:55:21Z</time>
      </trkpt>
      <trkpt lat="49.50068" lon="0.79842">
        <ele>39.9</ele>
        <time>2016-04-24T09:55:26Z</time>
      </trkpt>
      <trkpt lat="49.50058" lon="0.7984">
        <ele>40.1</ele>
        <time>2016-04-24T09:55:32Z</time>
      </trkpt>
      <trkpt lat="49.50049" lon="0.79836">
        <ele>40.5</ele>
        <time>2016-04-24T09:55:39Z</time>
      </trkpt>
      <trkpt lat="49.5004" lon="0.79836">
        <ele>40.7</ele>
        <time>2016-04-24T09:55:47Z</time>
      </trkpt>
      <trkpt lat="49.50031" lon="0.79833">
        <ele>41.1</ele>
        <time>2016-04-24T09:55:54Z</time>
      </trkpt>
      <trkpt lat="49.50021" lon="0.79831">
        <ele>41.4</ele>
        <time>2016-04-24T09:56:01Z</time>
      </trkpt>
      <trkpt lat="49.50012" lon="0.79832">
        <ele>41.8</ele>
        <time>2016-04-24T09:56:08Z</time>
      </trkpt>
      <trkpt lat="49.50002" lon="0.79833">
        <ele>42.4</ele>
        <time>2016-04-24T09:56:16Z</time>
      </trkpt>
      <trkpt lat="49.49993" lon="0.79833">
        <ele>43</ele>
        <time>2016-04-24T09:56:26Z</time>
      </trkpt>
      <trkpt lat="49.49983" lon="0.79833">
        <ele>43.6</ele>
        <time>2016-04-24T09:56:35Z</time>
      </trkpt>
      <trkpt lat="49.49974" lon="0.79835">
        <ele>44.1</ele>
        <time>2016-04-24T09:56:42Z</time>
      </trkpt>
      <trkpt lat="49.49964" lon="0.79838">
        <ele>44.3</ele>
        <time>2016-04-24T09:56:46Z</time>
      </trkpt>
      <trkpt lat="49.49955" lon="0.79841">
        <ele>44.5</ele>
        <time>2016-04-24T09:56:50Z</time>
      </trkpt>
      <trkpt lat="49.49946" lon="0.79842">
        <ele>44.9</ele>
        <time>2016-04-24T09:56:57Z</time>
      </trkpt>
      <trkpt lat="49.49936" lon="0.79841">
        <ele>45.3</ele>
        <time>2016-04-24T09:57:05Z</time>
      </trkpt>
      <trkpt lat="49.49927" lon="0.79841">
        <ele>45.6</ele>
        <time>2016-04-24T09:57:11Z</time>
      </trkpt>
      <trkpt lat="49.49917" lon="0.79843">
        <ele>46.2</ele>
        <time>2016-04-24T09:57:16Z</time>
      </trkpt>
      <trkpt lat="49.49908" lon="0.79841">
        <ele>46.7</ele>
        <time>2016-04-24T09:57:21Z</time>
      </trkpt>
      <trkpt lat="49.49898" lon="0.79838">
        <ele>47.2</ele>
        <time>2016-04-24T09:57:27Z</time>
      </trkpt>
      <trkpt lat="49.49889" lon="0.79832">
        <ele>47.6</ele>
        <time>2016-04-24T09:57:32Z</time>
      </trkpt>
      <trkpt lat="49.4988" lon="0.79822">
        <ele>48.1</ele>
        <time>2016-04-24T09:57:38Z</time>
      </trkpt>
      <trkpt lat="49.49874" lon="0.79812">
        <ele>48.7</ele>
        <time>2016-04-24T09:57:44Z</time>
      </trkpt>
      <trkpt lat="49.49869" lon="0.798">
        <ele>49.4</ele>
        <time>2016-04-24T09:57:49Z</time>
      </trkpt>
      <trkpt lat="49.49863" lon="0.7979">
        <ele>49.9</ele>
        <time>2016-04-24T09:57:54Z</time>
      </trkpt>
      <trkpt lat="49.49858" lon="0.79776">
        <ele>50.2</ele>
        <time>2016-04-24T09:57:58Z</time>
      </trkpt>
      <trkpt lat="49.49853" lon="0.79764">
        <ele>50.5</ele>
        <time>2016-04-24T09:58:02Z</time>
      </trkpt>
      <trkpt lat="49.49844" lon="0.79754">
        <ele>50.7</ele>
        <time>2016-04-24T09:58:06Z</time>
      </trkpt>
      <trkpt lat="49.49834" lon="0.79745">
        <ele>51</ele>
        <time>2016-04-24T09:58:11Z</time>
      </trkpt>
      <trkpt lat="49.49825" lon="0.79741">
        <ele>51.1</ele>
        <time>2016-04-24T09:58:14Z</time>
      </trkpt>
      <trkpt lat="49.49811" lon="0.79736">
        <ele>51.2</ele>
        <time>2016-04-24T09:58:17Z</time>
      </trkpt>
      <trkpt lat="49.49801" lon="0.79734">
        <ele>51.1</ele>
        <time>2016-04-24T09:58:19Z</time>
      </trkpt>
      <trkpt lat="49.49792" lon="0.79732">
        <ele>50.7</ele>
        <time>2016-04-24T09:58:21Z</time>
      </trkpt>
      <trkpt lat="49.49779" lon="0.79731">
        <ele>50.2</ele>
        <time>2016-04-24T09:58:24Z</time>
      </trkpt>
      <trkpt lat="49.4977" lon="0.79735">
        <ele>49.8</ele>
        <time>2016-04-24T09:58:26Z</time>
      </trkpt>
      <trkpt lat="49.49757" lon="0.79742">
        <ele>49.5</ele>
        <time>2016-04-24T09:58:29Z</time>
      </trkpt>
      <trkpt lat="49.49747" lon="0.79749">
        <ele>49.2</ele>
        <time>2016-04-24T09:58:31Z</time>
      </trkpt>
      <trkpt lat="49.49738" lon="0.79758">
        <ele>49</ele>
        <time>2016-04-24T09:58:33Z</time>
      </trkpt>
      <trkpt lat="49.49729" lon="0.79765">
        <ele>48.7</ele>
        <time>2016-04-24T09:58:35Z</time>
      </trkpt>
      <trkpt lat="49.4972" lon="0.79772">
        <ele>48.3</ele>
        <time>2016-04-24T09:58:37Z</time>
      </trkpt>
      <trkpt lat="49.4971" lon="0.79778">
        <ele>47.8</ele>
        <time>2016-04-24T09:58:39Z</time>
      </trkpt>
      <trkpt lat="49.497" lon="0.79784">
        <ele>47.2</ele>
        <time>2016-04-24T09:58:41Z</time>
      </trkpt>
      <trkpt lat="49.49689" lon="0.7979">
        <ele>46.6</ele>
        <time>2016-04-24T09:58:43Z</time>
      </trkpt>
      <trkpt lat="49.49678" lon="0.79798">
        <ele>45.9</ele>
        <time>2016-04-24T09:58:45Z</time>
      </trkpt>
      <trkpt lat="49.49667" lon="0.79808">
        <ele>45.3</ele>
        <time>2016-04-24T09:58:47Z</time>
      </trkpt>
      <trkpt lat="49.49659" lon="0.79814">
        <ele>44.9</ele>
        <time>2016-04-24T09:58:48Z</time>
      </trkpt>
      <trkpt lat="49.49648" lon="0.79819">
        <ele>44.1</ele>
        <time>2016-04-24T09:58:50Z</time>
      </trkpt>
      <trkpt lat="49.49638" lon="0.79824">
        <ele>42.8</ele>
        <time>2016-04-24T09:58:53Z</time>
      </trkpt>
      <trkpt lat="49.49633" lon="0.79841">
        <ele>41.6</ele>
        <time>2016-04-24T09:58:56Z</time>
      </trkpt>
      <trkpt lat="49.49631" lon="0.79856">
        <ele>40.3</ele>
        <time>2016-04-24T09:59:01Z</time>
      </trkpt>
      <trkpt lat="49.49628" lon="0.79872">
        <ele>39.6</ele>
        <time>2016-04-24T09:59:07Z</time>
      </trkpt>
      <trkpt lat="49.49624" lon="0.79887">
        <ele>39.2</ele>
        <time>2016-04-24T09:59:16Z</time>
      </trkpt>
      <trkpt lat="49.49623" lon="0.79904">
        <ele>39.2</ele>
        <time>2016-04-24T09:59:22Z</time>
      </trkpt>
      <trkpt lat="49.49621" lon="0.79918">
        <ele>39.5</ele>
        <time>2016-04-24T09:59:28Z</time>
      </trkpt>
      <trkpt lat="49.49617" lon="0.79932">
        <ele>39.9</ele>
        <time>2016-04-24T09:59:35Z</time>
      </trkpt>
      <trkpt lat="49.49615" lon="0.79947">
        <ele>40.5</ele>
        <time>2016-04-24T09:59:42Z</time>
      </trkpt>
      <trkpt lat="49.49612" lon="0.79961">
        <ele>41.2</ele>
        <time>2016-04-24T09:59:49Z</time>
      </trkpt>
      <trkpt lat="49.49614" lon="0.79977">
        <ele>41.5</ele>
        <time>2016-04-24T09:59:54Z</time>
      </trkpt>
      <trkpt lat="49.49614" lon="0.79991">
        <ele>41.7</ele>
        <time>2016-04-24T09:59:59Z</time>
      </trkpt>
      <trkpt lat="49.49608" lon="0.80005">
        <ele>41.8</ele>
        <time>2016-04-24T10:00:04Z</time>
      </trkpt>
      <trkpt lat="49.49602" lon="0.80019">
        <ele>41.9</ele>
        <time>2016-04-24T10:00:08Z</time>
      </trkpt>
      <trkpt lat="49.49598" lon="0.80032">
        <ele>42.1</ele>
        <time>2016-04-24T10:00:13Z</time>
      </trkpt>
      <trkpt lat="49.49592" lon="0.80044">
        <ele>42.4</ele>
        <time>2016-04-24T10:00:18Z</time>
      </trkpt>
      <trkpt lat="49.49586" lon="0.80057">
        <ele>42.6</ele>
        <time>2016-04-24T10:00:22Z</time>
      </trkpt>
      <trkpt lat="49.49579" lon="0.80066">
        <ele>42.6</ele>
        <time>2016-04-24T10:00:25Z</time>
      </trkpt>
      <trkpt lat="49.49568" lon="0.8007">
        <ele>42.7</ele>
        <time>2016-04-24T10:00:28Z</time>
      </trkpt>
      <trkpt lat="49.49556" lon="0.80066">
        <ele>42.6</ele>
        <time>2016-04-24T10:00:32Z</time>
      </trkpt>
      <trkpt lat="49.49546" lon="0.8006">
        <ele>42.5</ele>
        <time>2016-04-24T10:00:35Z</time>
      </trkpt>
      <trkpt lat="49.49537" lon="0.80055">
        <ele>42.4</ele>
        <time>2016-04-24T10:00:38Z</time>
      </trkpt>
      <trkpt lat="49.49525" lon="0.80054">
        <ele>42.3</ele>
        <time>2016-04-24T10:00:41Z</time>
      </trkpt>
      <trkpt lat="49.49513" lon="0.80061">
        <ele>42.1</ele>
        <time>2016-04-24T10:00:44Z</time>
      </trkpt>
      <trkpt lat="49.49505" lon="0.80068">
        <ele>41.8</ele>
        <time>2016-04-24T10:00:47Z</time>
      </trkpt>
      <trkpt lat="49.49497" lon="0.80076">
        <ele>41.6</ele>
        <time>2016-04-24T10:00:51Z</time>
      </trkpt>
      <trkpt lat="49.49489" lon="0.80085">
        <ele>41.5</ele>
        <time>2016-04-24T10:00:54Z</time>
      </trkpt>
      <trkpt lat="49.49481" lon="0.80095">
        <ele>41.5</ele>
        <time>2016-04-24T10:00:57Z</time>
      </trkpt>
      <trkpt lat="49.49477" lon="0.80109">
        <ele>41.7</ele>
        <time>2016-04-24T10:01:03Z</time>
      </trkpt>
      <trkpt lat="49.4947" lon="0.8012">
        <ele>42</ele>
        <time>2016-04-24T10:01:10Z</time>
      </trkpt>
      <trkpt lat="49.49463" lon="0.80131">
        <ele>42.6</ele>
        <time>2016-04-24T10:01:19Z</time>
      </trkpt>
      <trkpt lat="49.49455" lon="0.80145">
        <ele>43</ele>
        <time>2016-04-24T10:01:25Z</time>
      </trkpt>
      <trkpt lat="49.49448" lon="0.80155">
        <ele>43.5</ele>
        <time>2016-04-24T10:01:30Z</time>
      </trkpt>
      <trkpt lat="49.4944" lon="0.80162">
        <ele>44</ele>
        <time>2016-04-24T10:01:36Z</time>
      </trkpt>
      <trkpt lat="49.49432" lon="0.80169">
        <ele>44.8</ele>
        <time>2016-04-24T10:01:45Z</time>
      </trkpt>
      <trkpt lat="49.49426" lon="0.8018">
        <ele>45.6</ele>
        <time>2016-04-24T10:01:55Z</time>
      </trkpt>
      <trkpt lat="49.4942" lon="0.8019">
        <ele>46.2</ele>
        <time>2016-04-24T10:02:04Z</time>
      </trkpt>
      <trkpt lat="49.49411" lon="0.80198">
        <ele>47</ele>
        <time>2016-04-24T10:02:11Z</time>
      </trkpt>
      <trkpt lat="49.49406" lon="0.8021">
        <ele>47.4</ele>
        <time>2016-04-24T10:02:16Z</time>
      </trkpt>
      <trkpt lat="49.49398" lon="0.80219">
        <ele>48.1</ele>
        <time>2016-04-24T10:02:25Z</time>
      </trkpt>
      <trkpt lat="49.49389" lon="0.80224">
        <ele>48.8</ele>
        <time>2016-04-24T10:02:32Z</time>
      </trkpt>
      <trkpt lat="49.4938" lon="0.80229">
        <ele>49.5</ele>
        <time>2016-04-24T10:02:39Z</time>
      </trkpt>
      <trkpt lat="49.4937" lon="0.80235">
        <ele>49.9</ele>
        <time>2016-04-24T10:02:44Z</time>
      </trkpt>
      <trkpt lat="49.49361" lon="0.8024">
        <ele>50.5</ele>
        <time>2016-04-24T10:02:52Z</time>
      </trkpt>
      <trkpt lat="49.49353" lon="0.80249">
        <ele>51</ele>
        <time>2016-04-24T10:02:59Z</time>
      </trkpt>
      <trkpt lat="49.49345" lon="0.80258">
        <ele>51.6</ele>
        <time>2016-04-24T10:03:07Z</time>
      </trkpt>
      <trkpt lat="49.49337" lon="0.80266">
        <ele>52.1</ele>
        <time>2016-04-24T10:03:15Z</time>
      </trkpt>
      <trkpt lat="49.4933" lon="0.80275">
        <ele>52.6</ele>
        <time>2016-04-24T10:03:22Z</time>
      </trkpt>
      <trkpt lat="49.49323" lon="0.80285">
        <ele>53.7</ele>
        <time>2016-04-24T10:03:34Z</time>
      </trkpt>
      <trkpt lat="49.49315" lon="0.80292">
        <ele>54.4</ele>
        <time>2016-04-24T10:03:43Z</time>
      </trkpt>
      <trkpt lat="49.49307" lon="0.803">
        <ele>54.9</ele>
        <time>2016-04-24T10:03:50Z</time>
      </trkpt>
      <trkpt lat="49.49298" lon="0.80305">
        <ele>56.1</ele>
        <time>2016-04-24T10:04:15Z</time>
      </trkpt>
      <trkpt lat="49.49292" lon="0.80317">
        <ele>57.3</ele>
        <time>2016-04-24T10:04:34Z</time>
      </trkpt>
      <trkpt lat="49.49285" lon="0.80325">
        <ele>57.4</ele>
        <time>2016-04-24T10:04:44Z</time>
      </trkpt>
      <trkpt lat="49.49276" lon="0.80333">
        <ele>57.6</ele>
        <time>2016-04-24T10:04:53Z</time>
      </trkpt>
      <trkpt lat="49.49269" lon="0.80343">
        <ele>58</ele>
        <time>2016-04-24T10:05:00Z</time>
      </trkpt>
      <trkpt lat="49.49262" lon="0.80354">
        <ele>58.4</ele>
        <time>2016-04-24T10:05:08Z</time>
      </trkpt>
      <trkpt lat="49.49255" lon="0.80363">
        <ele>59.1</ele>
        <time>2016-04-24T10:05:18Z</time>
      </trkpt>
      <trkpt lat="49.4925" lon="0.80376">
        <ele>59.7</ele>
        <time>2016-04-24T10:05:26Z</time>
      </trkpt>
      <trkpt lat="49.49243" lon="0.80387">
        <ele>60.2</ele>
        <time>2016-04-24T10:05:32Z</time>
      </trkpt>
      <trkpt lat="49.49237" lon="0.80399">
        <ele>60.8</ele>
        <time>2016-04-24T10:05:39Z</time>
      </trkpt>
      <trkpt lat="49.4923" lon="0.8041">
        <ele>61.3</ele>
        <time>2016-04-24T10:05:47Z</time>
      </trkpt>
      <trkpt lat="49.49225" lon="0.80424">
        <ele>62</ele>
        <time>2016-04-24T10:05:56Z</time>
      </trkpt>
      <trkpt lat="49.49219" lon="0.80436">
        <ele>62.7</ele>
        <time>2016-04-24T10:06:04Z</time>
      </trkpt>
      <trkpt lat="49.49212" lon="0.80447">
        <ele>63.4</ele>
        <time>2016-04-24T10:06:12Z</time>
      </trkpt>
      <trkpt lat="49.49205" lon="0.80458">
        <ele>64</ele>
        <time>2016-04-24T10:06:19Z</time>
      </trkpt>
      <trkpt lat="49.49199" lon="0.8047">
        <ele>64.6</ele>
        <time>2016-04-24T10:06:29Z</time>
      </trkpt>
      <trkpt lat="49.49194" lon="0.80483">
        <ele>65.3</ele>
        <time>2016-04-24T10:06:37Z</time>
      </trkpt>
      <trkpt lat="49.49187" lon="0.80492">
        <ele>65.8</ele>
        <time>2016-04-24T10:06:43Z</time>
      </trkpt>
      <trkpt lat="49.49178" lon="0.805">
        <ele>66.4</ele>
        <time>2016-04-24T10:06:51Z</time>
      </trkpt>
      <trkpt lat="49.49171" lon="0.80509">
        <ele>66.9</ele>
        <time>2016-04-24T10:06:57Z</time>
      </trkpt>
      <trkpt lat="49.49165" lon="0.8052">
        <ele>67.5</ele>
        <time>2016-04-24T10:07:04Z</time>
      </trkpt>
      <trkpt lat="49.49157" lon="0.80527">
        <ele>67.8</ele>
        <time>2016-04-24T10:07:10Z</time>
      </trkpt>
      <trkpt lat="49.49149" lon="0.80536">
        <ele>68.6</ele>
        <time>2016-04-24T10:07:18Z</time>
      </trkpt>
      <trkpt lat="49.49143" lon="0.80546">
        <ele>69.2</ele>
        <time>2016-04-24T10:07:24Z</time>
      </trkpt>
      <trkpt lat="49.49134" lon="0.80555">
        <ele>69.7</ele>
        <time>2016-04-24T10:07:30Z</time>
      </trkpt>
      <trkpt lat="49.49127" lon="0.80565">
        <ele>70.2</ele>
        <time>2016-04-24T10:07:36Z</time>
      </trkpt>
      <trkpt lat="49.4912" lon="0.80576">
        <ele>70.7</ele>
        <time>2016-04-24T10:07:42Z</time>
      </trkpt>
      <trkpt lat="49.49113" lon="0.80587">
        <ele>71.2</ele>
        <time>2016-04-24T10:07:50Z</time>
      </trkpt>
      <trkpt lat="49.49105" lon="0.80596">
        <ele>71.5</ele>
        <time>2016-04-24T10:07:55Z</time>
      </trkpt>
      <trkpt lat="49.49098" lon="0.80605">
        <ele>71.7</ele>
        <time>2016-04-24T10:07:59Z</time>
      </trkpt>
      <trkpt lat="49.49093" lon="0.80619">
        <ele>71.9</ele>
        <time>2016-04-24T10:08:04Z</time>
      </trkpt>
      <trkpt lat="49.49095" lon="0.80633">
        <ele>72</ele>
        <time>2016-04-24T10:08:09Z</time>
      </trkpt>
      <trkpt lat="49.49101" lon="0.80646">
        <ele>72.1</ele>
        <time>2016-04-24T10:08:15Z</time>
      </trkpt>
      <trkpt lat="49.49107" lon="0.80657">
        <ele>72.6</ele>
        <time>2016-04-24T10:08:23Z</time>
      </trkpt>
      <trkpt lat="49.49115" lon="0.80665">
        <ele>73.3</ele>
        <time>2016-04-24T10:08:30Z</time>
      </trkpt>
      <trkpt lat="49.49123" lon="0.80675">
        <ele>73.7</ele>
        <time>2016-04-24T10:08:36Z</time>
      </trkpt>
      <trkpt lat="49.4913" lon="0.80685">
        <ele>73.8</ele>
        <time>2016-04-24T10:08:40Z</time>
      </trkpt>
      <trkpt lat="49.49119" lon="0.80689">
        <ele>73.5</ele>
        <time>2016-04-24T10:08:44Z</time>
      </trkpt>
      <trkpt lat="49.49106" lon="0.8069">
        <ele>72.9</ele>
        <time>2016-04-24T10:08:47Z</time>
      </trkpt>
      <trkpt lat="49.49094" lon="0.80698">
        <ele>72.2</ele>
        <time>2016-04-24T10:08:50Z</time>
      </trkpt>
      <trkpt lat="49.49085" lon="0.80703">
        <ele>71.5</ele>
        <time>2016-04-24T10:08:52Z</time>
      </trkpt>
      <trkpt lat="49.49077" lon="0.80709">
        <ele>70.8</ele>
        <time>2016-04-24T10:08:54Z</time>
      </trkpt>
      <trkpt lat="49.49068" lon="0.80718">
        <ele>70.1</ele>
        <time>2016-04-24T10:08:56Z</time>
      </trkpt>
      <trkpt lat="49.4906" lon="0.80728">
        <ele>69.3</ele>
        <time>2016-04-24T10:08:58Z</time>
      </trkpt>
      <trkpt lat="49.49054" lon="0.80738">
        <ele>68.3</ele>
        <time>2016-04-24T10:09:00Z</time>
      </trkpt>
      <trkpt lat="49.49048" lon="0.80751">
        <ele>66.8</ele>
        <time>2016-04-24T10:09:03Z</time>
      </trkpt>
      <trkpt lat="49.49036" lon="0.80763">
        <ele>65.2</ele>
        <time>2016-04-24T10:09:06Z</time>
      </trkpt>
      <trkpt lat="49.49026" lon="0.80773">
        <ele>64.1</ele>
        <time>2016-04-24T10:09:08Z</time>
      </trkpt>
      <trkpt lat="49.4901" lon="0.80781">
        <ele>62.9</ele>
        <time>2016-04-24T10:09:10Z</time>
      </trkpt>
      <trkpt lat="49.48994" lon="0.8079">
        <ele>61.3</ele>
        <time>2016-04-24T10:09:12Z</time>
      </trkpt>
      <trkpt lat="49.48983" lon="0.80795">
        <ele>60</ele>
        <time>2016-04-24T10:09:14Z</time>
      </trkpt>
      <trkpt lat="49.48973" lon="0.80799">
        <ele>58.7</ele>
        <time>2016-04-24T10:09:16Z</time>
      </trkpt>
      <trkpt lat="49.48962" lon="0.80805">
        <ele>57.3</ele>
        <time>2016-04-24T10:09:18Z</time>
      </trkpt>
      <trkpt lat="49.48954" lon="0.80813">
        <ele>55.7</ele>
        <time>2016-04-24T10:09:20Z</time>
      </trkpt>
      <trkpt lat="49.48945" lon="0.8082">
        <ele>54.1</ele>
        <time>2016-04-24T10:09:22Z</time>
      </trkpt>
      <trkpt lat="49.4893" lon="0.80824">
        <ele>52.6</ele>
        <time>2016-04-24T10:09:24Z</time>
      </trkpt>
      <trkpt lat="49.48917" lon="0.80822">
        <ele>51.2</ele>
        <time>2016-04-24T10:09:26Z</time>
      </trkpt>
      <trkpt lat="49.48905" lon="0.80814">
        <ele>49.8</ele>
        <time>2016-04-24T10:09:28Z</time>
      </trkpt>
      <trkpt lat="49.48894" lon="0.80806">
        <ele>48.2</ele>
        <time>2016-04-24T10:09:30Z</time>
      </trkpt>
      <trkpt lat="49.48883" lon="0.80803">
        <ele>46.9</ele>
        <time>2016-04-24T10:09:32Z</time>
      </trkpt>
      <trkpt lat="49.48874" lon="0.808">
        <ele>45.5</ele>
        <time>2016-04-24T10:09:34Z</time>
      </trkpt>
      <trkpt lat="49.48864" lon="0.80791">
        <ele>43.6</ele>
        <time>2016-04-24T10:09:37Z</time>
      </trkpt>
      <trkpt lat="49.48854" lon="0.80789">
        <ele>42</ele>
        <time>2016-04-24T10:09:40Z</time>
      </trkpt>
      <trkpt lat="49.48841" lon="0.80786">
        <ele>40.9</ele>
        <time>2016-04-24T10:09:42Z</time>
      </trkpt>
      <trkpt lat="49.48827" lon="0.80783">
        <ele>39.9</ele>
        <time>2016-04-24T10:09:44Z</time>
      </trkpt>
      <trkpt lat="49.48811" lon="0.80782">
        <ele>38.7</ele>
        <time>2016-04-24T10:09:46Z</time>
      </trkpt>
      <trkpt lat="49.48795" lon="0.80782">
        <ele>37.3</ele>
        <time>2016-04-24T10:09:48Z</time>
      </trkpt>
      <trkpt lat="49.48779" lon="0.80782">
        <ele>35.9</ele>
        <time>2016-04-24T10:09:50Z</time>
      </trkpt>
      <trkpt lat="49.48766" lon="0.80782">
        <ele>34.5</ele>
        <time>2016-04-24T10:09:52Z</time>
      </trkpt>
      <trkpt lat="49.48751" lon="0.80782">
        <ele>33</ele>
        <time>2016-04-24T10:09:54Z</time>
      </trkpt>
      <trkpt lat="49.48734" lon="0.80785">
        <ele>31.3</ele>
        <time>2016-04-24T10:09:56Z</time>
      </trkpt>
      <trkpt lat="49.48725" lon="0.80787">
        <ele>30.5</ele>
        <time>2016-04-24T10:09:57Z</time>
      </trkpt>
      <trkpt lat="49.48716" lon="0.80789">
        <ele>29.7</ele>
        <time>2016-04-24T10:09:58Z</time>
      </trkpt>
      <trkpt lat="49.48707" lon="0.80791">
        <ele>29</ele>
        <time>2016-04-24T10:09:59Z</time>
      </trkpt>
      <trkpt lat="49.48697" lon="0.80794">
        <ele>28.2</ele>
        <time>2016-04-24T10:10:00Z</time>
      </trkpt>
      <trkpt lat="49.48688" lon="0.80797">
        <ele>27.4</ele>
        <time>2016-04-24T10:10:01Z</time>
      </trkpt>
      <trkpt lat="49.48678" lon="0.80799">
        <ele>26.7</ele>
        <time>2016-04-24T10:10:02Z</time>
      </trkpt>
      <trkpt lat="49.48668" lon="0.80799">
        <ele>26</ele>
        <time>2016-04-24T10:10:03Z</time>
      </trkpt>
      <trkpt lat="49.48658" lon="0.80798">
        <ele>25.3</ele>
        <time>2016-04-24T10:10:04Z</time>
      </trkpt>
      <trkpt lat="49.48644" lon="0.80794">
        <ele>24</ele>
        <time>2016-04-24T10:10:06Z</time>
      </trkpt>
      <trkpt lat="49.48632" lon="0.80787">
        <ele>22.7</ele>
        <time>2016-04-24T10:10:08Z</time>
      </trkpt>
      <trkpt lat="49.48619" lon="0.80778">
        <ele>21.3</ele>
        <time>2016-04-24T10:10:10Z</time>
      </trkpt>
      <trkpt lat="49.48606" lon="0.80766">
        <ele>20.1</ele>
        <time>2016-04-24T10:10:12Z</time>
      </trkpt>
      <trkpt lat="49.48593" lon="0.80751">
        <ele>18.9</ele>
        <time>2016-04-24T10:10:14Z</time>
      </trkpt>
      <trkpt lat="49.48582" lon="0.80739">
        <ele>17.8</ele>
        <time>2016-04-24T10:10:16Z</time>
      </trkpt>
      <trkpt lat="49.48572" lon="0.80728">
        <ele>16.7</ele>
        <time>2016-04-24T10:10:18Z</time>
      </trkpt>
      <trkpt lat="49.48564" lon="0.80719">
        <ele>15.5</ele>
        <time>2016-04-24T10:10:20Z</time>
      </trkpt>
      <trkpt lat="49.48554" lon="0.80712">
        <ele>14.5</ele>
        <time>2016-04-24T10:10:22Z</time>
      </trkpt>
      <trkpt lat="49.48545" lon="0.80705">
        <ele>13.4</ele>
        <time>2016-04-24T10:10:24Z</time>
      </trkpt>
      <trkpt lat="49.48533" lon="0.80695">
        <ele>11.9</ele>
        <time>2016-04-24T10:10:27Z</time>
      </trkpt>
      <trkpt lat="49.48527" lon="0.8068">
        <ele>10.6</ele>
        <time>2016-04-24T10:10:30Z</time>
      </trkpt>
      <trkpt lat="49.48523" lon="0.80666">
        <ele>9.3</ele>
        <time>2016-04-24T10:10:33Z</time>
      </trkpt>
      <trkpt lat="49.48531" lon="0.80656">
        <ele>7.2</ele>
        <time>2016-04-24T10:10:39Z</time>
      </trkpt>
      <trkpt lat="49.48542" lon="0.80648">
        <ele>6.1</ele>
        <time>2016-04-24T10:10:43Z</time>
      </trkpt>
      <trkpt lat="49.48552" lon="0.80642">
        <ele>5.5</ele>
        <time>2016-04-24T10:10:46Z</time>
      </trkpt>
      <trkpt lat="49.4856" lon="0.80635">
        <ele>4.9</ele>
        <time>2016-04-24T10:10:49Z</time>
      </trkpt>
      <trkpt lat="49.48568" lon="0.80628">
        <ele>4.4</ele>
        <time>2016-04-24T10:10:52Z</time>
      </trkpt>
      <trkpt lat="49.48578" lon="0.80621">
        <ele>3.9</ele>
        <time>2016-04-24T10:10:56Z</time>
      </trkpt>
      <trkpt lat="49.48586" lon="0.80615">
        <ele>3.6</ele>
        <time>2016-04-24T10:10:59Z</time>
      </trkpt>
      <trkpt lat="49.48596" lon="0.80607">
        <ele>3.3</ele>
        <time>2016-04-24T10:11:02Z</time>
      </trkpt>
      <trkpt lat="49.48608" lon="0.80597">
        <ele>3.1</ele>
        <time>2016-04-24T10:11:05Z</time>
      </trkpt>
      <trkpt lat="49.48617" lon="0.8059">
        <ele>2.9</ele>
        <time>2016-04-24T10:11:07Z</time>
      </trkpt>
      <trkpt lat="49.48626" lon="0.80583">
        <ele>2.7</ele>
        <time>2016-04-24T10:11:09Z</time>
      </trkpt>
      <trkpt lat="49.48635" lon="0.80576">
        <ele>2.6</ele>
        <time>2016-04-24T10:11:11Z</time>
      </trkpt>
      <trkpt lat="49.48644" lon="0.80568">
        <ele>2.4</ele>
        <time>2016-04-24T10:11:13Z</time>
      </trkpt>
      <trkpt lat="49.48653" lon="0.80562">
        <ele>2.2</ele>
        <time>2016-04-24T10:11:15Z</time>
      </trkpt>
      <trkpt lat="49.48662" lon="0.80556">
        <ele>2</ele>
        <time>2016-04-24T10:11:17Z</time>
      </trkpt>
      <trkpt lat="49.48671" lon="0.80549">
        <ele>1.9</ele>
        <time>2016-04-24T10:11:19Z</time>
      </trkpt>
      <trkpt lat="49.4868" lon="0.80542">
        <ele>1.7</ele>
        <time>2016-04-24T10:11:21Z</time>
      </trkpt>
      <trkpt lat="49.48688" lon="0.80535">
        <ele>1.6</ele>
        <time>2016-04-24T10:11:23Z</time>
      </trkpt>
      <trkpt lat="49.48696" lon="0.80527">
        <ele>1.4</ele>
        <time>2016-04-24T10:11:25Z</time>
      </trkpt>
      <trkpt lat="49.48705" lon="0.80515">
        <ele>1.1</ele>
        <time>2016-04-24T10:11:28Z</time>
      </trkpt>
      <trkpt lat="49.48714" lon="0.80503">
        <ele>0.9</ele>
        <time>2016-04-24T10:11:31Z</time>
      </trkpt>
      <trkpt lat="49.48723" lon="0.80488">
        <ele>0.6</ele>
        <time>2016-04-24T10:11:34Z</time>
      </trkpt>
      <trkpt lat="49.48731" lon="0.80473">
        <ele>0.4</ele>
        <time>2016-04-24T10:11:37Z</time>
      </trkpt>
      <trkpt lat="49.48726" lon="0.80454">
        <ele>0.1</ele>
        <time>2016-04-24T10:11:40Z</time>
      </trkpt>
      <trkpt lat="49.48721" lon="0.80442">
        <ele>-0.1</ele>
        <time>2016-04-24T10:11:42Z</time>
      </trkpt>
      <trkpt lat="49.48716" lon="0.80428">
        <ele>-0.4</ele>
        <time>2016-04-24T10:11:44Z</time>
      </trkpt>
      <trkpt lat="49.48711" lon="0.80411">
        <ele>-0.8</ele>
        <time>2016-04-24T10:11:46Z</time>
      </trkpt>
      <trkpt lat="49.48702" lon="0.80396">
        <ele>-1.3</ele>
        <time>2016-04-24T10:11:48Z</time>
      </trkpt>
      <trkpt lat="49.48691" lon="0.80384">
        <ele>-1.6</ele>
        <time>2016-04-24T10:11:50Z</time>
      </trkpt>
      <trkpt lat="49.4868" lon="0.80375">
        <ele>-1.9</ele>
        <time>2016-04-24T10:11:52Z</time>
      </trkpt>
      <trkpt lat="49.48668" lon="0.80367">
        <ele>-2.2</ele>
        <time>2016-04-24T10:11:54Z</time>
      </trkpt>
      <trkpt lat="49.48656" lon="0.80359">
        <ele>-2.5</ele>
        <time>2016-04-24T10:11:56Z</time>
      </trkpt>
      <trkpt lat="49.48645" lon="0.80352">
        <ele>-2.8</ele>
        <time>2016-04-24T10:11:58Z</time>
      </trkpt>
      <trkpt lat="49.48635" lon="0.80345">
        <ele>-3.1</ele>
        <time>2016-04-24T10:12:00Z</time>
      </trkpt>
      <trkpt lat="49.48624" lon="0.80338">
        <ele>-3.3</ele>
        <time>2016-04-24T10:12:02Z</time>
      </trkpt>
      <trkpt lat="49.48614" lon="0.80333">
        <ele>-3.6</ele>
        <time>2016-04-24T10:12:04Z</time>
      </trkpt>
      <trkpt lat="49.48603" lon="0.80327">
        <ele>-3.8</ele>
        <time>2016-04-24T10:12:06Z</time>
      </trkpt>
      <trkpt lat="49.48593" lon="0.80322">
        <ele>-4.2</ele>
        <time>2016-04-24T10:12:08Z</time>
      </trkpt>
      <trkpt lat="49.48584" lon="0.80315">
        <ele>-4.6</ele>
        <time>2016-04-24T10:12:10Z</time>
      </trkpt>
      <trkpt lat="49.48575" lon="0.80309">
        <ele>-4.9</ele>
        <time>2016-04-24T10:12:12Z</time>
      </trkpt>
      <trkpt lat="49.48563" lon="0.80301">
        <ele>-5.3</ele>
        <time>2016-04-24T10:12:15Z</time>
      </trkpt>
      <trkpt lat="49.48551" lon="0.80292">
        <ele>-5.6</ele>
        <time>2016-04-24T10:12:18Z</time>
      </trkpt>
      <trkpt lat="49.48542" lon="0.80285">
        <ele>-5.7</ele>
        <time>2016-04-24T10:12:20Z</time>
      </trkpt>
      <trkpt lat="49.48533" lon="0.80278">
        <ele>-5.8</ele>
        <time>2016-04-24T10:12:22Z</time>
      </trkpt>
      <trkpt lat="49.48523" lon="0.80271">
        <ele>-5.9</ele>
        <time>2016-04-24T10:12:24Z</time>
      </trkpt>
      <trkpt lat="49.48513" lon="0.80264">
        <ele>-6</ele>
        <time>2016-04-24T10:12:26Z</time>
      </trkpt>
      <trkpt lat="49.48503" lon="0.80258">
        <ele>-6.1</ele>
        <time>2016-04-24T10:12:28Z</time>
      </trkpt>
      <trkpt lat="49.48494" lon="0.80252">
        <ele>-6.2</ele>
        <time>2016-04-24T10:12:30Z</time>
      </trkpt>
      <trkpt lat="49.48486" lon="0.80246">
        <ele>-6.2</ele>
        <time>2016-04-24T10:12:32Z</time>
      </trkpt>
      <trkpt lat="49.48477" lon="0.80239">
        <ele>-6.3</ele>
        <time>2016-04-24T10:12:34Z</time>
      </trkpt>
      <trkpt lat="49.48468" lon="0.80233">
        <ele>-6.3</ele>
        <time>2016-04-24T10:12:36Z</time>
      </trkpt>
      <trkpt lat="49.4846" lon="0.80227">
        <ele>-6.4</ele>
        <time>2016-04-24T10:12:38Z</time>
      </trkpt>
      <trkpt lat="49.48448" lon="0.80218">
        <ele>-6.4</ele>
        <time>2016-04-24T10:12:41Z</time>
      </trkpt>
      <trkpt lat="49.48437" lon="0.80211">
        <ele>-6.5</ele>
        <time>2016-04-24T10:12:44Z</time>
      </trkpt>
      <trkpt lat="49.48428" lon="0.80204">
        <ele>-6.5</ele>
        <time>2016-04-24T10:12:47Z</time>
      </trkpt>
      <trkpt lat="49.48418" lon="0.80205">
        <ele>-6.6</ele>
        <time>2016-04-24T10:12:51Z</time>
      </trkpt>
      <trkpt lat="49.4841" lon="0.80209">
        <ele>-6.7</ele>
        <time>2016-04-24T10:12:55Z</time>
      </trkpt>
      <trkpt lat="49.48401" lon="0.80218">
        <ele>-6.7</ele>
        <time>2016-04-24T10:12:59Z</time>
      </trkpt>
      <trkpt lat="49.48393" lon="0.80226">
        <ele>-6.7</ele>
        <time>2016-04-24T10:13:02Z</time>
      </trkpt>
      <trkpt lat="49.48387" lon="0.8024">
        <ele>-6.8</ele>
        <time>2016-04-24T10:13:06Z</time>
      </trkpt>
      <trkpt lat="49.48381" lon="0.80251">
        <ele>-6.8</ele>
        <time>2016-04-24T10:13:10Z</time>
      </trkpt>
      <trkpt lat="49.48372" lon="0.80248">
        <ele>-6.8</ele>
        <time>2016-04-24T10:13:16Z</time>
      </trkpt>
      <trkpt lat="49.48371" lon="0.80249">
        <ele>-6.7</ele>
        <time>2016-04-24T10:13:33Z</time>
      </trkpt>
    </trkseg>
  </trk>
</gpx>